<?xml version="1.0" encoding="UTF-8" standalone="no" ?>
<gpx xmlns="http://www.topografix.com/GPX/1/1" xmlns:xsi="http://www.w3.org/2001/XMLSchema-instance" xsi:schemaLocation="http://www.topografix.com/GPX/1/1 http://www.topografix.com/GPX/1/1/gpx.xsd" version="1.1" creator="VisuGPX - https://www.visugpx.com">
  <metadata>
    <name>Trans Volcano 2013</name>
    <desc><![CDATA[Le parcours de la Trans Volcano du 20/01/2013, pris le jour de la course]]></desc>
  </metadata>
  <trk>
    <name><![CDATA[Transvolcano]]></name>
    <trkseg>
      <trkpt lat="-21.20552" lon="55.56858">
        <ele>1535</ele>
        <time>2013-01-20T02:09:40Z</time>
      </trkpt>
      <trkpt lat="-21.20542" lon="55.56846">
        <ele>1535</ele>
        <time>2013-01-20T02:09:50Z</time>
      </trkpt>
      <trkpt lat="-21.20528" lon="55.56829">
        <ele>1535</ele>
        <time>2013-01-20T02:10:00Z</time>
      </trkpt>
      <trkpt lat="-21.20513" lon="55.56809">
        <ele>1535</ele>
        <time>2013-01-20T02:10:10Z</time>
      </trkpt>
      <trkpt lat="-21.20506" lon="55.56787">
        <ele>1535</ele>
        <time>2013-01-20T02:10:20Z</time>
      </trkpt>
      <trkpt lat="-21.20515" lon="55.56764">
        <ele>1534</ele>
        <time>2013-01-20T02:10:30Z</time>
      </trkpt>
      <trkpt lat="-21.20536" lon="55.56748">
        <ele>1533</ele>
        <time>2013-01-20T02:10:40Z</time>
      </trkpt>
      <trkpt lat="-21.20563" lon="55.56752">
        <ele>1533</ele>
        <time>2013-01-20T02:10:50Z</time>
      </trkpt>
      <trkpt lat="-21.2058" lon="55.5677">
        <ele>1534</ele>
        <time>2013-01-20T02:11:00Z</time>
      </trkpt>
      <trkpt lat="-21.20596" lon="55.56792">
        <ele>1533</ele>
        <time>2013-01-20T02:11:10Z</time>
      </trkpt>
      <trkpt lat="-21.20611" lon="55.56811">
        <ele>1533</ele>
        <time>2013-01-20T02:11:20Z</time>
      </trkpt>
      <trkpt lat="-21.20626" lon="55.56831">
        <ele>1533</ele>
        <time>2013-01-20T02:11:30Z</time>
      </trkpt>
      <trkpt lat="-21.2063" lon="55.56855">
        <ele>1534</ele>
        <time>2013-01-20T02:11:40Z</time>
      </trkpt>
      <trkpt lat="-21.20618" lon="55.56876">
        <ele>1534</ele>
        <time>2013-01-20T02:11:50Z</time>
      </trkpt>
      <trkpt lat="-21.20596" lon="55.56886">
        <ele>1534</ele>
        <time>2013-01-20T02:12:01Z</time>
      </trkpt>
      <trkpt lat="-21.20573" lon="55.56879">
        <ele>1534</ele>
        <time>2013-01-20T02:12:11Z</time>
      </trkpt>
      <trkpt lat="-21.20554" lon="55.56861">
        <ele>1533</ele>
        <time>2013-01-20T02:12:21Z</time>
      </trkpt>
      <trkpt lat="-21.20532" lon="55.56858">
        <ele>1534</ele>
        <time>2013-01-20T02:12:31Z</time>
      </trkpt>
      <trkpt lat="-21.20511" lon="55.56869">
        <ele>1537</ele>
        <time>2013-01-20T02:12:41Z</time>
      </trkpt>
      <trkpt lat="-21.20505" lon="55.56884">
        <ele>1539</ele>
        <time>2013-01-20T02:12:51Z</time>
      </trkpt>
      <trkpt lat="-21.20514" lon="55.56899">
        <ele>1538</ele>
        <time>2013-01-20T02:13:01Z</time>
      </trkpt>
      <trkpt lat="-21.20529" lon="55.56912">
        <ele>1538</ele>
        <time>2013-01-20T02:13:11Z</time>
      </trkpt>
      <trkpt lat="-21.20535" lon="55.5693">
        <ele>1540</ele>
        <time>2013-01-20T02:13:21Z</time>
      </trkpt>
      <trkpt lat="-21.20526" lon="55.56942">
        <ele>1543</ele>
        <time>2013-01-20T02:13:31Z</time>
      </trkpt>
      <trkpt lat="-21.2051" lon="55.56951">
        <ele>1543</ele>
        <time>2013-01-20T02:13:41Z</time>
      </trkpt>
      <trkpt lat="-21.20494" lon="55.56958">
        <ele>1544</ele>
        <time>2013-01-20T02:13:51Z</time>
      </trkpt>
      <trkpt lat="-21.20477" lon="55.56963">
        <ele>1547</ele>
        <time>2013-01-20T02:14:01Z</time>
      </trkpt>
      <trkpt lat="-21.2046" lon="55.56971">
        <ele>1548</ele>
        <time>2013-01-20T02:14:11Z</time>
      </trkpt>
      <trkpt lat="-21.20444" lon="55.56983">
        <ele>1549</ele>
        <time>2013-01-20T02:14:21Z</time>
      </trkpt>
      <trkpt lat="-21.20431" lon="55.56995">
        <ele>1550</ele>
        <time>2013-01-20T02:14:31Z</time>
      </trkpt>
      <trkpt lat="-21.20419" lon="55.57006">
        <ele>1551</ele>
        <time>2013-01-20T02:14:41Z</time>
      </trkpt>
      <trkpt lat="-21.2041" lon="55.57021">
        <ele>1551</ele>
        <time>2013-01-20T02:14:51Z</time>
      </trkpt>
      <trkpt lat="-21.20413" lon="55.57038">
        <ele>1553</ele>
        <time>2013-01-20T02:15:01Z</time>
      </trkpt>
      <trkpt lat="-21.20422" lon="55.57055">
        <ele>1555</ele>
        <time>2013-01-20T02:15:11Z</time>
      </trkpt>
      <trkpt lat="-21.20436" lon="55.57071">
        <ele>1555</ele>
        <time>2013-01-20T02:15:22Z</time>
      </trkpt>
      <trkpt lat="-21.20449" lon="55.57085">
        <ele>1556</ele>
        <time>2013-01-20T02:15:32Z</time>
      </trkpt>
      <trkpt lat="-21.20455" lon="55.57101">
        <ele>1556</ele>
        <time>2013-01-20T02:15:42Z</time>
      </trkpt>
      <trkpt lat="-21.20465" lon="55.57117">
        <ele>1558</ele>
        <time>2013-01-20T02:15:52Z</time>
      </trkpt>
      <trkpt lat="-21.20473" lon="55.57132">
        <ele>1559</ele>
        <time>2013-01-20T02:16:02Z</time>
      </trkpt>
      <trkpt lat="-21.20465" lon="55.57147">
        <ele>1559</ele>
        <time>2013-01-20T02:16:12Z</time>
      </trkpt>
      <trkpt lat="-21.20454" lon="55.57161">
        <ele>1561</ele>
        <time>2013-01-20T02:16:22Z</time>
      </trkpt>
      <trkpt lat="-21.2044" lon="55.57174">
        <ele>1561</ele>
        <time>2013-01-20T02:16:32Z</time>
      </trkpt>
      <trkpt lat="-21.20427" lon="55.57188">
        <ele>1563</ele>
        <time>2013-01-20T02:16:42Z</time>
      </trkpt>
      <trkpt lat="-21.20421" lon="55.57203">
        <ele>1563</ele>
        <time>2013-01-20T02:16:52Z</time>
      </trkpt>
      <trkpt lat="-21.20414" lon="55.57218">
        <ele>1564</ele>
        <time>2013-01-20T02:17:02Z</time>
      </trkpt>
      <trkpt lat="-21.20405" lon="55.57234">
        <ele>1565</ele>
        <time>2013-01-20T02:17:12Z</time>
      </trkpt>
      <trkpt lat="-21.20397" lon="55.57251">
        <ele>1566</ele>
        <time>2013-01-20T02:17:22Z</time>
      </trkpt>
      <trkpt lat="-21.2039" lon="55.57267">
        <ele>1566</ele>
        <time>2013-01-20T02:17:32Z</time>
      </trkpt>
      <trkpt lat="-21.20381" lon="55.57282">
        <ele>1567</ele>
        <time>2013-01-20T02:17:42Z</time>
      </trkpt>
      <trkpt lat="-21.20368" lon="55.57295">
        <ele>1568</ele>
        <time>2013-01-20T02:17:52Z</time>
      </trkpt>
      <trkpt lat="-21.20356" lon="55.57309">
        <ele>1568</ele>
        <time>2013-01-20T02:18:02Z</time>
      </trkpt>
      <trkpt lat="-21.20343" lon="55.57322">
        <ele>1568</ele>
        <time>2013-01-20T02:18:12Z</time>
      </trkpt>
      <trkpt lat="-21.20329" lon="55.57334">
        <ele>1569</ele>
        <time>2013-01-20T02:18:22Z</time>
      </trkpt>
      <trkpt lat="-21.20314" lon="55.57344">
        <ele>1572</ele>
        <time>2013-01-20T02:18:33Z</time>
      </trkpt>
      <trkpt lat="-21.20296" lon="55.57344">
        <ele>1572</ele>
        <time>2013-01-20T02:18:43Z</time>
      </trkpt>
      <trkpt lat="-21.20278" lon="55.57331">
        <ele>1572</ele>
        <time>2013-01-20T02:18:53Z</time>
      </trkpt>
      <trkpt lat="-21.20263" lon="55.57315">
        <ele>1574</ele>
        <time>2013-01-20T02:19:03Z</time>
      </trkpt>
      <trkpt lat="-21.20244" lon="55.573">
        <ele>1573</ele>
        <time>2013-01-20T02:19:13Z</time>
      </trkpt>
      <trkpt lat="-21.20226" lon="55.57285">
        <ele>1573</ele>
        <time>2013-01-20T02:19:23Z</time>
      </trkpt>
      <trkpt lat="-21.2021" lon="55.57269">
        <ele>1574</ele>
        <time>2013-01-20T02:19:33Z</time>
      </trkpt>
      <trkpt lat="-21.20193" lon="55.57252">
        <ele>1573</ele>
        <time>2013-01-20T02:19:43Z</time>
      </trkpt>
      <trkpt lat="-21.20177" lon="55.57236">
        <ele>1572</ele>
        <time>2013-01-20T02:19:53Z</time>
      </trkpt>
      <trkpt lat="-21.20157" lon="55.57219">
        <ele>1572</ele>
        <time>2013-01-20T02:20:03Z</time>
      </trkpt>
      <trkpt lat="-21.20135" lon="55.57211">
        <ele>1572</ele>
        <time>2013-01-20T02:20:13Z</time>
      </trkpt>
      <trkpt lat="-21.20114" lon="55.57205">
        <ele>1571</ele>
        <time>2013-01-20T02:20:23Z</time>
      </trkpt>
      <trkpt lat="-21.20094" lon="55.57202">
        <ele>1571</ele>
        <time>2013-01-20T02:20:33Z</time>
      </trkpt>
      <trkpt lat="-21.20074" lon="55.57199">
        <ele>1571</ele>
        <time>2013-01-20T02:20:43Z</time>
      </trkpt>
      <trkpt lat="-21.20054" lon="55.57193">
        <ele>1573</ele>
        <time>2013-01-20T02:20:54Z</time>
      </trkpt>
      <trkpt lat="-21.20034" lon="55.57188">
        <ele>1574</ele>
        <time>2013-01-20T02:21:04Z</time>
      </trkpt>
      <trkpt lat="-21.20013" lon="55.57182">
        <ele>1573</ele>
        <time>2013-01-20T02:21:14Z</time>
      </trkpt>
      <trkpt lat="-21.19993" lon="55.57177">
        <ele>1574</ele>
        <time>2013-01-20T02:21:24Z</time>
      </trkpt>
      <trkpt lat="-21.1997" lon="55.57173">
        <ele>1575</ele>
        <time>2013-01-20T02:21:34Z</time>
      </trkpt>
      <trkpt lat="-21.19948" lon="55.57167">
        <ele>1575</ele>
        <time>2013-01-20T02:21:44Z</time>
      </trkpt>
      <trkpt lat="-21.19927" lon="55.57161">
        <ele>1573</ele>
        <time>2013-01-20T02:21:54Z</time>
      </trkpt>
      <trkpt lat="-21.19903" lon="55.57154">
        <ele>1571</ele>
        <time>2013-01-20T02:22:04Z</time>
      </trkpt>
      <trkpt lat="-21.19883" lon="55.57153">
        <ele>1574</ele>
        <time>2013-01-20T02:22:14Z</time>
      </trkpt>
      <trkpt lat="-21.19886" lon="55.57172">
        <ele>1574</ele>
        <time>2013-01-20T02:22:24Z</time>
      </trkpt>
      <trkpt lat="-21.19893" lon="55.57193">
        <ele>1574</ele>
        <time>2013-01-20T02:22:34Z</time>
      </trkpt>
      <trkpt lat="-21.19889" lon="55.57212">
        <ele>1573</ele>
        <time>2013-01-20T02:22:44Z</time>
      </trkpt>
      <trkpt lat="-21.19877" lon="55.57229">
        <ele>1574</ele>
        <time>2013-01-20T02:22:54Z</time>
      </trkpt>
      <trkpt lat="-21.19861" lon="55.57241">
        <ele>1575</ele>
        <time>2013-01-20T02:23:04Z</time>
      </trkpt>
      <trkpt lat="-21.19844" lon="55.57251">
        <ele>1575</ele>
        <time>2013-01-20T02:23:14Z</time>
      </trkpt>
      <trkpt lat="-21.1983" lon="55.57263">
        <ele>1577</ele>
        <time>2013-01-20T02:23:24Z</time>
      </trkpt>
      <trkpt lat="-21.19814" lon="55.57278">
        <ele>1577</ele>
        <time>2013-01-20T02:23:34Z</time>
      </trkpt>
      <trkpt lat="-21.19801" lon="55.57295">
        <ele>1578</ele>
        <time>2013-01-20T02:23:45Z</time>
      </trkpt>
      <trkpt lat="-21.19791" lon="55.57314">
        <ele>1578</ele>
        <time>2013-01-20T02:23:55Z</time>
      </trkpt>
      <trkpt lat="-21.19782" lon="55.57335">
        <ele>1579</ele>
        <time>2013-01-20T02:24:05Z</time>
      </trkpt>
      <trkpt lat="-21.19774" lon="55.57353">
        <ele>1580</ele>
        <time>2013-01-20T02:24:15Z</time>
      </trkpt>
      <trkpt lat="-21.19767" lon="55.57374">
        <ele>1579</ele>
        <time>2013-01-20T02:24:25Z</time>
      </trkpt>
      <trkpt lat="-21.19768" lon="55.57396">
        <ele>1579</ele>
        <time>2013-01-20T02:24:35Z</time>
      </trkpt>
      <trkpt lat="-21.19771" lon="55.57418">
        <ele>1580</ele>
        <time>2013-01-20T02:24:45Z</time>
      </trkpt>
      <trkpt lat="-21.19779" lon="55.57438">
        <ele>1580</ele>
        <time>2013-01-20T02:24:55Z</time>
      </trkpt>
      <trkpt lat="-21.19785" lon="55.57455">
        <ele>1581</ele>
        <time>2013-01-20T02:25:05Z</time>
      </trkpt>
      <trkpt lat="-21.19792" lon="55.5747">
        <ele>1582</ele>
        <time>2013-01-20T02:25:15Z</time>
      </trkpt>
      <trkpt lat="-21.19797" lon="55.57488">
        <ele>1582</ele>
        <time>2013-01-20T02:25:25Z</time>
      </trkpt>
      <trkpt lat="-21.19801" lon="55.57502">
        <ele>1585</ele>
        <time>2013-01-20T02:25:35Z</time>
      </trkpt>
      <trkpt lat="-21.19798" lon="55.57519">
        <ele>1587</ele>
        <time>2013-01-20T02:25:45Z</time>
      </trkpt>
      <trkpt lat="-21.1979" lon="55.57536">
        <ele>1588</ele>
        <time>2013-01-20T02:25:55Z</time>
      </trkpt>
      <trkpt lat="-21.19783" lon="55.57554">
        <ele>1590</ele>
        <time>2013-01-20T02:26:05Z</time>
      </trkpt>
      <trkpt lat="-21.19776" lon="55.57574">
        <ele>1591</ele>
        <time>2013-01-20T02:26:15Z</time>
      </trkpt>
      <trkpt lat="-21.19768" lon="55.57595">
        <ele>1592</ele>
        <time>2013-01-20T02:26:25Z</time>
      </trkpt>
      <trkpt lat="-21.19758" lon="55.57613">
        <ele>1593</ele>
        <time>2013-01-20T02:26:35Z</time>
      </trkpt>
      <trkpt lat="-21.19748" lon="55.57629">
        <ele>1595</ele>
        <time>2013-01-20T02:26:45Z</time>
      </trkpt>
      <trkpt lat="-21.19739" lon="55.57641">
        <ele>1596</ele>
        <time>2013-01-20T02:26:56Z</time>
      </trkpt>
      <trkpt lat="-21.19733" lon="55.57655">
        <ele>1595</ele>
        <time>2013-01-20T02:27:06Z</time>
      </trkpt>
      <trkpt lat="-21.19729" lon="55.57671">
        <ele>1596</ele>
        <time>2013-01-20T02:27:16Z</time>
      </trkpt>
      <trkpt lat="-21.19724" lon="55.57685">
        <ele>1597</ele>
        <time>2013-01-20T02:27:26Z</time>
      </trkpt>
      <trkpt lat="-21.1972" lon="55.577">
        <ele>1598</ele>
        <time>2013-01-20T02:27:36Z</time>
      </trkpt>
      <trkpt lat="-21.19715" lon="55.57716">
        <ele>1599</ele>
        <time>2013-01-20T02:27:46Z</time>
      </trkpt>
      <trkpt lat="-21.19711" lon="55.57734">
        <ele>1600</ele>
        <time>2013-01-20T02:27:56Z</time>
      </trkpt>
      <trkpt lat="-21.19702" lon="55.57752">
        <ele>1600</ele>
        <time>2013-01-20T02:28:06Z</time>
      </trkpt>
      <trkpt lat="-21.19693" lon="55.5777">
        <ele>1601</ele>
        <time>2013-01-20T02:28:16Z</time>
      </trkpt>
      <trkpt lat="-21.19684" lon="55.57788">
        <ele>1603</ele>
        <time>2013-01-20T02:28:26Z</time>
      </trkpt>
      <trkpt lat="-21.19674" lon="55.57806">
        <ele>1604</ele>
        <time>2013-01-20T02:28:36Z</time>
      </trkpt>
      <trkpt lat="-21.19663" lon="55.57824">
        <ele>1604</ele>
        <time>2013-01-20T02:28:47Z</time>
      </trkpt>
      <trkpt lat="-21.19655" lon="55.57841">
        <ele>1606</ele>
        <time>2013-01-20T02:28:57Z</time>
      </trkpt>
      <trkpt lat="-21.19644" lon="55.57861">
        <ele>1605</ele>
        <time>2013-01-20T02:29:07Z</time>
      </trkpt>
      <trkpt lat="-21.19635" lon="55.57882">
        <ele>1604</ele>
        <time>2013-01-20T02:29:17Z</time>
      </trkpt>
      <trkpt lat="-21.19637" lon="55.57892">
        <ele>1604</ele>
        <time>2013-01-20T02:29:27Z</time>
      </trkpt>
      <trkpt lat="-21.19641" lon="55.57899">
        <ele>1602</ele>
        <time>2013-01-20T02:29:37Z</time>
      </trkpt>
      <trkpt lat="-21.19645" lon="55.57902">
        <ele>1602</ele>
        <time>2013-01-20T02:29:47Z</time>
      </trkpt>
      <trkpt lat="-21.19643" lon="55.57909">
        <ele>1603</ele>
        <time>2013-01-20T02:29:57Z</time>
      </trkpt>
      <trkpt lat="-21.19648" lon="55.5792">
        <ele>1606</ele>
        <time>2013-01-20T02:30:07Z</time>
      </trkpt>
      <trkpt lat="-21.19641" lon="55.57933">
        <ele>1608</ele>
        <time>2013-01-20T02:30:17Z</time>
      </trkpt>
      <trkpt lat="-21.19628" lon="55.57949">
        <ele>1608</ele>
        <time>2013-01-20T02:30:27Z</time>
      </trkpt>
      <trkpt lat="-21.19613" lon="55.57967">
        <ele>1608</ele>
        <time>2013-01-20T02:30:37Z</time>
      </trkpt>
      <trkpt lat="-21.19599" lon="55.57984">
        <ele>1607</ele>
        <time>2013-01-20T02:30:47Z</time>
      </trkpt>
      <trkpt lat="-21.19584" lon="55.57999">
        <ele>1609</ele>
        <time>2013-01-20T02:30:57Z</time>
      </trkpt>
      <trkpt lat="-21.1957" lon="55.58013">
        <ele>1608</ele>
        <time>2013-01-20T02:31:08Z</time>
      </trkpt>
      <trkpt lat="-21.19555" lon="55.58029">
        <ele>1609</ele>
        <time>2013-01-20T02:31:18Z</time>
      </trkpt>
      <trkpt lat="-21.19538" lon="55.58041">
        <ele>1608</ele>
        <time>2013-01-20T02:31:28Z</time>
      </trkpt>
      <trkpt lat="-21.19521" lon="55.58053">
        <ele>1609</ele>
        <time>2013-01-20T02:31:38Z</time>
      </trkpt>
      <trkpt lat="-21.19505" lon="55.58065">
        <ele>1609</ele>
        <time>2013-01-20T02:31:48Z</time>
      </trkpt>
      <trkpt lat="-21.19496" lon="55.58079">
        <ele>1610</ele>
        <time>2013-01-20T02:31:58Z</time>
      </trkpt>
      <trkpt lat="-21.1949" lon="55.58095">
        <ele>1614</ele>
        <time>2013-01-20T02:32:08Z</time>
      </trkpt>
      <trkpt lat="-21.19486" lon="55.58112">
        <ele>1614</ele>
        <time>2013-01-20T02:32:18Z</time>
      </trkpt>
      <trkpt lat="-21.19474" lon="55.58125">
        <ele>1613</ele>
        <time>2013-01-20T02:32:28Z</time>
      </trkpt>
      <trkpt lat="-21.19455" lon="55.58133">
        <ele>1613</ele>
        <time>2013-01-20T02:32:38Z</time>
      </trkpt>
      <trkpt lat="-21.19437" lon="55.58145">
        <ele>1614</ele>
        <time>2013-01-20T02:32:48Z</time>
      </trkpt>
      <trkpt lat="-21.19422" lon="55.58158">
        <ele>1616</ele>
        <time>2013-01-20T02:32:59Z</time>
      </trkpt>
      <trkpt lat="-21.19407" lon="55.58173">
        <ele>1616</ele>
        <time>2013-01-20T02:33:09Z</time>
      </trkpt>
      <trkpt lat="-21.19394" lon="55.5819">
        <ele>1615</ele>
        <time>2013-01-20T02:33:19Z</time>
      </trkpt>
      <trkpt lat="-21.19386" lon="55.58209">
        <ele>1615</ele>
        <time>2013-01-20T02:33:29Z</time>
      </trkpt>
      <trkpt lat="-21.19388" lon="55.5823">
        <ele>1616</ele>
        <time>2013-01-20T02:33:39Z</time>
      </trkpt>
      <trkpt lat="-21.19394" lon="55.5825">
        <ele>1616</ele>
        <time>2013-01-20T02:33:49Z</time>
      </trkpt>
      <trkpt lat="-21.19402" lon="55.5827">
        <ele>1616</ele>
        <time>2013-01-20T02:33:59Z</time>
      </trkpt>
      <trkpt lat="-21.19418" lon="55.58283">
        <ele>1616</ele>
        <time>2013-01-20T02:34:09Z</time>
      </trkpt>
      <trkpt lat="-21.19439" lon="55.58287">
        <ele>1617</ele>
        <time>2013-01-20T02:34:19Z</time>
      </trkpt>
      <trkpt lat="-21.1946" lon="55.5829">
        <ele>1617</ele>
        <time>2013-01-20T02:34:29Z</time>
      </trkpt>
      <trkpt lat="-21.19479" lon="55.58299">
        <ele>1618</ele>
        <time>2013-01-20T02:34:39Z</time>
      </trkpt>
      <trkpt lat="-21.195" lon="55.5831">
        <ele>1619</ele>
        <time>2013-01-20T02:34:49Z</time>
      </trkpt>
      <trkpt lat="-21.19516" lon="55.58323">
        <ele>1619</ele>
        <time>2013-01-20T02:34:59Z</time>
      </trkpt>
      <trkpt lat="-21.19529" lon="55.58336">
        <ele>1620</ele>
        <time>2013-01-20T02:35:09Z</time>
      </trkpt>
      <trkpt lat="-21.19542" lon="55.58348">
        <ele>1620</ele>
        <time>2013-01-20T02:35:19Z</time>
      </trkpt>
      <trkpt lat="-21.19551" lon="55.58362">
        <ele>1620</ele>
        <time>2013-01-20T02:35:29Z</time>
      </trkpt>
      <trkpt lat="-21.19556" lon="55.58376">
        <ele>1621</ele>
        <time>2013-01-20T02:35:40Z</time>
      </trkpt>
      <trkpt lat="-21.19563" lon="55.58388">
        <ele>1622</ele>
        <time>2013-01-20T02:35:50Z</time>
      </trkpt>
      <trkpt lat="-21.19566" lon="55.58396">
        <ele>1625</ele>
        <time>2013-01-20T02:36:00Z</time>
      </trkpt>
      <trkpt lat="-21.1958" lon="55.584">
        <ele>1626</ele>
        <time>2013-01-20T02:36:10Z</time>
      </trkpt>
      <trkpt lat="-21.19596" lon="55.58406">
        <ele>1625</ele>
        <time>2013-01-20T02:36:20Z</time>
      </trkpt>
      <trkpt lat="-21.1961" lon="55.58419">
        <ele>1624</ele>
        <time>2013-01-20T02:36:30Z</time>
      </trkpt>
      <trkpt lat="-21.19624" lon="55.5843">
        <ele>1624</ele>
        <time>2013-01-20T02:36:40Z</time>
      </trkpt>
      <trkpt lat="-21.19642" lon="55.58427">
        <ele>1625</ele>
        <time>2013-01-20T02:36:50Z</time>
      </trkpt>
      <trkpt lat="-21.19653" lon="55.58423">
        <ele>1629</ele>
        <time>2013-01-20T02:37:00Z</time>
      </trkpt>
      <trkpt lat="-21.19664" lon="55.58427">
        <ele>1631</ele>
        <time>2013-01-20T02:37:10Z</time>
      </trkpt>
      <trkpt lat="-21.19674" lon="55.58431">
        <ele>1633</ele>
        <time>2013-01-20T02:37:20Z</time>
      </trkpt>
      <trkpt lat="-21.19677" lon="55.58445">
        <ele>1635</ele>
        <time>2013-01-20T02:37:30Z</time>
      </trkpt>
      <trkpt lat="-21.19673" lon="55.58458">
        <ele>1633</ele>
        <time>2013-01-20T02:37:40Z</time>
      </trkpt>
      <trkpt lat="-21.19682" lon="55.58469">
        <ele>1633</ele>
        <time>2013-01-20T02:37:50Z</time>
      </trkpt>
      <trkpt lat="-21.19696" lon="55.58476">
        <ele>1634</ele>
        <time>2013-01-20T02:38:00Z</time>
      </trkpt>
      <trkpt lat="-21.19705" lon="55.58491">
        <ele>1634</ele>
        <time>2013-01-20T02:38:10Z</time>
      </trkpt>
      <trkpt lat="-21.1971" lon="55.58505">
        <ele>1634</ele>
        <time>2013-01-20T02:38:20Z</time>
      </trkpt>
      <trkpt lat="-21.1972" lon="55.58518">
        <ele>1635</ele>
        <time>2013-01-20T02:38:30Z</time>
      </trkpt>
      <trkpt lat="-21.1972" lon="55.58532">
        <ele>1636</ele>
        <time>2013-01-20T02:38:41Z</time>
      </trkpt>
      <trkpt lat="-21.19718" lon="55.58542">
        <ele>1635</ele>
        <time>2013-01-20T02:38:51Z</time>
      </trkpt>
      <trkpt lat="-21.19715" lon="55.58558">
        <ele>1633</ele>
        <time>2013-01-20T02:39:01Z</time>
      </trkpt>
      <trkpt lat="-21.1972" lon="55.58573">
        <ele>1631</ele>
        <time>2013-01-20T02:39:11Z</time>
      </trkpt>
      <trkpt lat="-21.1973" lon="55.58588">
        <ele>1631</ele>
        <time>2013-01-20T02:39:21Z</time>
      </trkpt>
      <trkpt lat="-21.1974" lon="55.58596">
        <ele>1632</ele>
        <time>2013-01-20T02:39:31Z</time>
      </trkpt>
      <trkpt lat="-21.19754" lon="55.58602">
        <ele>1632</ele>
        <time>2013-01-20T02:39:41Z</time>
      </trkpt>
      <trkpt lat="-21.19762" lon="55.58612">
        <ele>1635</ele>
        <time>2013-01-20T02:39:51Z</time>
      </trkpt>
      <trkpt lat="-21.19774" lon="55.58618">
        <ele>1637</ele>
        <time>2013-01-20T02:40:01Z</time>
      </trkpt>
      <trkpt lat="-21.19785" lon="55.58629">
        <ele>1636</ele>
        <time>2013-01-20T02:40:11Z</time>
      </trkpt>
      <trkpt lat="-21.19793" lon="55.58643">
        <ele>1635</ele>
        <time>2013-01-20T02:40:21Z</time>
      </trkpt>
      <trkpt lat="-21.19801" lon="55.58654">
        <ele>1636</ele>
        <time>2013-01-20T02:40:31Z</time>
      </trkpt>
      <trkpt lat="-21.19807" lon="55.58658">
        <ele>1640</ele>
        <time>2013-01-20T02:40:41Z</time>
      </trkpt>
      <trkpt lat="-21.19813" lon="55.58667">
        <ele>1645</ele>
        <time>2013-01-20T02:40:52Z</time>
      </trkpt>
      <trkpt lat="-21.19818" lon="55.58678">
        <ele>1647</ele>
        <time>2013-01-20T02:41:02Z</time>
      </trkpt>
      <trkpt lat="-21.19819" lon="55.58693">
        <ele>1648</ele>
        <time>2013-01-20T02:41:12Z</time>
      </trkpt>
      <trkpt lat="-21.1982" lon="55.58707">
        <ele>1648</ele>
        <time>2013-01-20T02:41:22Z</time>
      </trkpt>
      <trkpt lat="-21.19814" lon="55.58723">
        <ele>1646</ele>
        <time>2013-01-20T02:41:32Z</time>
      </trkpt>
      <trkpt lat="-21.19813" lon="55.58737">
        <ele>1647</ele>
        <time>2013-01-20T02:41:42Z</time>
      </trkpt>
      <trkpt lat="-21.19816" lon="55.58754">
        <ele>1649</ele>
        <time>2013-01-20T02:41:52Z</time>
      </trkpt>
      <trkpt lat="-21.19824" lon="55.5877">
        <ele>1650</ele>
        <time>2013-01-20T02:42:02Z</time>
      </trkpt>
      <trkpt lat="-21.19827" lon="55.58786">
        <ele>1648</ele>
        <time>2013-01-20T02:42:12Z</time>
      </trkpt>
      <trkpt lat="-21.19839" lon="55.58794">
        <ele>1649</ele>
        <time>2013-01-20T02:42:22Z</time>
      </trkpt>
      <trkpt lat="-21.19848" lon="55.58809">
        <ele>1650</ele>
        <time>2013-01-20T02:42:32Z</time>
      </trkpt>
      <trkpt lat="-21.19852" lon="55.58825">
        <ele>1650</ele>
        <time>2013-01-20T02:42:42Z</time>
      </trkpt>
      <trkpt lat="-21.1986" lon="55.58835">
        <ele>1651</ele>
        <time>2013-01-20T02:42:52Z</time>
      </trkpt>
      <trkpt lat="-21.19868" lon="55.5884">
        <ele>1654</ele>
        <time>2013-01-20T02:43:02Z</time>
      </trkpt>
      <trkpt lat="-21.19868" lon="55.5885">
        <ele>1656</ele>
        <time>2013-01-20T02:43:12Z</time>
      </trkpt>
      <trkpt lat="-21.19864" lon="55.58865">
        <ele>1661</ele>
        <time>2013-01-20T02:43:22Z</time>
      </trkpt>
      <trkpt lat="-21.1987" lon="55.58877">
        <ele>1659</ele>
        <time>2013-01-20T02:43:32Z</time>
      </trkpt>
      <trkpt lat="-21.19883" lon="55.58878">
        <ele>1660</ele>
        <time>2013-01-20T02:43:42Z</time>
      </trkpt>
      <trkpt lat="-21.19895" lon="55.58878">
        <ele>1663</ele>
        <time>2013-01-20T02:43:52Z</time>
      </trkpt>
      <trkpt lat="-21.19902" lon="55.5889">
        <ele>1665</ele>
        <time>2013-01-20T02:44:02Z</time>
      </trkpt>
      <trkpt lat="-21.19907" lon="55.58905">
        <ele>1666</ele>
        <time>2013-01-20T02:44:13Z</time>
      </trkpt>
      <trkpt lat="-21.19907" lon="55.5892">
        <ele>1667</ele>
        <time>2013-01-20T02:44:23Z</time>
      </trkpt>
      <trkpt lat="-21.19909" lon="55.58942">
        <ele>1664</ele>
        <time>2013-01-20T02:44:33Z</time>
      </trkpt>
      <trkpt lat="-21.1991" lon="55.58965">
        <ele>1663</ele>
        <time>2013-01-20T02:44:43Z</time>
      </trkpt>
      <trkpt lat="-21.19921" lon="55.58984">
        <ele>1660</ele>
        <time>2013-01-20T02:44:53Z</time>
      </trkpt>
      <trkpt lat="-21.1993" lon="55.59008">
        <ele>1660</ele>
        <time>2013-01-20T02:45:03Z</time>
      </trkpt>
      <trkpt lat="-21.19946" lon="55.59023">
        <ele>1662</ele>
        <time>2013-01-20T02:45:13Z</time>
      </trkpt>
      <trkpt lat="-21.19966" lon="55.59029">
        <ele>1663</ele>
        <time>2013-01-20T02:45:23Z</time>
      </trkpt>
      <trkpt lat="-21.19987" lon="55.59043">
        <ele>1664</ele>
        <time>2013-01-20T02:45:33Z</time>
      </trkpt>
      <trkpt lat="-21.19997" lon="55.59064">
        <ele>1665</ele>
        <time>2013-01-20T02:45:43Z</time>
      </trkpt>
      <trkpt lat="-21.19997" lon="55.59087">
        <ele>1665</ele>
        <time>2013-01-20T02:45:53Z</time>
      </trkpt>
      <trkpt lat="-21.19996" lon="55.5911">
        <ele>1665</ele>
        <time>2013-01-20T02:46:04Z</time>
      </trkpt>
      <trkpt lat="-21.19994" lon="55.59133">
        <ele>1665</ele>
        <time>2013-01-20T02:46:14Z</time>
      </trkpt>
      <trkpt lat="-21.19995" lon="55.59156">
        <ele>1666</ele>
        <time>2013-01-20T02:46:24Z</time>
      </trkpt>
      <trkpt lat="-21.19995" lon="55.59169">
        <ele>1666</ele>
        <time>2013-01-20T02:46:34Z</time>
      </trkpt>
      <trkpt lat="-21.19998" lon="55.59173">
        <ele>1666</ele>
        <time>2013-01-20T02:46:44Z</time>
      </trkpt>
      <trkpt lat="-21.19997" lon="55.59173">
        <ele>1666</ele>
        <time>2013-01-20T02:46:54Z</time>
      </trkpt>
      <trkpt lat="-21.19996" lon="55.59174">
        <ele>1666</ele>
        <time>2013-01-20T02:47:04Z</time>
      </trkpt>
      <trkpt lat="-21.19996" lon="55.59174">
        <ele>1665</ele>
        <time>2013-01-20T02:47:14Z</time>
      </trkpt>
      <trkpt lat="-21.19995" lon="55.59174">
        <ele>1665</ele>
        <time>2013-01-20T02:47:24Z</time>
      </trkpt>
      <trkpt lat="-21.19989" lon="55.59183">
        <ele>1665</ele>
        <time>2013-01-20T02:47:34Z</time>
      </trkpt>
      <trkpt lat="-21.19988" lon="55.59203">
        <ele>1666</ele>
        <time>2013-01-20T02:47:44Z</time>
      </trkpt>
      <trkpt lat="-21.19987" lon="55.59221">
        <ele>1667</ele>
        <time>2013-01-20T02:47:54Z</time>
      </trkpt>
      <trkpt lat="-21.19986" lon="55.5924">
        <ele>1668</ele>
        <time>2013-01-20T02:48:05Z</time>
      </trkpt>
      <trkpt lat="-21.19983" lon="55.59258">
        <ele>1669</ele>
        <time>2013-01-20T02:48:15Z</time>
      </trkpt>
      <trkpt lat="-21.19982" lon="55.59274">
        <ele>1672</ele>
        <time>2013-01-20T02:48:25Z</time>
      </trkpt>
      <trkpt lat="-21.19981" lon="55.59288">
        <ele>1674</ele>
        <time>2013-01-20T02:48:35Z</time>
      </trkpt>
      <trkpt lat="-21.1998" lon="55.59303">
        <ele>1676</ele>
        <time>2013-01-20T02:48:45Z</time>
      </trkpt>
      <trkpt lat="-21.19979" lon="55.59317">
        <ele>1677</ele>
        <time>2013-01-20T02:48:55Z</time>
      </trkpt>
      <trkpt lat="-21.19979" lon="55.59331">
        <ele>1678</ele>
        <time>2013-01-20T02:49:05Z</time>
      </trkpt>
      <trkpt lat="-21.19979" lon="55.59345">
        <ele>1680</ele>
        <time>2013-01-20T02:49:15Z</time>
      </trkpt>
      <trkpt lat="-21.19979" lon="55.59358">
        <ele>1681</ele>
        <time>2013-01-20T02:49:25Z</time>
      </trkpt>
      <trkpt lat="-21.19977" lon="55.59373">
        <ele>1683</ele>
        <time>2013-01-20T02:49:35Z</time>
      </trkpt>
      <trkpt lat="-21.19976" lon="55.59386">
        <ele>1685</ele>
        <time>2013-01-20T02:49:45Z</time>
      </trkpt>
      <trkpt lat="-21.19974" lon="55.59399">
        <ele>1686</ele>
        <time>2013-01-20T02:49:55Z</time>
      </trkpt>
      <trkpt lat="-21.19973" lon="55.59413">
        <ele>1688</ele>
        <time>2013-01-20T02:50:05Z</time>
      </trkpt>
      <trkpt lat="-21.19972" lon="55.59428">
        <ele>1689</ele>
        <time>2013-01-20T02:50:15Z</time>
      </trkpt>
      <trkpt lat="-21.19971" lon="55.59444">
        <ele>1690</ele>
        <time>2013-01-20T02:50:26Z</time>
      </trkpt>
      <trkpt lat="-21.19971" lon="55.59459">
        <ele>1692</ele>
        <time>2013-01-20T02:50:36Z</time>
      </trkpt>
      <trkpt lat="-21.1997" lon="55.59474">
        <ele>1693</ele>
        <time>2013-01-20T02:50:46Z</time>
      </trkpt>
      <trkpt lat="-21.19969" lon="55.5949">
        <ele>1694</ele>
        <time>2013-01-20T02:50:56Z</time>
      </trkpt>
      <trkpt lat="-21.19968" lon="55.59507">
        <ele>1693</ele>
        <time>2013-01-20T02:51:06Z</time>
      </trkpt>
      <trkpt lat="-21.19968" lon="55.59526">
        <ele>1692</ele>
        <time>2013-01-20T02:51:16Z</time>
      </trkpt>
      <trkpt lat="-21.19987" lon="55.59532">
        <ele>1691</ele>
        <time>2013-01-20T02:51:26Z</time>
      </trkpt>
      <trkpt lat="-21.20008" lon="55.59537">
        <ele>1689</ele>
        <time>2013-01-20T02:51:36Z</time>
      </trkpt>
      <trkpt lat="-21.20024" lon="55.59544">
        <ele>1688</ele>
        <time>2013-01-20T02:51:46Z</time>
      </trkpt>
      <trkpt lat="-21.20022" lon="55.59558">
        <ele>1688</ele>
        <time>2013-01-20T02:51:56Z</time>
      </trkpt>
      <trkpt lat="-21.20019" lon="55.59572">
        <ele>1689</ele>
        <time>2013-01-20T02:52:06Z</time>
      </trkpt>
      <trkpt lat="-21.20016" lon="55.59582">
        <ele>1690</ele>
        <time>2013-01-20T02:52:16Z</time>
      </trkpt>
      <trkpt lat="-21.20014" lon="55.59592">
        <ele>1692</ele>
        <time>2013-01-20T02:52:26Z</time>
      </trkpt>
      <trkpt lat="-21.20012" lon="55.59602">
        <ele>1693</ele>
        <time>2013-01-20T02:52:36Z</time>
      </trkpt>
      <trkpt lat="-21.2001" lon="55.59614">
        <ele>1695</ele>
        <time>2013-01-20T02:52:46Z</time>
      </trkpt>
      <trkpt lat="-21.20008" lon="55.59626">
        <ele>1696</ele>
        <time>2013-01-20T02:52:56Z</time>
      </trkpt>
      <trkpt lat="-21.20006" lon="55.59638">
        <ele>1697</ele>
        <time>2013-01-20T02:53:06Z</time>
      </trkpt>
      <trkpt lat="-21.20006" lon="55.59646">
        <ele>1699</ele>
        <time>2013-01-20T02:53:16Z</time>
      </trkpt>
      <trkpt lat="-21.20004" lon="55.59657">
        <ele>1702</ele>
        <time>2013-01-20T02:53:27Z</time>
      </trkpt>
      <trkpt lat="-21.20002" lon="55.59668">
        <ele>1703</ele>
        <time>2013-01-20T02:53:37Z</time>
      </trkpt>
      <trkpt lat="-21.20001" lon="55.59676">
        <ele>1705</ele>
        <time>2013-01-20T02:53:47Z</time>
      </trkpt>
      <trkpt lat="-21.2" lon="55.59684">
        <ele>1706</ele>
        <time>2013-01-20T02:53:57Z</time>
      </trkpt>
      <trkpt lat="-21.19998" lon="55.59693">
        <ele>1709</ele>
        <time>2013-01-20T02:54:07Z</time>
      </trkpt>
      <trkpt lat="-21.19996" lon="55.59702">
        <ele>1710</ele>
        <time>2013-01-20T02:54:17Z</time>
      </trkpt>
      <trkpt lat="-21.19995" lon="55.5971">
        <ele>1713</ele>
        <time>2013-01-20T02:54:27Z</time>
      </trkpt>
      <trkpt lat="-21.19993" lon="55.59723">
        <ele>1714</ele>
        <time>2013-01-20T02:54:37Z</time>
      </trkpt>
      <trkpt lat="-21.19991" lon="55.59737">
        <ele>1715</ele>
        <time>2013-01-20T02:54:47Z</time>
      </trkpt>
      <trkpt lat="-21.19989" lon="55.59748">
        <ele>1717</ele>
        <time>2013-01-20T02:54:57Z</time>
      </trkpt>
      <trkpt lat="-21.19987" lon="55.59759">
        <ele>1719</ele>
        <time>2013-01-20T02:55:07Z</time>
      </trkpt>
      <trkpt lat="-21.19986" lon="55.59763">
        <ele>1722</ele>
        <time>2013-01-20T02:55:17Z</time>
      </trkpt>
      <trkpt lat="-21.19985" lon="55.59771">
        <ele>1725</ele>
        <time>2013-01-20T02:55:27Z</time>
      </trkpt>
      <trkpt lat="-21.19983" lon="55.59778">
        <ele>1727</ele>
        <time>2013-01-20T02:55:37Z</time>
      </trkpt>
      <trkpt lat="-21.19983" lon="55.59783">
        <ele>1729</ele>
        <time>2013-01-20T02:55:47Z</time>
      </trkpt>
      <trkpt lat="-21.19983" lon="55.59787">
        <ele>1731</ele>
        <time>2013-01-20T02:55:57Z</time>
      </trkpt>
      <trkpt lat="-21.19982" lon="55.59792">
        <ele>1733</ele>
        <time>2013-01-20T02:56:08Z</time>
      </trkpt>
      <trkpt lat="-21.19982" lon="55.59797">
        <ele>1735</ele>
        <time>2013-01-20T02:56:18Z</time>
      </trkpt>
      <trkpt lat="-21.19979" lon="55.59802">
        <ele>1737</ele>
        <time>2013-01-20T02:56:28Z</time>
      </trkpt>
      <trkpt lat="-21.19978" lon="55.59808">
        <ele>1740</ele>
        <time>2013-01-20T02:56:38Z</time>
      </trkpt>
      <trkpt lat="-21.19976" lon="55.59818">
        <ele>1742</ele>
        <time>2013-01-20T02:56:48Z</time>
      </trkpt>
      <trkpt lat="-21.19975" lon="55.5983">
        <ele>1744</ele>
        <time>2013-01-20T02:56:58Z</time>
      </trkpt>
      <trkpt lat="-21.19973" lon="55.59843">
        <ele>1744</ele>
        <time>2013-01-20T02:57:08Z</time>
      </trkpt>
      <trkpt lat="-21.1997" lon="55.59852">
        <ele>1744</ele>
        <time>2013-01-20T02:57:18Z</time>
      </trkpt>
      <trkpt lat="-21.19968" lon="55.5986">
        <ele>1746</ele>
        <time>2013-01-20T02:57:28Z</time>
      </trkpt>
      <trkpt lat="-21.19967" lon="55.59869">
        <ele>1748</ele>
        <time>2013-01-20T02:57:38Z</time>
      </trkpt>
      <trkpt lat="-21.19965" lon="55.59879">
        <ele>1749</ele>
        <time>2013-01-20T02:57:48Z</time>
      </trkpt>
      <trkpt lat="-21.19963" lon="55.59895">
        <ele>1745</ele>
        <time>2013-01-20T02:57:58Z</time>
      </trkpt>
      <trkpt lat="-21.19959" lon="55.59916">
        <ele>1744</ele>
        <time>2013-01-20T02:58:08Z</time>
      </trkpt>
      <trkpt lat="-21.19958" lon="55.59931">
        <ele>1745</ele>
        <time>2013-01-20T02:58:18Z</time>
      </trkpt>
      <trkpt lat="-21.19955" lon="55.59948">
        <ele>1743</ele>
        <time>2013-01-20T02:58:28Z</time>
      </trkpt>
      <trkpt lat="-21.19953" lon="55.5997">
        <ele>1742</ele>
        <time>2013-01-20T02:58:39Z</time>
      </trkpt>
      <trkpt lat="-21.1995" lon="55.59987">
        <ele>1743</ele>
        <time>2013-01-20T02:58:49Z</time>
      </trkpt>
      <trkpt lat="-21.19946" lon="55.60003">
        <ele>1745</ele>
        <time>2013-01-20T02:58:59Z</time>
      </trkpt>
      <trkpt lat="-21.19944" lon="55.60021">
        <ele>1745</ele>
        <time>2013-01-20T02:59:09Z</time>
      </trkpt>
      <trkpt lat="-21.19941" lon="55.60039">
        <ele>1746</ele>
        <time>2013-01-20T02:59:19Z</time>
      </trkpt>
      <trkpt lat="-21.19938" lon="55.60057">
        <ele>1747</ele>
        <time>2013-01-20T02:59:29Z</time>
      </trkpt>
      <trkpt lat="-21.19935" lon="55.60071">
        <ele>1747</ele>
        <time>2013-01-20T02:59:39Z</time>
      </trkpt>
      <trkpt lat="-21.19933" lon="55.6008">
        <ele>1746</ele>
        <time>2013-01-20T02:59:49Z</time>
      </trkpt>
      <trkpt lat="-21.19932" lon="55.60093">
        <ele>1750</ele>
        <time>2013-01-20T02:59:59Z</time>
      </trkpt>
      <trkpt lat="-21.1993" lon="55.60108">
        <ele>1750</ele>
        <time>2013-01-20T03:00:09Z</time>
      </trkpt>
      <trkpt lat="-21.19929" lon="55.60119">
        <ele>1751</ele>
        <time>2013-01-20T03:00:19Z</time>
      </trkpt>
      <trkpt lat="-21.19925" lon="55.60134">
        <ele>1754</ele>
        <time>2013-01-20T03:00:29Z</time>
      </trkpt>
      <trkpt lat="-21.19922" lon="55.60148">
        <ele>1756</ele>
        <time>2013-01-20T03:00:40Z</time>
      </trkpt>
      <trkpt lat="-21.1992" lon="55.60162">
        <ele>1757</ele>
        <time>2013-01-20T03:00:50Z</time>
      </trkpt>
      <trkpt lat="-21.19914" lon="55.60168">
        <ele>1758</ele>
        <time>2013-01-20T03:01:00Z</time>
      </trkpt>
      <trkpt lat="-21.19911" lon="55.60179">
        <ele>1759</ele>
        <time>2013-01-20T03:01:10Z</time>
      </trkpt>
      <trkpt lat="-21.19901" lon="55.60189">
        <ele>1759</ele>
        <time>2013-01-20T03:01:20Z</time>
      </trkpt>
      <trkpt lat="-21.19889" lon="55.60194">
        <ele>1759</ele>
        <time>2013-01-20T03:01:30Z</time>
      </trkpt>
      <trkpt lat="-21.19881" lon="55.60199">
        <ele>1760</ele>
        <time>2013-01-20T03:01:40Z</time>
      </trkpt>
      <trkpt lat="-21.19871" lon="55.602">
        <ele>1762</ele>
        <time>2013-01-20T03:01:50Z</time>
      </trkpt>
      <trkpt lat="-21.19855" lon="55.60197">
        <ele>1762</ele>
        <time>2013-01-20T03:02:00Z</time>
      </trkpt>
      <trkpt lat="-21.19843" lon="55.60195">
        <ele>1761</ele>
        <time>2013-01-20T03:02:10Z</time>
      </trkpt>
      <trkpt lat="-21.19832" lon="55.60192">
        <ele>1763</ele>
        <time>2013-01-20T03:02:20Z</time>
      </trkpt>
      <trkpt lat="-21.19817" lon="55.6019">
        <ele>1766</ele>
        <time>2013-01-20T03:02:30Z</time>
      </trkpt>
      <trkpt lat="-21.19801" lon="55.60187">
        <ele>1764</ele>
        <time>2013-01-20T03:02:41Z</time>
      </trkpt>
      <trkpt lat="-21.19786" lon="55.60181">
        <ele>1762</ele>
        <time>2013-01-20T03:02:51Z</time>
      </trkpt>
      <trkpt lat="-21.1977" lon="55.60177">
        <ele>1761</ele>
        <time>2013-01-20T03:03:01Z</time>
      </trkpt>
      <trkpt lat="-21.19755" lon="55.60174">
        <ele>1760</ele>
        <time>2013-01-20T03:03:11Z</time>
      </trkpt>
      <trkpt lat="-21.19737" lon="55.60169">
        <ele>1758</ele>
        <time>2013-01-20T03:03:21Z</time>
      </trkpt>
      <trkpt lat="-21.19718" lon="55.60164">
        <ele>1756</ele>
        <time>2013-01-20T03:03:31Z</time>
      </trkpt>
      <trkpt lat="-21.19702" lon="55.6016">
        <ele>1754</ele>
        <time>2013-01-20T03:03:41Z</time>
      </trkpt>
      <trkpt lat="-21.19683" lon="55.60154">
        <ele>1755</ele>
        <time>2013-01-20T03:03:51Z</time>
      </trkpt>
      <trkpt lat="-21.19664" lon="55.6015">
        <ele>1753</ele>
        <time>2013-01-20T03:04:01Z</time>
      </trkpt>
      <trkpt lat="-21.19653" lon="55.60146">
        <ele>1750</ele>
        <time>2013-01-20T03:04:11Z</time>
      </trkpt>
      <trkpt lat="-21.19641" lon="55.60142">
        <ele>1745</ele>
        <time>2013-01-20T03:04:21Z</time>
      </trkpt>
      <trkpt lat="-21.19623" lon="55.60138">
        <ele>1743</ele>
        <time>2013-01-20T03:04:31Z</time>
      </trkpt>
      <trkpt lat="-21.19605" lon="55.60133">
        <ele>1742</ele>
        <time>2013-01-20T03:04:41Z</time>
      </trkpt>
      <trkpt lat="-21.19584" lon="55.60132">
        <ele>1743</ele>
        <time>2013-01-20T03:04:51Z</time>
      </trkpt>
      <trkpt lat="-21.19565" lon="55.60128">
        <ele>1743</ele>
        <time>2013-01-20T03:05:01Z</time>
      </trkpt>
      <trkpt lat="-21.19552" lon="55.60135">
        <ele>1745</ele>
        <time>2013-01-20T03:05:11Z</time>
      </trkpt>
      <trkpt lat="-21.19546" lon="55.60149">
        <ele>1745</ele>
        <time>2013-01-20T03:05:21Z</time>
      </trkpt>
      <trkpt lat="-21.19542" lon="55.60164">
        <ele>1747</ele>
        <time>2013-01-20T03:05:31Z</time>
      </trkpt>
      <trkpt lat="-21.19538" lon="55.60177">
        <ele>1748</ele>
        <time>2013-01-20T03:05:41Z</time>
      </trkpt>
      <trkpt lat="-21.19533" lon="55.60188">
        <ele>1748</ele>
        <time>2013-01-20T03:05:51Z</time>
      </trkpt>
      <trkpt lat="-21.19529" lon="55.60197">
        <ele>1749</ele>
        <time>2013-01-20T03:06:01Z</time>
      </trkpt>
      <trkpt lat="-21.19522" lon="55.60208">
        <ele>1750</ele>
        <time>2013-01-20T03:06:11Z</time>
      </trkpt>
      <trkpt lat="-21.19514" lon="55.60217">
        <ele>1751</ele>
        <time>2013-01-20T03:06:21Z</time>
      </trkpt>
      <trkpt lat="-21.19511" lon="55.60231">
        <ele>1752</ele>
        <time>2013-01-20T03:06:31Z</time>
      </trkpt>
      <trkpt lat="-21.19505" lon="55.60241">
        <ele>1753</ele>
        <time>2013-01-20T03:06:41Z</time>
      </trkpt>
      <trkpt lat="-21.19501" lon="55.60252">
        <ele>1755</ele>
        <time>2013-01-20T03:06:51Z</time>
      </trkpt>
      <trkpt lat="-21.195" lon="55.60264">
        <ele>1758</ele>
        <time>2013-01-20T03:07:02Z</time>
      </trkpt>
      <trkpt lat="-21.19505" lon="55.60275">
        <ele>1760</ele>
        <time>2013-01-20T03:07:12Z</time>
      </trkpt>
      <trkpt lat="-21.19506" lon="55.60283">
        <ele>1761</ele>
        <time>2013-01-20T03:07:22Z</time>
      </trkpt>
      <trkpt lat="-21.19505" lon="55.60291">
        <ele>1763</ele>
        <time>2013-01-20T03:07:32Z</time>
      </trkpt>
      <trkpt lat="-21.19501" lon="55.60299">
        <ele>1765</ele>
        <time>2013-01-20T03:07:42Z</time>
      </trkpt>
      <trkpt lat="-21.19493" lon="55.60306">
        <ele>1767</ele>
        <time>2013-01-20T03:07:52Z</time>
      </trkpt>
      <trkpt lat="-21.19486" lon="55.6031">
        <ele>1769</ele>
        <time>2013-01-20T03:08:02Z</time>
      </trkpt>
      <trkpt lat="-21.1948" lon="55.60319">
        <ele>1770</ele>
        <time>2013-01-20T03:08:12Z</time>
      </trkpt>
      <trkpt lat="-21.19482" lon="55.60324">
        <ele>1771</ele>
        <time>2013-01-20T03:08:22Z</time>
      </trkpt>
      <trkpt lat="-21.19486" lon="55.60329">
        <ele>1773</ele>
        <time>2013-01-20T03:08:32Z</time>
      </trkpt>
      <trkpt lat="-21.19497" lon="55.6033">
        <ele>1774</ele>
        <time>2013-01-20T03:08:42Z</time>
      </trkpt>
      <trkpt lat="-21.19506" lon="55.6033">
        <ele>1776</ele>
        <time>2013-01-20T03:08:52Z</time>
      </trkpt>
      <trkpt lat="-21.19514" lon="55.60334">
        <ele>1779</ele>
        <time>2013-01-20T03:09:02Z</time>
      </trkpt>
      <trkpt lat="-21.19515" lon="55.6034">
        <ele>1781</ele>
        <time>2013-01-20T03:09:12Z</time>
      </trkpt>
      <trkpt lat="-21.19511" lon="55.60349">
        <ele>1782</ele>
        <time>2013-01-20T03:09:22Z</time>
      </trkpt>
      <trkpt lat="-21.19507" lon="55.6036">
        <ele>1783</ele>
        <time>2013-01-20T03:09:32Z</time>
      </trkpt>
      <trkpt lat="-21.19506" lon="55.60373">
        <ele>1784</ele>
        <time>2013-01-20T03:09:42Z</time>
      </trkpt>
      <trkpt lat="-21.19511" lon="55.60384">
        <ele>1786</ele>
        <time>2013-01-20T03:09:52Z</time>
      </trkpt>
      <trkpt lat="-21.19518" lon="55.60394">
        <ele>1788</ele>
        <time>2013-01-20T03:10:02Z</time>
      </trkpt>
      <trkpt lat="-21.19524" lon="55.60403">
        <ele>1789</ele>
        <time>2013-01-20T03:10:13Z</time>
      </trkpt>
      <trkpt lat="-21.19531" lon="55.60411">
        <ele>1790</ele>
        <time>2013-01-20T03:10:23Z</time>
      </trkpt>
      <trkpt lat="-21.19537" lon="55.60421">
        <ele>1792</ele>
        <time>2013-01-20T03:10:33Z</time>
      </trkpt>
      <trkpt lat="-21.19542" lon="55.60434">
        <ele>1792</ele>
        <time>2013-01-20T03:10:43Z</time>
      </trkpt>
      <trkpt lat="-21.19545" lon="55.60445">
        <ele>1793</ele>
        <time>2013-01-20T03:10:53Z</time>
      </trkpt>
      <trkpt lat="-21.1955" lon="55.60457">
        <ele>1794</ele>
        <time>2013-01-20T03:11:03Z</time>
      </trkpt>
      <trkpt lat="-21.19555" lon="55.60469">
        <ele>1795</ele>
        <time>2013-01-20T03:11:13Z</time>
      </trkpt>
      <trkpt lat="-21.1956" lon="55.60483">
        <ele>1797</ele>
        <time>2013-01-20T03:11:23Z</time>
      </trkpt>
      <trkpt lat="-21.19566" lon="55.60495">
        <ele>1798</ele>
        <time>2013-01-20T03:11:34Z</time>
      </trkpt>
      <trkpt lat="-21.19574" lon="55.60508">
        <ele>1798</ele>
        <time>2013-01-20T03:11:44Z</time>
      </trkpt>
      <trkpt lat="-21.19584" lon="55.6052">
        <ele>1799</ele>
        <time>2013-01-20T03:11:54Z</time>
      </trkpt>
      <trkpt lat="-21.19595" lon="55.6053">
        <ele>1800</ele>
        <time>2013-01-20T03:12:04Z</time>
      </trkpt>
      <trkpt lat="-21.19605" lon="55.60537">
        <ele>1802</ele>
        <time>2013-01-20T03:12:14Z</time>
      </trkpt>
      <trkpt lat="-21.19613" lon="55.60544">
        <ele>1803</ele>
        <time>2013-01-20T03:12:24Z</time>
      </trkpt>
      <trkpt lat="-21.19622" lon="55.60552">
        <ele>1803</ele>
        <time>2013-01-20T03:12:34Z</time>
      </trkpt>
      <trkpt lat="-21.19634" lon="55.60558">
        <ele>1805</ele>
        <time>2013-01-20T03:12:44Z</time>
      </trkpt>
      <trkpt lat="-21.19646" lon="55.60563">
        <ele>1807</ele>
        <time>2013-01-20T03:12:54Z</time>
      </trkpt>
      <trkpt lat="-21.19658" lon="55.60571">
        <ele>1808</ele>
        <time>2013-01-20T03:13:04Z</time>
      </trkpt>
      <trkpt lat="-21.19668" lon="55.6058">
        <ele>1810</ele>
        <time>2013-01-20T03:13:14Z</time>
      </trkpt>
      <trkpt lat="-21.19679" lon="55.60586">
        <ele>1810</ele>
        <time>2013-01-20T03:13:24Z</time>
      </trkpt>
      <trkpt lat="-21.19689" lon="55.60592">
        <ele>1811</ele>
        <time>2013-01-20T03:13:34Z</time>
      </trkpt>
      <trkpt lat="-21.19698" lon="55.60599">
        <ele>1812</ele>
        <time>2013-01-20T03:13:44Z</time>
      </trkpt>
      <trkpt lat="-21.19708" lon="55.6061">
        <ele>1814</ele>
        <time>2013-01-20T03:13:54Z</time>
      </trkpt>
      <trkpt lat="-21.19722" lon="55.60621">
        <ele>1814</ele>
        <time>2013-01-20T03:14:04Z</time>
      </trkpt>
      <trkpt lat="-21.19729" lon="55.6063">
        <ele>1816</ele>
        <time>2013-01-20T03:14:14Z</time>
      </trkpt>
      <trkpt lat="-21.19732" lon="55.60632">
        <ele>1816</ele>
        <time>2013-01-20T03:14:24Z</time>
      </trkpt>
      <trkpt lat="-21.19733" lon="55.60632">
        <ele>1816</ele>
        <time>2013-01-20T03:14:34Z</time>
      </trkpt>
      <trkpt lat="-21.19729" lon="55.60636">
        <ele>1816</ele>
        <time>2013-01-20T03:14:44Z</time>
      </trkpt>
      <trkpt lat="-21.19723" lon="55.60638">
        <ele>1814</ele>
        <time>2013-01-20T03:14:55Z</time>
      </trkpt>
      <trkpt lat="-21.19718" lon="55.6064">
        <ele>1813</ele>
        <time>2013-01-20T03:15:05Z</time>
      </trkpt>
      <trkpt lat="-21.19712" lon="55.6064">
        <ele>1812</ele>
        <time>2013-01-20T03:15:15Z</time>
      </trkpt>
      <trkpt lat="-21.19698" lon="55.60643">
        <ele>1810</ele>
        <time>2013-01-20T03:15:25Z</time>
      </trkpt>
      <trkpt lat="-21.19682" lon="55.60646">
        <ele>1808</ele>
        <time>2013-01-20T03:15:35Z</time>
      </trkpt>
      <trkpt lat="-21.19664" lon="55.60648">
        <ele>1808</ele>
        <time>2013-01-20T03:15:45Z</time>
      </trkpt>
      <trkpt lat="-21.19649" lon="55.60648">
        <ele>1808</ele>
        <time>2013-01-20T03:15:55Z</time>
      </trkpt>
      <trkpt lat="-21.19634" lon="55.60646">
        <ele>1808</ele>
        <time>2013-01-20T03:16:05Z</time>
      </trkpt>
      <trkpt lat="-21.19621" lon="55.60642">
        <ele>1806</ele>
        <time>2013-01-20T03:16:15Z</time>
      </trkpt>
      <trkpt lat="-21.19605" lon="55.6064">
        <ele>1804</ele>
        <time>2013-01-20T03:16:25Z</time>
      </trkpt>
      <trkpt lat="-21.19588" lon="55.60638">
        <ele>1805</ele>
        <time>2013-01-20T03:16:35Z</time>
      </trkpt>
      <trkpt lat="-21.19566" lon="55.6064">
        <ele>1804</ele>
        <time>2013-01-20T03:16:45Z</time>
      </trkpt>
      <trkpt lat="-21.19545" lon="55.60636">
        <ele>1802</ele>
        <time>2013-01-20T03:16:55Z</time>
      </trkpt>
      <trkpt lat="-21.19526" lon="55.60638">
        <ele>1801</ele>
        <time>2013-01-20T03:17:05Z</time>
      </trkpt>
      <trkpt lat="-21.19507" lon="55.60636">
        <ele>1800</ele>
        <time>2013-01-20T03:17:15Z</time>
      </trkpt>
      <trkpt lat="-21.19489" lon="55.60634">
        <ele>1800</ele>
        <time>2013-01-20T03:17:25Z</time>
      </trkpt>
      <trkpt lat="-21.19475" lon="55.60633">
        <ele>1798</ele>
        <time>2013-01-20T03:17:36Z</time>
      </trkpt>
      <trkpt lat="-21.19457" lon="55.60634">
        <ele>1795</ele>
        <time>2013-01-20T03:17:46Z</time>
      </trkpt>
      <trkpt lat="-21.19443" lon="55.60644">
        <ele>1795</ele>
        <time>2013-01-20T03:17:56Z</time>
      </trkpt>
      <trkpt lat="-21.19435" lon="55.60632">
        <ele>1793</ele>
        <time>2013-01-20T03:18:06Z</time>
      </trkpt>
      <trkpt lat="-21.1942" lon="55.60624">
        <ele>1792</ele>
        <time>2013-01-20T03:18:16Z</time>
      </trkpt>
      <trkpt lat="-21.19407" lon="55.60618">
        <ele>1794</ele>
        <time>2013-01-20T03:18:26Z</time>
      </trkpt>
      <trkpt lat="-21.19411" lon="55.60603">
        <ele>1795</ele>
        <time>2013-01-20T03:18:36Z</time>
      </trkpt>
      <trkpt lat="-21.19419" lon="55.60592">
        <ele>1794</ele>
        <time>2013-01-20T03:18:46Z</time>
      </trkpt>
      <trkpt lat="-21.19422" lon="55.60576">
        <ele>1794</ele>
        <time>2013-01-20T03:18:56Z</time>
      </trkpt>
      <trkpt lat="-21.19409" lon="55.60569">
        <ele>1795</ele>
        <time>2013-01-20T03:19:06Z</time>
      </trkpt>
      <trkpt lat="-21.19396" lon="55.60563">
        <ele>1796</ele>
        <time>2013-01-20T03:19:16Z</time>
      </trkpt>
      <trkpt lat="-21.19384" lon="55.60563">
        <ele>1796</ele>
        <time>2013-01-20T03:19:26Z</time>
      </trkpt>
      <trkpt lat="-21.19374" lon="55.60557">
        <ele>1797</ele>
        <time>2013-01-20T03:19:36Z</time>
      </trkpt>
      <trkpt lat="-21.19374" lon="55.60565">
        <ele>1799</ele>
        <time>2013-01-20T03:19:47Z</time>
      </trkpt>
      <trkpt lat="-21.19376" lon="55.6058">
        <ele>1798</ele>
        <time>2013-01-20T03:19:57Z</time>
      </trkpt>
      <trkpt lat="-21.19378" lon="55.60592">
        <ele>1799</ele>
        <time>2013-01-20T03:20:07Z</time>
      </trkpt>
      <trkpt lat="-21.1938" lon="55.60606">
        <ele>1801</ele>
        <time>2013-01-20T03:20:17Z</time>
      </trkpt>
      <trkpt lat="-21.19382" lon="55.60622">
        <ele>1801</ele>
        <time>2013-01-20T03:20:27Z</time>
      </trkpt>
      <trkpt lat="-21.19385" lon="55.60636">
        <ele>1801</ele>
        <time>2013-01-20T03:20:37Z</time>
      </trkpt>
      <trkpt lat="-21.19387" lon="55.60644">
        <ele>1801</ele>
        <time>2013-01-20T03:20:47Z</time>
      </trkpt>
      <trkpt lat="-21.1939" lon="55.60658">
        <ele>1802</ele>
        <time>2013-01-20T03:20:57Z</time>
      </trkpt>
      <trkpt lat="-21.19394" lon="55.60676">
        <ele>1801</ele>
        <time>2013-01-20T03:21:07Z</time>
      </trkpt>
      <trkpt lat="-21.19393" lon="55.60686">
        <ele>1798</ele>
        <time>2013-01-20T03:21:17Z</time>
      </trkpt>
      <trkpt lat="-21.19397" lon="55.60699">
        <ele>1795</ele>
        <time>2013-01-20T03:21:27Z</time>
      </trkpt>
      <trkpt lat="-21.19399" lon="55.60706">
        <ele>1797</ele>
        <time>2013-01-20T03:21:37Z</time>
      </trkpt>
      <trkpt lat="-21.194" lon="55.60714">
        <ele>1801</ele>
        <time>2013-01-20T03:21:47Z</time>
      </trkpt>
      <trkpt lat="-21.19403" lon="55.60723">
        <ele>1804</ele>
        <time>2013-01-20T03:21:57Z</time>
      </trkpt>
      <trkpt lat="-21.19404" lon="55.60732">
        <ele>1806</ele>
        <time>2013-01-20T03:22:08Z</time>
      </trkpt>
      <trkpt lat="-21.19407" lon="55.60743">
        <ele>1810</ele>
        <time>2013-01-20T03:22:18Z</time>
      </trkpt>
      <trkpt lat="-21.1941" lon="55.60757">
        <ele>1810</ele>
        <time>2013-01-20T03:22:28Z</time>
      </trkpt>
      <trkpt lat="-21.19412" lon="55.6077">
        <ele>1811</ele>
        <time>2013-01-20T03:22:38Z</time>
      </trkpt>
      <trkpt lat="-21.19411" lon="55.60778">
        <ele>1814</ele>
        <time>2013-01-20T03:22:48Z</time>
      </trkpt>
      <trkpt lat="-21.19401" lon="55.60778">
        <ele>1814</ele>
        <time>2013-01-20T03:22:58Z</time>
      </trkpt>
      <trkpt lat="-21.19389" lon="55.60777">
        <ele>1815</ele>
        <time>2013-01-20T03:23:08Z</time>
      </trkpt>
      <trkpt lat="-21.19374" lon="55.60772">
        <ele>1814</ele>
        <time>2013-01-20T03:23:18Z</time>
      </trkpt>
      <trkpt lat="-21.19363" lon="55.60767">
        <ele>1811</ele>
        <time>2013-01-20T03:23:28Z</time>
      </trkpt>
      <trkpt lat="-21.19348" lon="55.60762">
        <ele>1809</ele>
        <time>2013-01-20T03:23:38Z</time>
      </trkpt>
      <trkpt lat="-21.1934" lon="55.6076">
        <ele>1812</ele>
        <time>2013-01-20T03:23:48Z</time>
      </trkpt>
      <trkpt lat="-21.19329" lon="55.60757">
        <ele>1812</ele>
        <time>2013-01-20T03:23:59Z</time>
      </trkpt>
      <trkpt lat="-21.19316" lon="55.60752">
        <ele>1811</ele>
        <time>2013-01-20T03:24:09Z</time>
      </trkpt>
      <trkpt lat="-21.19301" lon="55.60745">
        <ele>1810</ele>
        <time>2013-01-20T03:24:19Z</time>
      </trkpt>
      <trkpt lat="-21.19286" lon="55.60739">
        <ele>1809</ele>
        <time>2013-01-20T03:24:29Z</time>
      </trkpt>
      <trkpt lat="-21.1927" lon="55.60733">
        <ele>1809</ele>
        <time>2013-01-20T03:24:39Z</time>
      </trkpt>
      <trkpt lat="-21.19256" lon="55.60726">
        <ele>1808</ele>
        <time>2013-01-20T03:24:49Z</time>
      </trkpt>
      <trkpt lat="-21.19245" lon="55.6072">
        <ele>1808</ele>
        <time>2013-01-20T03:24:59Z</time>
      </trkpt>
      <trkpt lat="-21.1923" lon="55.6072">
        <ele>1809</ele>
        <time>2013-01-20T03:25:09Z</time>
      </trkpt>
      <trkpt lat="-21.19227" lon="55.60733">
        <ele>1810</ele>
        <time>2013-01-20T03:25:19Z</time>
      </trkpt>
      <trkpt lat="-21.19233" lon="55.60748">
        <ele>1811</ele>
        <time>2013-01-20T03:25:29Z</time>
      </trkpt>
      <trkpt lat="-21.19237" lon="55.60764">
        <ele>1811</ele>
        <time>2013-01-20T03:25:39Z</time>
      </trkpt>
      <trkpt lat="-21.19241" lon="55.60775">
        <ele>1813</ele>
        <time>2013-01-20T03:25:49Z</time>
      </trkpt>
      <trkpt lat="-21.19247" lon="55.60784">
        <ele>1815</ele>
        <time>2013-01-20T03:25:59Z</time>
      </trkpt>
      <trkpt lat="-21.19254" lon="55.60799">
        <ele>1816</ele>
        <time>2013-01-20T03:26:09Z</time>
      </trkpt>
      <trkpt lat="-21.19258" lon="55.60813">
        <ele>1816</ele>
        <time>2013-01-20T03:26:19Z</time>
      </trkpt>
      <trkpt lat="-21.19262" lon="55.60825">
        <ele>1817</ele>
        <time>2013-01-20T03:26:29Z</time>
      </trkpt>
      <trkpt lat="-21.19266" lon="55.60838">
        <ele>1818</ele>
        <time>2013-01-20T03:26:40Z</time>
      </trkpt>
      <trkpt lat="-21.19269" lon="55.60847">
        <ele>1818</ele>
        <time>2013-01-20T03:26:50Z</time>
      </trkpt>
      <trkpt lat="-21.19273" lon="55.6086">
        <ele>1819</ele>
        <time>2013-01-20T03:27:00Z</time>
      </trkpt>
      <trkpt lat="-21.19278" lon="55.60872">
        <ele>1821</ele>
        <time>2013-01-20T03:27:10Z</time>
      </trkpt>
      <trkpt lat="-21.19283" lon="55.60882">
        <ele>1822</ele>
        <time>2013-01-20T03:27:20Z</time>
      </trkpt>
      <trkpt lat="-21.19288" lon="55.60892">
        <ele>1825</ele>
        <time>2013-01-20T03:27:30Z</time>
      </trkpt>
      <trkpt lat="-21.19291" lon="55.60902">
        <ele>1828</ele>
        <time>2013-01-20T03:27:40Z</time>
      </trkpt>
      <trkpt lat="-21.19295" lon="55.6091">
        <ele>1830</ele>
        <time>2013-01-20T03:27:50Z</time>
      </trkpt>
      <trkpt lat="-21.19299" lon="55.60919">
        <ele>1832</ele>
        <time>2013-01-20T03:28:00Z</time>
      </trkpt>
      <trkpt lat="-21.19304" lon="55.60932">
        <ele>1833</ele>
        <time>2013-01-20T03:28:10Z</time>
      </trkpt>
      <trkpt lat="-21.19307" lon="55.60944">
        <ele>1835</ele>
        <time>2013-01-20T03:28:20Z</time>
      </trkpt>
      <trkpt lat="-21.19312" lon="55.60953">
        <ele>1837</ele>
        <time>2013-01-20T03:28:30Z</time>
      </trkpt>
      <trkpt lat="-21.19317" lon="55.60968">
        <ele>1838</ele>
        <time>2013-01-20T03:28:40Z</time>
      </trkpt>
      <trkpt lat="-21.19322" lon="55.60982">
        <ele>1838</ele>
        <time>2013-01-20T03:28:50Z</time>
      </trkpt>
      <trkpt lat="-21.19326" lon="55.60997">
        <ele>1839</ele>
        <time>2013-01-20T03:29:00Z</time>
      </trkpt>
      <trkpt lat="-21.1933" lon="55.61009">
        <ele>1840</ele>
        <time>2013-01-20T03:29:10Z</time>
      </trkpt>
      <trkpt lat="-21.19335" lon="55.61023">
        <ele>1842</ele>
        <time>2013-01-20T03:29:20Z</time>
      </trkpt>
      <trkpt lat="-21.1934" lon="55.61036">
        <ele>1842</ele>
        <time>2013-01-20T03:29:30Z</time>
      </trkpt>
      <trkpt lat="-21.19344" lon="55.6105">
        <ele>1844</ele>
        <time>2013-01-20T03:29:41Z</time>
      </trkpt>
      <trkpt lat="-21.19348" lon="55.6106">
        <ele>1846</ele>
        <time>2013-01-20T03:29:51Z</time>
      </trkpt>
      <trkpt lat="-21.19353" lon="55.61071">
        <ele>1847</ele>
        <time>2013-01-20T03:30:01Z</time>
      </trkpt>
      <trkpt lat="-21.19355" lon="55.61082">
        <ele>1850</ele>
        <time>2013-01-20T03:30:11Z</time>
      </trkpt>
      <trkpt lat="-21.19357" lon="55.61091">
        <ele>1853</ele>
        <time>2013-01-20T03:30:21Z</time>
      </trkpt>
      <trkpt lat="-21.19362" lon="55.61099">
        <ele>1854</ele>
        <time>2013-01-20T03:30:31Z</time>
      </trkpt>
      <trkpt lat="-21.19366" lon="55.61109">
        <ele>1856</ele>
        <time>2013-01-20T03:30:41Z</time>
      </trkpt>
      <trkpt lat="-21.19372" lon="55.61123">
        <ele>1857</ele>
        <time>2013-01-20T03:30:51Z</time>
      </trkpt>
      <trkpt lat="-21.19376" lon="55.61136">
        <ele>1858</ele>
        <time>2013-01-20T03:31:01Z</time>
      </trkpt>
      <trkpt lat="-21.19381" lon="55.6115">
        <ele>1859</ele>
        <time>2013-01-20T03:31:11Z</time>
      </trkpt>
      <trkpt lat="-21.19381" lon="55.61166">
        <ele>1859</ele>
        <time>2013-01-20T03:31:21Z</time>
      </trkpt>
      <trkpt lat="-21.19386" lon="55.61177">
        <ele>1860</ele>
        <time>2013-01-20T03:31:31Z</time>
      </trkpt>
      <trkpt lat="-21.1939" lon="55.61188">
        <ele>1860</ele>
        <time>2013-01-20T03:31:41Z</time>
      </trkpt>
      <trkpt lat="-21.19391" lon="55.61198">
        <ele>1862</ele>
        <time>2013-01-20T03:31:52Z</time>
      </trkpt>
      <trkpt lat="-21.19397" lon="55.61204">
        <ele>1864</ele>
        <time>2013-01-20T03:32:02Z</time>
      </trkpt>
      <trkpt lat="-21.19398" lon="55.61212">
        <ele>1867</ele>
        <time>2013-01-20T03:32:12Z</time>
      </trkpt>
      <trkpt lat="-21.19398" lon="55.61222">
        <ele>1869</ele>
        <time>2013-01-20T03:32:22Z</time>
      </trkpt>
      <trkpt lat="-21.194" lon="55.61231">
        <ele>1871</ele>
        <time>2013-01-20T03:32:32Z</time>
      </trkpt>
      <trkpt lat="-21.194" lon="55.61241">
        <ele>1873</ele>
        <time>2013-01-20T03:32:42Z</time>
      </trkpt>
      <trkpt lat="-21.19398" lon="55.61248">
        <ele>1875</ele>
        <time>2013-01-20T03:32:52Z</time>
      </trkpt>
      <trkpt lat="-21.19397" lon="55.61256">
        <ele>1877</ele>
        <time>2013-01-20T03:33:02Z</time>
      </trkpt>
      <trkpt lat="-21.19396" lon="55.61264">
        <ele>1879</ele>
        <time>2013-01-20T03:33:12Z</time>
      </trkpt>
      <trkpt lat="-21.19401" lon="55.61275">
        <ele>1881</ele>
        <time>2013-01-20T03:33:22Z</time>
      </trkpt>
      <trkpt lat="-21.19407" lon="55.61285">
        <ele>1881</ele>
        <time>2013-01-20T03:33:32Z</time>
      </trkpt>
      <trkpt lat="-21.19407" lon="55.61299">
        <ele>1883</ele>
        <time>2013-01-20T03:33:42Z</time>
      </trkpt>
      <trkpt lat="-21.19412" lon="55.61309">
        <ele>1883</ele>
        <time>2013-01-20T03:33:52Z</time>
      </trkpt>
      <trkpt lat="-21.19415" lon="55.61321">
        <ele>1885</ele>
        <time>2013-01-20T03:34:02Z</time>
      </trkpt>
      <trkpt lat="-21.19415" lon="55.61329">
        <ele>1888</ele>
        <time>2013-01-20T03:34:12Z</time>
      </trkpt>
      <trkpt lat="-21.19416" lon="55.6134">
        <ele>1890</ele>
        <time>2013-01-20T03:34:23Z</time>
      </trkpt>
      <trkpt lat="-21.19417" lon="55.61351">
        <ele>1892</ele>
        <time>2013-01-20T03:34:33Z</time>
      </trkpt>
      <trkpt lat="-21.19419" lon="55.61364">
        <ele>1893</ele>
        <time>2013-01-20T03:34:43Z</time>
      </trkpt>
      <trkpt lat="-21.1942" lon="55.61376">
        <ele>1895</ele>
        <time>2013-01-20T03:34:53Z</time>
      </trkpt>
      <trkpt lat="-21.19422" lon="55.6139">
        <ele>1896</ele>
        <time>2013-01-20T03:35:03Z</time>
      </trkpt>
      <trkpt lat="-21.19424" lon="55.61404">
        <ele>1897</ele>
        <time>2013-01-20T03:35:13Z</time>
      </trkpt>
      <trkpt lat="-21.19426" lon="55.61417">
        <ele>1898</ele>
        <time>2013-01-20T03:35:23Z</time>
      </trkpt>
      <trkpt lat="-21.19427" lon="55.6143">
        <ele>1899</ele>
        <time>2013-01-20T03:35:33Z</time>
      </trkpt>
      <trkpt lat="-21.19429" lon="55.61447">
        <ele>1900</ele>
        <time>2013-01-20T03:35:43Z</time>
      </trkpt>
      <trkpt lat="-21.1943" lon="55.61458">
        <ele>1901</ele>
        <time>2013-01-20T03:35:53Z</time>
      </trkpt>
      <trkpt lat="-21.19431" lon="55.61468">
        <ele>1904</ele>
        <time>2013-01-20T03:36:03Z</time>
      </trkpt>
      <trkpt lat="-21.19431" lon="55.61472">
        <ele>1905</ele>
        <time>2013-01-20T03:36:13Z</time>
      </trkpt>
      <trkpt lat="-21.19433" lon="55.61485">
        <ele>1907</ele>
        <time>2013-01-20T03:36:23Z</time>
      </trkpt>
      <trkpt lat="-21.19434" lon="55.61497">
        <ele>1909</ele>
        <time>2013-01-20T03:36:34Z</time>
      </trkpt>
      <trkpt lat="-21.19435" lon="55.61512">
        <ele>1910</ele>
        <time>2013-01-20T03:36:44Z</time>
      </trkpt>
      <trkpt lat="-21.19437" lon="55.61527">
        <ele>1910</ele>
        <time>2013-01-20T03:36:54Z</time>
      </trkpt>
      <trkpt lat="-21.19445" lon="55.61538">
        <ele>1910</ele>
        <time>2013-01-20T03:37:04Z</time>
      </trkpt>
      <trkpt lat="-21.1946" lon="55.61547">
        <ele>1911</ele>
        <time>2013-01-20T03:37:14Z</time>
      </trkpt>
      <trkpt lat="-21.19474" lon="55.61556">
        <ele>1911</ele>
        <time>2013-01-20T03:37:24Z</time>
      </trkpt>
      <trkpt lat="-21.19487" lon="55.61564">
        <ele>1911</ele>
        <time>2013-01-20T03:37:34Z</time>
      </trkpt>
      <trkpt lat="-21.19494" lon="55.61577">
        <ele>1912</ele>
        <time>2013-01-20T03:37:44Z</time>
      </trkpt>
      <trkpt lat="-21.19493" lon="55.61593">
        <ele>1914</ele>
        <time>2013-01-20T03:37:54Z</time>
      </trkpt>
      <trkpt lat="-21.19494" lon="55.61606">
        <ele>1915</ele>
        <time>2013-01-20T03:38:04Z</time>
      </trkpt>
      <trkpt lat="-21.19493" lon="55.61618">
        <ele>1916</ele>
        <time>2013-01-20T03:38:14Z</time>
      </trkpt>
      <trkpt lat="-21.19487" lon="55.6163">
        <ele>1918</ele>
        <time>2013-01-20T03:38:24Z</time>
      </trkpt>
      <trkpt lat="-21.19489" lon="55.61642">
        <ele>1919</ele>
        <time>2013-01-20T03:38:34Z</time>
      </trkpt>
      <trkpt lat="-21.19493" lon="55.61655">
        <ele>1921</ele>
        <time>2013-01-20T03:38:44Z</time>
      </trkpt>
      <trkpt lat="-21.19499" lon="55.61666">
        <ele>1921</ele>
        <time>2013-01-20T03:38:54Z</time>
      </trkpt>
      <trkpt lat="-21.195" lon="55.61679">
        <ele>1923</ele>
        <time>2013-01-20T03:39:04Z</time>
      </trkpt>
      <trkpt lat="-21.19495" lon="55.61689">
        <ele>1924</ele>
        <time>2013-01-20T03:39:15Z</time>
      </trkpt>
      <trkpt lat="-21.19491" lon="55.61698">
        <ele>1927</ele>
        <time>2013-01-20T03:39:25Z</time>
      </trkpt>
      <trkpt lat="-21.19486" lon="55.61708">
        <ele>1929</ele>
        <time>2013-01-20T03:39:35Z</time>
      </trkpt>
      <trkpt lat="-21.19481" lon="55.61719">
        <ele>1931</ele>
        <time>2013-01-20T03:39:45Z</time>
      </trkpt>
      <trkpt lat="-21.19477" lon="55.61731">
        <ele>1933</ele>
        <time>2013-01-20T03:39:55Z</time>
      </trkpt>
      <trkpt lat="-21.19474" lon="55.61742">
        <ele>1935</ele>
        <time>2013-01-20T03:40:05Z</time>
      </trkpt>
      <trkpt lat="-21.19469" lon="55.61754">
        <ele>1936</ele>
        <time>2013-01-20T03:40:15Z</time>
      </trkpt>
      <trkpt lat="-21.19467" lon="55.61766">
        <ele>1937</ele>
        <time>2013-01-20T03:40:25Z</time>
      </trkpt>
      <trkpt lat="-21.19464" lon="55.61777">
        <ele>1939</ele>
        <time>2013-01-20T03:40:35Z</time>
      </trkpt>
      <trkpt lat="-21.19463" lon="55.61787">
        <ele>1942</ele>
        <time>2013-01-20T03:40:45Z</time>
      </trkpt>
      <trkpt lat="-21.19461" lon="55.61798">
        <ele>1943</ele>
        <time>2013-01-20T03:40:55Z</time>
      </trkpt>
      <trkpt lat="-21.1946" lon="55.6181">
        <ele>1945</ele>
        <time>2013-01-20T03:41:05Z</time>
      </trkpt>
      <trkpt lat="-21.19457" lon="55.61823">
        <ele>1946</ele>
        <time>2013-01-20T03:41:15Z</time>
      </trkpt>
      <trkpt lat="-21.19456" lon="55.61837">
        <ele>1947</ele>
        <time>2013-01-20T03:41:25Z</time>
      </trkpt>
      <trkpt lat="-21.19454" lon="55.6185">
        <ele>1948</ele>
        <time>2013-01-20T03:41:35Z</time>
      </trkpt>
      <trkpt lat="-21.19452" lon="55.61863">
        <ele>1949</ele>
        <time>2013-01-20T03:41:45Z</time>
      </trkpt>
      <trkpt lat="-21.19448" lon="55.61874">
        <ele>1951</ele>
        <time>2013-01-20T03:41:56Z</time>
      </trkpt>
      <trkpt lat="-21.19443" lon="55.61883">
        <ele>1954</ele>
        <time>2013-01-20T03:42:06Z</time>
      </trkpt>
      <trkpt lat="-21.19437" lon="55.61889">
        <ele>1956</ele>
        <time>2013-01-20T03:42:16Z</time>
      </trkpt>
      <trkpt lat="-21.19431" lon="55.61896">
        <ele>1959</ele>
        <time>2013-01-20T03:42:26Z</time>
      </trkpt>
      <trkpt lat="-21.19423" lon="55.61905">
        <ele>1961</ele>
        <time>2013-01-20T03:42:36Z</time>
      </trkpt>
      <trkpt lat="-21.19418" lon="55.61911">
        <ele>1960</ele>
        <time>2013-01-20T03:42:46Z</time>
      </trkpt>
      <trkpt lat="-21.1941" lon="55.61924">
        <ele>1960</ele>
        <time>2013-01-20T03:42:56Z</time>
      </trkpt>
      <trkpt lat="-21.19407" lon="55.6194">
        <ele>1959</ele>
        <time>2013-01-20T03:43:06Z</time>
      </trkpt>
      <trkpt lat="-21.19406" lon="55.61955">
        <ele>1960</ele>
        <time>2013-01-20T03:43:16Z</time>
      </trkpt>
      <trkpt lat="-21.19406" lon="55.61966">
        <ele>1961</ele>
        <time>2013-01-20T03:43:26Z</time>
      </trkpt>
      <trkpt lat="-21.19406" lon="55.61973">
        <ele>1964</ele>
        <time>2013-01-20T03:43:36Z</time>
      </trkpt>
      <trkpt lat="-21.19406" lon="55.61979">
        <ele>1966</ele>
        <time>2013-01-20T03:43:46Z</time>
      </trkpt>
      <trkpt lat="-21.19407" lon="55.61985">
        <ele>1968</ele>
        <time>2013-01-20T03:43:56Z</time>
      </trkpt>
      <trkpt lat="-21.19407" lon="55.61998">
        <ele>1969</ele>
        <time>2013-01-20T03:44:06Z</time>
      </trkpt>
      <trkpt lat="-21.19405" lon="55.62006">
        <ele>1971</ele>
        <time>2013-01-20T03:44:17Z</time>
      </trkpt>
      <trkpt lat="-21.194" lon="55.62017">
        <ele>1971</ele>
        <time>2013-01-20T03:44:27Z</time>
      </trkpt>
      <trkpt lat="-21.19397" lon="55.62025">
        <ele>1974</ele>
        <time>2013-01-20T03:44:37Z</time>
      </trkpt>
      <trkpt lat="-21.19391" lon="55.62033">
        <ele>1976</ele>
        <time>2013-01-20T03:44:47Z</time>
      </trkpt>
      <trkpt lat="-21.19383" lon="55.62041">
        <ele>1977</ele>
        <time>2013-01-20T03:44:57Z</time>
      </trkpt>
      <trkpt lat="-21.19373" lon="55.6205">
        <ele>1978</ele>
        <time>2013-01-20T03:45:07Z</time>
      </trkpt>
      <trkpt lat="-21.19371" lon="55.62066">
        <ele>1978</ele>
        <time>2013-01-20T03:45:17Z</time>
      </trkpt>
      <trkpt lat="-21.19369" lon="55.62077">
        <ele>1979</ele>
        <time>2013-01-20T03:45:27Z</time>
      </trkpt>
      <trkpt lat="-21.19367" lon="55.62088">
        <ele>1980</ele>
        <time>2013-01-20T03:45:37Z</time>
      </trkpt>
      <trkpt lat="-21.19367" lon="55.62099">
        <ele>1983</ele>
        <time>2013-01-20T03:45:47Z</time>
      </trkpt>
      <trkpt lat="-21.19367" lon="55.62114">
        <ele>1984</ele>
        <time>2013-01-20T03:45:57Z</time>
      </trkpt>
      <trkpt lat="-21.19366" lon="55.62128">
        <ele>1985</ele>
        <time>2013-01-20T03:46:07Z</time>
      </trkpt>
      <trkpt lat="-21.19372" lon="55.6214">
        <ele>1985</ele>
        <time>2013-01-20T03:46:17Z</time>
      </trkpt>
      <trkpt lat="-21.19381" lon="55.62152">
        <ele>1985</ele>
        <time>2013-01-20T03:46:27Z</time>
      </trkpt>
      <trkpt lat="-21.19385" lon="55.62165">
        <ele>1986</ele>
        <time>2013-01-20T03:46:37Z</time>
      </trkpt>
      <trkpt lat="-21.19386" lon="55.62174">
        <ele>1989</ele>
        <time>2013-01-20T03:46:47Z</time>
      </trkpt>
      <trkpt lat="-21.19385" lon="55.62185">
        <ele>1992</ele>
        <time>2013-01-20T03:46:57Z</time>
      </trkpt>
      <trkpt lat="-21.19386" lon="55.62198">
        <ele>1992</ele>
        <time>2013-01-20T03:47:08Z</time>
      </trkpt>
      <trkpt lat="-21.19394" lon="55.62208">
        <ele>1993</ele>
        <time>2013-01-20T03:47:18Z</time>
      </trkpt>
      <trkpt lat="-21.19397" lon="55.62221">
        <ele>1994</ele>
        <time>2013-01-20T03:47:28Z</time>
      </trkpt>
      <trkpt lat="-21.19394" lon="55.62232">
        <ele>1996</ele>
        <time>2013-01-20T03:47:38Z</time>
      </trkpt>
      <trkpt lat="-21.19391" lon="55.62242">
        <ele>1998</ele>
        <time>2013-01-20T03:47:48Z</time>
      </trkpt>
      <trkpt lat="-21.19389" lon="55.62251">
        <ele>2000</ele>
        <time>2013-01-20T03:47:58Z</time>
      </trkpt>
      <trkpt lat="-21.19384" lon="55.62257">
        <ele>2001</ele>
        <time>2013-01-20T03:48:08Z</time>
      </trkpt>
      <trkpt lat="-21.1938" lon="55.62268">
        <ele>2002</ele>
        <time>2013-01-20T03:48:18Z</time>
      </trkpt>
      <trkpt lat="-21.19376" lon="55.62279">
        <ele>2003</ele>
        <time>2013-01-20T03:48:28Z</time>
      </trkpt>
      <trkpt lat="-21.19373" lon="55.6229">
        <ele>2005</ele>
        <time>2013-01-20T03:48:38Z</time>
      </trkpt>
      <trkpt lat="-21.1937" lon="55.62303">
        <ele>2006</ele>
        <time>2013-01-20T03:48:48Z</time>
      </trkpt>
      <trkpt lat="-21.19366" lon="55.62316">
        <ele>2008</ele>
        <time>2013-01-20T03:48:58Z</time>
      </trkpt>
      <trkpt lat="-21.19364" lon="55.62328">
        <ele>2009</ele>
        <time>2013-01-20T03:49:08Z</time>
      </trkpt>
      <trkpt lat="-21.1936" lon="55.62342">
        <ele>2009</ele>
        <time>2013-01-20T03:49:18Z</time>
      </trkpt>
      <trkpt lat="-21.19356" lon="55.62355">
        <ele>2009</ele>
        <time>2013-01-20T03:49:28Z</time>
      </trkpt>
      <trkpt lat="-21.19355" lon="55.62367">
        <ele>2011</ele>
        <time>2013-01-20T03:49:38Z</time>
      </trkpt>
      <trkpt lat="-21.19351" lon="55.62378">
        <ele>2013</ele>
        <time>2013-01-20T03:49:48Z</time>
      </trkpt>
      <trkpt lat="-21.19349" lon="55.62387">
        <ele>2015</ele>
        <time>2013-01-20T03:49:58Z</time>
      </trkpt>
      <trkpt lat="-21.19346" lon="55.624">
        <ele>2017</ele>
        <time>2013-01-20T03:50:09Z</time>
      </trkpt>
      <trkpt lat="-21.19344" lon="55.6241">
        <ele>2019</ele>
        <time>2013-01-20T03:50:19Z</time>
      </trkpt>
      <trkpt lat="-21.19344" lon="55.6242">
        <ele>2020</ele>
        <time>2013-01-20T03:50:29Z</time>
      </trkpt>
      <trkpt lat="-21.19345" lon="55.62436">
        <ele>2021</ele>
        <time>2013-01-20T03:50:39Z</time>
      </trkpt>
      <trkpt lat="-21.19343" lon="55.62451">
        <ele>2022</ele>
        <time>2013-01-20T03:50:49Z</time>
      </trkpt>
      <trkpt lat="-21.19339" lon="55.62465">
        <ele>2022</ele>
        <time>2013-01-20T03:50:59Z</time>
      </trkpt>
      <trkpt lat="-21.19337" lon="55.6248">
        <ele>2023</ele>
        <time>2013-01-20T03:51:09Z</time>
      </trkpt>
      <trkpt lat="-21.19334" lon="55.62494">
        <ele>2024</ele>
        <time>2013-01-20T03:51:19Z</time>
      </trkpt>
      <trkpt lat="-21.19332" lon="55.62508">
        <ele>2025</ele>
        <time>2013-01-20T03:51:29Z</time>
      </trkpt>
      <trkpt lat="-21.1933" lon="55.62523">
        <ele>2027</ele>
        <time>2013-01-20T03:51:39Z</time>
      </trkpt>
      <trkpt lat="-21.19323" lon="55.62536">
        <ele>2027</ele>
        <time>2013-01-20T03:51:49Z</time>
      </trkpt>
      <trkpt lat="-21.19317" lon="55.62547">
        <ele>2030</ele>
        <time>2013-01-20T03:51:59Z</time>
      </trkpt>
      <trkpt lat="-21.19312" lon="55.62558">
        <ele>2031</ele>
        <time>2013-01-20T03:52:09Z</time>
      </trkpt>
      <trkpt lat="-21.1931" lon="55.62569">
        <ele>2033</ele>
        <time>2013-01-20T03:52:19Z</time>
      </trkpt>
      <trkpt lat="-21.19309" lon="55.62583">
        <ele>2035</ele>
        <time>2013-01-20T03:52:29Z</time>
      </trkpt>
      <trkpt lat="-21.19306" lon="55.62596">
        <ele>2035</ele>
        <time>2013-01-20T03:52:39Z</time>
      </trkpt>
      <trkpt lat="-21.19302" lon="55.62608">
        <ele>2037</ele>
        <time>2013-01-20T03:52:50Z</time>
      </trkpt>
      <trkpt lat="-21.19306" lon="55.62619">
        <ele>2038</ele>
        <time>2013-01-20T03:53:00Z</time>
      </trkpt>
      <trkpt lat="-21.19311" lon="55.62631">
        <ele>2039</ele>
        <time>2013-01-20T03:53:10Z</time>
      </trkpt>
      <trkpt lat="-21.19315" lon="55.62645">
        <ele>2040</ele>
        <time>2013-01-20T03:53:20Z</time>
      </trkpt>
      <trkpt lat="-21.19319" lon="55.62659">
        <ele>2041</ele>
        <time>2013-01-20T03:53:30Z</time>
      </trkpt>
      <trkpt lat="-21.19321" lon="55.62675">
        <ele>2041</ele>
        <time>2013-01-20T03:53:40Z</time>
      </trkpt>
      <trkpt lat="-21.19324" lon="55.6269">
        <ele>2043</ele>
        <time>2013-01-20T03:53:50Z</time>
      </trkpt>
      <trkpt lat="-21.19326" lon="55.62708">
        <ele>2042</ele>
        <time>2013-01-20T03:54:00Z</time>
      </trkpt>
      <trkpt lat="-21.1932" lon="55.62723">
        <ele>2044</ele>
        <time>2013-01-20T03:54:10Z</time>
      </trkpt>
      <trkpt lat="-21.19312" lon="55.62738">
        <ele>2045</ele>
        <time>2013-01-20T03:54:20Z</time>
      </trkpt>
      <trkpt lat="-21.19307" lon="55.62753">
        <ele>2046</ele>
        <time>2013-01-20T03:54:30Z</time>
      </trkpt>
      <trkpt lat="-21.19303" lon="55.62768">
        <ele>2046</ele>
        <time>2013-01-20T03:54:40Z</time>
      </trkpt>
      <trkpt lat="-21.19298" lon="55.62783">
        <ele>2047</ele>
        <time>2013-01-20T03:54:50Z</time>
      </trkpt>
      <trkpt lat="-21.19293" lon="55.62799">
        <ele>2047</ele>
        <time>2013-01-20T03:55:00Z</time>
      </trkpt>
      <trkpt lat="-21.19287" lon="55.62816">
        <ele>2047</ele>
        <time>2013-01-20T03:55:10Z</time>
      </trkpt>
      <trkpt lat="-21.19282" lon="55.6283">
        <ele>2048</ele>
        <time>2013-01-20T03:55:20Z</time>
      </trkpt>
      <trkpt lat="-21.19279" lon="55.62845">
        <ele>2048</ele>
        <time>2013-01-20T03:55:30Z</time>
      </trkpt>
      <trkpt lat="-21.19273" lon="55.62857">
        <ele>2049</ele>
        <time>2013-01-20T03:55:40Z</time>
      </trkpt>
      <trkpt lat="-21.1927" lon="55.62871">
        <ele>2051</ele>
        <time>2013-01-20T03:55:50Z</time>
      </trkpt>
      <trkpt lat="-21.19262" lon="55.62884">
        <ele>2052</ele>
        <time>2013-01-20T03:56:01Z</time>
      </trkpt>
      <trkpt lat="-21.1926" lon="55.62898">
        <ele>2052</ele>
        <time>2013-01-20T03:56:11Z</time>
      </trkpt>
      <trkpt lat="-21.19259" lon="55.62914">
        <ele>2052</ele>
        <time>2013-01-20T03:56:21Z</time>
      </trkpt>
      <trkpt lat="-21.19255" lon="55.62932">
        <ele>2053</ele>
        <time>2013-01-20T03:56:31Z</time>
      </trkpt>
      <trkpt lat="-21.1925" lon="55.62946">
        <ele>2054</ele>
        <time>2013-01-20T03:56:41Z</time>
      </trkpt>
      <trkpt lat="-21.19247" lon="55.62961">
        <ele>2054</ele>
        <time>2013-01-20T03:56:51Z</time>
      </trkpt>
      <trkpt lat="-21.19246" lon="55.62975">
        <ele>2055</ele>
        <time>2013-01-20T03:57:01Z</time>
      </trkpt>
      <trkpt lat="-21.19243" lon="55.6299">
        <ele>2056</ele>
        <time>2013-01-20T03:57:11Z</time>
      </trkpt>
      <trkpt lat="-21.19238" lon="55.63003">
        <ele>2058</ele>
        <time>2013-01-20T03:57:21Z</time>
      </trkpt>
      <trkpt lat="-21.19234" lon="55.63014">
        <ele>2059</ele>
        <time>2013-01-20T03:57:31Z</time>
      </trkpt>
      <trkpt lat="-21.19231" lon="55.63027">
        <ele>2061</ele>
        <time>2013-01-20T03:57:41Z</time>
      </trkpt>
      <trkpt lat="-21.19228" lon="55.63041">
        <ele>2063</ele>
        <time>2013-01-20T03:57:51Z</time>
      </trkpt>
      <trkpt lat="-21.19224" lon="55.63054">
        <ele>2062</ele>
        <time>2013-01-20T03:58:01Z</time>
      </trkpt>
      <trkpt lat="-21.19219" lon="55.63064">
        <ele>2064</ele>
        <time>2013-01-20T03:58:11Z</time>
      </trkpt>
      <trkpt lat="-21.19212" lon="55.63065">
        <ele>2066</ele>
        <time>2013-01-20T03:58:21Z</time>
      </trkpt>
      <trkpt lat="-21.19205" lon="55.63066">
        <ele>2068</ele>
        <time>2013-01-20T03:58:32Z</time>
      </trkpt>
      <trkpt lat="-21.19198" lon="55.63073">
        <ele>2070</ele>
        <time>2013-01-20T03:58:42Z</time>
      </trkpt>
      <trkpt lat="-21.19193" lon="55.63081">
        <ele>2072</ele>
        <time>2013-01-20T03:58:52Z</time>
      </trkpt>
      <trkpt lat="-21.19189" lon="55.63092">
        <ele>2073</ele>
        <time>2013-01-20T03:59:02Z</time>
      </trkpt>
      <trkpt lat="-21.19191" lon="55.63105">
        <ele>2075</ele>
        <time>2013-01-20T03:59:12Z</time>
      </trkpt>
      <trkpt lat="-21.19195" lon="55.6312">
        <ele>2075</ele>
        <time>2013-01-20T03:59:22Z</time>
      </trkpt>
      <trkpt lat="-21.19197" lon="55.63135">
        <ele>2077</ele>
        <time>2013-01-20T03:59:32Z</time>
      </trkpt>
      <trkpt lat="-21.19202" lon="55.6315">
        <ele>2078</ele>
        <time>2013-01-20T03:59:42Z</time>
      </trkpt>
      <trkpt lat="-21.19207" lon="55.63162">
        <ele>2079</ele>
        <time>2013-01-20T03:59:52Z</time>
      </trkpt>
      <trkpt lat="-21.19207" lon="55.63173">
        <ele>2080</ele>
        <time>2013-01-20T04:00:02Z</time>
      </trkpt>
      <trkpt lat="-21.19201" lon="55.6318">
        <ele>2082</ele>
        <time>2013-01-20T04:00:12Z</time>
      </trkpt>
      <trkpt lat="-21.19198" lon="55.63186">
        <ele>2084</ele>
        <time>2013-01-20T04:00:22Z</time>
      </trkpt>
      <trkpt lat="-21.19193" lon="55.63193">
        <ele>2086</ele>
        <time>2013-01-20T04:00:32Z</time>
      </trkpt>
      <trkpt lat="-21.19189" lon="55.63202">
        <ele>2088</ele>
        <time>2013-01-20T04:00:42Z</time>
      </trkpt>
      <trkpt lat="-21.19186" lon="55.6321">
        <ele>2089</ele>
        <time>2013-01-20T04:00:52Z</time>
      </trkpt>
      <trkpt lat="-21.19183" lon="55.63219">
        <ele>2091</ele>
        <time>2013-01-20T04:01:03Z</time>
      </trkpt>
      <trkpt lat="-21.1918" lon="55.63229">
        <ele>2093</ele>
        <time>2013-01-20T04:01:13Z</time>
      </trkpt>
      <trkpt lat="-21.19177" lon="55.6324">
        <ele>2094</ele>
        <time>2013-01-20T04:01:23Z</time>
      </trkpt>
      <trkpt lat="-21.19175" lon="55.63253">
        <ele>2096</ele>
        <time>2013-01-20T04:01:33Z</time>
      </trkpt>
      <trkpt lat="-21.19168" lon="55.63265">
        <ele>2096</ele>
        <time>2013-01-20T04:01:43Z</time>
      </trkpt>
      <trkpt lat="-21.19162" lon="55.63274">
        <ele>2098</ele>
        <time>2013-01-20T04:01:53Z</time>
      </trkpt>
      <trkpt lat="-21.19157" lon="55.63284">
        <ele>2099</ele>
        <time>2013-01-20T04:02:03Z</time>
      </trkpt>
      <trkpt lat="-21.19154" lon="55.63295">
        <ele>2101</ele>
        <time>2013-01-20T04:02:13Z</time>
      </trkpt>
      <trkpt lat="-21.19148" lon="55.63306">
        <ele>2103</ele>
        <time>2013-01-20T04:02:23Z</time>
      </trkpt>
      <trkpt lat="-21.1914" lon="55.63315">
        <ele>2103</ele>
        <time>2013-01-20T04:02:33Z</time>
      </trkpt>
      <trkpt lat="-21.19131" lon="55.63326">
        <ele>2104</ele>
        <time>2013-01-20T04:02:43Z</time>
      </trkpt>
      <trkpt lat="-21.19124" lon="55.63337">
        <ele>2104</ele>
        <time>2013-01-20T04:02:53Z</time>
      </trkpt>
      <trkpt lat="-21.19115" lon="55.63345">
        <ele>2105</ele>
        <time>2013-01-20T04:03:03Z</time>
      </trkpt>
      <trkpt lat="-21.19109" lon="55.63357">
        <ele>2107</ele>
        <time>2013-01-20T04:03:13Z</time>
      </trkpt>
      <trkpt lat="-21.19108" lon="55.63369">
        <ele>2107</ele>
        <time>2013-01-20T04:03:23Z</time>
      </trkpt>
      <trkpt lat="-21.19107" lon="55.63378">
        <ele>2110</ele>
        <time>2013-01-20T04:03:33Z</time>
      </trkpt>
      <trkpt lat="-21.19101" lon="55.63382">
        <ele>2112</ele>
        <time>2013-01-20T04:03:43Z</time>
      </trkpt>
      <trkpt lat="-21.19092" lon="55.6339">
        <ele>2114</ele>
        <time>2013-01-20T04:03:53Z</time>
      </trkpt>
      <trkpt lat="-21.1909" lon="55.63399">
        <ele>2116</ele>
        <time>2013-01-20T04:04:04Z</time>
      </trkpt>
      <trkpt lat="-21.19096" lon="55.63408">
        <ele>2117</ele>
        <time>2013-01-20T04:04:14Z</time>
      </trkpt>
      <trkpt lat="-21.19097" lon="55.63421">
        <ele>2118</ele>
        <time>2013-01-20T04:04:24Z</time>
      </trkpt>
      <trkpt lat="-21.19098" lon="55.63431">
        <ele>2120</ele>
        <time>2013-01-20T04:04:34Z</time>
      </trkpt>
      <trkpt lat="-21.191" lon="55.63444">
        <ele>2120</ele>
        <time>2013-01-20T04:04:44Z</time>
      </trkpt>
      <trkpt lat="-21.19102" lon="55.63458">
        <ele>2120</ele>
        <time>2013-01-20T04:04:54Z</time>
      </trkpt>
      <trkpt lat="-21.19105" lon="55.63472">
        <ele>2120</ele>
        <time>2013-01-20T04:05:04Z</time>
      </trkpt>
      <trkpt lat="-21.19106" lon="55.63485">
        <ele>2122</ele>
        <time>2013-01-20T04:05:14Z</time>
      </trkpt>
      <trkpt lat="-21.19102" lon="55.63497">
        <ele>2124</ele>
        <time>2013-01-20T04:05:24Z</time>
      </trkpt>
      <trkpt lat="-21.19101" lon="55.6351">
        <ele>2125</ele>
        <time>2013-01-20T04:05:34Z</time>
      </trkpt>
      <trkpt lat="-21.19103" lon="55.63522">
        <ele>2125</ele>
        <time>2013-01-20T04:05:44Z</time>
      </trkpt>
      <trkpt lat="-21.19105" lon="55.63535">
        <ele>2126</ele>
        <time>2013-01-20T04:05:54Z</time>
      </trkpt>
      <trkpt lat="-21.19106" lon="55.63544">
        <ele>2125</ele>
        <time>2013-01-20T04:06:04Z</time>
      </trkpt>
      <trkpt lat="-21.19106" lon="55.63546">
        <ele>2125</ele>
        <time>2013-01-20T04:06:14Z</time>
      </trkpt>
      <trkpt lat="-21.19106" lon="55.63547">
        <ele>2126</ele>
        <time>2013-01-20T04:06:25Z</time>
      </trkpt>
      <trkpt lat="-21.19106" lon="55.63547">
        <ele>2124</ele>
        <time>2013-01-20T04:06:35Z</time>
      </trkpt>
      <trkpt lat="-21.19105" lon="55.63547">
        <ele>2124</ele>
        <time>2013-01-20T04:06:45Z</time>
      </trkpt>
      <trkpt lat="-21.19105" lon="55.63548">
        <ele>2126</ele>
        <time>2013-01-20T04:06:55Z</time>
      </trkpt>
      <trkpt lat="-21.19106" lon="55.63548">
        <ele>2125</ele>
        <time>2013-01-20T04:07:05Z</time>
      </trkpt>
      <trkpt lat="-21.19107" lon="55.6355">
        <ele>2124</ele>
        <time>2013-01-20T04:07:15Z</time>
      </trkpt>
      <trkpt lat="-21.19107" lon="55.63549">
        <ele>2124</ele>
        <time>2013-01-20T04:07:25Z</time>
      </trkpt>
      <trkpt lat="-21.19106" lon="55.63548">
        <ele>2124</ele>
        <time>2013-01-20T04:07:35Z</time>
      </trkpt>
      <trkpt lat="-21.19105" lon="55.63547">
        <ele>2124</ele>
        <time>2013-01-20T04:07:45Z</time>
      </trkpt>
      <trkpt lat="-21.19105" lon="55.63546">
        <ele>2124</ele>
        <time>2013-01-20T04:07:55Z</time>
      </trkpt>
      <trkpt lat="-21.19105" lon="55.63546">
        <ele>2124</ele>
        <time>2013-01-20T04:08:05Z</time>
      </trkpt>
      <trkpt lat="-21.19105" lon="55.63545">
        <ele>2124</ele>
        <time>2013-01-20T04:08:15Z</time>
      </trkpt>
      <trkpt lat="-21.19105" lon="55.63545">
        <ele>2125</ele>
        <time>2013-01-20T04:08:25Z</time>
      </trkpt>
      <trkpt lat="-21.19106" lon="55.63544">
        <ele>2123</ele>
        <time>2013-01-20T04:08:35Z</time>
      </trkpt>
      <trkpt lat="-21.19106" lon="55.63543">
        <ele>2124</ele>
        <time>2013-01-20T04:08:45Z</time>
      </trkpt>
      <trkpt lat="-21.19104" lon="55.63534">
        <ele>2125</ele>
        <time>2013-01-20T04:08:55Z</time>
      </trkpt>
      <trkpt lat="-21.19103" lon="55.63528">
        <ele>2126</ele>
        <time>2013-01-20T04:09:05Z</time>
      </trkpt>
      <trkpt lat="-21.19102" lon="55.63526">
        <ele>2126</ele>
        <time>2013-01-20T04:09:15Z</time>
      </trkpt>
      <trkpt lat="-21.19102" lon="55.63526">
        <ele>2126</ele>
        <time>2013-01-20T04:09:25Z</time>
      </trkpt>
      <trkpt lat="-21.19101" lon="55.63525">
        <ele>2126</ele>
        <time>2013-01-20T04:09:35Z</time>
      </trkpt>
      <trkpt lat="-21.19101" lon="55.63525">
        <ele>2127</ele>
        <time>2013-01-20T04:09:46Z</time>
      </trkpt>
      <trkpt lat="-21.19101" lon="55.63526">
        <ele>2126</ele>
        <time>2013-01-20T04:09:56Z</time>
      </trkpt>
      <trkpt lat="-21.19101" lon="55.63526">
        <ele>2127</ele>
        <time>2013-01-20T04:10:06Z</time>
      </trkpt>
      <trkpt lat="-21.19101" lon="55.63525">
        <ele>2126</ele>
        <time>2013-01-20T04:10:16Z</time>
      </trkpt>
      <trkpt lat="-21.19101" lon="55.63525">
        <ele>2125</ele>
        <time>2013-01-20T04:10:26Z</time>
      </trkpt>
      <trkpt lat="-21.19101" lon="55.63524">
        <ele>2126</ele>
        <time>2013-01-20T04:10:36Z</time>
      </trkpt>
      <trkpt lat="-21.19101" lon="55.63523">
        <ele>2125</ele>
        <time>2013-01-20T04:10:46Z</time>
      </trkpt>
      <trkpt lat="-21.19105" lon="55.6353">
        <ele>2125</ele>
        <time>2013-01-20T04:10:56Z</time>
      </trkpt>
      <trkpt lat="-21.19107" lon="55.6354">
        <ele>2124</ele>
        <time>2013-01-20T04:11:06Z</time>
      </trkpt>
      <trkpt lat="-21.19107" lon="55.63545">
        <ele>2123</ele>
        <time>2013-01-20T04:11:16Z</time>
      </trkpt>
      <trkpt lat="-21.19107" lon="55.63545">
        <ele>2123</ele>
        <time>2013-01-20T04:11:26Z</time>
      </trkpt>
      <trkpt lat="-21.19107" lon="55.63544">
        <ele>2123</ele>
        <time>2013-01-20T04:11:36Z</time>
      </trkpt>
      <trkpt lat="-21.19106" lon="55.63546">
        <ele>2124</ele>
        <time>2013-01-20T04:11:47Z</time>
      </trkpt>
      <trkpt lat="-21.19106" lon="55.63547">
        <ele>2123</ele>
        <time>2013-01-20T04:11:57Z</time>
      </trkpt>
      <trkpt lat="-21.19107" lon="55.63549">
        <ele>2124</ele>
        <time>2013-01-20T04:12:07Z</time>
      </trkpt>
      <trkpt lat="-21.19113" lon="55.63557">
        <ele>2123</ele>
        <time>2013-01-20T04:12:17Z</time>
      </trkpt>
      <trkpt lat="-21.19118" lon="55.63571">
        <ele>2121</ele>
        <time>2013-01-20T04:12:27Z</time>
      </trkpt>
      <trkpt lat="-21.19124" lon="55.63583">
        <ele>2122</ele>
        <time>2013-01-20T04:12:37Z</time>
      </trkpt>
      <trkpt lat="-21.1913" lon="55.63595">
        <ele>2120</ele>
        <time>2013-01-20T04:12:47Z</time>
      </trkpt>
      <trkpt lat="-21.19135" lon="55.63607">
        <ele>2117</ele>
        <time>2013-01-20T04:12:57Z</time>
      </trkpt>
      <trkpt lat="-21.19139" lon="55.63618">
        <ele>2116</ele>
        <time>2013-01-20T04:13:07Z</time>
      </trkpt>
      <trkpt lat="-21.19147" lon="55.6363">
        <ele>2115</ele>
        <time>2013-01-20T04:13:17Z</time>
      </trkpt>
      <trkpt lat="-21.19151" lon="55.63646">
        <ele>2115</ele>
        <time>2013-01-20T04:13:27Z</time>
      </trkpt>
      <trkpt lat="-21.19151" lon="55.63659">
        <ele>2114</ele>
        <time>2013-01-20T04:13:37Z</time>
      </trkpt>
      <trkpt lat="-21.19152" lon="55.63672">
        <ele>2112</ele>
        <time>2013-01-20T04:13:47Z</time>
      </trkpt>
      <trkpt lat="-21.19155" lon="55.63684">
        <ele>2109</ele>
        <time>2013-01-20T04:13:57Z</time>
      </trkpt>
      <trkpt lat="-21.19156" lon="55.63699">
        <ele>2107</ele>
        <time>2013-01-20T04:14:07Z</time>
      </trkpt>
      <trkpt lat="-21.19161" lon="55.63715">
        <ele>2105</ele>
        <time>2013-01-20T04:14:17Z</time>
      </trkpt>
      <trkpt lat="-21.19164" lon="55.63731">
        <ele>2105</ele>
        <time>2013-01-20T04:14:27Z</time>
      </trkpt>
      <trkpt lat="-21.19168" lon="55.63747">
        <ele>2105</ele>
        <time>2013-01-20T04:14:37Z</time>
      </trkpt>
      <trkpt lat="-21.19173" lon="55.63763">
        <ele>2106</ele>
        <time>2013-01-20T04:14:48Z</time>
      </trkpt>
      <trkpt lat="-21.1918" lon="55.63778">
        <ele>2106</ele>
        <time>2013-01-20T04:14:58Z</time>
      </trkpt>
      <trkpt lat="-21.19189" lon="55.63791">
        <ele>2105</ele>
        <time>2013-01-20T04:15:08Z</time>
      </trkpt>
      <trkpt lat="-21.19197" lon="55.63804">
        <ele>2106</ele>
        <time>2013-01-20T04:15:18Z</time>
      </trkpt>
      <trkpt lat="-21.19208" lon="55.63814">
        <ele>2106</ele>
        <time>2013-01-20T04:15:28Z</time>
      </trkpt>
      <trkpt lat="-21.1922" lon="55.63825">
        <ele>2106</ele>
        <time>2013-01-20T04:15:38Z</time>
      </trkpt>
      <trkpt lat="-21.19233" lon="55.63828">
        <ele>2107</ele>
        <time>2013-01-20T04:15:48Z</time>
      </trkpt>
      <trkpt lat="-21.19246" lon="55.63836">
        <ele>2108</ele>
        <time>2013-01-20T04:15:58Z</time>
      </trkpt>
      <trkpt lat="-21.19257" lon="55.63846">
        <ele>2110</ele>
        <time>2013-01-20T04:16:08Z</time>
      </trkpt>
      <trkpt lat="-21.19262" lon="55.63859">
        <ele>2111</ele>
        <time>2013-01-20T04:16:18Z</time>
      </trkpt>
      <trkpt lat="-21.19267" lon="55.63873">
        <ele>2111</ele>
        <time>2013-01-20T04:16:28Z</time>
      </trkpt>
      <trkpt lat="-21.19271" lon="55.63889">
        <ele>2111</ele>
        <time>2013-01-20T04:16:38Z</time>
      </trkpt>
      <trkpt lat="-21.19277" lon="55.63902">
        <ele>2112</ele>
        <time>2013-01-20T04:16:48Z</time>
      </trkpt>
      <trkpt lat="-21.19278" lon="55.63915">
        <ele>2114</ele>
        <time>2013-01-20T04:16:58Z</time>
      </trkpt>
      <trkpt lat="-21.19281" lon="55.63927">
        <ele>2115</ele>
        <time>2013-01-20T04:17:08Z</time>
      </trkpt>
      <trkpt lat="-21.19286" lon="55.63939">
        <ele>2116</ele>
        <time>2013-01-20T04:17:18Z</time>
      </trkpt>
      <trkpt lat="-21.19291" lon="55.6395">
        <ele>2117</ele>
        <time>2013-01-20T04:17:28Z</time>
      </trkpt>
      <trkpt lat="-21.19296" lon="55.63959">
        <ele>2119</ele>
        <time>2013-01-20T04:17:39Z</time>
      </trkpt>
      <trkpt lat="-21.193" lon="55.63968">
        <ele>2121</ele>
        <time>2013-01-20T04:17:49Z</time>
      </trkpt>
      <trkpt lat="-21.19304" lon="55.63979">
        <ele>2123</ele>
        <time>2013-01-20T04:17:59Z</time>
      </trkpt>
      <trkpt lat="-21.19306" lon="55.6399">
        <ele>2124</ele>
        <time>2013-01-20T04:18:09Z</time>
      </trkpt>
      <trkpt lat="-21.19311" lon="55.64001">
        <ele>2126</ele>
        <time>2013-01-20T04:18:19Z</time>
      </trkpt>
      <trkpt lat="-21.19311" lon="55.6401">
        <ele>2128</ele>
        <time>2013-01-20T04:18:29Z</time>
      </trkpt>
      <trkpt lat="-21.19316" lon="55.64022">
        <ele>2130</ele>
        <time>2013-01-20T04:18:39Z</time>
      </trkpt>
      <trkpt lat="-21.19317" lon="55.64033">
        <ele>2131</ele>
        <time>2013-01-20T04:18:49Z</time>
      </trkpt>
      <trkpt lat="-21.19321" lon="55.64043">
        <ele>2132</ele>
        <time>2013-01-20T04:18:59Z</time>
      </trkpt>
      <trkpt lat="-21.19327" lon="55.64054">
        <ele>2132</ele>
        <time>2013-01-20T04:19:09Z</time>
      </trkpt>
      <trkpt lat="-21.19334" lon="55.64061">
        <ele>2134</ele>
        <time>2013-01-20T04:19:19Z</time>
      </trkpt>
      <trkpt lat="-21.19343" lon="55.64067">
        <ele>2135</ele>
        <time>2013-01-20T04:19:29Z</time>
      </trkpt>
      <trkpt lat="-21.19352" lon="55.64076">
        <ele>2137</ele>
        <time>2013-01-20T04:19:39Z</time>
      </trkpt>
      <trkpt lat="-21.19358" lon="55.64082">
        <ele>2138</ele>
        <time>2013-01-20T04:19:50Z</time>
      </trkpt>
      <trkpt lat="-21.19367" lon="55.64089">
        <ele>2139</ele>
        <time>2013-01-20T04:20:00Z</time>
      </trkpt>
      <trkpt lat="-21.19374" lon="55.64095">
        <ele>2141</ele>
        <time>2013-01-20T04:20:10Z</time>
      </trkpt>
      <trkpt lat="-21.19386" lon="55.64097">
        <ele>2143</ele>
        <time>2013-01-20T04:20:20Z</time>
      </trkpt>
      <trkpt lat="-21.19392" lon="55.64109">
        <ele>2144</ele>
        <time>2013-01-20T04:20:30Z</time>
      </trkpt>
      <trkpt lat="-21.19397" lon="55.64123">
        <ele>2144</ele>
        <time>2013-01-20T04:20:40Z</time>
      </trkpt>
      <trkpt lat="-21.194" lon="55.64137">
        <ele>2144</ele>
        <time>2013-01-20T04:20:50Z</time>
      </trkpt>
      <trkpt lat="-21.19404" lon="55.64147">
        <ele>2146</ele>
        <time>2013-01-20T04:21:00Z</time>
      </trkpt>
      <trkpt lat="-21.19415" lon="55.64155">
        <ele>2148</ele>
        <time>2013-01-20T04:21:10Z</time>
      </trkpt>
      <trkpt lat="-21.19422" lon="55.64165">
        <ele>2149</ele>
        <time>2013-01-20T04:21:20Z</time>
      </trkpt>
      <trkpt lat="-21.19422" lon="55.64178">
        <ele>2150</ele>
        <time>2013-01-20T04:21:30Z</time>
      </trkpt>
      <trkpt lat="-21.19422" lon="55.64193">
        <ele>2151</ele>
        <time>2013-01-20T04:21:40Z</time>
      </trkpt>
      <trkpt lat="-21.19423" lon="55.64204">
        <ele>2153</ele>
        <time>2013-01-20T04:21:50Z</time>
      </trkpt>
      <trkpt lat="-21.19427" lon="55.64217">
        <ele>2154</ele>
        <time>2013-01-20T04:22:00Z</time>
      </trkpt>
      <trkpt lat="-21.19429" lon="55.64228">
        <ele>2156</ele>
        <time>2013-01-20T04:22:11Z</time>
      </trkpt>
      <trkpt lat="-21.19427" lon="55.64238">
        <ele>2158</ele>
        <time>2013-01-20T04:22:21Z</time>
      </trkpt>
      <trkpt lat="-21.19428" lon="55.64249">
        <ele>2159</ele>
        <time>2013-01-20T04:22:31Z</time>
      </trkpt>
      <trkpt lat="-21.19436" lon="55.64259">
        <ele>2159</ele>
        <time>2013-01-20T04:22:41Z</time>
      </trkpt>
      <trkpt lat="-21.19445" lon="55.64265">
        <ele>2160</ele>
        <time>2013-01-20T04:22:51Z</time>
      </trkpt>
      <trkpt lat="-21.19451" lon="55.6427">
        <ele>2163</ele>
        <time>2013-01-20T04:23:01Z</time>
      </trkpt>
      <trkpt lat="-21.19457" lon="55.64279">
        <ele>2165</ele>
        <time>2013-01-20T04:23:11Z</time>
      </trkpt>
      <trkpt lat="-21.19464" lon="55.64286">
        <ele>2165</ele>
        <time>2013-01-20T04:23:21Z</time>
      </trkpt>
      <trkpt lat="-21.19468" lon="55.64295">
        <ele>2168</ele>
        <time>2013-01-20T04:23:32Z</time>
      </trkpt>
      <trkpt lat="-21.1947" lon="55.64305">
        <ele>2170</ele>
        <time>2013-01-20T04:23:42Z</time>
      </trkpt>
      <trkpt lat="-21.19477" lon="55.64314">
        <ele>2171</ele>
        <time>2013-01-20T04:23:52Z</time>
      </trkpt>
      <trkpt lat="-21.19486" lon="55.64318">
        <ele>2171</ele>
        <time>2013-01-20T04:24:02Z</time>
      </trkpt>
      <trkpt lat="-21.19496" lon="55.64322">
        <ele>2173</ele>
        <time>2013-01-20T04:24:12Z</time>
      </trkpt>
      <trkpt lat="-21.19504" lon="55.64328">
        <ele>2175</ele>
        <time>2013-01-20T04:24:22Z</time>
      </trkpt>
      <trkpt lat="-21.19508" lon="55.64335">
        <ele>2177</ele>
        <time>2013-01-20T04:24:32Z</time>
      </trkpt>
      <trkpt lat="-21.19509" lon="55.64344">
        <ele>2180</ele>
        <time>2013-01-20T04:24:42Z</time>
      </trkpt>
      <trkpt lat="-21.19515" lon="55.64351">
        <ele>2181</ele>
        <time>2013-01-20T04:24:52Z</time>
      </trkpt>
      <trkpt lat="-21.1952" lon="55.64358">
        <ele>2182</ele>
        <time>2013-01-20T04:25:02Z</time>
      </trkpt>
      <trkpt lat="-21.19526" lon="55.64368">
        <ele>2184</ele>
        <time>2013-01-20T04:25:12Z</time>
      </trkpt>
      <trkpt lat="-21.19526" lon="55.64378">
        <ele>2186</ele>
        <time>2013-01-20T04:25:22Z</time>
      </trkpt>
      <trkpt lat="-21.1952" lon="55.64385">
        <ele>2187</ele>
        <time>2013-01-20T04:25:33Z</time>
      </trkpt>
      <trkpt lat="-21.19517" lon="55.64393">
        <ele>2190</ele>
        <time>2013-01-20T04:25:43Z</time>
      </trkpt>
      <trkpt lat="-21.19518" lon="55.64403">
        <ele>2191</ele>
        <time>2013-01-20T04:25:53Z</time>
      </trkpt>
      <trkpt lat="-21.19519" lon="55.64409">
        <ele>2192</ele>
        <time>2013-01-20T04:26:03Z</time>
      </trkpt>
      <trkpt lat="-21.19525" lon="55.64411">
        <ele>2195</ele>
        <time>2013-01-20T04:26:13Z</time>
      </trkpt>
      <trkpt lat="-21.19531" lon="55.6441">
        <ele>2197</ele>
        <time>2013-01-20T04:26:23Z</time>
      </trkpt>
      <trkpt lat="-21.19538" lon="55.64419">
        <ele>2199</ele>
        <time>2013-01-20T04:26:33Z</time>
      </trkpt>
      <trkpt lat="-21.19544" lon="55.64426">
        <ele>2200</ele>
        <time>2013-01-20T04:26:43Z</time>
      </trkpt>
      <trkpt lat="-21.19549" lon="55.64434">
        <ele>2203</ele>
        <time>2013-01-20T04:26:53Z</time>
      </trkpt>
      <trkpt lat="-21.19555" lon="55.64439">
        <ele>2206</ele>
        <time>2013-01-20T04:27:03Z</time>
      </trkpt>
      <trkpt lat="-21.1956" lon="55.64444">
        <ele>2208</ele>
        <time>2013-01-20T04:27:13Z</time>
      </trkpt>
      <trkpt lat="-21.19567" lon="55.64448">
        <ele>2210</ele>
        <time>2013-01-20T04:27:23Z</time>
      </trkpt>
      <trkpt lat="-21.19572" lon="55.64453">
        <ele>2211</ele>
        <time>2013-01-20T04:27:33Z</time>
      </trkpt>
      <trkpt lat="-21.19579" lon="55.64452">
        <ele>2213</ele>
        <time>2013-01-20T04:27:43Z</time>
      </trkpt>
      <trkpt lat="-21.19586" lon="55.64451">
        <ele>2215</ele>
        <time>2013-01-20T04:27:54Z</time>
      </trkpt>
      <trkpt lat="-21.19592" lon="55.64454">
        <ele>2219</ele>
        <time>2013-01-20T04:28:04Z</time>
      </trkpt>
      <trkpt lat="-21.19599" lon="55.64458">
        <ele>2221</ele>
        <time>2013-01-20T04:28:14Z</time>
      </trkpt>
      <trkpt lat="-21.19605" lon="55.64465">
        <ele>2222</ele>
        <time>2013-01-20T04:28:24Z</time>
      </trkpt>
      <trkpt lat="-21.19611" lon="55.64472">
        <ele>2223</ele>
        <time>2013-01-20T04:28:34Z</time>
      </trkpt>
      <trkpt lat="-21.1962" lon="55.64479">
        <ele>2223</ele>
        <time>2013-01-20T04:28:44Z</time>
      </trkpt>
      <trkpt lat="-21.19627" lon="55.64487">
        <ele>2225</ele>
        <time>2013-01-20T04:28:54Z</time>
      </trkpt>
      <trkpt lat="-21.19635" lon="55.64492">
        <ele>2226</ele>
        <time>2013-01-20T04:29:04Z</time>
      </trkpt>
      <trkpt lat="-21.19642" lon="55.64496">
        <ele>2229</ele>
        <time>2013-01-20T04:29:14Z</time>
      </trkpt>
      <trkpt lat="-21.19652" lon="55.64502">
        <ele>2229</ele>
        <time>2013-01-20T04:29:24Z</time>
      </trkpt>
      <trkpt lat="-21.19662" lon="55.64506">
        <ele>2230</ele>
        <time>2013-01-20T04:29:34Z</time>
      </trkpt>
      <trkpt lat="-21.19669" lon="55.64508">
        <ele>2233</ele>
        <time>2013-01-20T04:29:44Z</time>
      </trkpt>
      <trkpt lat="-21.19677" lon="55.64511">
        <ele>2234</ele>
        <time>2013-01-20T04:29:55Z</time>
      </trkpt>
      <trkpt lat="-21.19685" lon="55.64516">
        <ele>2235</ele>
        <time>2013-01-20T04:30:05Z</time>
      </trkpt>
      <trkpt lat="-21.19693" lon="55.6452">
        <ele>2237</ele>
        <time>2013-01-20T04:30:15Z</time>
      </trkpt>
      <trkpt lat="-21.19701" lon="55.64526">
        <ele>2239</ele>
        <time>2013-01-20T04:30:25Z</time>
      </trkpt>
      <trkpt lat="-21.19712" lon="55.6453">
        <ele>2240</ele>
        <time>2013-01-20T04:30:35Z</time>
      </trkpt>
      <trkpt lat="-21.19723" lon="55.64539">
        <ele>2239</ele>
        <time>2013-01-20T04:30:45Z</time>
      </trkpt>
      <trkpt lat="-21.19733" lon="55.64553">
        <ele>2238</ele>
        <time>2013-01-20T04:30:55Z</time>
      </trkpt>
      <trkpt lat="-21.19748" lon="55.64561">
        <ele>2235</ele>
        <time>2013-01-20T04:31:05Z</time>
      </trkpt>
      <trkpt lat="-21.19761" lon="55.64571">
        <ele>2233</ele>
        <time>2013-01-20T04:31:15Z</time>
      </trkpt>
      <trkpt lat="-21.19774" lon="55.64579">
        <ele>2233</ele>
        <time>2013-01-20T04:31:26Z</time>
      </trkpt>
      <trkpt lat="-21.19787" lon="55.6459">
        <ele>2233</ele>
        <time>2013-01-20T04:31:36Z</time>
      </trkpt>
      <trkpt lat="-21.19801" lon="55.64597">
        <ele>2233</ele>
        <time>2013-01-20T04:31:46Z</time>
      </trkpt>
      <trkpt lat="-21.19814" lon="55.64605">
        <ele>2234</ele>
        <time>2013-01-20T04:31:56Z</time>
      </trkpt>
      <trkpt lat="-21.19824" lon="55.6461">
        <ele>2236</ele>
        <time>2013-01-20T04:32:06Z</time>
      </trkpt>
      <trkpt lat="-21.19836" lon="55.64614">
        <ele>2238</ele>
        <time>2013-01-20T04:32:16Z</time>
      </trkpt>
      <trkpt lat="-21.1985" lon="55.64618">
        <ele>2239</ele>
        <time>2013-01-20T04:32:26Z</time>
      </trkpt>
      <trkpt lat="-21.19865" lon="55.64619">
        <ele>2239</ele>
        <time>2013-01-20T04:32:36Z</time>
      </trkpt>
      <trkpt lat="-21.19879" lon="55.64625">
        <ele>2238</ele>
        <time>2013-01-20T04:32:46Z</time>
      </trkpt>
      <trkpt lat="-21.19888" lon="55.64633">
        <ele>2239</ele>
        <time>2013-01-20T04:32:56Z</time>
      </trkpt>
      <trkpt lat="-21.19897" lon="55.64638">
        <ele>2243</ele>
        <time>2013-01-20T04:33:06Z</time>
      </trkpt>
      <trkpt lat="-21.19909" lon="55.64641">
        <ele>2244</ele>
        <time>2013-01-20T04:33:16Z</time>
      </trkpt>
      <trkpt lat="-21.19915" lon="55.64651">
        <ele>2246</ele>
        <time>2013-01-20T04:33:26Z</time>
      </trkpt>
      <trkpt lat="-21.19922" lon="55.64662">
        <ele>2248</ele>
        <time>2013-01-20T04:33:36Z</time>
      </trkpt>
      <trkpt lat="-21.19921" lon="55.64672">
        <ele>2248</ele>
        <time>2013-01-20T04:33:46Z</time>
      </trkpt>
      <trkpt lat="-21.19923" lon="55.64677">
        <ele>2249</ele>
        <time>2013-01-20T04:33:57Z</time>
      </trkpt>
      <trkpt lat="-21.1993" lon="55.6469">
        <ele>2249</ele>
        <time>2013-01-20T04:34:07Z</time>
      </trkpt>
      <trkpt lat="-21.19935" lon="55.64698">
        <ele>2251</ele>
        <time>2013-01-20T04:34:17Z</time>
      </trkpt>
      <trkpt lat="-21.19939" lon="55.64708">
        <ele>2253</ele>
        <time>2013-01-20T04:34:27Z</time>
      </trkpt>
      <trkpt lat="-21.19945" lon="55.64717">
        <ele>2254</ele>
        <time>2013-01-20T04:34:37Z</time>
      </trkpt>
      <trkpt lat="-21.19951" lon="55.64727">
        <ele>2256</ele>
        <time>2013-01-20T04:34:47Z</time>
      </trkpt>
      <trkpt lat="-21.19959" lon="55.64733">
        <ele>2257</ele>
        <time>2013-01-20T04:34:57Z</time>
      </trkpt>
      <trkpt lat="-21.19967" lon="55.6474">
        <ele>2259</ele>
        <time>2013-01-20T04:35:07Z</time>
      </trkpt>
      <trkpt lat="-21.19975" lon="55.64745">
        <ele>2261</ele>
        <time>2013-01-20T04:35:17Z</time>
      </trkpt>
      <trkpt lat="-21.19982" lon="55.64753">
        <ele>2263</ele>
        <time>2013-01-20T04:35:27Z</time>
      </trkpt>
      <trkpt lat="-21.1999" lon="55.6476">
        <ele>2264</ele>
        <time>2013-01-20T04:35:37Z</time>
      </trkpt>
      <trkpt lat="-21.20003" lon="55.64764">
        <ele>2264</ele>
        <time>2013-01-20T04:35:47Z</time>
      </trkpt>
      <trkpt lat="-21.20014" lon="55.64767">
        <ele>2265</ele>
        <time>2013-01-20T04:35:57Z</time>
      </trkpt>
      <trkpt lat="-21.20027" lon="55.64771">
        <ele>2266</ele>
        <time>2013-01-20T04:36:07Z</time>
      </trkpt>
      <trkpt lat="-21.20037" lon="55.64775">
        <ele>2266</ele>
        <time>2013-01-20T04:36:17Z</time>
      </trkpt>
      <trkpt lat="-21.20047" lon="55.6478">
        <ele>2268</ele>
        <time>2013-01-20T04:36:27Z</time>
      </trkpt>
      <trkpt lat="-21.20056" lon="55.64784">
        <ele>2270</ele>
        <time>2013-01-20T04:36:37Z</time>
      </trkpt>
      <trkpt lat="-21.20068" lon="55.64789">
        <ele>2270</ele>
        <time>2013-01-20T04:36:47Z</time>
      </trkpt>
      <trkpt lat="-21.20078" lon="55.64789">
        <ele>2272</ele>
        <time>2013-01-20T04:36:58Z</time>
      </trkpt>
      <trkpt lat="-21.20087" lon="55.6479">
        <ele>2274</ele>
        <time>2013-01-20T04:37:08Z</time>
      </trkpt>
      <trkpt lat="-21.20095" lon="55.64792">
        <ele>2277</ele>
        <time>2013-01-20T04:37:18Z</time>
      </trkpt>
      <trkpt lat="-21.20105" lon="55.64794">
        <ele>2279</ele>
        <time>2013-01-20T04:37:28Z</time>
      </trkpt>
      <trkpt lat="-21.20112" lon="55.64796">
        <ele>2280</ele>
        <time>2013-01-20T04:37:38Z</time>
      </trkpt>
      <trkpt lat="-21.20114" lon="55.64806">
        <ele>2283</ele>
        <time>2013-01-20T04:37:48Z</time>
      </trkpt>
      <trkpt lat="-21.20116" lon="55.64813">
        <ele>2285</ele>
        <time>2013-01-20T04:37:58Z</time>
      </trkpt>
      <trkpt lat="-21.20115" lon="55.64822">
        <ele>2286</ele>
        <time>2013-01-20T04:38:08Z</time>
      </trkpt>
      <trkpt lat="-21.2012" lon="55.64828">
        <ele>2287</ele>
        <time>2013-01-20T04:38:18Z</time>
      </trkpt>
      <trkpt lat="-21.20125" lon="55.64837">
        <ele>2289</ele>
        <time>2013-01-20T04:38:28Z</time>
      </trkpt>
      <trkpt lat="-21.2013" lon="55.64846">
        <ele>2291</ele>
        <time>2013-01-20T04:38:38Z</time>
      </trkpt>
      <trkpt lat="-21.20136" lon="55.64857">
        <ele>2292</ele>
        <time>2013-01-20T04:38:49Z</time>
      </trkpt>
      <trkpt lat="-21.20144" lon="55.6487">
        <ele>2292</ele>
        <time>2013-01-20T04:38:59Z</time>
      </trkpt>
      <trkpt lat="-21.20154" lon="55.64884">
        <ele>2294</ele>
        <time>2013-01-20T04:39:09Z</time>
      </trkpt>
      <trkpt lat="-21.20163" lon="55.64899">
        <ele>2292</ele>
        <time>2013-01-20T04:39:19Z</time>
      </trkpt>
      <trkpt lat="-21.20172" lon="55.64914">
        <ele>2290</ele>
        <time>2013-01-20T04:39:29Z</time>
      </trkpt>
      <trkpt lat="-21.20181" lon="55.64926">
        <ele>2290</ele>
        <time>2013-01-20T04:39:39Z</time>
      </trkpt>
      <trkpt lat="-21.20188" lon="55.64938">
        <ele>2292</ele>
        <time>2013-01-20T04:39:49Z</time>
      </trkpt>
      <trkpt lat="-21.20194" lon="55.64951">
        <ele>2292</ele>
        <time>2013-01-20T04:39:59Z</time>
      </trkpt>
      <trkpt lat="-21.20198" lon="55.64963">
        <ele>2293</ele>
        <time>2013-01-20T04:40:09Z</time>
      </trkpt>
      <trkpt lat="-21.20202" lon="55.64976">
        <ele>2295</ele>
        <time>2013-01-20T04:40:19Z</time>
      </trkpt>
      <trkpt lat="-21.20208" lon="55.64988">
        <ele>2295</ele>
        <time>2013-01-20T04:40:29Z</time>
      </trkpt>
      <trkpt lat="-21.20212" lon="55.64999">
        <ele>2298</ele>
        <time>2013-01-20T04:40:39Z</time>
      </trkpt>
      <trkpt lat="-21.20216" lon="55.65011">
        <ele>2299</ele>
        <time>2013-01-20T04:40:49Z</time>
      </trkpt>
      <trkpt lat="-21.20222" lon="55.65023">
        <ele>2300</ele>
        <time>2013-01-20T04:40:59Z</time>
      </trkpt>
      <trkpt lat="-21.20229" lon="55.65034">
        <ele>2301</ele>
        <time>2013-01-20T04:41:10Z</time>
      </trkpt>
      <trkpt lat="-21.20239" lon="55.65046">
        <ele>2303</ele>
        <time>2013-01-20T04:41:20Z</time>
      </trkpt>
      <trkpt lat="-21.20249" lon="55.65058">
        <ele>2301</ele>
        <time>2013-01-20T04:41:30Z</time>
      </trkpt>
      <trkpt lat="-21.20259" lon="55.65072">
        <ele>2301</ele>
        <time>2013-01-20T04:41:40Z</time>
      </trkpt>
      <trkpt lat="-21.20272" lon="55.65081">
        <ele>2300</ele>
        <time>2013-01-20T04:41:50Z</time>
      </trkpt>
      <trkpt lat="-21.20286" lon="55.65078">
        <ele>2301</ele>
        <time>2013-01-20T04:42:00Z</time>
      </trkpt>
      <trkpt lat="-21.203" lon="55.65077">
        <ele>2301</ele>
        <time>2013-01-20T04:42:10Z</time>
      </trkpt>
      <trkpt lat="-21.20311" lon="55.65087">
        <ele>2302</ele>
        <time>2013-01-20T04:42:20Z</time>
      </trkpt>
      <trkpt lat="-21.20321" lon="55.65099">
        <ele>2302</ele>
        <time>2013-01-20T04:42:30Z</time>
      </trkpt>
      <trkpt lat="-21.20333" lon="55.65106">
        <ele>2304</ele>
        <time>2013-01-20T04:42:40Z</time>
      </trkpt>
      <trkpt lat="-21.20348" lon="55.65112">
        <ele>2304</ele>
        <time>2013-01-20T04:42:50Z</time>
      </trkpt>
      <trkpt lat="-21.20361" lon="55.6512">
        <ele>2304</ele>
        <time>2013-01-20T04:43:00Z</time>
      </trkpt>
      <trkpt lat="-21.20375" lon="55.65127">
        <ele>2305</ele>
        <time>2013-01-20T04:43:10Z</time>
      </trkpt>
      <trkpt lat="-21.20387" lon="55.65136">
        <ele>2305</ele>
        <time>2013-01-20T04:43:20Z</time>
      </trkpt>
      <trkpt lat="-21.20397" lon="55.65147">
        <ele>2307</ele>
        <time>2013-01-20T04:43:30Z</time>
      </trkpt>
      <trkpt lat="-21.20407" lon="55.65159">
        <ele>2307</ele>
        <time>2013-01-20T04:43:41Z</time>
      </trkpt>
      <trkpt lat="-21.2042" lon="55.6517">
        <ele>2308</ele>
        <time>2013-01-20T04:43:51Z</time>
      </trkpt>
      <trkpt lat="-21.20433" lon="55.65178">
        <ele>2308</ele>
        <time>2013-01-20T04:44:01Z</time>
      </trkpt>
      <trkpt lat="-21.20447" lon="55.65186">
        <ele>2308</ele>
        <time>2013-01-20T04:44:11Z</time>
      </trkpt>
      <trkpt lat="-21.20461" lon="55.65192">
        <ele>2309</ele>
        <time>2013-01-20T04:44:21Z</time>
      </trkpt>
      <trkpt lat="-21.20475" lon="55.65199">
        <ele>2308</ele>
        <time>2013-01-20T04:44:31Z</time>
      </trkpt>
      <trkpt lat="-21.20494" lon="55.65202">
        <ele>2309</ele>
        <time>2013-01-20T04:44:41Z</time>
      </trkpt>
      <trkpt lat="-21.20508" lon="55.65205">
        <ele>2310</ele>
        <time>2013-01-20T04:44:51Z</time>
      </trkpt>
      <trkpt lat="-21.20522" lon="55.65209">
        <ele>2310</ele>
        <time>2013-01-20T04:45:01Z</time>
      </trkpt>
      <trkpt lat="-21.20535" lon="55.65213">
        <ele>2311</ele>
        <time>2013-01-20T04:45:11Z</time>
      </trkpt>
      <trkpt lat="-21.2055" lon="55.65218">
        <ele>2312</ele>
        <time>2013-01-20T04:45:21Z</time>
      </trkpt>
      <trkpt lat="-21.20565" lon="55.65221">
        <ele>2312</ele>
        <time>2013-01-20T04:45:31Z</time>
      </trkpt>
      <trkpt lat="-21.20575" lon="55.65229">
        <ele>2312</ele>
        <time>2013-01-20T04:45:41Z</time>
      </trkpt>
      <trkpt lat="-21.20591" lon="55.65231">
        <ele>2313</ele>
        <time>2013-01-20T04:45:51Z</time>
      </trkpt>
      <trkpt lat="-21.20604" lon="55.65239">
        <ele>2313</ele>
        <time>2013-01-20T04:46:01Z</time>
      </trkpt>
      <trkpt lat="-21.20617" lon="55.65243">
        <ele>2314</ele>
        <time>2013-01-20T04:46:11Z</time>
      </trkpt>
      <trkpt lat="-21.20631" lon="55.65247">
        <ele>2314</ele>
        <time>2013-01-20T04:46:22Z</time>
      </trkpt>
      <trkpt lat="-21.20643" lon="55.65252">
        <ele>2314</ele>
        <time>2013-01-20T04:46:32Z</time>
      </trkpt>
      <trkpt lat="-21.20656" lon="55.65257">
        <ele>2314</ele>
        <time>2013-01-20T04:46:42Z</time>
      </trkpt>
      <trkpt lat="-21.20668" lon="55.65261">
        <ele>2315</ele>
        <time>2013-01-20T04:46:52Z</time>
      </trkpt>
      <trkpt lat="-21.20682" lon="55.65266">
        <ele>2316</ele>
        <time>2013-01-20T04:47:02Z</time>
      </trkpt>
      <trkpt lat="-21.20694" lon="55.65271">
        <ele>2318</ele>
        <time>2013-01-20T04:47:12Z</time>
      </trkpt>
      <trkpt lat="-21.20708" lon="55.65277">
        <ele>2319</ele>
        <time>2013-01-20T04:47:22Z</time>
      </trkpt>
      <trkpt lat="-21.2072" lon="55.65281">
        <ele>2318</ele>
        <time>2013-01-20T04:47:32Z</time>
      </trkpt>
      <trkpt lat="-21.20733" lon="55.65284">
        <ele>2319</ele>
        <time>2013-01-20T04:47:42Z</time>
      </trkpt>
      <trkpt lat="-21.20746" lon="55.65289">
        <ele>2320</ele>
        <time>2013-01-20T04:47:52Z</time>
      </trkpt>
      <trkpt lat="-21.2076" lon="55.65295">
        <ele>2321</ele>
        <time>2013-01-20T04:48:02Z</time>
      </trkpt>
      <trkpt lat="-21.20773" lon="55.653">
        <ele>2322</ele>
        <time>2013-01-20T04:48:12Z</time>
      </trkpt>
      <trkpt lat="-21.20787" lon="55.65304">
        <ele>2323</ele>
        <time>2013-01-20T04:48:22Z</time>
      </trkpt>
      <trkpt lat="-21.20801" lon="55.65308">
        <ele>2324</ele>
        <time>2013-01-20T04:48:32Z</time>
      </trkpt>
      <trkpt lat="-21.20811" lon="55.65311">
        <ele>2326</ele>
        <time>2013-01-20T04:48:42Z</time>
      </trkpt>
      <trkpt lat="-21.20823" lon="55.65316">
        <ele>2327</ele>
        <time>2013-01-20T04:48:52Z</time>
      </trkpt>
      <trkpt lat="-21.20837" lon="55.65319">
        <ele>2328</ele>
        <time>2013-01-20T04:49:02Z</time>
      </trkpt>
      <trkpt lat="-21.20852" lon="55.65321">
        <ele>2328</ele>
        <time>2013-01-20T04:49:13Z</time>
      </trkpt>
      <trkpt lat="-21.20868" lon="55.65323">
        <ele>2329</ele>
        <time>2013-01-20T04:49:23Z</time>
      </trkpt>
      <trkpt lat="-21.20881" lon="55.65324">
        <ele>2330</ele>
        <time>2013-01-20T04:49:33Z</time>
      </trkpt>
      <trkpt lat="-21.20892" lon="55.65326">
        <ele>2331</ele>
        <time>2013-01-20T04:49:43Z</time>
      </trkpt>
      <trkpt lat="-21.20904" lon="55.65332">
        <ele>2332</ele>
        <time>2013-01-20T04:49:53Z</time>
      </trkpt>
      <trkpt lat="-21.20918" lon="55.65336">
        <ele>2333</ele>
        <time>2013-01-20T04:50:03Z</time>
      </trkpt>
      <trkpt lat="-21.20928" lon="55.65341">
        <ele>2334</ele>
        <time>2013-01-20T04:50:13Z</time>
      </trkpt>
      <trkpt lat="-21.20939" lon="55.65347">
        <ele>2337</ele>
        <time>2013-01-20T04:50:23Z</time>
      </trkpt>
      <trkpt lat="-21.20951" lon="55.65353">
        <ele>2337</ele>
        <time>2013-01-20T04:50:33Z</time>
      </trkpt>
      <trkpt lat="-21.20962" lon="55.65362">
        <ele>2337</ele>
        <time>2013-01-20T04:50:43Z</time>
      </trkpt>
      <trkpt lat="-21.20972" lon="55.65368">
        <ele>2338</ele>
        <time>2013-01-20T04:50:53Z</time>
      </trkpt>
      <trkpt lat="-21.20976" lon="55.65378">
        <ele>2338</ele>
        <time>2013-01-20T04:51:03Z</time>
      </trkpt>
      <trkpt lat="-21.20979" lon="55.65386">
        <ele>2340</ele>
        <time>2013-01-20T04:51:13Z</time>
      </trkpt>
      <trkpt lat="-21.20982" lon="55.65395">
        <ele>2342</ele>
        <time>2013-01-20T04:51:23Z</time>
      </trkpt>
      <trkpt lat="-21.2099" lon="55.654">
        <ele>2343</ele>
        <time>2013-01-20T04:51:33Z</time>
      </trkpt>
      <trkpt lat="-21.20998" lon="55.65396">
        <ele>2346</ele>
        <time>2013-01-20T04:51:43Z</time>
      </trkpt>
      <trkpt lat="-21.21006" lon="55.65394">
        <ele>2349</ele>
        <time>2013-01-20T04:51:53Z</time>
      </trkpt>
      <trkpt lat="-21.21015" lon="55.65396">
        <ele>2351</ele>
        <time>2013-01-20T04:52:04Z</time>
      </trkpt>
      <trkpt lat="-21.21023" lon="55.65399">
        <ele>2353</ele>
        <time>2013-01-20T04:52:14Z</time>
      </trkpt>
      <trkpt lat="-21.21031" lon="55.65405">
        <ele>2355</ele>
        <time>2013-01-20T04:52:24Z</time>
      </trkpt>
      <trkpt lat="-21.21043" lon="55.65413">
        <ele>2357</ele>
        <time>2013-01-20T04:52:34Z</time>
      </trkpt>
      <trkpt lat="-21.21052" lon="55.65419">
        <ele>2356</ele>
        <time>2013-01-20T04:52:44Z</time>
      </trkpt>
      <trkpt lat="-21.21056" lon="55.65427">
        <ele>2358</ele>
        <time>2013-01-20T04:52:54Z</time>
      </trkpt>
      <trkpt lat="-21.21061" lon="55.65432">
        <ele>2360</ele>
        <time>2013-01-20T04:53:04Z</time>
      </trkpt>
      <trkpt lat="-21.21066" lon="55.65441">
        <ele>2364</ele>
        <time>2013-01-20T04:53:14Z</time>
      </trkpt>
      <trkpt lat="-21.21074" lon="55.65449">
        <ele>2366</ele>
        <time>2013-01-20T04:53:24Z</time>
      </trkpt>
      <trkpt lat="-21.21086" lon="55.6545">
        <ele>2366</ele>
        <time>2013-01-20T04:53:34Z</time>
      </trkpt>
      <trkpt lat="-21.21098" lon="55.65445">
        <ele>2367</ele>
        <time>2013-01-20T04:53:44Z</time>
      </trkpt>
      <trkpt lat="-21.21112" lon="55.65438">
        <ele>2368</ele>
        <time>2013-01-20T04:53:54Z</time>
      </trkpt>
      <trkpt lat="-21.21128" lon="55.65437">
        <ele>2366</ele>
        <time>2013-01-20T04:54:04Z</time>
      </trkpt>
      <trkpt lat="-21.2114" lon="55.65444">
        <ele>2368</ele>
        <time>2013-01-20T04:54:14Z</time>
      </trkpt>
      <trkpt lat="-21.21151" lon="55.65451">
        <ele>2369</ele>
        <time>2013-01-20T04:54:24Z</time>
      </trkpt>
      <trkpt lat="-21.2116" lon="55.65453">
        <ele>2364</ele>
        <time>2013-01-20T04:54:34Z</time>
      </trkpt>
      <trkpt lat="-21.21173" lon="55.65455">
        <ele>2361</ele>
        <time>2013-01-20T04:54:45Z</time>
      </trkpt>
      <trkpt lat="-21.21187" lon="55.65454">
        <ele>2359</ele>
        <time>2013-01-20T04:54:55Z</time>
      </trkpt>
      <trkpt lat="-21.21202" lon="55.65456">
        <ele>2358</ele>
        <time>2013-01-20T04:55:05Z</time>
      </trkpt>
      <trkpt lat="-21.21214" lon="55.65463">
        <ele>2356</ele>
        <time>2013-01-20T04:55:15Z</time>
      </trkpt>
      <trkpt lat="-21.21227" lon="55.65472">
        <ele>2354</ele>
        <time>2013-01-20T04:55:25Z</time>
      </trkpt>
      <trkpt lat="-21.21243" lon="55.65477">
        <ele>2352</ele>
        <time>2013-01-20T04:55:35Z</time>
      </trkpt>
      <trkpt lat="-21.21255" lon="55.6548">
        <ele>2350</ele>
        <time>2013-01-20T04:55:45Z</time>
      </trkpt>
      <trkpt lat="-21.21269" lon="55.65481">
        <ele>2347</ele>
        <time>2013-01-20T04:55:55Z</time>
      </trkpt>
      <trkpt lat="-21.21285" lon="55.65483">
        <ele>2347</ele>
        <time>2013-01-20T04:56:05Z</time>
      </trkpt>
      <trkpt lat="-21.21298" lon="55.65485">
        <ele>2345</ele>
        <time>2013-01-20T04:56:15Z</time>
      </trkpt>
      <trkpt lat="-21.2131" lon="55.65487">
        <ele>2344</ele>
        <time>2013-01-20T04:56:25Z</time>
      </trkpt>
      <trkpt lat="-21.21319" lon="55.65495">
        <ele>2344</ele>
        <time>2013-01-20T04:56:35Z</time>
      </trkpt>
      <trkpt lat="-21.2133" lon="55.65501">
        <ele>2343</ele>
        <time>2013-01-20T04:56:45Z</time>
      </trkpt>
      <trkpt lat="-21.21341" lon="55.65507">
        <ele>2343</ele>
        <time>2013-01-20T04:56:56Z</time>
      </trkpt>
      <trkpt lat="-21.21351" lon="55.65515">
        <ele>2341</ele>
        <time>2013-01-20T04:57:06Z</time>
      </trkpt>
      <trkpt lat="-21.21368" lon="55.65519">
        <ele>2340</ele>
        <time>2013-01-20T04:57:16Z</time>
      </trkpt>
      <trkpt lat="-21.2138" lon="55.65527">
        <ele>2338</ele>
        <time>2013-01-20T04:57:26Z</time>
      </trkpt>
      <trkpt lat="-21.2139" lon="55.65537">
        <ele>2337</ele>
        <time>2013-01-20T04:57:36Z</time>
      </trkpt>
      <trkpt lat="-21.21401" lon="55.65549">
        <ele>2337</ele>
        <time>2013-01-20T04:57:46Z</time>
      </trkpt>
      <trkpt lat="-21.21413" lon="55.65559">
        <ele>2335</ele>
        <time>2013-01-20T04:57:56Z</time>
      </trkpt>
      <trkpt lat="-21.21426" lon="55.65565">
        <ele>2334</ele>
        <time>2013-01-20T04:58:06Z</time>
      </trkpt>
      <trkpt lat="-21.21435" lon="55.65573">
        <ele>2332</ele>
        <time>2013-01-20T04:58:16Z</time>
      </trkpt>
      <trkpt lat="-21.21447" lon="55.65585">
        <ele>2332</ele>
        <time>2013-01-20T04:58:26Z</time>
      </trkpt>
      <trkpt lat="-21.21456" lon="55.65594">
        <ele>2329</ele>
        <time>2013-01-20T04:58:36Z</time>
      </trkpt>
      <trkpt lat="-21.2147" lon="55.65603">
        <ele>2327</ele>
        <time>2013-01-20T04:58:46Z</time>
      </trkpt>
      <trkpt lat="-21.21491" lon="55.65603">
        <ele>2328</ele>
        <time>2013-01-20T04:58:56Z</time>
      </trkpt>
      <trkpt lat="-21.21511" lon="55.65604">
        <ele>2328</ele>
        <time>2013-01-20T04:59:06Z</time>
      </trkpt>
      <trkpt lat="-21.21531" lon="55.65606">
        <ele>2328</ele>
        <time>2013-01-20T04:59:16Z</time>
      </trkpt>
      <trkpt lat="-21.21551" lon="55.65606">
        <ele>2327</ele>
        <time>2013-01-20T04:59:26Z</time>
      </trkpt>
      <trkpt lat="-21.21566" lon="55.65608">
        <ele>2329</ele>
        <time>2013-01-20T04:59:36Z</time>
      </trkpt>
      <trkpt lat="-21.21581" lon="55.65608">
        <ele>2330</ele>
        <time>2013-01-20T04:59:47Z</time>
      </trkpt>
      <trkpt lat="-21.21599" lon="55.65609">
        <ele>2329</ele>
        <time>2013-01-20T04:59:57Z</time>
      </trkpt>
      <trkpt lat="-21.21616" lon="55.65609">
        <ele>2330</ele>
        <time>2013-01-20T05:00:07Z</time>
      </trkpt>
      <trkpt lat="-21.21631" lon="55.65612">
        <ele>2329</ele>
        <time>2013-01-20T05:00:17Z</time>
      </trkpt>
      <trkpt lat="-21.21647" lon="55.65612">
        <ele>2329</ele>
        <time>2013-01-20T05:00:27Z</time>
      </trkpt>
      <trkpt lat="-21.21664" lon="55.65612">
        <ele>2330</ele>
        <time>2013-01-20T05:00:37Z</time>
      </trkpt>
      <trkpt lat="-21.21679" lon="55.65613">
        <ele>2330</ele>
        <time>2013-01-20T05:00:47Z</time>
      </trkpt>
      <trkpt lat="-21.21684" lon="55.65601">
        <ele>2331</ele>
        <time>2013-01-20T05:00:57Z</time>
      </trkpt>
      <trkpt lat="-21.21684" lon="55.65585">
        <ele>2330</ele>
        <time>2013-01-20T05:01:07Z</time>
      </trkpt>
      <trkpt lat="-21.21686" lon="55.65569">
        <ele>2328</ele>
        <time>2013-01-20T05:01:17Z</time>
      </trkpt>
      <trkpt lat="-21.21699" lon="55.65559">
        <ele>2326</ele>
        <time>2013-01-20T05:01:27Z</time>
      </trkpt>
      <trkpt lat="-21.21709" lon="55.65565">
        <ele>2324</ele>
        <time>2013-01-20T05:01:37Z</time>
      </trkpt>
      <trkpt lat="-21.21719" lon="55.65556">
        <ele>2323</ele>
        <time>2013-01-20T05:01:47Z</time>
      </trkpt>
      <trkpt lat="-21.21733" lon="55.65556">
        <ele>2322</ele>
        <time>2013-01-20T05:01:57Z</time>
      </trkpt>
      <trkpt lat="-21.2174" lon="55.65562">
        <ele>2319</ele>
        <time>2013-01-20T05:02:07Z</time>
      </trkpt>
      <trkpt lat="-21.21727" lon="55.65567">
        <ele>2316</ele>
        <time>2013-01-20T05:02:17Z</time>
      </trkpt>
      <trkpt lat="-21.21715" lon="55.65576">
        <ele>2313</ele>
        <time>2013-01-20T05:02:27Z</time>
      </trkpt>
      <trkpt lat="-21.21704" lon="55.65581">
        <ele>2311</ele>
        <time>2013-01-20T05:02:37Z</time>
      </trkpt>
      <trkpt lat="-21.21708" lon="55.65584">
        <ele>2308</ele>
        <time>2013-01-20T05:02:47Z</time>
      </trkpt>
      <trkpt lat="-21.21725" lon="55.65582">
        <ele>2306</ele>
        <time>2013-01-20T05:02:58Z</time>
      </trkpt>
      <trkpt lat="-21.21743" lon="55.65581">
        <ele>2304</ele>
        <time>2013-01-20T05:03:08Z</time>
      </trkpt>
      <trkpt lat="-21.21757" lon="55.65585">
        <ele>2302</ele>
        <time>2013-01-20T05:03:18Z</time>
      </trkpt>
      <trkpt lat="-21.21766" lon="55.65592">
        <ele>2298</ele>
        <time>2013-01-20T05:03:28Z</time>
      </trkpt>
      <trkpt lat="-21.21752" lon="55.65593">
        <ele>2297</ele>
        <time>2013-01-20T05:03:38Z</time>
      </trkpt>
      <trkpt lat="-21.21735" lon="55.65597">
        <ele>2297</ele>
        <time>2013-01-20T05:03:48Z</time>
      </trkpt>
      <trkpt lat="-21.21725" lon="55.65603">
        <ele>2295</ele>
        <time>2013-01-20T05:03:58Z</time>
      </trkpt>
      <trkpt lat="-21.2174" lon="55.65605">
        <ele>2292</ele>
        <time>2013-01-20T05:04:08Z</time>
      </trkpt>
      <trkpt lat="-21.21755" lon="55.65609">
        <ele>2288</ele>
        <time>2013-01-20T05:04:18Z</time>
      </trkpt>
      <trkpt lat="-21.21772" lon="55.65614">
        <ele>2286</ele>
        <time>2013-01-20T05:04:28Z</time>
      </trkpt>
      <trkpt lat="-21.21785" lon="55.65625">
        <ele>2288</ele>
        <time>2013-01-20T05:04:38Z</time>
      </trkpt>
      <trkpt lat="-21.21798" lon="55.65624">
        <ele>2286</ele>
        <time>2013-01-20T05:04:48Z</time>
      </trkpt>
      <trkpt lat="-21.21813" lon="55.65614">
        <ele>2282</ele>
        <time>2013-01-20T05:04:58Z</time>
      </trkpt>
      <trkpt lat="-21.21826" lon="55.65598">
        <ele>2283</ele>
        <time>2013-01-20T05:05:08Z</time>
      </trkpt>
      <trkpt lat="-21.21835" lon="55.65585">
        <ele>2281</ele>
        <time>2013-01-20T05:05:18Z</time>
      </trkpt>
      <trkpt lat="-21.21851" lon="55.65583">
        <ele>2278</ele>
        <time>2013-01-20T05:05:28Z</time>
      </trkpt>
      <trkpt lat="-21.21866" lon="55.65579">
        <ele>2275</ele>
        <time>2013-01-20T05:05:38Z</time>
      </trkpt>
      <trkpt lat="-21.2188" lon="55.65575">
        <ele>2274</ele>
        <time>2013-01-20T05:05:48Z</time>
      </trkpt>
      <trkpt lat="-21.21895" lon="55.65577">
        <ele>2272</ele>
        <time>2013-01-20T05:05:58Z</time>
      </trkpt>
      <trkpt lat="-21.21909" lon="55.65578">
        <ele>2270</ele>
        <time>2013-01-20T05:06:08Z</time>
      </trkpt>
      <trkpt lat="-21.21914" lon="55.65585">
        <ele>2268</ele>
        <time>2013-01-20T05:06:18Z</time>
      </trkpt>
      <trkpt lat="-21.21906" lon="55.65589">
        <ele>2264</ele>
        <time>2013-01-20T05:06:28Z</time>
      </trkpt>
      <trkpt lat="-21.21892" lon="55.65595">
        <ele>2262</ele>
        <time>2013-01-20T05:06:38Z</time>
      </trkpt>
      <trkpt lat="-21.21891" lon="55.65602">
        <ele>2259</ele>
        <time>2013-01-20T05:06:49Z</time>
      </trkpt>
      <trkpt lat="-21.21905" lon="55.65604">
        <ele>2255</ele>
        <time>2013-01-20T05:06:59Z</time>
      </trkpt>
      <trkpt lat="-21.21914" lon="55.65608">
        <ele>2252</ele>
        <time>2013-01-20T05:07:09Z</time>
      </trkpt>
      <trkpt lat="-21.21907" lon="55.65613">
        <ele>2249</ele>
        <time>2013-01-20T05:07:19Z</time>
      </trkpt>
      <trkpt lat="-21.21896" lon="55.65619">
        <ele>2246</ele>
        <time>2013-01-20T05:07:29Z</time>
      </trkpt>
      <trkpt lat="-21.21884" lon="55.65627">
        <ele>2243</ele>
        <time>2013-01-20T05:07:39Z</time>
      </trkpt>
      <trkpt lat="-21.21871" lon="55.65635">
        <ele>2241</ele>
        <time>2013-01-20T05:07:49Z</time>
      </trkpt>
      <trkpt lat="-21.21857" lon="55.65642">
        <ele>2239</ele>
        <time>2013-01-20T05:07:59Z</time>
      </trkpt>
      <trkpt lat="-21.21843" lon="55.65651">
        <ele>2235</ele>
        <time>2013-01-20T05:08:09Z</time>
      </trkpt>
      <trkpt lat="-21.21858" lon="55.65655">
        <ele>2233</ele>
        <time>2013-01-20T05:08:19Z</time>
      </trkpt>
      <trkpt lat="-21.21859" lon="55.65662">
        <ele>2230</ele>
        <time>2013-01-20T05:08:29Z</time>
      </trkpt>
      <trkpt lat="-21.21863" lon="55.6567">
        <ele>2225</ele>
        <time>2013-01-20T05:08:39Z</time>
      </trkpt>
      <trkpt lat="-21.21873" lon="55.65679">
        <ele>2221</ele>
        <time>2013-01-20T05:08:49Z</time>
      </trkpt>
      <trkpt lat="-21.21888" lon="55.65696">
        <ele>2217</ele>
        <time>2013-01-20T05:08:59Z</time>
      </trkpt>
      <trkpt lat="-21.21902" lon="55.65715">
        <ele>2216</ele>
        <time>2013-01-20T05:09:09Z</time>
      </trkpt>
      <trkpt lat="-21.2191" lon="55.65728">
        <ele>2215</ele>
        <time>2013-01-20T05:09:19Z</time>
      </trkpt>
      <trkpt lat="-21.21917" lon="55.65747">
        <ele>2216</ele>
        <time>2013-01-20T05:09:29Z</time>
      </trkpt>
      <trkpt lat="-21.21922" lon="55.65765">
        <ele>2214</ele>
        <time>2013-01-20T05:09:39Z</time>
      </trkpt>
      <trkpt lat="-21.21928" lon="55.65787">
        <ele>2214</ele>
        <time>2013-01-20T05:09:50Z</time>
      </trkpt>
      <trkpt lat="-21.21935" lon="55.65808">
        <ele>2214</ele>
        <time>2013-01-20T05:10:00Z</time>
      </trkpt>
      <trkpt lat="-21.2194" lon="55.6583">
        <ele>2214</ele>
        <time>2013-01-20T05:10:10Z</time>
      </trkpt>
      <trkpt lat="-21.21946" lon="55.6585">
        <ele>2214</ele>
        <time>2013-01-20T05:10:20Z</time>
      </trkpt>
      <trkpt lat="-21.21951" lon="55.65865">
        <ele>2216</ele>
        <time>2013-01-20T05:10:30Z</time>
      </trkpt>
      <trkpt lat="-21.21955" lon="55.65881">
        <ele>2216</ele>
        <time>2013-01-20T05:10:40Z</time>
      </trkpt>
      <trkpt lat="-21.21959" lon="55.65897">
        <ele>2215</ele>
        <time>2013-01-20T05:10:50Z</time>
      </trkpt>
      <trkpt lat="-21.21963" lon="55.6591">
        <ele>2215</ele>
        <time>2013-01-20T05:11:00Z</time>
      </trkpt>
      <trkpt lat="-21.21964" lon="55.65917">
        <ele>2216</ele>
        <time>2013-01-20T05:11:10Z</time>
      </trkpt>
      <trkpt lat="-21.21967" lon="55.65933">
        <ele>2215</ele>
        <time>2013-01-20T05:11:20Z</time>
      </trkpt>
      <trkpt lat="-21.2197" lon="55.65947">
        <ele>2217</ele>
        <time>2013-01-20T05:11:30Z</time>
      </trkpt>
      <trkpt lat="-21.21974" lon="55.65965">
        <ele>2217</ele>
        <time>2013-01-20T05:11:40Z</time>
      </trkpt>
      <trkpt lat="-21.2198" lon="55.65981">
        <ele>2217</ele>
        <time>2013-01-20T05:11:50Z</time>
      </trkpt>
      <trkpt lat="-21.21985" lon="55.65997">
        <ele>2217</ele>
        <time>2013-01-20T05:12:00Z</time>
      </trkpt>
      <trkpt lat="-21.2199" lon="55.66013">
        <ele>2216</ele>
        <time>2013-01-20T05:12:10Z</time>
      </trkpt>
      <trkpt lat="-21.21994" lon="55.66027">
        <ele>2217</ele>
        <time>2013-01-20T05:12:20Z</time>
      </trkpt>
      <trkpt lat="-21.21998" lon="55.66042">
        <ele>2216</ele>
        <time>2013-01-20T05:12:30Z</time>
      </trkpt>
      <trkpt lat="-21.22" lon="55.66056">
        <ele>2217</ele>
        <time>2013-01-20T05:12:41Z</time>
      </trkpt>
      <trkpt lat="-21.22004" lon="55.66072">
        <ele>2217</ele>
        <time>2013-01-20T05:12:51Z</time>
      </trkpt>
      <trkpt lat="-21.22009" lon="55.66088">
        <ele>2216</ele>
        <time>2013-01-20T05:13:01Z</time>
      </trkpt>
      <trkpt lat="-21.22015" lon="55.66104">
        <ele>2217</ele>
        <time>2013-01-20T05:13:11Z</time>
      </trkpt>
      <trkpt lat="-21.22019" lon="55.6612">
        <ele>2217</ele>
        <time>2013-01-20T05:13:21Z</time>
      </trkpt>
      <trkpt lat="-21.22022" lon="55.66137">
        <ele>2216</ele>
        <time>2013-01-20T05:13:31Z</time>
      </trkpt>
      <trkpt lat="-21.22024" lon="55.66154">
        <ele>2216</ele>
        <time>2013-01-20T05:13:41Z</time>
      </trkpt>
      <trkpt lat="-21.22028" lon="55.66171">
        <ele>2217</ele>
        <time>2013-01-20T05:13:51Z</time>
      </trkpt>
      <trkpt lat="-21.2203" lon="55.66189">
        <ele>2218</ele>
        <time>2013-01-20T05:14:01Z</time>
      </trkpt>
      <trkpt lat="-21.22036" lon="55.66204">
        <ele>2217</ele>
        <time>2013-01-20T05:14:11Z</time>
      </trkpt>
      <trkpt lat="-21.22046" lon="55.66217">
        <ele>2218</ele>
        <time>2013-01-20T05:14:21Z</time>
      </trkpt>
      <trkpt lat="-21.22051" lon="55.66231">
        <ele>2219</ele>
        <time>2013-01-20T05:14:31Z</time>
      </trkpt>
      <trkpt lat="-21.22054" lon="55.66247">
        <ele>2220</ele>
        <time>2013-01-20T05:14:41Z</time>
      </trkpt>
      <trkpt lat="-21.22057" lon="55.66261">
        <ele>2221</ele>
        <time>2013-01-20T05:14:51Z</time>
      </trkpt>
      <trkpt lat="-21.2206" lon="55.66277">
        <ele>2222</ele>
        <time>2013-01-20T05:15:01Z</time>
      </trkpt>
      <trkpt lat="-21.22056" lon="55.66292">
        <ele>2223</ele>
        <time>2013-01-20T05:15:11Z</time>
      </trkpt>
      <trkpt lat="-21.22053" lon="55.66307">
        <ele>2223</ele>
        <time>2013-01-20T05:15:21Z</time>
      </trkpt>
      <trkpt lat="-21.2205" lon="55.66322">
        <ele>2224</ele>
        <time>2013-01-20T05:15:31Z</time>
      </trkpt>
      <trkpt lat="-21.22051" lon="55.66337">
        <ele>2225</ele>
        <time>2013-01-20T05:15:42Z</time>
      </trkpt>
      <trkpt lat="-21.22051" lon="55.66352">
        <ele>2225</ele>
        <time>2013-01-20T05:15:52Z</time>
      </trkpt>
      <trkpt lat="-21.22054" lon="55.66368">
        <ele>2226</ele>
        <time>2013-01-20T05:16:02Z</time>
      </trkpt>
      <trkpt lat="-21.22061" lon="55.66384">
        <ele>2226</ele>
        <time>2013-01-20T05:16:12Z</time>
      </trkpt>
      <trkpt lat="-21.22064" lon="55.66401">
        <ele>2226</ele>
        <time>2013-01-20T05:16:22Z</time>
      </trkpt>
      <trkpt lat="-21.22073" lon="55.66419">
        <ele>2225</ele>
        <time>2013-01-20T05:16:32Z</time>
      </trkpt>
      <trkpt lat="-21.22086" lon="55.66439">
        <ele>2225</ele>
        <time>2013-01-20T05:16:42Z</time>
      </trkpt>
      <trkpt lat="-21.22098" lon="55.6646">
        <ele>2224</ele>
        <time>2013-01-20T05:16:52Z</time>
      </trkpt>
      <trkpt lat="-21.22111" lon="55.66478">
        <ele>2224</ele>
        <time>2013-01-20T05:17:02Z</time>
      </trkpt>
      <trkpt lat="-21.22121" lon="55.66497">
        <ele>2225</ele>
        <time>2013-01-20T05:17:12Z</time>
      </trkpt>
      <trkpt lat="-21.22131" lon="55.66515">
        <ele>2224</ele>
        <time>2013-01-20T05:17:22Z</time>
      </trkpt>
      <trkpt lat="-21.2214" lon="55.66529">
        <ele>2225</ele>
        <time>2013-01-20T05:17:32Z</time>
      </trkpt>
      <trkpt lat="-21.22148" lon="55.66542">
        <ele>2226</ele>
        <time>2013-01-20T05:17:42Z</time>
      </trkpt>
      <trkpt lat="-21.22155" lon="55.66556">
        <ele>2226</ele>
        <time>2013-01-20T05:17:52Z</time>
      </trkpt>
      <trkpt lat="-21.22165" lon="55.6657">
        <ele>2225</ele>
        <time>2013-01-20T05:18:02Z</time>
      </trkpt>
      <trkpt lat="-21.22174" lon="55.66584">
        <ele>2226</ele>
        <time>2013-01-20T05:18:12Z</time>
      </trkpt>
      <trkpt lat="-21.22182" lon="55.66599">
        <ele>2226</ele>
        <time>2013-01-20T05:18:22Z</time>
      </trkpt>
      <trkpt lat="-21.2219" lon="55.66612">
        <ele>2227</ele>
        <time>2013-01-20T05:18:32Z</time>
      </trkpt>
      <trkpt lat="-21.22199" lon="55.66626">
        <ele>2226</ele>
        <time>2013-01-20T05:18:42Z</time>
      </trkpt>
      <trkpt lat="-21.22208" lon="55.66641">
        <ele>2227</ele>
        <time>2013-01-20T05:18:52Z</time>
      </trkpt>
      <trkpt lat="-21.22217" lon="55.66656">
        <ele>2226</ele>
        <time>2013-01-20T05:19:02Z</time>
      </trkpt>
      <trkpt lat="-21.22227" lon="55.66671">
        <ele>2227</ele>
        <time>2013-01-20T05:19:12Z</time>
      </trkpt>
      <trkpt lat="-21.22236" lon="55.66685">
        <ele>2227</ele>
        <time>2013-01-20T05:19:22Z</time>
      </trkpt>
      <trkpt lat="-21.22245" lon="55.66699">
        <ele>2227</ele>
        <time>2013-01-20T05:19:32Z</time>
      </trkpt>
      <trkpt lat="-21.22253" lon="55.66713">
        <ele>2228</ele>
        <time>2013-01-20T05:19:42Z</time>
      </trkpt>
      <trkpt lat="-21.22262" lon="55.66726">
        <ele>2229</ele>
        <time>2013-01-20T05:19:53Z</time>
      </trkpt>
      <trkpt lat="-21.2227" lon="55.66741">
        <ele>2229</ele>
        <time>2013-01-20T05:20:03Z</time>
      </trkpt>
      <trkpt lat="-21.22279" lon="55.66755">
        <ele>2230</ele>
        <time>2013-01-20T05:20:13Z</time>
      </trkpt>
      <trkpt lat="-21.22288" lon="55.6677">
        <ele>2230</ele>
        <time>2013-01-20T05:20:23Z</time>
      </trkpt>
      <trkpt lat="-21.22297" lon="55.66785">
        <ele>2229</ele>
        <time>2013-01-20T05:20:33Z</time>
      </trkpt>
      <trkpt lat="-21.22305" lon="55.668">
        <ele>2230</ele>
        <time>2013-01-20T05:20:43Z</time>
      </trkpt>
      <trkpt lat="-21.22313" lon="55.66815">
        <ele>2231</ele>
        <time>2013-01-20T05:20:53Z</time>
      </trkpt>
      <trkpt lat="-21.22322" lon="55.66829">
        <ele>2231</ele>
        <time>2013-01-20T05:21:03Z</time>
      </trkpt>
      <trkpt lat="-21.22331" lon="55.66843">
        <ele>2230</ele>
        <time>2013-01-20T05:21:13Z</time>
      </trkpt>
      <trkpt lat="-21.2234" lon="55.66855">
        <ele>2231</ele>
        <time>2013-01-20T05:21:23Z</time>
      </trkpt>
      <trkpt lat="-21.22348" lon="55.66869">
        <ele>2232</ele>
        <time>2013-01-20T05:21:33Z</time>
      </trkpt>
      <trkpt lat="-21.22356" lon="55.66883">
        <ele>2234</ele>
        <time>2013-01-20T05:21:43Z</time>
      </trkpt>
      <trkpt lat="-21.22364" lon="55.66896">
        <ele>2234</ele>
        <time>2013-01-20T05:21:53Z</time>
      </trkpt>
      <trkpt lat="-21.22372" lon="55.66908">
        <ele>2234</ele>
        <time>2013-01-20T05:22:03Z</time>
      </trkpt>
      <trkpt lat="-21.22379" lon="55.6692">
        <ele>2235</ele>
        <time>2013-01-20T05:22:13Z</time>
      </trkpt>
      <trkpt lat="-21.22387" lon="55.6693">
        <ele>2237</ele>
        <time>2013-01-20T05:22:23Z</time>
      </trkpt>
      <trkpt lat="-21.22393" lon="55.66941">
        <ele>2238</ele>
        <time>2013-01-20T05:22:33Z</time>
      </trkpt>
      <trkpt lat="-21.22397" lon="55.66952">
        <ele>2241</ele>
        <time>2013-01-20T05:22:44Z</time>
      </trkpt>
      <trkpt lat="-21.224" lon="55.66963">
        <ele>2244</ele>
        <time>2013-01-20T05:22:54Z</time>
      </trkpt>
      <trkpt lat="-21.22403" lon="55.66977">
        <ele>2244</ele>
        <time>2013-01-20T05:23:04Z</time>
      </trkpt>
      <trkpt lat="-21.22402" lon="55.66988">
        <ele>2246</ele>
        <time>2013-01-20T05:23:14Z</time>
      </trkpt>
      <trkpt lat="-21.22402" lon="55.66996">
        <ele>2248</ele>
        <time>2013-01-20T05:23:24Z</time>
      </trkpt>
      <trkpt lat="-21.22403" lon="55.67005">
        <ele>2251</ele>
        <time>2013-01-20T05:23:34Z</time>
      </trkpt>
      <trkpt lat="-21.22405" lon="55.67014">
        <ele>2252</ele>
        <time>2013-01-20T05:23:44Z</time>
      </trkpt>
      <trkpt lat="-21.22411" lon="55.6702">
        <ele>2254</ele>
        <time>2013-01-20T05:23:54Z</time>
      </trkpt>
      <trkpt lat="-21.22412" lon="55.67028">
        <ele>2257</ele>
        <time>2013-01-20T05:24:04Z</time>
      </trkpt>
      <trkpt lat="-21.22416" lon="55.67038">
        <ele>2258</ele>
        <time>2013-01-20T05:24:14Z</time>
      </trkpt>
      <trkpt lat="-21.22419" lon="55.67048">
        <ele>2260</ele>
        <time>2013-01-20T05:24:24Z</time>
      </trkpt>
      <trkpt lat="-21.22424" lon="55.67057">
        <ele>2261</ele>
        <time>2013-01-20T05:24:34Z</time>
      </trkpt>
      <trkpt lat="-21.22427" lon="55.6707">
        <ele>2262</ele>
        <time>2013-01-20T05:24:44Z</time>
      </trkpt>
      <trkpt lat="-21.22428" lon="55.6708">
        <ele>2263</ele>
        <time>2013-01-20T05:24:54Z</time>
      </trkpt>
      <trkpt lat="-21.22432" lon="55.67091">
        <ele>2265</ele>
        <time>2013-01-20T05:25:04Z</time>
      </trkpt>
      <trkpt lat="-21.22435" lon="55.67101">
        <ele>2267</ele>
        <time>2013-01-20T05:25:14Z</time>
      </trkpt>
      <trkpt lat="-21.22442" lon="55.67113">
        <ele>2269</ele>
        <time>2013-01-20T05:25:24Z</time>
      </trkpt>
      <trkpt lat="-21.22445" lon="55.67127">
        <ele>2268</ele>
        <time>2013-01-20T05:25:34Z</time>
      </trkpt>
      <trkpt lat="-21.22446" lon="55.67143">
        <ele>2269</ele>
        <time>2013-01-20T05:25:45Z</time>
      </trkpt>
      <trkpt lat="-21.22448" lon="55.67156">
        <ele>2270</ele>
        <time>2013-01-20T05:25:55Z</time>
      </trkpt>
      <trkpt lat="-21.22447" lon="55.67171">
        <ele>2270</ele>
        <time>2013-01-20T05:26:05Z</time>
      </trkpt>
      <trkpt lat="-21.22449" lon="55.67187">
        <ele>2268</ele>
        <time>2013-01-20T05:26:15Z</time>
      </trkpt>
      <trkpt lat="-21.22456" lon="55.67204">
        <ele>2267</ele>
        <time>2013-01-20T05:26:25Z</time>
      </trkpt>
      <trkpt lat="-21.22463" lon="55.67219">
        <ele>2267</ele>
        <time>2013-01-20T05:26:35Z</time>
      </trkpt>
      <trkpt lat="-21.2247" lon="55.67234">
        <ele>2267</ele>
        <time>2013-01-20T05:26:45Z</time>
      </trkpt>
      <trkpt lat="-21.22481" lon="55.67245">
        <ele>2266</ele>
        <time>2013-01-20T05:26:55Z</time>
      </trkpt>
      <trkpt lat="-21.22484" lon="55.67261">
        <ele>2266</ele>
        <time>2013-01-20T05:27:05Z</time>
      </trkpt>
      <trkpt lat="-21.22484" lon="55.67276">
        <ele>2267</ele>
        <time>2013-01-20T05:27:15Z</time>
      </trkpt>
      <trkpt lat="-21.22482" lon="55.67289">
        <ele>2269</ele>
        <time>2013-01-20T05:27:25Z</time>
      </trkpt>
      <trkpt lat="-21.22481" lon="55.67303">
        <ele>2269</ele>
        <time>2013-01-20T05:27:35Z</time>
      </trkpt>
      <trkpt lat="-21.22482" lon="55.67318">
        <ele>2271</ele>
        <time>2013-01-20T05:27:45Z</time>
      </trkpt>
      <trkpt lat="-21.22481" lon="55.67333">
        <ele>2271</ele>
        <time>2013-01-20T05:27:55Z</time>
      </trkpt>
      <trkpt lat="-21.22484" lon="55.67345">
        <ele>2272</ele>
        <time>2013-01-20T05:28:05Z</time>
      </trkpt>
      <trkpt lat="-21.22485" lon="55.67357">
        <ele>2274</ele>
        <time>2013-01-20T05:28:15Z</time>
      </trkpt>
      <trkpt lat="-21.22485" lon="55.67371">
        <ele>2276</ele>
        <time>2013-01-20T05:28:25Z</time>
      </trkpt>
      <trkpt lat="-21.22483" lon="55.67386">
        <ele>2275</ele>
        <time>2013-01-20T05:28:35Z</time>
      </trkpt>
      <trkpt lat="-21.2248" lon="55.67395">
        <ele>2276</ele>
        <time>2013-01-20T05:28:45Z</time>
      </trkpt>
      <trkpt lat="-21.22477" lon="55.67408">
        <ele>2278</ele>
        <time>2013-01-20T05:28:55Z</time>
      </trkpt>
      <trkpt lat="-21.22476" lon="55.67423">
        <ele>2278</ele>
        <time>2013-01-20T05:29:05Z</time>
      </trkpt>
      <trkpt lat="-21.22478" lon="55.6744">
        <ele>2279</ele>
        <time>2013-01-20T05:29:16Z</time>
      </trkpt>
      <trkpt lat="-21.22475" lon="55.67456">
        <ele>2280</ele>
        <time>2013-01-20T05:29:26Z</time>
      </trkpt>
      <trkpt lat="-21.22467" lon="55.6747">
        <ele>2280</ele>
        <time>2013-01-20T05:29:36Z</time>
      </trkpt>
      <trkpt lat="-21.22457" lon="55.67482">
        <ele>2280</ele>
        <time>2013-01-20T05:29:46Z</time>
      </trkpt>
      <trkpt lat="-21.22445" lon="55.67492">
        <ele>2280</ele>
        <time>2013-01-20T05:29:56Z</time>
      </trkpt>
      <trkpt lat="-21.22433" lon="55.67503">
        <ele>2281</ele>
        <time>2013-01-20T05:30:06Z</time>
      </trkpt>
      <trkpt lat="-21.22424" lon="55.67514">
        <ele>2281</ele>
        <time>2013-01-20T05:30:16Z</time>
      </trkpt>
      <trkpt lat="-21.22412" lon="55.67524">
        <ele>2282</ele>
        <time>2013-01-20T05:30:26Z</time>
      </trkpt>
      <trkpt lat="-21.224" lon="55.67534">
        <ele>2282</ele>
        <time>2013-01-20T05:30:36Z</time>
      </trkpt>
      <trkpt lat="-21.22394" lon="55.67547">
        <ele>2283</ele>
        <time>2013-01-20T05:30:46Z</time>
      </trkpt>
      <trkpt lat="-21.22383" lon="55.67558">
        <ele>2282</ele>
        <time>2013-01-20T05:30:56Z</time>
      </trkpt>
      <trkpt lat="-21.2237" lon="55.6757">
        <ele>2282</ele>
        <time>2013-01-20T05:31:06Z</time>
      </trkpt>
      <trkpt lat="-21.22358" lon="55.67582">
        <ele>2280</ele>
        <time>2013-01-20T05:31:16Z</time>
      </trkpt>
      <trkpt lat="-21.22349" lon="55.67593">
        <ele>2282</ele>
        <time>2013-01-20T05:31:26Z</time>
      </trkpt>
      <trkpt lat="-21.22339" lon="55.67608">
        <ele>2281</ele>
        <time>2013-01-20T05:31:36Z</time>
      </trkpt>
      <trkpt lat="-21.22326" lon="55.67621">
        <ele>2280</ele>
        <time>2013-01-20T05:31:47Z</time>
      </trkpt>
      <trkpt lat="-21.22312" lon="55.67634">
        <ele>2279</ele>
        <time>2013-01-20T05:31:57Z</time>
      </trkpt>
      <trkpt lat="-21.22301" lon="55.67648">
        <ele>2279</ele>
        <time>2013-01-20T05:32:07Z</time>
      </trkpt>
      <trkpt lat="-21.22287" lon="55.67657">
        <ele>2277</ele>
        <time>2013-01-20T05:32:17Z</time>
      </trkpt>
      <trkpt lat="-21.22271" lon="55.67666">
        <ele>2275</ele>
        <time>2013-01-20T05:32:27Z</time>
      </trkpt>
      <trkpt lat="-21.22256" lon="55.67672">
        <ele>2275</ele>
        <time>2013-01-20T05:32:37Z</time>
      </trkpt>
      <trkpt lat="-21.22242" lon="55.6768">
        <ele>2274</ele>
        <time>2013-01-20T05:32:47Z</time>
      </trkpt>
      <trkpt lat="-21.22227" lon="55.67688">
        <ele>2273</ele>
        <time>2013-01-20T05:32:57Z</time>
      </trkpt>
      <trkpt lat="-21.22215" lon="55.67699">
        <ele>2271</ele>
        <time>2013-01-20T05:33:07Z</time>
      </trkpt>
      <trkpt lat="-21.22203" lon="55.67705">
        <ele>2269</ele>
        <time>2013-01-20T05:33:17Z</time>
      </trkpt>
      <trkpt lat="-21.22203" lon="55.67718">
        <ele>2268</ele>
        <time>2013-01-20T05:33:27Z</time>
      </trkpt>
      <trkpt lat="-21.2219" lon="55.6773">
        <ele>2265</ele>
        <time>2013-01-20T05:33:37Z</time>
      </trkpt>
      <trkpt lat="-21.22174" lon="55.67747">
        <ele>2261</ele>
        <time>2013-01-20T05:33:47Z</time>
      </trkpt>
      <trkpt lat="-21.22162" lon="55.67761">
        <ele>2258</ele>
        <time>2013-01-20T05:33:57Z</time>
      </trkpt>
      <trkpt lat="-21.22162" lon="55.67769">
        <ele>2257</ele>
        <time>2013-01-20T05:34:08Z</time>
      </trkpt>
      <trkpt lat="-21.22171" lon="55.67778">
        <ele>2257</ele>
        <time>2013-01-20T05:34:18Z</time>
      </trkpt>
      <trkpt lat="-21.22171" lon="55.67785">
        <ele>2257</ele>
        <time>2013-01-20T05:34:28Z</time>
      </trkpt>
      <trkpt lat="-21.22168" lon="55.67797">
        <ele>2256</ele>
        <time>2013-01-20T05:34:38Z</time>
      </trkpt>
      <trkpt lat="-21.22166" lon="55.67813">
        <ele>2256</ele>
        <time>2013-01-20T05:34:48Z</time>
      </trkpt>
      <trkpt lat="-21.22163" lon="55.67828">
        <ele>2257</ele>
        <time>2013-01-20T05:34:58Z</time>
      </trkpt>
      <trkpt lat="-21.22158" lon="55.67841">
        <ele>2257</ele>
        <time>2013-01-20T05:35:08Z</time>
      </trkpt>
      <trkpt lat="-21.22147" lon="55.67848">
        <ele>2253</ele>
        <time>2013-01-20T05:35:18Z</time>
      </trkpt>
      <trkpt lat="-21.22135" lon="55.6786">
        <ele>2252</ele>
        <time>2013-01-20T05:35:28Z</time>
      </trkpt>
      <trkpt lat="-21.22128" lon="55.67876">
        <ele>2251</ele>
        <time>2013-01-20T05:35:38Z</time>
      </trkpt>
      <trkpt lat="-21.22121" lon="55.67892">
        <ele>2251</ele>
        <time>2013-01-20T05:35:48Z</time>
      </trkpt>
      <trkpt lat="-21.22116" lon="55.67904">
        <ele>2248</ele>
        <time>2013-01-20T05:35:58Z</time>
      </trkpt>
      <trkpt lat="-21.2211" lon="55.67917">
        <ele>2247</ele>
        <time>2013-01-20T05:36:08Z</time>
      </trkpt>
      <trkpt lat="-21.22107" lon="55.67932">
        <ele>2245</ele>
        <time>2013-01-20T05:36:18Z</time>
      </trkpt>
      <trkpt lat="-21.221" lon="55.67943">
        <ele>2244</ele>
        <time>2013-01-20T05:36:28Z</time>
      </trkpt>
      <trkpt lat="-21.22096" lon="55.67959">
        <ele>2243</ele>
        <time>2013-01-20T05:36:38Z</time>
      </trkpt>
      <trkpt lat="-21.22091" lon="55.67973">
        <ele>2241</ele>
        <time>2013-01-20T05:36:49Z</time>
      </trkpt>
      <trkpt lat="-21.22087" lon="55.67988">
        <ele>2239</ele>
        <time>2013-01-20T05:36:59Z</time>
      </trkpt>
      <trkpt lat="-21.22084" lon="55.67996">
        <ele>2236</ele>
        <time>2013-01-20T05:37:09Z</time>
      </trkpt>
      <trkpt lat="-21.22075" lon="55.68003">
        <ele>2237</ele>
        <time>2013-01-20T05:37:19Z</time>
      </trkpt>
      <trkpt lat="-21.22064" lon="55.68016">
        <ele>2235</ele>
        <time>2013-01-20T05:37:29Z</time>
      </trkpt>
      <trkpt lat="-21.22055" lon="55.68026">
        <ele>2235</ele>
        <time>2013-01-20T05:37:39Z</time>
      </trkpt>
      <trkpt lat="-21.22051" lon="55.6804">
        <ele>2231</ele>
        <time>2013-01-20T05:37:49Z</time>
      </trkpt>
      <trkpt lat="-21.22044" lon="55.68053">
        <ele>2231</ele>
        <time>2013-01-20T05:37:59Z</time>
      </trkpt>
      <trkpt lat="-21.22038" lon="55.68065">
        <ele>2233</ele>
        <time>2013-01-20T05:38:09Z</time>
      </trkpt>
      <trkpt lat="-21.22034" lon="55.68079">
        <ele>2232</ele>
        <time>2013-01-20T05:38:19Z</time>
      </trkpt>
      <trkpt lat="-21.22029" lon="55.68093">
        <ele>2233</ele>
        <time>2013-01-20T05:38:29Z</time>
      </trkpt>
      <trkpt lat="-21.22023" lon="55.68106">
        <ele>2232</ele>
        <time>2013-01-20T05:38:39Z</time>
      </trkpt>
      <trkpt lat="-21.22017" lon="55.68121">
        <ele>2232</ele>
        <time>2013-01-20T05:38:49Z</time>
      </trkpt>
      <trkpt lat="-21.22009" lon="55.68132">
        <ele>2231</ele>
        <time>2013-01-20T05:39:00Z</time>
      </trkpt>
      <trkpt lat="-21.22001" lon="55.68146">
        <ele>2233</ele>
        <time>2013-01-20T05:39:10Z</time>
      </trkpt>
      <trkpt lat="-21.21996" lon="55.68161">
        <ele>2233</ele>
        <time>2013-01-20T05:39:20Z</time>
      </trkpt>
      <trkpt lat="-21.2199" lon="55.68174">
        <ele>2234</ele>
        <time>2013-01-20T05:39:30Z</time>
      </trkpt>
      <trkpt lat="-21.21982" lon="55.68187">
        <ele>2235</ele>
        <time>2013-01-20T05:39:40Z</time>
      </trkpt>
      <trkpt lat="-21.21977" lon="55.68202">
        <ele>2233</ele>
        <time>2013-01-20T05:39:50Z</time>
      </trkpt>
      <trkpt lat="-21.21972" lon="55.68217">
        <ele>2233</ele>
        <time>2013-01-20T05:40:00Z</time>
      </trkpt>
      <trkpt lat="-21.21971" lon="55.68232">
        <ele>2233</ele>
        <time>2013-01-20T05:40:10Z</time>
      </trkpt>
      <trkpt lat="-21.21974" lon="55.68248">
        <ele>2233</ele>
        <time>2013-01-20T05:40:20Z</time>
      </trkpt>
      <trkpt lat="-21.21969" lon="55.68265">
        <ele>2232</ele>
        <time>2013-01-20T05:40:30Z</time>
      </trkpt>
      <trkpt lat="-21.21963" lon="55.6828">
        <ele>2232</ele>
        <time>2013-01-20T05:40:40Z</time>
      </trkpt>
      <trkpt lat="-21.21949" lon="55.68292">
        <ele>2231</ele>
        <time>2013-01-20T05:40:50Z</time>
      </trkpt>
      <trkpt lat="-21.21936" lon="55.68301">
        <ele>2231</ele>
        <time>2013-01-20T05:41:00Z</time>
      </trkpt>
      <trkpt lat="-21.21927" lon="55.68315">
        <ele>2230</ele>
        <time>2013-01-20T05:41:10Z</time>
      </trkpt>
      <trkpt lat="-21.21922" lon="55.6833">
        <ele>2229</ele>
        <time>2013-01-20T05:41:21Z</time>
      </trkpt>
      <trkpt lat="-21.21917" lon="55.68346">
        <ele>2228</ele>
        <time>2013-01-20T05:41:31Z</time>
      </trkpt>
      <trkpt lat="-21.21913" lon="55.68365">
        <ele>2227</ele>
        <time>2013-01-20T05:41:41Z</time>
      </trkpt>
      <trkpt lat="-21.21912" lon="55.68383">
        <ele>2227</ele>
        <time>2013-01-20T05:41:51Z</time>
      </trkpt>
      <trkpt lat="-21.21914" lon="55.684">
        <ele>2226</ele>
        <time>2013-01-20T05:42:01Z</time>
      </trkpt>
      <trkpt lat="-21.2191" lon="55.68418">
        <ele>2225</ele>
        <time>2013-01-20T05:42:11Z</time>
      </trkpt>
      <trkpt lat="-21.21898" lon="55.68428">
        <ele>2224</ele>
        <time>2013-01-20T05:42:21Z</time>
      </trkpt>
      <trkpt lat="-21.21885" lon="55.68439">
        <ele>2223</ele>
        <time>2013-01-20T05:42:31Z</time>
      </trkpt>
      <trkpt lat="-21.21876" lon="55.68454">
        <ele>2221</ele>
        <time>2013-01-20T05:42:41Z</time>
      </trkpt>
      <trkpt lat="-21.21865" lon="55.68469">
        <ele>2220</ele>
        <time>2013-01-20T05:42:51Z</time>
      </trkpt>
      <trkpt lat="-21.21852" lon="55.68485">
        <ele>2218</ele>
        <time>2013-01-20T05:43:01Z</time>
      </trkpt>
      <trkpt lat="-21.21843" lon="55.685">
        <ele>2216</ele>
        <time>2013-01-20T05:43:11Z</time>
      </trkpt>
      <trkpt lat="-21.21834" lon="55.68514">
        <ele>2216</ele>
        <time>2013-01-20T05:43:21Z</time>
      </trkpt>
      <trkpt lat="-21.21826" lon="55.68528">
        <ele>2216</ele>
        <time>2013-01-20T05:43:31Z</time>
      </trkpt>
      <trkpt lat="-21.21818" lon="55.68542">
        <ele>2216</ele>
        <time>2013-01-20T05:43:41Z</time>
      </trkpt>
      <trkpt lat="-21.2181" lon="55.68557">
        <ele>2214</ele>
        <time>2013-01-20T05:43:51Z</time>
      </trkpt>
      <trkpt lat="-21.21799" lon="55.6857">
        <ele>2214</ele>
        <time>2013-01-20T05:44:02Z</time>
      </trkpt>
      <trkpt lat="-21.21788" lon="55.68586">
        <ele>2212</ele>
        <time>2013-01-20T05:44:12Z</time>
      </trkpt>
      <trkpt lat="-21.21785" lon="55.68604">
        <ele>2210</ele>
        <time>2013-01-20T05:44:22Z</time>
      </trkpt>
      <trkpt lat="-21.21786" lon="55.68622">
        <ele>2208</ele>
        <time>2013-01-20T05:44:32Z</time>
      </trkpt>
      <trkpt lat="-21.21787" lon="55.68623">
        <ele>2208</ele>
        <time>2013-01-20T05:44:42Z</time>
      </trkpt>
      <trkpt lat="-21.21787" lon="55.68623">
        <ele>2207</ele>
        <time>2013-01-20T05:44:52Z</time>
      </trkpt>
      <trkpt lat="-21.21787" lon="55.68623">
        <ele>2207</ele>
        <time>2013-01-20T05:45:02Z</time>
      </trkpt>
      <trkpt lat="-21.21792" lon="55.68637">
        <ele>2207</ele>
        <time>2013-01-20T05:45:12Z</time>
      </trkpt>
      <trkpt lat="-21.21793" lon="55.68656">
        <ele>2204</ele>
        <time>2013-01-20T05:45:22Z</time>
      </trkpt>
      <trkpt lat="-21.21791" lon="55.6867">
        <ele>2203</ele>
        <time>2013-01-20T05:45:32Z</time>
      </trkpt>
      <trkpt lat="-21.21796" lon="55.68675">
        <ele>2206</ele>
        <time>2013-01-20T05:45:42Z</time>
      </trkpt>
      <trkpt lat="-21.21805" lon="55.68683">
        <ele>2207</ele>
        <time>2013-01-20T05:45:52Z</time>
      </trkpt>
      <trkpt lat="-21.21811" lon="55.68691">
        <ele>2208</ele>
        <time>2013-01-20T05:46:02Z</time>
      </trkpt>
      <trkpt lat="-21.21823" lon="55.687">
        <ele>2209</ele>
        <time>2013-01-20T05:46:13Z</time>
      </trkpt>
      <trkpt lat="-21.21832" lon="55.68702">
        <ele>2211</ele>
        <time>2013-01-20T05:46:23Z</time>
      </trkpt>
      <trkpt lat="-21.21843" lon="55.68703">
        <ele>2211</ele>
        <time>2013-01-20T05:46:33Z</time>
      </trkpt>
      <trkpt lat="-21.21852" lon="55.68703">
        <ele>2213</ele>
        <time>2013-01-20T05:46:43Z</time>
      </trkpt>
      <trkpt lat="-21.2186" lon="55.68702">
        <ele>2215</ele>
        <time>2013-01-20T05:46:53Z</time>
      </trkpt>
      <trkpt lat="-21.21868" lon="55.68704">
        <ele>2216</ele>
        <time>2013-01-20T05:47:03Z</time>
      </trkpt>
      <trkpt lat="-21.21877" lon="55.68706">
        <ele>2218</ele>
        <time>2013-01-20T05:47:13Z</time>
      </trkpt>
      <trkpt lat="-21.21884" lon="55.68711">
        <ele>2219</ele>
        <time>2013-01-20T05:47:23Z</time>
      </trkpt>
      <trkpt lat="-21.2189" lon="55.68715">
        <ele>2221</ele>
        <time>2013-01-20T05:47:33Z</time>
      </trkpt>
      <trkpt lat="-21.21894" lon="55.68726">
        <ele>2221</ele>
        <time>2013-01-20T05:47:43Z</time>
      </trkpt>
      <trkpt lat="-21.21906" lon="55.68727">
        <ele>2223</ele>
        <time>2013-01-20T05:47:53Z</time>
      </trkpt>
      <trkpt lat="-21.21916" lon="55.6873">
        <ele>2224</ele>
        <time>2013-01-20T05:48:03Z</time>
      </trkpt>
      <trkpt lat="-21.21926" lon="55.68734">
        <ele>2225</ele>
        <time>2013-01-20T05:48:13Z</time>
      </trkpt>
      <trkpt lat="-21.21933" lon="55.68744">
        <ele>2225</ele>
        <time>2013-01-20T05:48:23Z</time>
      </trkpt>
      <trkpt lat="-21.21943" lon="55.68749">
        <ele>2227</ele>
        <time>2013-01-20T05:48:34Z</time>
      </trkpt>
      <trkpt lat="-21.21951" lon="55.68758">
        <ele>2228</ele>
        <time>2013-01-20T05:48:44Z</time>
      </trkpt>
      <trkpt lat="-21.21961" lon="55.68763">
        <ele>2229</ele>
        <time>2013-01-20T05:48:54Z</time>
      </trkpt>
      <trkpt lat="-21.21969" lon="55.68769">
        <ele>2229</ele>
        <time>2013-01-20T05:49:04Z</time>
      </trkpt>
      <trkpt lat="-21.21975" lon="55.68779">
        <ele>2231</ele>
        <time>2013-01-20T05:49:14Z</time>
      </trkpt>
      <trkpt lat="-21.21976" lon="55.6879">
        <ele>2232</ele>
        <time>2013-01-20T05:49:24Z</time>
      </trkpt>
      <trkpt lat="-21.21984" lon="55.68798">
        <ele>2234</ele>
        <time>2013-01-20T05:49:34Z</time>
      </trkpt>
      <trkpt lat="-21.21995" lon="55.688">
        <ele>2236</ele>
        <time>2013-01-20T05:49:44Z</time>
      </trkpt>
      <trkpt lat="-21.22002" lon="55.68807">
        <ele>2237</ele>
        <time>2013-01-20T05:49:54Z</time>
      </trkpt>
      <trkpt lat="-21.22012" lon="55.68807">
        <ele>2239</ele>
        <time>2013-01-20T05:50:04Z</time>
      </trkpt>
      <trkpt lat="-21.22022" lon="55.68811">
        <ele>2240</ele>
        <time>2013-01-20T05:50:15Z</time>
      </trkpt>
      <trkpt lat="-21.22031" lon="55.68811">
        <ele>2242</ele>
        <time>2013-01-20T05:50:25Z</time>
      </trkpt>
      <trkpt lat="-21.22035" lon="55.68822">
        <ele>2243</ele>
        <time>2013-01-20T05:50:35Z</time>
      </trkpt>
      <trkpt lat="-21.22042" lon="55.68826">
        <ele>2245</ele>
        <time>2013-01-20T05:50:45Z</time>
      </trkpt>
      <trkpt lat="-21.22051" lon="55.68826">
        <ele>2246</ele>
        <time>2013-01-20T05:50:55Z</time>
      </trkpt>
      <trkpt lat="-21.2206" lon="55.6883">
        <ele>2248</ele>
        <time>2013-01-20T05:51:05Z</time>
      </trkpt>
      <trkpt lat="-21.22066" lon="55.6884">
        <ele>2249</ele>
        <time>2013-01-20T05:51:15Z</time>
      </trkpt>
      <trkpt lat="-21.22071" lon="55.68851">
        <ele>2250</ele>
        <time>2013-01-20T05:51:25Z</time>
      </trkpt>
      <trkpt lat="-21.22073" lon="55.68863">
        <ele>2251</ele>
        <time>2013-01-20T05:51:35Z</time>
      </trkpt>
      <trkpt lat="-21.2208" lon="55.68871">
        <ele>2252</ele>
        <time>2013-01-20T05:51:45Z</time>
      </trkpt>
      <trkpt lat="-21.22089" lon="55.6888">
        <ele>2254</ele>
        <time>2013-01-20T05:51:55Z</time>
      </trkpt>
      <trkpt lat="-21.22097" lon="55.68888">
        <ele>2255</ele>
        <time>2013-01-20T05:52:05Z</time>
      </trkpt>
      <trkpt lat="-21.2211" lon="55.68894">
        <ele>2256</ele>
        <time>2013-01-20T05:52:15Z</time>
      </trkpt>
      <trkpt lat="-21.2212" lon="55.68898">
        <ele>2257</ele>
        <time>2013-01-20T05:52:25Z</time>
      </trkpt>
      <trkpt lat="-21.22129" lon="55.68897">
        <ele>2259</ele>
        <time>2013-01-20T05:52:35Z</time>
      </trkpt>
      <trkpt lat="-21.2214" lon="55.68898">
        <ele>2261</ele>
        <time>2013-01-20T05:52:46Z</time>
      </trkpt>
      <trkpt lat="-21.2215" lon="55.68897">
        <ele>2262</ele>
        <time>2013-01-20T05:52:56Z</time>
      </trkpt>
      <trkpt lat="-21.2216" lon="55.68892">
        <ele>2264</ele>
        <time>2013-01-20T05:53:06Z</time>
      </trkpt>
      <trkpt lat="-21.22172" lon="55.68892">
        <ele>2264</ele>
        <time>2013-01-20T05:53:16Z</time>
      </trkpt>
      <trkpt lat="-21.22181" lon="55.68893">
        <ele>2264</ele>
        <time>2013-01-20T05:53:26Z</time>
      </trkpt>
      <trkpt lat="-21.22189" lon="55.68892">
        <ele>2266</ele>
        <time>2013-01-20T05:53:36Z</time>
      </trkpt>
      <trkpt lat="-21.22199" lon="55.68898">
        <ele>2267</ele>
        <time>2013-01-20T05:53:46Z</time>
      </trkpt>
      <trkpt lat="-21.22209" lon="55.68906">
        <ele>2267</ele>
        <time>2013-01-20T05:53:56Z</time>
      </trkpt>
      <trkpt lat="-21.22219" lon="55.68911">
        <ele>2269</ele>
        <time>2013-01-20T05:54:06Z</time>
      </trkpt>
      <trkpt lat="-21.22224" lon="55.68915">
        <ele>2272</ele>
        <time>2013-01-20T05:54:16Z</time>
      </trkpt>
      <trkpt lat="-21.22231" lon="55.68922">
        <ele>2273</ele>
        <time>2013-01-20T05:54:26Z</time>
      </trkpt>
      <trkpt lat="-21.22241" lon="55.68918">
        <ele>2271</ele>
        <time>2013-01-20T05:54:36Z</time>
      </trkpt>
      <trkpt lat="-21.22251" lon="55.68924">
        <ele>2269</ele>
        <time>2013-01-20T05:54:46Z</time>
      </trkpt>
      <trkpt lat="-21.22241" lon="55.68922">
        <ele>2266</ele>
        <time>2013-01-20T05:54:56Z</time>
      </trkpt>
      <trkpt lat="-21.22236" lon="55.68933">
        <ele>2264</ele>
        <time>2013-01-20T05:55:06Z</time>
      </trkpt>
      <trkpt lat="-21.22235" lon="55.68944">
        <ele>2259</ele>
        <time>2013-01-20T05:55:16Z</time>
      </trkpt>
      <trkpt lat="-21.22247" lon="55.68943">
        <ele>2256</ele>
        <time>2013-01-20T05:55:26Z</time>
      </trkpt>
      <trkpt lat="-21.22264" lon="55.68951">
        <ele>2253</ele>
        <time>2013-01-20T05:55:36Z</time>
      </trkpt>
      <trkpt lat="-21.22259" lon="55.68961">
        <ele>2249</ele>
        <time>2013-01-20T05:55:47Z</time>
      </trkpt>
      <trkpt lat="-21.2225" lon="55.68969">
        <ele>2247</ele>
        <time>2013-01-20T05:55:57Z</time>
      </trkpt>
      <trkpt lat="-21.22254" lon="55.68985">
        <ele>2243</ele>
        <time>2013-01-20T05:56:07Z</time>
      </trkpt>
      <trkpt lat="-21.22248" lon="55.68994">
        <ele>2239</ele>
        <time>2013-01-20T05:56:17Z</time>
      </trkpt>
      <trkpt lat="-21.2224" lon="55.69009">
        <ele>2237</ele>
        <time>2013-01-20T05:56:27Z</time>
      </trkpt>
      <trkpt lat="-21.22243" lon="55.69">
        <ele>2233</ele>
        <time>2013-01-20T05:56:37Z</time>
      </trkpt>
      <trkpt lat="-21.22253" lon="55.68996">
        <ele>2229</ele>
        <time>2013-01-20T05:56:47Z</time>
      </trkpt>
      <trkpt lat="-21.22251" lon="55.69004">
        <ele>2224</ele>
        <time>2013-01-20T05:56:57Z</time>
      </trkpt>
      <trkpt lat="-21.22253" lon="55.69006">
        <ele>2221</ele>
        <time>2013-01-20T05:57:07Z</time>
      </trkpt>
      <trkpt lat="-21.22253" lon="55.69014">
        <ele>2217</ele>
        <time>2013-01-20T05:57:17Z</time>
      </trkpt>
      <trkpt lat="-21.22244" lon="55.69026">
        <ele>2215</ele>
        <time>2013-01-20T05:57:27Z</time>
      </trkpt>
      <trkpt lat="-21.22238" lon="55.69035">
        <ele>2212</ele>
        <time>2013-01-20T05:57:37Z</time>
      </trkpt>
      <trkpt lat="-21.22233" lon="55.69046">
        <ele>2209</ele>
        <time>2013-01-20T05:57:47Z</time>
      </trkpt>
      <trkpt lat="-21.2222" lon="55.69052">
        <ele>2205</ele>
        <time>2013-01-20T05:57:57Z</time>
      </trkpt>
      <trkpt lat="-21.22206" lon="55.69057">
        <ele>2205</ele>
        <time>2013-01-20T05:58:07Z</time>
      </trkpt>
      <trkpt lat="-21.22197" lon="55.69067">
        <ele>2203</ele>
        <time>2013-01-20T05:58:17Z</time>
      </trkpt>
      <trkpt lat="-21.22192" lon="55.69085">
        <ele>2202</ele>
        <time>2013-01-20T05:58:27Z</time>
      </trkpt>
      <trkpt lat="-21.22197" lon="55.69091">
        <ele>2197</ele>
        <time>2013-01-20T05:58:38Z</time>
      </trkpt>
      <trkpt lat="-21.22195" lon="55.69105">
        <ele>2194</ele>
        <time>2013-01-20T05:58:48Z</time>
      </trkpt>
      <trkpt lat="-21.22198" lon="55.69121">
        <ele>2191</ele>
        <time>2013-01-20T05:58:58Z</time>
      </trkpt>
      <trkpt lat="-21.22194" lon="55.69135">
        <ele>2188</ele>
        <time>2013-01-20T05:59:08Z</time>
      </trkpt>
      <trkpt lat="-21.22193" lon="55.69152">
        <ele>2187</ele>
        <time>2013-01-20T05:59:18Z</time>
      </trkpt>
      <trkpt lat="-21.22195" lon="55.69165">
        <ele>2184</ele>
        <time>2013-01-20T05:59:28Z</time>
      </trkpt>
      <trkpt lat="-21.22195" lon="55.6917">
        <ele>2181</ele>
        <time>2013-01-20T05:59:38Z</time>
      </trkpt>
      <trkpt lat="-21.22194" lon="55.69178">
        <ele>2177</ele>
        <time>2013-01-20T05:59:48Z</time>
      </trkpt>
      <trkpt lat="-21.222" lon="55.69183">
        <ele>2173</ele>
        <time>2013-01-20T05:59:58Z</time>
      </trkpt>
      <trkpt lat="-21.22216" lon="55.69185">
        <ele>2171</ele>
        <time>2013-01-20T06:00:08Z</time>
      </trkpt>
      <trkpt lat="-21.22236" lon="55.69192">
        <ele>2170</ele>
        <time>2013-01-20T06:00:18Z</time>
      </trkpt>
      <trkpt lat="-21.22253" lon="55.69199">
        <ele>2170</ele>
        <time>2013-01-20T06:00:29Z</time>
      </trkpt>
      <trkpt lat="-21.22269" lon="55.69206">
        <ele>2170</ele>
        <time>2013-01-20T06:00:39Z</time>
      </trkpt>
      <trkpt lat="-21.22283" lon="55.69212">
        <ele>2171</ele>
        <time>2013-01-20T06:00:49Z</time>
      </trkpt>
      <trkpt lat="-21.22297" lon="55.69218">
        <ele>2171</ele>
        <time>2013-01-20T06:00:59Z</time>
      </trkpt>
      <trkpt lat="-21.2231" lon="55.69229">
        <ele>2170</ele>
        <time>2013-01-20T06:01:09Z</time>
      </trkpt>
      <trkpt lat="-21.22324" lon="55.69235">
        <ele>2170</ele>
        <time>2013-01-20T06:01:19Z</time>
      </trkpt>
      <trkpt lat="-21.22337" lon="55.69243">
        <ele>2170</ele>
        <time>2013-01-20T06:01:29Z</time>
      </trkpt>
      <trkpt lat="-21.22351" lon="55.69251">
        <ele>2171</ele>
        <time>2013-01-20T06:01:39Z</time>
      </trkpt>
      <trkpt lat="-21.2236" lon="55.69263">
        <ele>2170</ele>
        <time>2013-01-20T06:01:49Z</time>
      </trkpt>
      <trkpt lat="-21.22373" lon="55.69272">
        <ele>2170</ele>
        <time>2013-01-20T06:01:59Z</time>
      </trkpt>
      <trkpt lat="-21.22386" lon="55.69281">
        <ele>2171</ele>
        <time>2013-01-20T06:02:09Z</time>
      </trkpt>
      <trkpt lat="-21.224" lon="55.69282">
        <ele>2171</ele>
        <time>2013-01-20T06:02:19Z</time>
      </trkpt>
      <trkpt lat="-21.22416" lon="55.69286">
        <ele>2172</ele>
        <time>2013-01-20T06:02:29Z</time>
      </trkpt>
      <trkpt lat="-21.22432" lon="55.69291">
        <ele>2172</ele>
        <time>2013-01-20T06:02:40Z</time>
      </trkpt>
      <trkpt lat="-21.22445" lon="55.69296">
        <ele>2172</ele>
        <time>2013-01-20T06:02:50Z</time>
      </trkpt>
      <trkpt lat="-21.2246" lon="55.693">
        <ele>2172</ele>
        <time>2013-01-20T06:03:00Z</time>
      </trkpt>
      <trkpt lat="-21.22476" lon="55.69306">
        <ele>2172</ele>
        <time>2013-01-20T06:03:10Z</time>
      </trkpt>
      <trkpt lat="-21.2249" lon="55.6931">
        <ele>2173</ele>
        <time>2013-01-20T06:03:20Z</time>
      </trkpt>
      <trkpt lat="-21.22506" lon="55.69313">
        <ele>2172</ele>
        <time>2013-01-20T06:03:30Z</time>
      </trkpt>
      <trkpt lat="-21.22521" lon="55.69318">
        <ele>2172</ele>
        <time>2013-01-20T06:03:40Z</time>
      </trkpt>
      <trkpt lat="-21.22534" lon="55.69323">
        <ele>2173</ele>
        <time>2013-01-20T06:03:50Z</time>
      </trkpt>
      <trkpt lat="-21.22549" lon="55.69325">
        <ele>2173</ele>
        <time>2013-01-20T06:04:00Z</time>
      </trkpt>
      <trkpt lat="-21.22565" lon="55.69329">
        <ele>2173</ele>
        <time>2013-01-20T06:04:10Z</time>
      </trkpt>
      <trkpt lat="-21.22579" lon="55.69336">
        <ele>2173</ele>
        <time>2013-01-20T06:04:20Z</time>
      </trkpt>
      <trkpt lat="-21.22592" lon="55.69345">
        <ele>2174</ele>
        <time>2013-01-20T06:04:30Z</time>
      </trkpt>
      <trkpt lat="-21.22607" lon="55.69352">
        <ele>2174</ele>
        <time>2013-01-20T06:04:40Z</time>
      </trkpt>
      <trkpt lat="-21.22622" lon="55.69362">
        <ele>2174</ele>
        <time>2013-01-20T06:04:51Z</time>
      </trkpt>
      <trkpt lat="-21.22637" lon="55.69367">
        <ele>2174</ele>
        <time>2013-01-20T06:05:01Z</time>
      </trkpt>
      <trkpt lat="-21.22651" lon="55.69376">
        <ele>2175</ele>
        <time>2013-01-20T06:05:11Z</time>
      </trkpt>
      <trkpt lat="-21.22665" lon="55.69383">
        <ele>2176</ele>
        <time>2013-01-20T06:05:21Z</time>
      </trkpt>
      <trkpt lat="-21.22679" lon="55.69392">
        <ele>2175</ele>
        <time>2013-01-20T06:05:31Z</time>
      </trkpt>
      <trkpt lat="-21.22692" lon="55.69402">
        <ele>2175</ele>
        <time>2013-01-20T06:05:41Z</time>
      </trkpt>
      <trkpt lat="-21.22706" lon="55.69413">
        <ele>2176</ele>
        <time>2013-01-20T06:05:51Z</time>
      </trkpt>
      <trkpt lat="-21.22719" lon="55.69422">
        <ele>2176</ele>
        <time>2013-01-20T06:06:01Z</time>
      </trkpt>
      <trkpt lat="-21.2273" lon="55.69433">
        <ele>2176</ele>
        <time>2013-01-20T06:06:11Z</time>
      </trkpt>
      <trkpt lat="-21.22743" lon="55.69442">
        <ele>2177</ele>
        <time>2013-01-20T06:06:21Z</time>
      </trkpt>
      <trkpt lat="-21.22754" lon="55.69454">
        <ele>2178</ele>
        <time>2013-01-20T06:06:31Z</time>
      </trkpt>
      <trkpt lat="-21.22767" lon="55.69463">
        <ele>2178</ele>
        <time>2013-01-20T06:06:41Z</time>
      </trkpt>
      <trkpt lat="-21.22779" lon="55.69473">
        <ele>2178</ele>
        <time>2013-01-20T06:06:51Z</time>
      </trkpt>
      <trkpt lat="-21.2279" lon="55.69484">
        <ele>2179</ele>
        <time>2013-01-20T06:07:01Z</time>
      </trkpt>
      <trkpt lat="-21.22802" lon="55.69493">
        <ele>2179</ele>
        <time>2013-01-20T06:07:11Z</time>
      </trkpt>
      <trkpt lat="-21.22815" lon="55.69503">
        <ele>2180</ele>
        <time>2013-01-20T06:07:21Z</time>
      </trkpt>
      <trkpt lat="-21.22827" lon="55.69514">
        <ele>2180</ele>
        <time>2013-01-20T06:07:31Z</time>
      </trkpt>
      <trkpt lat="-21.22842" lon="55.69523">
        <ele>2180</ele>
        <time>2013-01-20T06:07:41Z</time>
      </trkpt>
      <trkpt lat="-21.22853" lon="55.69532">
        <ele>2181</ele>
        <time>2013-01-20T06:07:52Z</time>
      </trkpt>
      <trkpt lat="-21.22867" lon="55.69541">
        <ele>2181</ele>
        <time>2013-01-20T06:08:02Z</time>
      </trkpt>
      <trkpt lat="-21.22879" lon="55.69551">
        <ele>2180</ele>
        <time>2013-01-20T06:08:12Z</time>
      </trkpt>
      <trkpt lat="-21.22892" lon="55.69561">
        <ele>2181</ele>
        <time>2013-01-20T06:08:22Z</time>
      </trkpt>
      <trkpt lat="-21.22905" lon="55.69571">
        <ele>2182</ele>
        <time>2013-01-20T06:08:32Z</time>
      </trkpt>
      <trkpt lat="-21.22919" lon="55.69578">
        <ele>2182</ele>
        <time>2013-01-20T06:08:42Z</time>
      </trkpt>
      <trkpt lat="-21.22933" lon="55.69585">
        <ele>2182</ele>
        <time>2013-01-20T06:08:52Z</time>
      </trkpt>
      <trkpt lat="-21.22944" lon="55.69595">
        <ele>2182</ele>
        <time>2013-01-20T06:09:02Z</time>
      </trkpt>
      <trkpt lat="-21.22951" lon="55.69606">
        <ele>2185</ele>
        <time>2013-01-20T06:09:12Z</time>
      </trkpt>
      <trkpt lat="-21.2296" lon="55.69616">
        <ele>2186</ele>
        <time>2013-01-20T06:09:22Z</time>
      </trkpt>
      <trkpt lat="-21.22969" lon="55.69625">
        <ele>2187</ele>
        <time>2013-01-20T06:09:32Z</time>
      </trkpt>
      <trkpt lat="-21.2298" lon="55.69634">
        <ele>2187</ele>
        <time>2013-01-20T06:09:42Z</time>
      </trkpt>
      <trkpt lat="-21.2299" lon="55.69646">
        <ele>2188</ele>
        <time>2013-01-20T06:09:52Z</time>
      </trkpt>
      <trkpt lat="-21.23003" lon="55.69655">
        <ele>2187</ele>
        <time>2013-01-20T06:10:02Z</time>
      </trkpt>
      <trkpt lat="-21.23014" lon="55.69664">
        <ele>2188</ele>
        <time>2013-01-20T06:10:13Z</time>
      </trkpt>
      <trkpt lat="-21.23027" lon="55.69673">
        <ele>2187</ele>
        <time>2013-01-20T06:10:23Z</time>
      </trkpt>
      <trkpt lat="-21.23038" lon="55.69684">
        <ele>2189</ele>
        <time>2013-01-20T06:10:33Z</time>
      </trkpt>
      <trkpt lat="-21.23051" lon="55.69694">
        <ele>2188</ele>
        <time>2013-01-20T06:10:43Z</time>
      </trkpt>
      <trkpt lat="-21.23059" lon="55.69704">
        <ele>2189</ele>
        <time>2013-01-20T06:10:53Z</time>
      </trkpt>
      <trkpt lat="-21.23063" lon="55.69716">
        <ele>2190</ele>
        <time>2013-01-20T06:11:03Z</time>
      </trkpt>
      <trkpt lat="-21.23073" lon="55.69727">
        <ele>2189</ele>
        <time>2013-01-20T06:11:13Z</time>
      </trkpt>
      <trkpt lat="-21.23083" lon="55.69735">
        <ele>2189</ele>
        <time>2013-01-20T06:11:23Z</time>
      </trkpt>
      <trkpt lat="-21.23098" lon="55.69739">
        <ele>2190</ele>
        <time>2013-01-20T06:11:33Z</time>
      </trkpt>
      <trkpt lat="-21.23113" lon="55.69741">
        <ele>2191</ele>
        <time>2013-01-20T06:11:43Z</time>
      </trkpt>
      <trkpt lat="-21.23125" lon="55.69749">
        <ele>2191</ele>
        <time>2013-01-20T06:11:53Z</time>
      </trkpt>
      <trkpt lat="-21.23137" lon="55.69756">
        <ele>2190</ele>
        <time>2013-01-20T06:12:03Z</time>
      </trkpt>
      <trkpt lat="-21.23147" lon="55.69763">
        <ele>2191</ele>
        <time>2013-01-20T06:12:13Z</time>
      </trkpt>
      <trkpt lat="-21.23158" lon="55.69764">
        <ele>2192</ele>
        <time>2013-01-20T06:12:23Z</time>
      </trkpt>
      <trkpt lat="-21.23169" lon="55.69767">
        <ele>2194</ele>
        <time>2013-01-20T06:12:33Z</time>
      </trkpt>
      <trkpt lat="-21.23176" lon="55.69773">
        <ele>2196</ele>
        <time>2013-01-20T06:12:43Z</time>
      </trkpt>
      <trkpt lat="-21.23184" lon="55.69779">
        <ele>2198</ele>
        <time>2013-01-20T06:12:53Z</time>
      </trkpt>
      <trkpt lat="-21.2319" lon="55.69789">
        <ele>2199</ele>
        <time>2013-01-20T06:13:03Z</time>
      </trkpt>
      <trkpt lat="-21.23198" lon="55.69796">
        <ele>2200</ele>
        <time>2013-01-20T06:13:13Z</time>
      </trkpt>
      <trkpt lat="-21.23211" lon="55.69795">
        <ele>2200</ele>
        <time>2013-01-20T06:13:23Z</time>
      </trkpt>
      <trkpt lat="-21.23222" lon="55.69801">
        <ele>2200</ele>
        <time>2013-01-20T06:13:33Z</time>
      </trkpt>
      <trkpt lat="-21.23234" lon="55.69809">
        <ele>2202</ele>
        <time>2013-01-20T06:13:43Z</time>
      </trkpt>
      <trkpt lat="-21.23245" lon="55.69818">
        <ele>2202</ele>
        <time>2013-01-20T06:13:54Z</time>
      </trkpt>
      <trkpt lat="-21.23258" lon="55.69825">
        <ele>2202</ele>
        <time>2013-01-20T06:14:04Z</time>
      </trkpt>
      <trkpt lat="-21.23269" lon="55.69831">
        <ele>2201</ele>
        <time>2013-01-20T06:14:14Z</time>
      </trkpt>
      <trkpt lat="-21.23279" lon="55.69836">
        <ele>2203</ele>
        <time>2013-01-20T06:14:24Z</time>
      </trkpt>
      <trkpt lat="-21.23291" lon="55.69846">
        <ele>2204</ele>
        <time>2013-01-20T06:14:34Z</time>
      </trkpt>
      <trkpt lat="-21.23297" lon="55.69858">
        <ele>2206</ele>
        <time>2013-01-20T06:14:44Z</time>
      </trkpt>
      <trkpt lat="-21.23306" lon="55.6987">
        <ele>2207</ele>
        <time>2013-01-20T06:14:54Z</time>
      </trkpt>
      <trkpt lat="-21.23314" lon="55.69876">
        <ele>2209</ele>
        <time>2013-01-20T06:15:04Z</time>
      </trkpt>
      <trkpt lat="-21.23319" lon="55.69885">
        <ele>2212</ele>
        <time>2013-01-20T06:15:14Z</time>
      </trkpt>
      <trkpt lat="-21.23327" lon="55.6989">
        <ele>2213</ele>
        <time>2013-01-20T06:15:25Z</time>
      </trkpt>
      <trkpt lat="-21.23335" lon="55.699">
        <ele>2213</ele>
        <time>2013-01-20T06:15:35Z</time>
      </trkpt>
      <trkpt lat="-21.23342" lon="55.69908">
        <ele>2214</ele>
        <time>2013-01-20T06:15:45Z</time>
      </trkpt>
      <trkpt lat="-21.2335" lon="55.69915">
        <ele>2216</ele>
        <time>2013-01-20T06:15:55Z</time>
      </trkpt>
      <trkpt lat="-21.23356" lon="55.69928">
        <ele>2216</ele>
        <time>2013-01-20T06:16:05Z</time>
      </trkpt>
      <trkpt lat="-21.23367" lon="55.69933">
        <ele>2217</ele>
        <time>2013-01-20T06:16:15Z</time>
      </trkpt>
      <trkpt lat="-21.23374" lon="55.69928">
        <ele>2216</ele>
        <time>2013-01-20T06:16:25Z</time>
      </trkpt>
      <trkpt lat="-21.23372" lon="55.69915">
        <ele>2214</ele>
        <time>2013-01-20T06:16:35Z</time>
      </trkpt>
      <trkpt lat="-21.2336" lon="55.69907">
        <ele>2214</ele>
        <time>2013-01-20T06:16:45Z</time>
      </trkpt>
      <trkpt lat="-21.23346" lon="55.699">
        <ele>2213</ele>
        <time>2013-01-20T06:16:55Z</time>
      </trkpt>
      <trkpt lat="-21.23332" lon="55.69886">
        <ele>2213</ele>
        <time>2013-01-20T06:17:05Z</time>
      </trkpt>
      <trkpt lat="-21.23321" lon="55.69872">
        <ele>2210</ele>
        <time>2013-01-20T06:17:15Z</time>
      </trkpt>
      <trkpt lat="-21.23311" lon="55.69859">
        <ele>2208</ele>
        <time>2013-01-20T06:17:25Z</time>
      </trkpt>
      <trkpt lat="-21.23302" lon="55.69847">
        <ele>2206</ele>
        <time>2013-01-20T06:17:35Z</time>
      </trkpt>
      <trkpt lat="-21.2329" lon="55.69838">
        <ele>2204</ele>
        <time>2013-01-20T06:17:45Z</time>
      </trkpt>
      <trkpt lat="-21.23277" lon="55.69828">
        <ele>2204</ele>
        <time>2013-01-20T06:17:55Z</time>
      </trkpt>
      <trkpt lat="-21.23265" lon="55.69819">
        <ele>2200</ele>
        <time>2013-01-20T06:18:05Z</time>
      </trkpt>
      <trkpt lat="-21.2325" lon="55.69813">
        <ele>2199</ele>
        <time>2013-01-20T06:18:15Z</time>
      </trkpt>
      <trkpt lat="-21.2324" lon="55.69803">
        <ele>2200</ele>
        <time>2013-01-20T06:18:25Z</time>
      </trkpt>
      <trkpt lat="-21.23227" lon="55.69798">
        <ele>2200</ele>
        <time>2013-01-20T06:18:35Z</time>
      </trkpt>
      <trkpt lat="-21.23214" lon="55.69792">
        <ele>2199</ele>
        <time>2013-01-20T06:18:45Z</time>
      </trkpt>
      <trkpt lat="-21.23203" lon="55.69787">
        <ele>2200</ele>
        <time>2013-01-20T06:18:56Z</time>
      </trkpt>
      <trkpt lat="-21.23192" lon="55.69783">
        <ele>2198</ele>
        <time>2013-01-20T06:19:06Z</time>
      </trkpt>
      <trkpt lat="-21.23183" lon="55.69775">
        <ele>2197</ele>
        <time>2013-01-20T06:19:16Z</time>
      </trkpt>
      <trkpt lat="-21.23174" lon="55.69765">
        <ele>2196</ele>
        <time>2013-01-20T06:19:26Z</time>
      </trkpt>
      <trkpt lat="-21.23163" lon="55.69757">
        <ele>2194</ele>
        <time>2013-01-20T06:19:36Z</time>
      </trkpt>
      <trkpt lat="-21.2315" lon="55.69756">
        <ele>2192</ele>
        <time>2013-01-20T06:19:46Z</time>
      </trkpt>
      <trkpt lat="-21.23138" lon="55.69748">
        <ele>2189</ele>
        <time>2013-01-20T06:19:56Z</time>
      </trkpt>
      <trkpt lat="-21.23125" lon="55.69741">
        <ele>2189</ele>
        <time>2013-01-20T06:20:06Z</time>
      </trkpt>
      <trkpt lat="-21.23113" lon="55.69732">
        <ele>2188</ele>
        <time>2013-01-20T06:20:16Z</time>
      </trkpt>
      <trkpt lat="-21.231" lon="55.69731">
        <ele>2192</ele>
        <time>2013-01-20T06:20:26Z</time>
      </trkpt>
      <trkpt lat="-21.23085" lon="55.69728">
        <ele>2190</ele>
        <time>2013-01-20T06:20:36Z</time>
      </trkpt>
      <trkpt lat="-21.23074" lon="55.69719">
        <ele>2188</ele>
        <time>2013-01-20T06:20:46Z</time>
      </trkpt>
      <trkpt lat="-21.23062" lon="55.69708">
        <ele>2188</ele>
        <time>2013-01-20T06:20:56Z</time>
      </trkpt>
      <trkpt lat="-21.23054" lon="55.69697">
        <ele>2187</ele>
        <time>2013-01-20T06:21:06Z</time>
      </trkpt>
      <trkpt lat="-21.23044" lon="55.69686">
        <ele>2187</ele>
        <time>2013-01-20T06:21:17Z</time>
      </trkpt>
      <trkpt lat="-21.23037" lon="55.69675">
        <ele>2186</ele>
        <time>2013-01-20T06:21:27Z</time>
      </trkpt>
      <trkpt lat="-21.23026" lon="55.69664">
        <ele>2186</ele>
        <time>2013-01-20T06:21:37Z</time>
      </trkpt>
      <trkpt lat="-21.23017" lon="55.69651">
        <ele>2186</ele>
        <time>2013-01-20T06:21:47Z</time>
      </trkpt>
      <trkpt lat="-21.23003" lon="55.69645">
        <ele>2186</ele>
        <time>2013-01-20T06:21:57Z</time>
      </trkpt>
      <trkpt lat="-21.22991" lon="55.69637">
        <ele>2186</ele>
        <time>2013-01-20T06:22:07Z</time>
      </trkpt>
      <trkpt lat="-21.2298" lon="55.69625">
        <ele>2187</ele>
        <time>2013-01-20T06:22:17Z</time>
      </trkpt>
      <trkpt lat="-21.22968" lon="55.69614">
        <ele>2185</ele>
        <time>2013-01-20T06:22:27Z</time>
      </trkpt>
      <trkpt lat="-21.22958" lon="55.69603">
        <ele>2184</ele>
        <time>2013-01-20T06:22:37Z</time>
      </trkpt>
      <trkpt lat="-21.22948" lon="55.69589">
        <ele>2183</ele>
        <time>2013-01-20T06:22:47Z</time>
      </trkpt>
      <trkpt lat="-21.22936" lon="55.69579">
        <ele>2182</ele>
        <time>2013-01-20T06:22:57Z</time>
      </trkpt>
      <trkpt lat="-21.22923" lon="55.69569">
        <ele>2181</ele>
        <time>2013-01-20T06:23:07Z</time>
      </trkpt>
      <trkpt lat="-21.22909" lon="55.69562">
        <ele>2180</ele>
        <time>2013-01-20T06:23:17Z</time>
      </trkpt>
      <trkpt lat="-21.22894" lon="55.69555">
        <ele>2180</ele>
        <time>2013-01-20T06:23:27Z</time>
      </trkpt>
      <trkpt lat="-21.22882" lon="55.69544">
        <ele>2179</ele>
        <time>2013-01-20T06:23:37Z</time>
      </trkpt>
      <trkpt lat="-21.22869" lon="55.69534">
        <ele>2179</ele>
        <time>2013-01-20T06:23:47Z</time>
      </trkpt>
      <trkpt lat="-21.22856" lon="55.69523">
        <ele>2178</ele>
        <time>2013-01-20T06:23:58Z</time>
      </trkpt>
      <trkpt lat="-21.22844" lon="55.69513">
        <ele>2178</ele>
        <time>2013-01-20T06:24:08Z</time>
      </trkpt>
      <trkpt lat="-21.22831" lon="55.69503">
        <ele>2179</ele>
        <time>2013-01-20T06:24:18Z</time>
      </trkpt>
      <trkpt lat="-21.22818" lon="55.69494">
        <ele>2177</ele>
        <time>2013-01-20T06:24:28Z</time>
      </trkpt>
      <trkpt lat="-21.22806" lon="55.69488">
        <ele>2178</ele>
        <time>2013-01-20T06:24:38Z</time>
      </trkpt>
      <trkpt lat="-21.22795" lon="55.69477">
        <ele>2177</ele>
        <time>2013-01-20T06:24:48Z</time>
      </trkpt>
      <trkpt lat="-21.22783" lon="55.69464">
        <ele>2177</ele>
        <time>2013-01-20T06:24:58Z</time>
      </trkpt>
      <trkpt lat="-21.22771" lon="55.69452">
        <ele>2176</ele>
        <time>2013-01-20T06:25:08Z</time>
      </trkpt>
      <trkpt lat="-21.22757" lon="55.6944">
        <ele>2177</ele>
        <time>2013-01-20T06:25:18Z</time>
      </trkpt>
      <trkpt lat="-21.22745" lon="55.6943">
        <ele>2176</ele>
        <time>2013-01-20T06:25:28Z</time>
      </trkpt>
      <trkpt lat="-21.22733" lon="55.69419">
        <ele>2175</ele>
        <time>2013-01-20T06:25:38Z</time>
      </trkpt>
      <trkpt lat="-21.22721" lon="55.69411">
        <ele>2175</ele>
        <time>2013-01-20T06:25:48Z</time>
      </trkpt>
      <trkpt lat="-21.22709" lon="55.69401">
        <ele>2174</ele>
        <time>2013-01-20T06:25:58Z</time>
      </trkpt>
      <trkpt lat="-21.22694" lon="55.69395">
        <ele>2174</ele>
        <time>2013-01-20T06:26:08Z</time>
      </trkpt>
      <trkpt lat="-21.22679" lon="55.6939">
        <ele>2174</ele>
        <time>2013-01-20T06:26:18Z</time>
      </trkpt>
      <trkpt lat="-21.22667" lon="55.6938">
        <ele>2173</ele>
        <time>2013-01-20T06:26:28Z</time>
      </trkpt>
      <trkpt lat="-21.22655" lon="55.69369">
        <ele>2173</ele>
        <time>2013-01-20T06:26:38Z</time>
      </trkpt>
      <trkpt lat="-21.2264" lon="55.69359">
        <ele>2172</ele>
        <time>2013-01-20T06:26:48Z</time>
      </trkpt>
      <trkpt lat="-21.22627" lon="55.69351">
        <ele>2171</ele>
        <time>2013-01-20T06:26:58Z</time>
      </trkpt>
      <trkpt lat="-21.22612" lon="55.69346">
        <ele>2172</ele>
        <time>2013-01-20T06:27:08Z</time>
      </trkpt>
      <trkpt lat="-21.22598" lon="55.69341">
        <ele>2172</ele>
        <time>2013-01-20T06:27:18Z</time>
      </trkpt>
      <trkpt lat="-21.22583" lon="55.69334">
        <ele>2172</ele>
        <time>2013-01-20T06:27:29Z</time>
      </trkpt>
      <trkpt lat="-21.22569" lon="55.69324">
        <ele>2170</ele>
        <time>2013-01-20T06:27:39Z</time>
      </trkpt>
      <trkpt lat="-21.22556" lon="55.69317">
        <ele>2172</ele>
        <time>2013-01-20T06:27:49Z</time>
      </trkpt>
      <trkpt lat="-21.22542" lon="55.69315">
        <ele>2172</ele>
        <time>2013-01-20T06:27:59Z</time>
      </trkpt>
      <trkpt lat="-21.22527" lon="55.69311">
        <ele>2171</ele>
        <time>2013-01-20T06:28:09Z</time>
      </trkpt>
      <trkpt lat="-21.22518" lon="55.69308">
        <ele>2171</ele>
        <time>2013-01-20T06:28:19Z</time>
      </trkpt>
      <trkpt lat="-21.22507" lon="55.69305">
        <ele>2170</ele>
        <time>2013-01-20T06:28:29Z</time>
      </trkpt>
      <trkpt lat="-21.22493" lon="55.69304">
        <ele>2170</ele>
        <time>2013-01-20T06:28:39Z</time>
      </trkpt>
      <trkpt lat="-21.22478" lon="55.69299">
        <ele>2170</ele>
        <time>2013-01-20T06:28:49Z</time>
      </trkpt>
      <trkpt lat="-21.22465" lon="55.69294">
        <ele>2170</ele>
        <time>2013-01-20T06:28:59Z</time>
      </trkpt>
      <trkpt lat="-21.22451" lon="55.69292">
        <ele>2171</ele>
        <time>2013-01-20T06:29:10Z</time>
      </trkpt>
      <trkpt lat="-21.22435" lon="55.69286">
        <ele>2170</ele>
        <time>2013-01-20T06:29:20Z</time>
      </trkpt>
      <trkpt lat="-21.2242" lon="55.69281">
        <ele>2169</ele>
        <time>2013-01-20T06:29:30Z</time>
      </trkpt>
      <trkpt lat="-21.22406" lon="55.69278">
        <ele>2170</ele>
        <time>2013-01-20T06:29:40Z</time>
      </trkpt>
      <trkpt lat="-21.22391" lon="55.69273">
        <ele>2169</ele>
        <time>2013-01-20T06:29:50Z</time>
      </trkpt>
      <trkpt lat="-21.22377" lon="55.69271">
        <ele>2169</ele>
        <time>2013-01-20T06:30:00Z</time>
      </trkpt>
      <trkpt lat="-21.22365" lon="55.69263">
        <ele>2168</ele>
        <time>2013-01-20T06:30:10Z</time>
      </trkpt>
      <trkpt lat="-21.22353" lon="55.69253">
        <ele>2169</ele>
        <time>2013-01-20T06:30:20Z</time>
      </trkpt>
      <trkpt lat="-21.22343" lon="55.69242">
        <ele>2169</ele>
        <time>2013-01-20T06:30:30Z</time>
      </trkpt>
      <trkpt lat="-21.2233" lon="55.69238">
        <ele>2169</ele>
        <time>2013-01-20T06:30:40Z</time>
      </trkpt>
      <trkpt lat="-21.22318" lon="55.69232">
        <ele>2169</ele>
        <time>2013-01-20T06:30:50Z</time>
      </trkpt>
      <trkpt lat="-21.22309" lon="55.69223">
        <ele>2170</ele>
        <time>2013-01-20T06:31:00Z</time>
      </trkpt>
      <trkpt lat="-21.22298" lon="55.69217">
        <ele>2170</ele>
        <time>2013-01-20T06:31:10Z</time>
      </trkpt>
      <trkpt lat="-21.22288" lon="55.69212">
        <ele>2171</ele>
        <time>2013-01-20T06:31:20Z</time>
      </trkpt>
      <trkpt lat="-21.22276" lon="55.69206">
        <ele>2170</ele>
        <time>2013-01-20T06:31:30Z</time>
      </trkpt>
      <trkpt lat="-21.22263" lon="55.69202">
        <ele>2169</ele>
        <time>2013-01-20T06:31:40Z</time>
      </trkpt>
      <trkpt lat="-21.2225" lon="55.69197">
        <ele>2170</ele>
        <time>2013-01-20T06:31:51Z</time>
      </trkpt>
      <trkpt lat="-21.22237" lon="55.69194">
        <ele>2170</ele>
        <time>2013-01-20T06:32:01Z</time>
      </trkpt>
      <trkpt lat="-21.22225" lon="55.69184">
        <ele>2169</ele>
        <time>2013-01-20T06:32:11Z</time>
      </trkpt>
      <trkpt lat="-21.22212" lon="55.69183">
        <ele>2170</ele>
        <time>2013-01-20T06:32:21Z</time>
      </trkpt>
      <trkpt lat="-21.22206" lon="55.69185">
        <ele>2170</ele>
        <time>2013-01-20T06:32:31Z</time>
      </trkpt>
      <trkpt lat="-21.22205" lon="55.69181">
        <ele>2170</ele>
        <time>2013-01-20T06:32:41Z</time>
      </trkpt>
      <trkpt lat="-21.22199" lon="55.69183">
        <ele>2173</ele>
        <time>2013-01-20T06:32:51Z</time>
      </trkpt>
      <trkpt lat="-21.22196" lon="55.6918">
        <ele>2175</ele>
        <time>2013-01-20T06:33:01Z</time>
      </trkpt>
      <trkpt lat="-21.22193" lon="55.69176">
        <ele>2178</ele>
        <time>2013-01-20T06:33:11Z</time>
      </trkpt>
      <trkpt lat="-21.22191" lon="55.69175">
        <ele>2180</ele>
        <time>2013-01-20T06:33:21Z</time>
      </trkpt>
      <trkpt lat="-21.22188" lon="55.69174">
        <ele>2183</ele>
        <time>2013-01-20T06:33:31Z</time>
      </trkpt>
      <trkpt lat="-21.22187" lon="55.69167">
        <ele>2183</ele>
        <time>2013-01-20T06:33:41Z</time>
      </trkpt>
      <trkpt lat="-21.22184" lon="55.69162">
        <ele>2186</ele>
        <time>2013-01-20T06:33:51Z</time>
      </trkpt>
      <trkpt lat="-21.22184" lon="55.6915">
        <ele>2186</ele>
        <time>2013-01-20T06:34:01Z</time>
      </trkpt>
      <trkpt lat="-21.22188" lon="55.6914">
        <ele>2187</ele>
        <time>2013-01-20T06:34:11Z</time>
      </trkpt>
      <trkpt lat="-21.2219" lon="55.69129">
        <ele>2189</ele>
        <time>2013-01-20T06:34:21Z</time>
      </trkpt>
      <trkpt lat="-21.22189" lon="55.69126">
        <ele>2191</ele>
        <time>2013-01-20T06:34:31Z</time>
      </trkpt>
      <trkpt lat="-21.22189" lon="55.69118">
        <ele>2194</ele>
        <time>2013-01-20T06:34:42Z</time>
      </trkpt>
      <trkpt lat="-21.22193" lon="55.69107">
        <ele>2195</ele>
        <time>2013-01-20T06:34:52Z</time>
      </trkpt>
      <trkpt lat="-21.22194" lon="55.69104">
        <ele>2197</ele>
        <time>2013-01-20T06:35:02Z</time>
      </trkpt>
      <trkpt lat="-21.22189" lon="55.69099">
        <ele>2199</ele>
        <time>2013-01-20T06:35:12Z</time>
      </trkpt>
      <trkpt lat="-21.22189" lon="55.69093">
        <ele>2201</ele>
        <time>2013-01-20T06:35:22Z</time>
      </trkpt>
      <trkpt lat="-21.22194" lon="55.69085">
        <ele>2203</ele>
        <time>2013-01-20T06:35:32Z</time>
      </trkpt>
      <trkpt lat="-21.22201" lon="55.69076">
        <ele>2203</ele>
        <time>2013-01-20T06:35:42Z</time>
      </trkpt>
      <trkpt lat="-21.22207" lon="55.69066">
        <ele>2204</ele>
        <time>2013-01-20T06:35:52Z</time>
      </trkpt>
      <trkpt lat="-21.22214" lon="55.69056">
        <ele>2204</ele>
        <time>2013-01-20T06:36:02Z</time>
      </trkpt>
      <trkpt lat="-21.22221" lon="55.69047">
        <ele>2205</ele>
        <time>2013-01-20T06:36:12Z</time>
      </trkpt>
      <trkpt lat="-21.22224" lon="55.69041">
        <ele>2209</ele>
        <time>2013-01-20T06:36:22Z</time>
      </trkpt>
      <trkpt lat="-21.22232" lon="55.69031">
        <ele>2211</ele>
        <time>2013-01-20T06:36:32Z</time>
      </trkpt>
      <trkpt lat="-21.22234" lon="55.69023">
        <ele>2212</ele>
        <time>2013-01-20T06:36:42Z</time>
      </trkpt>
      <trkpt lat="-21.22236" lon="55.69013">
        <ele>2215</ele>
        <time>2013-01-20T06:36:52Z</time>
      </trkpt>
      <trkpt lat="-21.22242" lon="55.69003">
        <ele>2215</ele>
        <time>2013-01-20T06:37:02Z</time>
      </trkpt>
      <trkpt lat="-21.22248" lon="55.68994">
        <ele>2216</ele>
        <time>2013-01-20T06:37:12Z</time>
      </trkpt>
      <trkpt lat="-21.22247" lon="55.6899">
        <ele>2218</ele>
        <time>2013-01-20T06:37:22Z</time>
      </trkpt>
      <trkpt lat="-21.22251" lon="55.68986">
        <ele>2220</ele>
        <time>2013-01-20T06:37:33Z</time>
      </trkpt>
      <trkpt lat="-21.22244" lon="55.68985">
        <ele>2222</ele>
        <time>2013-01-20T06:37:43Z</time>
      </trkpt>
      <trkpt lat="-21.2224" lon="55.68986">
        <ele>2225</ele>
        <time>2013-01-20T06:37:53Z</time>
      </trkpt>
      <trkpt lat="-21.22243" lon="55.68983">
        <ele>2226</ele>
        <time>2013-01-20T06:38:03Z</time>
      </trkpt>
      <trkpt lat="-21.22244" lon="55.6898">
        <ele>2228</ele>
        <time>2013-01-20T06:38:13Z</time>
      </trkpt>
      <trkpt lat="-21.2224" lon="55.68985">
        <ele>2230</ele>
        <time>2013-01-20T06:38:23Z</time>
      </trkpt>
      <trkpt lat="-21.22236" lon="55.6899">
        <ele>2232</ele>
        <time>2013-01-20T06:38:33Z</time>
      </trkpt>
      <trkpt lat="-21.22233" lon="55.6899">
        <ele>2235</ele>
        <time>2013-01-20T06:38:43Z</time>
      </trkpt>
      <trkpt lat="-21.22235" lon="55.68983">
        <ele>2236</ele>
        <time>2013-01-20T06:38:53Z</time>
      </trkpt>
      <trkpt lat="-21.2224" lon="55.68978">
        <ele>2238</ele>
        <time>2013-01-20T06:39:03Z</time>
      </trkpt>
      <trkpt lat="-21.22247" lon="55.68972">
        <ele>2239</ele>
        <time>2013-01-20T06:39:13Z</time>
      </trkpt>
      <trkpt lat="-21.22249" lon="55.68967">
        <ele>2241</ele>
        <time>2013-01-20T06:39:23Z</time>
      </trkpt>
      <trkpt lat="-21.22246" lon="55.68963">
        <ele>2243</ele>
        <time>2013-01-20T06:39:33Z</time>
      </trkpt>
      <trkpt lat="-21.22244" lon="55.68958">
        <ele>2245</ele>
        <time>2013-01-20T06:39:44Z</time>
      </trkpt>
      <trkpt lat="-21.22251" lon="55.68955">
        <ele>2247</ele>
        <time>2013-01-20T06:39:54Z</time>
      </trkpt>
      <trkpt lat="-21.22265" lon="55.68954">
        <ele>2247</ele>
        <time>2013-01-20T06:40:04Z</time>
      </trkpt>
      <trkpt lat="-21.22269" lon="55.68947">
        <ele>2250</ele>
        <time>2013-01-20T06:40:14Z</time>
      </trkpt>
      <trkpt lat="-21.22266" lon="55.6895">
        <ele>2252</ele>
        <time>2013-01-20T06:40:24Z</time>
      </trkpt>
      <trkpt lat="-21.22261" lon="55.68951">
        <ele>2254</ele>
        <time>2013-01-20T06:40:34Z</time>
      </trkpt>
      <trkpt lat="-21.22255" lon="55.68949">
        <ele>2255</ele>
        <time>2013-01-20T06:40:44Z</time>
      </trkpt>
      <trkpt lat="-21.22249" lon="55.68953">
        <ele>2256</ele>
        <time>2013-01-20T06:40:54Z</time>
      </trkpt>
      <trkpt lat="-21.22239" lon="55.68948">
        <ele>2258</ele>
        <time>2013-01-20T06:41:04Z</time>
      </trkpt>
      <trkpt lat="-21.22234" lon="55.68937">
        <ele>2261</ele>
        <time>2013-01-20T06:41:14Z</time>
      </trkpt>
      <trkpt lat="-21.22231" lon="55.68927">
        <ele>2263</ele>
        <time>2013-01-20T06:41:24Z</time>
      </trkpt>
      <trkpt lat="-21.22234" lon="55.68919">
        <ele>2265</ele>
        <time>2013-01-20T06:41:34Z</time>
      </trkpt>
      <trkpt lat="-21.22248" lon="55.68921">
        <ele>2266</ele>
        <time>2013-01-20T06:41:44Z</time>
      </trkpt>
      <trkpt lat="-21.22248" lon="55.6892">
        <ele>2268</ele>
        <time>2013-01-20T06:41:55Z</time>
      </trkpt>
      <trkpt lat="-21.22241" lon="55.68919">
        <ele>2270</ele>
        <time>2013-01-20T06:42:05Z</time>
      </trkpt>
      <trkpt lat="-21.22234" lon="55.68924">
        <ele>2271</ele>
        <time>2013-01-20T06:42:15Z</time>
      </trkpt>
      <trkpt lat="-21.22227" lon="55.68922">
        <ele>2273</ele>
        <time>2013-01-20T06:42:25Z</time>
      </trkpt>
      <trkpt lat="-21.22229" lon="55.68911">
        <ele>2273</ele>
        <time>2013-01-20T06:42:35Z</time>
      </trkpt>
      <trkpt lat="-21.22229" lon="55.68901">
        <ele>2274</ele>
        <time>2013-01-20T06:42:45Z</time>
      </trkpt>
      <trkpt lat="-21.22228" lon="55.68892">
        <ele>2276</ele>
        <time>2013-01-20T06:42:55Z</time>
      </trkpt>
      <trkpt lat="-21.22229" lon="55.68882">
        <ele>2278</ele>
        <time>2013-01-20T06:43:05Z</time>
      </trkpt>
      <trkpt lat="-21.22229" lon="55.68872">
        <ele>2280</ele>
        <time>2013-01-20T06:43:15Z</time>
      </trkpt>
      <trkpt lat="-21.22228" lon="55.68862">
        <ele>2282</ele>
        <time>2013-01-20T06:43:25Z</time>
      </trkpt>
      <trkpt lat="-21.22227" lon="55.68852">
        <ele>2283</ele>
        <time>2013-01-20T06:43:35Z</time>
      </trkpt>
      <trkpt lat="-21.22233" lon="55.6885">
        <ele>2285</ele>
        <time>2013-01-20T06:43:45Z</time>
      </trkpt>
      <trkpt lat="-21.22238" lon="55.68844">
        <ele>2288</ele>
        <time>2013-01-20T06:43:55Z</time>
      </trkpt>
      <trkpt lat="-21.22246" lon="55.68837">
        <ele>2289</ele>
        <time>2013-01-20T06:44:05Z</time>
      </trkpt>
      <trkpt lat="-21.22252" lon="55.6883">
        <ele>2290</ele>
        <time>2013-01-20T06:44:15Z</time>
      </trkpt>
      <trkpt lat="-21.22258" lon="55.68819">
        <ele>2291</ele>
        <time>2013-01-20T06:44:25Z</time>
      </trkpt>
      <trkpt lat="-21.22257" lon="55.68809">
        <ele>2292</ele>
        <time>2013-01-20T06:44:35Z</time>
      </trkpt>
      <trkpt lat="-21.2226" lon="55.68797">
        <ele>2293</ele>
        <time>2013-01-20T06:44:46Z</time>
      </trkpt>
      <trkpt lat="-21.22265" lon="55.68785">
        <ele>2294</ele>
        <time>2013-01-20T06:44:56Z</time>
      </trkpt>
      <trkpt lat="-21.2227" lon="55.68774">
        <ele>2295</ele>
        <time>2013-01-20T06:45:06Z</time>
      </trkpt>
      <trkpt lat="-21.22278" lon="55.68763">
        <ele>2296</ele>
        <time>2013-01-20T06:45:16Z</time>
      </trkpt>
      <trkpt lat="-21.22287" lon="55.68752">
        <ele>2296</ele>
        <time>2013-01-20T06:45:26Z</time>
      </trkpt>
      <trkpt lat="-21.22295" lon="55.6874">
        <ele>2295</ele>
        <time>2013-01-20T06:45:36Z</time>
      </trkpt>
      <trkpt lat="-21.22305" lon="55.6873">
        <ele>2295</ele>
        <time>2013-01-20T06:45:46Z</time>
      </trkpt>
      <trkpt lat="-21.22317" lon="55.68723">
        <ele>2297</ele>
        <time>2013-01-20T06:45:56Z</time>
      </trkpt>
      <trkpt lat="-21.22328" lon="55.68715">
        <ele>2298</ele>
        <time>2013-01-20T06:46:06Z</time>
      </trkpt>
      <trkpt lat="-21.22337" lon="55.68705">
        <ele>2299</ele>
        <time>2013-01-20T06:46:16Z</time>
      </trkpt>
      <trkpt lat="-21.22345" lon="55.68695">
        <ele>2298</ele>
        <time>2013-01-20T06:46:26Z</time>
      </trkpt>
      <trkpt lat="-21.22353" lon="55.68684">
        <ele>2300</ele>
        <time>2013-01-20T06:46:36Z</time>
      </trkpt>
      <trkpt lat="-21.22362" lon="55.68674">
        <ele>2301</ele>
        <time>2013-01-20T06:46:46Z</time>
      </trkpt>
      <trkpt lat="-21.22371" lon="55.68665">
        <ele>2302</ele>
        <time>2013-01-20T06:46:56Z</time>
      </trkpt>
      <trkpt lat="-21.22376" lon="55.68654">
        <ele>2304</ele>
        <time>2013-01-20T06:47:06Z</time>
      </trkpt>
      <trkpt lat="-21.22384" lon="55.68644">
        <ele>2305</ele>
        <time>2013-01-20T06:47:17Z</time>
      </trkpt>
      <trkpt lat="-21.22393" lon="55.68635">
        <ele>2307</ele>
        <time>2013-01-20T06:47:27Z</time>
      </trkpt>
      <trkpt lat="-21.22404" lon="55.68625">
        <ele>2306</ele>
        <time>2013-01-20T06:47:37Z</time>
      </trkpt>
      <trkpt lat="-21.22416" lon="55.68618">
        <ele>2307</ele>
        <time>2013-01-20T06:47:47Z</time>
      </trkpt>
      <trkpt lat="-21.22427" lon="55.68611">
        <ele>2307</ele>
        <time>2013-01-20T06:47:57Z</time>
      </trkpt>
      <trkpt lat="-21.22438" lon="55.68603">
        <ele>2306</ele>
        <time>2013-01-20T06:48:07Z</time>
      </trkpt>
      <trkpt lat="-21.22451" lon="55.68595">
        <ele>2306</ele>
        <time>2013-01-20T06:48:17Z</time>
      </trkpt>
      <trkpt lat="-21.22463" lon="55.68585">
        <ele>2307</ele>
        <time>2013-01-20T06:48:27Z</time>
      </trkpt>
      <trkpt lat="-21.22477" lon="55.68576">
        <ele>2307</ele>
        <time>2013-01-20T06:48:37Z</time>
      </trkpt>
      <trkpt lat="-21.22487" lon="55.68565">
        <ele>2307</ele>
        <time>2013-01-20T06:48:47Z</time>
      </trkpt>
      <trkpt lat="-21.22497" lon="55.68554">
        <ele>2308</ele>
        <time>2013-01-20T06:48:57Z</time>
      </trkpt>
      <trkpt lat="-21.2251" lon="55.68541">
        <ele>2308</ele>
        <time>2013-01-20T06:49:07Z</time>
      </trkpt>
      <trkpt lat="-21.22519" lon="55.68527">
        <ele>2307</ele>
        <time>2013-01-20T06:49:17Z</time>
      </trkpt>
      <trkpt lat="-21.22526" lon="55.68513">
        <ele>2307</ele>
        <time>2013-01-20T06:49:28Z</time>
      </trkpt>
      <trkpt lat="-21.22526" lon="55.68506">
        <ele>2307</ele>
        <time>2013-01-20T06:49:38Z</time>
      </trkpt>
      <trkpt lat="-21.22518" lon="55.68494">
        <ele>2307</ele>
        <time>2013-01-20T06:49:48Z</time>
      </trkpt>
      <trkpt lat="-21.22507" lon="55.68487">
        <ele>2306</ele>
        <time>2013-01-20T06:49:58Z</time>
      </trkpt>
      <trkpt lat="-21.22491" lon="55.68488">
        <ele>2305</ele>
        <time>2013-01-20T06:50:08Z</time>
      </trkpt>
      <trkpt lat="-21.22476" lon="55.68491">
        <ele>2304</ele>
        <time>2013-01-20T06:50:18Z</time>
      </trkpt>
      <trkpt lat="-21.2246" lon="55.68495">
        <ele>2304</ele>
        <time>2013-01-20T06:50:28Z</time>
      </trkpt>
      <trkpt lat="-21.22445" lon="55.68498">
        <ele>2302</ele>
        <time>2013-01-20T06:50:38Z</time>
      </trkpt>
      <trkpt lat="-21.22429" lon="55.68497">
        <ele>2302</ele>
        <time>2013-01-20T06:50:48Z</time>
      </trkpt>
      <trkpt lat="-21.22419" lon="55.68492">
        <ele>2300</ele>
        <time>2013-01-20T06:50:58Z</time>
      </trkpt>
      <trkpt lat="-21.22418" lon="55.68491">
        <ele>2300</ele>
        <time>2013-01-20T06:51:08Z</time>
      </trkpt>
      <trkpt lat="-21.2241" lon="55.68481">
        <ele>2300</ele>
        <time>2013-01-20T06:51:18Z</time>
      </trkpt>
      <trkpt lat="-21.22403" lon="55.68464">
        <ele>2298</ele>
        <time>2013-01-20T06:51:28Z</time>
      </trkpt>
      <trkpt lat="-21.22398" lon="55.68439">
        <ele>2298</ele>
        <time>2013-01-20T06:51:38Z</time>
      </trkpt>
      <trkpt lat="-21.22404" lon="55.68417">
        <ele>2296</ele>
        <time>2013-01-20T06:51:48Z</time>
      </trkpt>
      <trkpt lat="-21.22412" lon="55.68394">
        <ele>2295</ele>
        <time>2013-01-20T06:51:58Z</time>
      </trkpt>
      <trkpt lat="-21.22419" lon="55.68371">
        <ele>2294</ele>
        <time>2013-01-20T06:52:08Z</time>
      </trkpt>
      <trkpt lat="-21.22426" lon="55.68348">
        <ele>2293</ele>
        <time>2013-01-20T06:52:18Z</time>
      </trkpt>
      <trkpt lat="-21.22433" lon="55.68325">
        <ele>2292</ele>
        <time>2013-01-20T06:52:28Z</time>
      </trkpt>
      <trkpt lat="-21.22441" lon="55.68308">
        <ele>2291</ele>
        <time>2013-01-20T06:52:38Z</time>
      </trkpt>
      <trkpt lat="-21.22449" lon="55.68293">
        <ele>2291</ele>
        <time>2013-01-20T06:52:48Z</time>
      </trkpt>
      <trkpt lat="-21.22457" lon="55.68275">
        <ele>2290</ele>
        <time>2013-01-20T06:52:58Z</time>
      </trkpt>
      <trkpt lat="-21.22463" lon="55.68259">
        <ele>2289</ele>
        <time>2013-01-20T06:53:08Z</time>
      </trkpt>
      <trkpt lat="-21.22471" lon="55.6824">
        <ele>2288</ele>
        <time>2013-01-20T06:53:18Z</time>
      </trkpt>
      <trkpt lat="-21.22477" lon="55.68223">
        <ele>2287</ele>
        <time>2013-01-20T06:53:28Z</time>
      </trkpt>
      <trkpt lat="-21.2248" lon="55.68205">
        <ele>2286</ele>
        <time>2013-01-20T06:53:39Z</time>
      </trkpt>
      <trkpt lat="-21.22483" lon="55.68188">
        <ele>2285</ele>
        <time>2013-01-20T06:53:49Z</time>
      </trkpt>
      <trkpt lat="-21.22487" lon="55.68169">
        <ele>2285</ele>
        <time>2013-01-20T06:53:59Z</time>
      </trkpt>
      <trkpt lat="-21.22488" lon="55.68151">
        <ele>2284</ele>
        <time>2013-01-20T06:54:09Z</time>
      </trkpt>
      <trkpt lat="-21.22481" lon="55.68134">
        <ele>2283</ele>
        <time>2013-01-20T06:54:19Z</time>
      </trkpt>
      <trkpt lat="-21.22472" lon="55.68119">
        <ele>2282</ele>
        <time>2013-01-20T06:54:29Z</time>
      </trkpt>
      <trkpt lat="-21.22463" lon="55.68103">
        <ele>2283</ele>
        <time>2013-01-20T06:54:39Z</time>
      </trkpt>
      <trkpt lat="-21.22455" lon="55.68087">
        <ele>2282</ele>
        <time>2013-01-20T06:54:49Z</time>
      </trkpt>
      <trkpt lat="-21.22447" lon="55.68071">
        <ele>2281</ele>
        <time>2013-01-20T06:54:59Z</time>
      </trkpt>
      <trkpt lat="-21.22438" lon="55.68054">
        <ele>2281</ele>
        <time>2013-01-20T06:55:09Z</time>
      </trkpt>
      <trkpt lat="-21.2243" lon="55.68038">
        <ele>2281</ele>
        <time>2013-01-20T06:55:19Z</time>
      </trkpt>
      <trkpt lat="-21.22427" lon="55.68021">
        <ele>2281</ele>
        <time>2013-01-20T06:55:29Z</time>
      </trkpt>
      <trkpt lat="-21.22429" lon="55.68004">
        <ele>2280</ele>
        <time>2013-01-20T06:55:39Z</time>
      </trkpt>
      <trkpt lat="-21.22431" lon="55.67986">
        <ele>2279</ele>
        <time>2013-01-20T06:55:49Z</time>
      </trkpt>
      <trkpt lat="-21.22433" lon="55.67967">
        <ele>2279</ele>
        <time>2013-01-20T06:55:59Z</time>
      </trkpt>
      <trkpt lat="-21.22434" lon="55.67948">
        <ele>2279</ele>
        <time>2013-01-20T06:56:09Z</time>
      </trkpt>
      <trkpt lat="-21.22435" lon="55.6793">
        <ele>2278</ele>
        <time>2013-01-20T06:56:19Z</time>
      </trkpt>
      <trkpt lat="-21.22436" lon="55.6791">
        <ele>2277</ele>
        <time>2013-01-20T06:56:29Z</time>
      </trkpt>
      <trkpt lat="-21.22433" lon="55.67888">
        <ele>2278</ele>
        <time>2013-01-20T06:56:39Z</time>
      </trkpt>
      <trkpt lat="-21.22431" lon="55.67865">
        <ele>2277</ele>
        <time>2013-01-20T06:56:49Z</time>
      </trkpt>
      <trkpt lat="-21.22429" lon="55.67844">
        <ele>2277</ele>
        <time>2013-01-20T06:56:59Z</time>
      </trkpt>
      <trkpt lat="-21.22429" lon="55.67826">
        <ele>2277</ele>
        <time>2013-01-20T06:57:10Z</time>
      </trkpt>
      <trkpt lat="-21.2243" lon="55.67809">
        <ele>2276</ele>
        <time>2013-01-20T06:57:20Z</time>
      </trkpt>
      <trkpt lat="-21.22434" lon="55.67791">
        <ele>2277</ele>
        <time>2013-01-20T06:57:30Z</time>
      </trkpt>
      <trkpt lat="-21.2244" lon="55.67774">
        <ele>2277</ele>
        <time>2013-01-20T06:57:40Z</time>
      </trkpt>
      <trkpt lat="-21.22447" lon="55.67759">
        <ele>2276</ele>
        <time>2013-01-20T06:57:50Z</time>
      </trkpt>
      <trkpt lat="-21.22455" lon="55.67744">
        <ele>2276</ele>
        <time>2013-01-20T06:58:00Z</time>
      </trkpt>
      <trkpt lat="-21.22463" lon="55.6773">
        <ele>2276</ele>
        <time>2013-01-20T06:58:10Z</time>
      </trkpt>
      <trkpt lat="-21.22471" lon="55.67716">
        <ele>2276</ele>
        <time>2013-01-20T06:58:20Z</time>
      </trkpt>
      <trkpt lat="-21.22479" lon="55.67702">
        <ele>2276</ele>
        <time>2013-01-20T06:58:30Z</time>
      </trkpt>
      <trkpt lat="-21.22488" lon="55.67688">
        <ele>2276</ele>
        <time>2013-01-20T06:58:40Z</time>
      </trkpt>
      <trkpt lat="-21.22499" lon="55.67674">
        <ele>2276</ele>
        <time>2013-01-20T06:58:50Z</time>
      </trkpt>
      <trkpt lat="-21.22509" lon="55.67661">
        <ele>2275</ele>
        <time>2013-01-20T06:59:00Z</time>
      </trkpt>
      <trkpt lat="-21.22519" lon="55.67646">
        <ele>2276</ele>
        <time>2013-01-20T06:59:10Z</time>
      </trkpt>
      <trkpt lat="-21.22529" lon="55.67634">
        <ele>2276</ele>
        <time>2013-01-20T06:59:20Z</time>
      </trkpt>
      <trkpt lat="-21.22538" lon="55.6762">
        <ele>2276</ele>
        <time>2013-01-20T06:59:30Z</time>
      </trkpt>
      <trkpt lat="-21.22549" lon="55.67605">
        <ele>2277</ele>
        <time>2013-01-20T06:59:40Z</time>
      </trkpt>
      <trkpt lat="-21.22559" lon="55.67591">
        <ele>2278</ele>
        <time>2013-01-20T06:59:50Z</time>
      </trkpt>
      <trkpt lat="-21.22568" lon="55.67579">
        <ele>2278</ele>
        <time>2013-01-20T07:00:01Z</time>
      </trkpt>
      <trkpt lat="-21.22577" lon="55.67566">
        <ele>2279</ele>
        <time>2013-01-20T07:00:11Z</time>
      </trkpt>
      <trkpt lat="-21.22588" lon="55.67552">
        <ele>2279</ele>
        <time>2013-01-20T07:00:21Z</time>
      </trkpt>
      <trkpt lat="-21.226" lon="55.67539">
        <ele>2280</ele>
        <time>2013-01-20T07:00:31Z</time>
      </trkpt>
      <trkpt lat="-21.22613" lon="55.67525">
        <ele>2279</ele>
        <time>2013-01-20T07:00:41Z</time>
      </trkpt>
      <trkpt lat="-21.22625" lon="55.67512">
        <ele>2279</ele>
        <time>2013-01-20T07:00:51Z</time>
      </trkpt>
      <trkpt lat="-21.22635" lon="55.67497">
        <ele>2279</ele>
        <time>2013-01-20T07:01:01Z</time>
      </trkpt>
      <trkpt lat="-21.22646" lon="55.67482">
        <ele>2280</ele>
        <time>2013-01-20T07:01:11Z</time>
      </trkpt>
      <trkpt lat="-21.22656" lon="55.67468">
        <ele>2280</ele>
        <time>2013-01-20T07:01:21Z</time>
      </trkpt>
      <trkpt lat="-21.22667" lon="55.67454">
        <ele>2280</ele>
        <time>2013-01-20T07:01:31Z</time>
      </trkpt>
      <trkpt lat="-21.22679" lon="55.6744">
        <ele>2280</ele>
        <time>2013-01-20T07:01:41Z</time>
      </trkpt>
      <trkpt lat="-21.2269" lon="55.67427">
        <ele>2280</ele>
        <time>2013-01-20T07:01:51Z</time>
      </trkpt>
      <trkpt lat="-21.22701" lon="55.67414">
        <ele>2280</ele>
        <time>2013-01-20T07:02:01Z</time>
      </trkpt>
      <trkpt lat="-21.22711" lon="55.67402">
        <ele>2280</ele>
        <time>2013-01-20T07:02:11Z</time>
      </trkpt>
      <trkpt lat="-21.22723" lon="55.67392">
        <ele>2280</ele>
        <time>2013-01-20T07:02:21Z</time>
      </trkpt>
      <trkpt lat="-21.22737" lon="55.67382">
        <ele>2282</ele>
        <time>2013-01-20T07:02:31Z</time>
      </trkpt>
      <trkpt lat="-21.2275" lon="55.67374">
        <ele>2282</ele>
        <time>2013-01-20T07:02:41Z</time>
      </trkpt>
      <trkpt lat="-21.22765" lon="55.67368">
        <ele>2283</ele>
        <time>2013-01-20T07:02:51Z</time>
      </trkpt>
      <trkpt lat="-21.22782" lon="55.67365">
        <ele>2284</ele>
        <time>2013-01-20T07:03:01Z</time>
      </trkpt>
      <trkpt lat="-21.22798" lon="55.67362">
        <ele>2285</ele>
        <time>2013-01-20T07:03:11Z</time>
      </trkpt>
      <trkpt lat="-21.22813" lon="55.67359">
        <ele>2285</ele>
        <time>2013-01-20T07:03:21Z</time>
      </trkpt>
      <trkpt lat="-21.22829" lon="55.67358">
        <ele>2286</ele>
        <time>2013-01-20T07:03:31Z</time>
      </trkpt>
      <trkpt lat="-21.22843" lon="55.67356">
        <ele>2286</ele>
        <time>2013-01-20T07:03:41Z</time>
      </trkpt>
      <trkpt lat="-21.22856" lon="55.67355">
        <ele>2287</ele>
        <time>2013-01-20T07:03:51Z</time>
      </trkpt>
      <trkpt lat="-21.22871" lon="55.67354">
        <ele>2287</ele>
        <time>2013-01-20T07:04:01Z</time>
      </trkpt>
      <trkpt lat="-21.22887" lon="55.67348">
        <ele>2287</ele>
        <time>2013-01-20T07:04:11Z</time>
      </trkpt>
      <trkpt lat="-21.22901" lon="55.67342">
        <ele>2288</ele>
        <time>2013-01-20T07:04:21Z</time>
      </trkpt>
      <trkpt lat="-21.22913" lon="55.67334">
        <ele>2289</ele>
        <time>2013-01-20T07:04:32Z</time>
      </trkpt>
      <trkpt lat="-21.22927" lon="55.67326">
        <ele>2289</ele>
        <time>2013-01-20T07:04:42Z</time>
      </trkpt>
      <trkpt lat="-21.2294" lon="55.67317">
        <ele>2290</ele>
        <time>2013-01-20T07:04:52Z</time>
      </trkpt>
      <trkpt lat="-21.22956" lon="55.67311">
        <ele>2290</ele>
        <time>2013-01-20T07:05:02Z</time>
      </trkpt>
      <trkpt lat="-21.2297" lon="55.67305">
        <ele>2290</ele>
        <time>2013-01-20T07:05:12Z</time>
      </trkpt>
      <trkpt lat="-21.22986" lon="55.67299">
        <ele>2289</ele>
        <time>2013-01-20T07:05:22Z</time>
      </trkpt>
      <trkpt lat="-21.23001" lon="55.67292">
        <ele>2289</ele>
        <time>2013-01-20T07:05:32Z</time>
      </trkpt>
      <trkpt lat="-21.23018" lon="55.67288">
        <ele>2289</ele>
        <time>2013-01-20T07:05:42Z</time>
      </trkpt>
      <trkpt lat="-21.23034" lon="55.67282">
        <ele>2289</ele>
        <time>2013-01-20T07:05:52Z</time>
      </trkpt>
      <trkpt lat="-21.23049" lon="55.67277">
        <ele>2288</ele>
        <time>2013-01-20T07:06:02Z</time>
      </trkpt>
      <trkpt lat="-21.23064" lon="55.67271">
        <ele>2289</ele>
        <time>2013-01-20T07:06:12Z</time>
      </trkpt>
      <trkpt lat="-21.23078" lon="55.67266">
        <ele>2289</ele>
        <time>2013-01-20T07:06:22Z</time>
      </trkpt>
      <trkpt lat="-21.23092" lon="55.67262">
        <ele>2290</ele>
        <time>2013-01-20T07:06:32Z</time>
      </trkpt>
      <trkpt lat="-21.23107" lon="55.67257">
        <ele>2290</ele>
        <time>2013-01-20T07:06:42Z</time>
      </trkpt>
      <trkpt lat="-21.23122" lon="55.67252">
        <ele>2290</ele>
        <time>2013-01-20T07:06:52Z</time>
      </trkpt>
      <trkpt lat="-21.23138" lon="55.67246">
        <ele>2290</ele>
        <time>2013-01-20T07:07:02Z</time>
      </trkpt>
      <trkpt lat="-21.23153" lon="55.6724">
        <ele>2291</ele>
        <time>2013-01-20T07:07:12Z</time>
      </trkpt>
      <trkpt lat="-21.23169" lon="55.67234">
        <ele>2290</ele>
        <time>2013-01-20T07:07:22Z</time>
      </trkpt>
      <trkpt lat="-21.23184" lon="55.67228">
        <ele>2290</ele>
        <time>2013-01-20T07:07:32Z</time>
      </trkpt>
      <trkpt lat="-21.23199" lon="55.67221">
        <ele>2290</ele>
        <time>2013-01-20T07:07:42Z</time>
      </trkpt>
      <trkpt lat="-21.23216" lon="55.67216">
        <ele>2290</ele>
        <time>2013-01-20T07:07:52Z</time>
      </trkpt>
      <trkpt lat="-21.23232" lon="55.6721">
        <ele>2289</ele>
        <time>2013-01-20T07:08:02Z</time>
      </trkpt>
      <trkpt lat="-21.23248" lon="55.67202">
        <ele>2290</ele>
        <time>2013-01-20T07:08:12Z</time>
      </trkpt>
      <trkpt lat="-21.23265" lon="55.67194">
        <ele>2289</ele>
        <time>2013-01-20T07:08:22Z</time>
      </trkpt>
      <trkpt lat="-21.23279" lon="55.67185">
        <ele>2290</ele>
        <time>2013-01-20T07:08:32Z</time>
      </trkpt>
      <trkpt lat="-21.23292" lon="55.67177">
        <ele>2290</ele>
        <time>2013-01-20T07:08:42Z</time>
      </trkpt>
      <trkpt lat="-21.23307" lon="55.67168">
        <ele>2290</ele>
        <time>2013-01-20T07:08:53Z</time>
      </trkpt>
      <trkpt lat="-21.23322" lon="55.6716">
        <ele>2290</ele>
        <time>2013-01-20T07:09:03Z</time>
      </trkpt>
      <trkpt lat="-21.23336" lon="55.67152">
        <ele>2290</ele>
        <time>2013-01-20T07:09:13Z</time>
      </trkpt>
      <trkpt lat="-21.23348" lon="55.67141">
        <ele>2291</ele>
        <time>2013-01-20T07:09:23Z</time>
      </trkpt>
      <trkpt lat="-21.23357" lon="55.67125">
        <ele>2291</ele>
        <time>2013-01-20T07:09:33Z</time>
      </trkpt>
      <trkpt lat="-21.23363" lon="55.67109">
        <ele>2291</ele>
        <time>2013-01-20T07:09:43Z</time>
      </trkpt>
      <trkpt lat="-21.23365" lon="55.67093">
        <ele>2291</ele>
        <time>2013-01-20T07:09:53Z</time>
      </trkpt>
      <trkpt lat="-21.23364" lon="55.67078">
        <ele>2291</ele>
        <time>2013-01-20T07:10:03Z</time>
      </trkpt>
      <trkpt lat="-21.23362" lon="55.67061">
        <ele>2292</ele>
        <time>2013-01-20T07:10:13Z</time>
      </trkpt>
      <trkpt lat="-21.2336" lon="55.67045">
        <ele>2291</ele>
        <time>2013-01-20T07:10:23Z</time>
      </trkpt>
      <trkpt lat="-21.23359" lon="55.67026">
        <ele>2290</ele>
        <time>2013-01-20T07:10:33Z</time>
      </trkpt>
      <trkpt lat="-21.2336" lon="55.67007">
        <ele>2290</ele>
        <time>2013-01-20T07:10:43Z</time>
      </trkpt>
      <trkpt lat="-21.23363" lon="55.66984">
        <ele>2289</ele>
        <time>2013-01-20T07:10:53Z</time>
      </trkpt>
      <trkpt lat="-21.23365" lon="55.6696">
        <ele>2288</ele>
        <time>2013-01-20T07:11:03Z</time>
      </trkpt>
      <trkpt lat="-21.23362" lon="55.66938">
        <ele>2287</ele>
        <time>2013-01-20T07:11:13Z</time>
      </trkpt>
      <trkpt lat="-21.23353" lon="55.6692">
        <ele>2288</ele>
        <time>2013-01-20T07:11:23Z</time>
      </trkpt>
      <trkpt lat="-21.23343" lon="55.66901">
        <ele>2288</ele>
        <time>2013-01-20T07:11:33Z</time>
      </trkpt>
      <trkpt lat="-21.23333" lon="55.66881">
        <ele>2288</ele>
        <time>2013-01-20T07:11:43Z</time>
      </trkpt>
      <trkpt lat="-21.23323" lon="55.66861">
        <ele>2287</ele>
        <time>2013-01-20T07:11:53Z</time>
      </trkpt>
      <trkpt lat="-21.23313" lon="55.6684">
        <ele>2286</ele>
        <time>2013-01-20T07:12:03Z</time>
      </trkpt>
      <trkpt lat="-21.23305" lon="55.66819">
        <ele>2285</ele>
        <time>2013-01-20T07:12:13Z</time>
      </trkpt>
      <trkpt lat="-21.23295" lon="55.66797">
        <ele>2284</ele>
        <time>2013-01-20T07:12:23Z</time>
      </trkpt>
      <trkpt lat="-21.23285" lon="55.66777">
        <ele>2282</ele>
        <time>2013-01-20T07:12:33Z</time>
      </trkpt>
      <trkpt lat="-21.23278" lon="55.66754">
        <ele>2279</ele>
        <time>2013-01-20T07:12:43Z</time>
      </trkpt>
      <trkpt lat="-21.23276" lon="55.66729">
        <ele>2278</ele>
        <time>2013-01-20T07:12:53Z</time>
      </trkpt>
      <trkpt lat="-21.23269" lon="55.66708">
        <ele>2276</ele>
        <time>2013-01-20T07:13:03Z</time>
      </trkpt>
      <trkpt lat="-21.23254" lon="55.66692">
        <ele>2275</ele>
        <time>2013-01-20T07:13:13Z</time>
      </trkpt>
      <trkpt lat="-21.23235" lon="55.66683">
        <ele>2273</ele>
        <time>2013-01-20T07:13:23Z</time>
      </trkpt>
      <trkpt lat="-21.23215" lon="55.66673">
        <ele>2272</ele>
        <time>2013-01-20T07:13:33Z</time>
      </trkpt>
      <trkpt lat="-21.23197" lon="55.6666">
        <ele>2272</ele>
        <time>2013-01-20T07:13:43Z</time>
      </trkpt>
      <trkpt lat="-21.23178" lon="55.66644">
        <ele>2270</ele>
        <time>2013-01-20T07:13:53Z</time>
      </trkpt>
      <trkpt lat="-21.23162" lon="55.66625">
        <ele>2268</ele>
        <time>2013-01-20T07:14:03Z</time>
      </trkpt>
      <trkpt lat="-21.23147" lon="55.66606">
        <ele>2267</ele>
        <time>2013-01-20T07:14:13Z</time>
      </trkpt>
      <trkpt lat="-21.23132" lon="55.66587">
        <ele>2266</ele>
        <time>2013-01-20T07:14:24Z</time>
      </trkpt>
      <trkpt lat="-21.23126" lon="55.66569">
        <ele>2266</ele>
        <time>2013-01-20T07:14:34Z</time>
      </trkpt>
      <trkpt lat="-21.23127" lon="55.6655">
        <ele>2265</ele>
        <time>2013-01-20T07:14:44Z</time>
      </trkpt>
      <trkpt lat="-21.23128" lon="55.66532">
        <ele>2265</ele>
        <time>2013-01-20T07:14:54Z</time>
      </trkpt>
      <trkpt lat="-21.23129" lon="55.66513">
        <ele>2264</ele>
        <time>2013-01-20T07:15:04Z</time>
      </trkpt>
      <trkpt lat="-21.23129" lon="55.66494">
        <ele>2263</ele>
        <time>2013-01-20T07:15:14Z</time>
      </trkpt>
      <trkpt lat="-21.23131" lon="55.66476">
        <ele>2262</ele>
        <time>2013-01-20T07:15:24Z</time>
      </trkpt>
      <trkpt lat="-21.23132" lon="55.66457">
        <ele>2262</ele>
        <time>2013-01-20T07:15:34Z</time>
      </trkpt>
      <trkpt lat="-21.2313" lon="55.66438">
        <ele>2260</ele>
        <time>2013-01-20T07:15:44Z</time>
      </trkpt>
      <trkpt lat="-21.23122" lon="55.66422">
        <ele>2259</ele>
        <time>2013-01-20T07:15:54Z</time>
      </trkpt>
      <trkpt lat="-21.23105" lon="55.66415">
        <ele>2259</ele>
        <time>2013-01-20T07:16:04Z</time>
      </trkpt>
      <trkpt lat="-21.23083" lon="55.66411">
        <ele>2257</ele>
        <time>2013-01-20T07:16:14Z</time>
      </trkpt>
      <trkpt lat="-21.23063" lon="55.66402">
        <ele>2256</ele>
        <time>2013-01-20T07:16:24Z</time>
      </trkpt>
      <trkpt lat="-21.23044" lon="55.66391">
        <ele>2254</ele>
        <time>2013-01-20T07:16:34Z</time>
      </trkpt>
      <trkpt lat="-21.23026" lon="55.66377">
        <ele>2252</ele>
        <time>2013-01-20T07:16:44Z</time>
      </trkpt>
      <trkpt lat="-21.2301" lon="55.66359">
        <ele>2250</ele>
        <time>2013-01-20T07:16:54Z</time>
      </trkpt>
      <trkpt lat="-21.22996" lon="55.66338">
        <ele>2250</ele>
        <time>2013-01-20T07:17:04Z</time>
      </trkpt>
      <trkpt lat="-21.22985" lon="55.66317">
        <ele>2248</ele>
        <time>2013-01-20T07:17:14Z</time>
      </trkpt>
      <trkpt lat="-21.22982" lon="55.66295">
        <ele>2245</ele>
        <time>2013-01-20T07:17:25Z</time>
      </trkpt>
      <trkpt lat="-21.22991" lon="55.66272">
        <ele>2244</ele>
        <time>2013-01-20T07:17:35Z</time>
      </trkpt>
      <trkpt lat="-21.23009" lon="55.66254">
        <ele>2243</ele>
        <time>2013-01-20T07:17:45Z</time>
      </trkpt>
      <trkpt lat="-21.23027" lon="55.66237">
        <ele>2242</ele>
        <time>2013-01-20T07:17:55Z</time>
      </trkpt>
      <trkpt lat="-21.23043" lon="55.6622">
        <ele>2241</ele>
        <time>2013-01-20T07:18:05Z</time>
      </trkpt>
      <trkpt lat="-21.23059" lon="55.66202">
        <ele>2239</ele>
        <time>2013-01-20T07:18:15Z</time>
      </trkpt>
      <trkpt lat="-21.23075" lon="55.66185">
        <ele>2238</ele>
        <time>2013-01-20T07:18:25Z</time>
      </trkpt>
      <trkpt lat="-21.23091" lon="55.66169">
        <ele>2237</ele>
        <time>2013-01-20T07:18:35Z</time>
      </trkpt>
      <trkpt lat="-21.23107" lon="55.66151">
        <ele>2237</ele>
        <time>2013-01-20T07:18:45Z</time>
      </trkpt>
      <trkpt lat="-21.23124" lon="55.66134">
        <ele>2235</ele>
        <time>2013-01-20T07:18:55Z</time>
      </trkpt>
      <trkpt lat="-21.2314" lon="55.66117">
        <ele>2234</ele>
        <time>2013-01-20T07:19:05Z</time>
      </trkpt>
      <trkpt lat="-21.2315" lon="55.66096">
        <ele>2234</ele>
        <time>2013-01-20T07:19:15Z</time>
      </trkpt>
      <trkpt lat="-21.23155" lon="55.66078">
        <ele>2233</ele>
        <time>2013-01-20T07:19:25Z</time>
      </trkpt>
      <trkpt lat="-21.23159" lon="55.6606">
        <ele>2231</ele>
        <time>2013-01-20T07:19:35Z</time>
      </trkpt>
      <trkpt lat="-21.2316" lon="55.66042">
        <ele>2230</ele>
        <time>2013-01-20T07:19:45Z</time>
      </trkpt>
      <trkpt lat="-21.23159" lon="55.66025">
        <ele>2230</ele>
        <time>2013-01-20T07:19:55Z</time>
      </trkpt>
      <trkpt lat="-21.23157" lon="55.66008">
        <ele>2230</ele>
        <time>2013-01-20T07:20:05Z</time>
      </trkpt>
      <trkpt lat="-21.23157" lon="55.65988">
        <ele>2229</ele>
        <time>2013-01-20T07:20:15Z</time>
      </trkpt>
      <trkpt lat="-21.23156" lon="55.65971">
        <ele>2228</ele>
        <time>2013-01-20T07:20:25Z</time>
      </trkpt>
      <trkpt lat="-21.23155" lon="55.65953">
        <ele>2229</ele>
        <time>2013-01-20T07:20:35Z</time>
      </trkpt>
      <trkpt lat="-21.23153" lon="55.65935">
        <ele>2228</ele>
        <time>2013-01-20T07:20:45Z</time>
      </trkpt>
      <trkpt lat="-21.23152" lon="55.65918">
        <ele>2227</ele>
        <time>2013-01-20T07:20:55Z</time>
      </trkpt>
      <trkpt lat="-21.23151" lon="55.659">
        <ele>2226</ele>
        <time>2013-01-20T07:21:05Z</time>
      </trkpt>
      <trkpt lat="-21.2315" lon="55.65882">
        <ele>2225</ele>
        <time>2013-01-20T07:21:15Z</time>
      </trkpt>
      <trkpt lat="-21.23149" lon="55.65863">
        <ele>2225</ele>
        <time>2013-01-20T07:21:25Z</time>
      </trkpt>
      <trkpt lat="-21.23147" lon="55.65844">
        <ele>2224</ele>
        <time>2013-01-20T07:21:35Z</time>
      </trkpt>
      <trkpt lat="-21.23145" lon="55.65825">
        <ele>2224</ele>
        <time>2013-01-20T07:21:45Z</time>
      </trkpt>
      <trkpt lat="-21.23143" lon="55.65807">
        <ele>2224</ele>
        <time>2013-01-20T07:21:55Z</time>
      </trkpt>
      <trkpt lat="-21.23142" lon="55.65788">
        <ele>2225</ele>
        <time>2013-01-20T07:22:05Z</time>
      </trkpt>
      <trkpt lat="-21.23141" lon="55.65771">
        <ele>2224</ele>
        <time>2013-01-20T07:22:15Z</time>
      </trkpt>
      <trkpt lat="-21.23141" lon="55.65754">
        <ele>2223</ele>
        <time>2013-01-20T07:22:25Z</time>
      </trkpt>
      <trkpt lat="-21.2314" lon="55.65735">
        <ele>2224</ele>
        <time>2013-01-20T07:22:35Z</time>
      </trkpt>
      <trkpt lat="-21.23139" lon="55.65718">
        <ele>2224</ele>
        <time>2013-01-20T07:22:45Z</time>
      </trkpt>
      <trkpt lat="-21.23138" lon="55.65701">
        <ele>2223</ele>
        <time>2013-01-20T07:22:55Z</time>
      </trkpt>
      <trkpt lat="-21.23137" lon="55.65682">
        <ele>2223</ele>
        <time>2013-01-20T07:23:05Z</time>
      </trkpt>
      <trkpt lat="-21.23135" lon="55.65666">
        <ele>2223</ele>
        <time>2013-01-20T07:23:15Z</time>
      </trkpt>
      <trkpt lat="-21.23133" lon="55.65649">
        <ele>2223</ele>
        <time>2013-01-20T07:23:26Z</time>
      </trkpt>
      <trkpt lat="-21.23131" lon="55.65629">
        <ele>2224</ele>
        <time>2013-01-20T07:23:36Z</time>
      </trkpt>
      <trkpt lat="-21.23129" lon="55.6561">
        <ele>2223</ele>
        <time>2013-01-20T07:23:46Z</time>
      </trkpt>
      <trkpt lat="-21.23128" lon="55.65592">
        <ele>2222</ele>
        <time>2013-01-20T07:23:56Z</time>
      </trkpt>
      <trkpt lat="-21.23126" lon="55.65575">
        <ele>2222</ele>
        <time>2013-01-20T07:24:06Z</time>
      </trkpt>
      <trkpt lat="-21.23124" lon="55.65557">
        <ele>2224</ele>
        <time>2013-01-20T07:24:16Z</time>
      </trkpt>
      <trkpt lat="-21.23122" lon="55.65539">
        <ele>2223</ele>
        <time>2013-01-20T07:24:26Z</time>
      </trkpt>
      <trkpt lat="-21.2312" lon="55.65522">
        <ele>2223</ele>
        <time>2013-01-20T07:24:36Z</time>
      </trkpt>
      <trkpt lat="-21.2312" lon="55.65506">
        <ele>2223</ele>
        <time>2013-01-20T07:24:46Z</time>
      </trkpt>
      <trkpt lat="-21.23119" lon="55.65488">
        <ele>2223</ele>
        <time>2013-01-20T07:24:56Z</time>
      </trkpt>
      <trkpt lat="-21.23118" lon="55.6547">
        <ele>2223</ele>
        <time>2013-01-20T07:25:06Z</time>
      </trkpt>
      <trkpt lat="-21.23117" lon="55.65453">
        <ele>2223</ele>
        <time>2013-01-20T07:25:16Z</time>
      </trkpt>
      <trkpt lat="-21.23115" lon="55.65436">
        <ele>2223</ele>
        <time>2013-01-20T07:25:26Z</time>
      </trkpt>
      <trkpt lat="-21.23114" lon="55.65417">
        <ele>2224</ele>
        <time>2013-01-20T07:25:36Z</time>
      </trkpt>
      <trkpt lat="-21.23114" lon="55.654">
        <ele>2223</ele>
        <time>2013-01-20T07:25:46Z</time>
      </trkpt>
      <trkpt lat="-21.23113" lon="55.65383">
        <ele>2223</ele>
        <time>2013-01-20T07:25:57Z</time>
      </trkpt>
      <trkpt lat="-21.23112" lon="55.65364">
        <ele>2224</ele>
        <time>2013-01-20T07:26:07Z</time>
      </trkpt>
      <trkpt lat="-21.23111" lon="55.65345">
        <ele>2224</ele>
        <time>2013-01-20T07:26:17Z</time>
      </trkpt>
      <trkpt lat="-21.23109" lon="55.65329">
        <ele>2225</ele>
        <time>2013-01-20T07:26:27Z</time>
      </trkpt>
      <trkpt lat="-21.23108" lon="55.65313">
        <ele>2225</ele>
        <time>2013-01-20T07:26:37Z</time>
      </trkpt>
      <trkpt lat="-21.23107" lon="55.65297">
        <ele>2225</ele>
        <time>2013-01-20T07:26:47Z</time>
      </trkpt>
      <trkpt lat="-21.23106" lon="55.6528">
        <ele>2225</ele>
        <time>2013-01-20T07:26:57Z</time>
      </trkpt>
      <trkpt lat="-21.23108" lon="55.65262">
        <ele>2227</ele>
        <time>2013-01-20T07:27:07Z</time>
      </trkpt>
      <trkpt lat="-21.23116" lon="55.65249">
        <ele>2228</ele>
        <time>2013-01-20T07:27:17Z</time>
      </trkpt>
      <trkpt lat="-21.2313" lon="55.65246">
        <ele>2229</ele>
        <time>2013-01-20T07:27:27Z</time>
      </trkpt>
      <trkpt lat="-21.23146" lon="55.65245">
        <ele>2230</ele>
        <time>2013-01-20T07:27:37Z</time>
      </trkpt>
      <trkpt lat="-21.23163" lon="55.65242">
        <ele>2232</ele>
        <time>2013-01-20T07:27:48Z</time>
      </trkpt>
      <trkpt lat="-21.23178" lon="55.65235">
        <ele>2233</ele>
        <time>2013-01-20T07:27:58Z</time>
      </trkpt>
      <trkpt lat="-21.2319" lon="55.65227">
        <ele>2234</ele>
        <time>2013-01-20T07:28:08Z</time>
      </trkpt>
      <trkpt lat="-21.23203" lon="55.6522">
        <ele>2235</ele>
        <time>2013-01-20T07:28:18Z</time>
      </trkpt>
      <trkpt lat="-21.23212" lon="55.65209">
        <ele>2239</ele>
        <time>2013-01-20T07:28:28Z</time>
      </trkpt>
      <trkpt lat="-21.23216" lon="55.65194">
        <ele>2240</ele>
        <time>2013-01-20T07:28:38Z</time>
      </trkpt>
      <trkpt lat="-21.23214" lon="55.65178">
        <ele>2239</ele>
        <time>2013-01-20T07:28:48Z</time>
      </trkpt>
      <trkpt lat="-21.23206" lon="55.65166">
        <ele>2241</ele>
        <time>2013-01-20T07:28:58Z</time>
      </trkpt>
      <trkpt lat="-21.23196" lon="55.65154">
        <ele>2241</ele>
        <time>2013-01-20T07:29:08Z</time>
      </trkpt>
      <trkpt lat="-21.23186" lon="55.65144">
        <ele>2241</ele>
        <time>2013-01-20T07:29:18Z</time>
      </trkpt>
      <trkpt lat="-21.23172" lon="55.65141">
        <ele>2244</ele>
        <time>2013-01-20T07:29:28Z</time>
      </trkpt>
      <trkpt lat="-21.23159" lon="55.65145">
        <ele>2246</ele>
        <time>2013-01-20T07:29:38Z</time>
      </trkpt>
      <trkpt lat="-21.23145" lon="55.6515">
        <ele>2246</ele>
        <time>2013-01-20T07:29:48Z</time>
      </trkpt>
      <trkpt lat="-21.2313" lon="55.65155">
        <ele>2247</ele>
        <time>2013-01-20T07:29:58Z</time>
      </trkpt>
      <trkpt lat="-21.23116" lon="55.65157">
        <ele>2247</ele>
        <time>2013-01-20T07:30:08Z</time>
      </trkpt>
      <trkpt lat="-21.23103" lon="55.65157">
        <ele>2249</ele>
        <time>2013-01-20T07:30:18Z</time>
      </trkpt>
      <trkpt lat="-21.23088" lon="55.65158">
        <ele>2250</ele>
        <time>2013-01-20T07:30:28Z</time>
      </trkpt>
      <trkpt lat="-21.23076" lon="55.65155">
        <ele>2250</ele>
        <time>2013-01-20T07:30:38Z</time>
      </trkpt>
      <trkpt lat="-21.23063" lon="55.65154">
        <ele>2253</ele>
        <time>2013-01-20T07:30:48Z</time>
      </trkpt>
      <trkpt lat="-21.23055" lon="55.65145">
        <ele>2254</ele>
        <time>2013-01-20T07:30:58Z</time>
      </trkpt>
      <trkpt lat="-21.23062" lon="55.65134">
        <ele>2257</ele>
        <time>2013-01-20T07:31:08Z</time>
      </trkpt>
      <trkpt lat="-21.2307" lon="55.65122">
        <ele>2258</ele>
        <time>2013-01-20T07:31:18Z</time>
      </trkpt>
      <trkpt lat="-21.23079" lon="55.65111">
        <ele>2259</ele>
        <time>2013-01-20T07:31:28Z</time>
      </trkpt>
      <trkpt lat="-21.23088" lon="55.651">
        <ele>2261</ele>
        <time>2013-01-20T07:31:38Z</time>
      </trkpt>
      <trkpt lat="-21.23079" lon="55.65096">
        <ele>2262</ele>
        <time>2013-01-20T07:31:48Z</time>
      </trkpt>
      <trkpt lat="-21.23068" lon="55.65099">
        <ele>2264</ele>
        <time>2013-01-20T07:31:59Z</time>
      </trkpt>
      <trkpt lat="-21.23058" lon="55.65108">
        <ele>2266</ele>
        <time>2013-01-20T07:32:09Z</time>
      </trkpt>
      <trkpt lat="-21.23047" lon="55.65117">
        <ele>2269</ele>
        <time>2013-01-20T07:32:19Z</time>
      </trkpt>
      <trkpt lat="-21.23038" lon="55.65116">
        <ele>2267</ele>
        <time>2013-01-20T07:32:29Z</time>
      </trkpt>
      <trkpt lat="-21.23044" lon="55.65104">
        <ele>2268</ele>
        <time>2013-01-20T07:32:39Z</time>
      </trkpt>
      <trkpt lat="-21.23053" lon="55.65094">
        <ele>2269</ele>
        <time>2013-01-20T07:32:49Z</time>
      </trkpt>
      <trkpt lat="-21.23063" lon="55.65084">
        <ele>2271</ele>
        <time>2013-01-20T07:32:59Z</time>
      </trkpt>
      <trkpt lat="-21.23072" lon="55.65074">
        <ele>2272</ele>
        <time>2013-01-20T07:33:09Z</time>
      </trkpt>
      <trkpt lat="-21.23072" lon="55.65064">
        <ele>2274</ele>
        <time>2013-01-20T07:33:19Z</time>
      </trkpt>
      <trkpt lat="-21.23062" lon="55.65066">
        <ele>2277</ele>
        <time>2013-01-20T07:33:29Z</time>
      </trkpt>
      <trkpt lat="-21.23054" lon="55.65074">
        <ele>2279</ele>
        <time>2013-01-20T07:33:39Z</time>
      </trkpt>
      <trkpt lat="-21.23045" lon="55.65082">
        <ele>2279</ele>
        <time>2013-01-20T07:33:49Z</time>
      </trkpt>
      <trkpt lat="-21.23036" lon="55.65089">
        <ele>2283</ele>
        <time>2013-01-20T07:33:59Z</time>
      </trkpt>
      <trkpt lat="-21.23025" lon="55.65094">
        <ele>2286</ele>
        <time>2013-01-20T07:34:09Z</time>
      </trkpt>
      <trkpt lat="-21.23013" lon="55.65095">
        <ele>2285</ele>
        <time>2013-01-20T07:34:19Z</time>
      </trkpt>
      <trkpt lat="-21.23006" lon="55.65088">
        <ele>2282</ele>
        <time>2013-01-20T07:34:29Z</time>
      </trkpt>
      <trkpt lat="-21.23012" lon="55.65075">
        <ele>2287</ele>
        <time>2013-01-20T07:34:39Z</time>
      </trkpt>
      <trkpt lat="-21.23022" lon="55.65065">
        <ele>2287</ele>
        <time>2013-01-20T07:34:50Z</time>
      </trkpt>
      <trkpt lat="-21.23032" lon="55.65056">
        <ele>2287</ele>
        <time>2013-01-20T07:35:00Z</time>
      </trkpt>
      <trkpt lat="-21.23042" lon="55.65048">
        <ele>2287</ele>
        <time>2013-01-20T07:35:10Z</time>
      </trkpt>
      <trkpt lat="-21.23053" lon="55.65039">
        <ele>2290</ele>
        <time>2013-01-20T07:35:20Z</time>
      </trkpt>
      <trkpt lat="-21.23058" lon="55.65026">
        <ele>2290</ele>
        <time>2013-01-20T07:35:30Z</time>
      </trkpt>
      <trkpt lat="-21.2306" lon="55.65014">
        <ele>2291</ele>
        <time>2013-01-20T07:35:40Z</time>
      </trkpt>
      <trkpt lat="-21.23065" lon="55.65">
        <ele>2292</ele>
        <time>2013-01-20T07:35:50Z</time>
      </trkpt>
      <trkpt lat="-21.23077" lon="55.64993">
        <ele>2293</ele>
        <time>2013-01-20T07:36:00Z</time>
      </trkpt>
      <trkpt lat="-21.23088" lon="55.64986">
        <ele>2294</ele>
        <time>2013-01-20T07:36:10Z</time>
      </trkpt>
      <trkpt lat="-21.23099" lon="55.64978">
        <ele>2296</ele>
        <time>2013-01-20T07:36:20Z</time>
      </trkpt>
      <trkpt lat="-21.23109" lon="55.64968">
        <ele>2298</ele>
        <time>2013-01-20T07:36:30Z</time>
      </trkpt>
      <trkpt lat="-21.23116" lon="55.64955">
        <ele>2299</ele>
        <time>2013-01-20T07:36:40Z</time>
      </trkpt>
      <trkpt lat="-21.2312" lon="55.64943">
        <ele>2300</ele>
        <time>2013-01-20T07:36:50Z</time>
      </trkpt>
      <trkpt lat="-21.23127" lon="55.64931">
        <ele>2301</ele>
        <time>2013-01-20T07:37:00Z</time>
      </trkpt>
      <trkpt lat="-21.23136" lon="55.64918">
        <ele>2302</ele>
        <time>2013-01-20T07:37:10Z</time>
      </trkpt>
      <trkpt lat="-21.23145" lon="55.64904">
        <ele>2303</ele>
        <time>2013-01-20T07:37:20Z</time>
      </trkpt>
      <trkpt lat="-21.23156" lon="55.64892">
        <ele>2304</ele>
        <time>2013-01-20T07:37:30Z</time>
      </trkpt>
      <trkpt lat="-21.23166" lon="55.64881">
        <ele>2305</ele>
        <time>2013-01-20T07:37:41Z</time>
      </trkpt>
      <trkpt lat="-21.23167" lon="55.64869">
        <ele>2306</ele>
        <time>2013-01-20T07:37:51Z</time>
      </trkpt>
      <trkpt lat="-21.23161" lon="55.64866">
        <ele>2306</ele>
        <time>2013-01-20T07:38:01Z</time>
      </trkpt>
      <trkpt lat="-21.23161" lon="55.64866">
        <ele>2305</ele>
        <time>2013-01-20T07:38:11Z</time>
      </trkpt>
      <trkpt lat="-21.2316" lon="55.64867">
        <ele>2305</ele>
        <time>2013-01-20T07:38:21Z</time>
      </trkpt>
      <trkpt lat="-21.2316" lon="55.64867">
        <ele>2305</ele>
        <time>2013-01-20T07:38:31Z</time>
      </trkpt>
      <trkpt lat="-21.23158" lon="55.64871">
        <ele>2306</ele>
        <time>2013-01-20T07:38:41Z</time>
      </trkpt>
      <trkpt lat="-21.23159" lon="55.6487">
        <ele>2306</ele>
        <time>2013-01-20T07:38:51Z</time>
      </trkpt>
      <trkpt lat="-21.2316" lon="55.64868">
        <ele>2305</ele>
        <time>2013-01-20T07:39:01Z</time>
      </trkpt>
      <trkpt lat="-21.2316" lon="55.64867">
        <ele>2306</ele>
        <time>2013-01-20T07:39:11Z</time>
      </trkpt>
      <trkpt lat="-21.2316" lon="55.64867">
        <ele>2306</ele>
        <time>2013-01-20T07:39:21Z</time>
      </trkpt>
      <trkpt lat="-21.2316" lon="55.64868">
        <ele>2307</ele>
        <time>2013-01-20T07:39:31Z</time>
      </trkpt>
      <trkpt lat="-21.2315" lon="55.6488">
        <ele>2307</ele>
        <time>2013-01-20T07:39:41Z</time>
      </trkpt>
      <trkpt lat="-21.2314" lon="55.64894">
        <ele>2307</ele>
        <time>2013-01-20T07:39:52Z</time>
      </trkpt>
      <trkpt lat="-21.23132" lon="55.64908">
        <ele>2307</ele>
        <time>2013-01-20T07:40:02Z</time>
      </trkpt>
      <trkpt lat="-21.23123" lon="55.64915">
        <ele>2309</ele>
        <time>2013-01-20T07:40:12Z</time>
      </trkpt>
      <trkpt lat="-21.23117" lon="55.64925">
        <ele>2310</ele>
        <time>2013-01-20T07:40:22Z</time>
      </trkpt>
      <trkpt lat="-21.23111" lon="55.64933">
        <ele>2311</ele>
        <time>2013-01-20T07:40:32Z</time>
      </trkpt>
      <trkpt lat="-21.23104" lon="55.6494">
        <ele>2314</ele>
        <time>2013-01-20T07:40:42Z</time>
      </trkpt>
      <trkpt lat="-21.23096" lon="55.64949">
        <ele>2316</ele>
        <time>2013-01-20T07:40:52Z</time>
      </trkpt>
      <trkpt lat="-21.23083" lon="55.64954">
        <ele>2316</ele>
        <time>2013-01-20T07:41:02Z</time>
      </trkpt>
      <trkpt lat="-21.23071" lon="55.64962">
        <ele>2316</ele>
        <time>2013-01-20T07:41:12Z</time>
      </trkpt>
      <trkpt lat="-21.23059" lon="55.64968">
        <ele>2317</ele>
        <time>2013-01-20T07:41:22Z</time>
      </trkpt>
      <trkpt lat="-21.23046" lon="55.64973">
        <ele>2318</ele>
        <time>2013-01-20T07:41:32Z</time>
      </trkpt>
      <trkpt lat="-21.23034" lon="55.6498">
        <ele>2318</ele>
        <time>2013-01-20T07:41:42Z</time>
      </trkpt>
      <trkpt lat="-21.23022" lon="55.64988">
        <ele>2320</ele>
        <time>2013-01-20T07:41:52Z</time>
      </trkpt>
      <trkpt lat="-21.23012" lon="55.64997">
        <ele>2320</ele>
        <time>2013-01-20T07:42:02Z</time>
      </trkpt>
      <trkpt lat="-21.23001" lon="55.65005">
        <ele>2321</ele>
        <time>2013-01-20T07:42:12Z</time>
      </trkpt>
      <trkpt lat="-21.2299" lon="55.65011">
        <ele>2322</ele>
        <time>2013-01-20T07:42:22Z</time>
      </trkpt>
      <trkpt lat="-21.22975" lon="55.65015">
        <ele>2324</ele>
        <time>2013-01-20T07:42:32Z</time>
      </trkpt>
      <trkpt lat="-21.22961" lon="55.65015">
        <ele>2323</ele>
        <time>2013-01-20T07:42:42Z</time>
      </trkpt>
      <trkpt lat="-21.22948" lon="55.65023">
        <ele>2324</ele>
        <time>2013-01-20T07:42:53Z</time>
      </trkpt>
      <trkpt lat="-21.2294" lon="55.65031">
        <ele>2327</ele>
        <time>2013-01-20T07:43:03Z</time>
      </trkpt>
      <trkpt lat="-21.2293" lon="55.65039">
        <ele>2329</ele>
        <time>2013-01-20T07:43:13Z</time>
      </trkpt>
      <trkpt lat="-21.22917" lon="55.65041">
        <ele>2330</ele>
        <time>2013-01-20T07:43:23Z</time>
      </trkpt>
      <trkpt lat="-21.22903" lon="55.65036">
        <ele>2329</ele>
        <time>2013-01-20T07:43:33Z</time>
      </trkpt>
      <trkpt lat="-21.2289" lon="55.65032">
        <ele>2329</ele>
        <time>2013-01-20T07:43:43Z</time>
      </trkpt>
      <trkpt lat="-21.22874" lon="55.65023">
        <ele>2327</ele>
        <time>2013-01-20T07:43:53Z</time>
      </trkpt>
      <trkpt lat="-21.22856" lon="55.65023">
        <ele>2324</ele>
        <time>2013-01-20T07:44:03Z</time>
      </trkpt>
      <trkpt lat="-21.22838" lon="55.65026">
        <ele>2321</ele>
        <time>2013-01-20T07:44:13Z</time>
      </trkpt>
      <trkpt lat="-21.22822" lon="55.65028">
        <ele>2321</ele>
        <time>2013-01-20T07:44:23Z</time>
      </trkpt>
      <trkpt lat="-21.22811" lon="55.65036">
        <ele>2320</ele>
        <time>2013-01-20T07:44:33Z</time>
      </trkpt>
      <trkpt lat="-21.22807" lon="55.65044">
        <ele>2322</ele>
        <time>2013-01-20T07:44:43Z</time>
      </trkpt>
      <trkpt lat="-21.22802" lon="55.6505">
        <ele>2324</ele>
        <time>2013-01-20T07:44:53Z</time>
      </trkpt>
      <trkpt lat="-21.22801" lon="55.65061">
        <ele>2325</ele>
        <time>2013-01-20T07:45:03Z</time>
      </trkpt>
      <trkpt lat="-21.22801" lon="55.6507">
        <ele>2327</ele>
        <time>2013-01-20T07:45:13Z</time>
      </trkpt>
      <trkpt lat="-21.22799" lon="55.65079">
        <ele>2329</ele>
        <time>2013-01-20T07:45:23Z</time>
      </trkpt>
      <trkpt lat="-21.22798" lon="55.65091">
        <ele>2330</ele>
        <time>2013-01-20T07:45:33Z</time>
      </trkpt>
      <trkpt lat="-21.22791" lon="55.65101">
        <ele>2332</ele>
        <time>2013-01-20T07:45:43Z</time>
      </trkpt>
      <trkpt lat="-21.22778" lon="55.65101">
        <ele>2331</ele>
        <time>2013-01-20T07:45:54Z</time>
      </trkpt>
      <trkpt lat="-21.22768" lon="55.65097">
        <ele>2331</ele>
        <time>2013-01-20T07:46:04Z</time>
      </trkpt>
      <trkpt lat="-21.22755" lon="55.651">
        <ele>2333</ele>
        <time>2013-01-20T07:46:14Z</time>
      </trkpt>
      <trkpt lat="-21.2274" lon="55.65102">
        <ele>2331</ele>
        <time>2013-01-20T07:46:24Z</time>
      </trkpt>
      <trkpt lat="-21.22729" lon="55.65106">
        <ele>2332</ele>
        <time>2013-01-20T07:46:34Z</time>
      </trkpt>
      <trkpt lat="-21.22721" lon="55.65113">
        <ele>2333</ele>
        <time>2013-01-20T07:46:44Z</time>
      </trkpt>
      <trkpt lat="-21.22714" lon="55.6512">
        <ele>2336</ele>
        <time>2013-01-20T07:46:54Z</time>
      </trkpt>
      <trkpt lat="-21.22705" lon="55.65127">
        <ele>2337</ele>
        <time>2013-01-20T07:47:04Z</time>
      </trkpt>
      <trkpt lat="-21.22698" lon="55.65132">
        <ele>2339</ele>
        <time>2013-01-20T07:47:14Z</time>
      </trkpt>
      <trkpt lat="-21.22692" lon="55.65137">
        <ele>2340</ele>
        <time>2013-01-20T07:47:24Z</time>
      </trkpt>
      <trkpt lat="-21.22687" lon="55.65143">
        <ele>2342</ele>
        <time>2013-01-20T07:47:34Z</time>
      </trkpt>
      <trkpt lat="-21.22679" lon="55.65151">
        <ele>2342</ele>
        <time>2013-01-20T07:47:44Z</time>
      </trkpt>
      <trkpt lat="-21.22672" lon="55.65157">
        <ele>2344</ele>
        <time>2013-01-20T07:47:54Z</time>
      </trkpt>
      <trkpt lat="-21.22662" lon="55.65162">
        <ele>2345</ele>
        <time>2013-01-20T07:48:04Z</time>
      </trkpt>
      <trkpt lat="-21.2265" lon="55.65162">
        <ele>2345</ele>
        <time>2013-01-20T07:48:15Z</time>
      </trkpt>
      <trkpt lat="-21.2264" lon="55.65169">
        <ele>2346</ele>
        <time>2013-01-20T07:48:25Z</time>
      </trkpt>
      <trkpt lat="-21.22629" lon="55.65174">
        <ele>2347</ele>
        <time>2013-01-20T07:48:35Z</time>
      </trkpt>
      <trkpt lat="-21.22615" lon="55.65179">
        <ele>2347</ele>
        <time>2013-01-20T07:48:45Z</time>
      </trkpt>
      <trkpt lat="-21.22602" lon="55.65185">
        <ele>2347</ele>
        <time>2013-01-20T07:48:55Z</time>
      </trkpt>
      <trkpt lat="-21.22594" lon="55.65195">
        <ele>2348</ele>
        <time>2013-01-20T07:49:05Z</time>
      </trkpt>
      <trkpt lat="-21.22583" lon="55.65199">
        <ele>2349</ele>
        <time>2013-01-20T07:49:15Z</time>
      </trkpt>
      <trkpt lat="-21.22577" lon="55.65204">
        <ele>2350</ele>
        <time>2013-01-20T07:49:25Z</time>
      </trkpt>
      <trkpt lat="-21.22574" lon="55.65217">
        <ele>2352</ele>
        <time>2013-01-20T07:49:35Z</time>
      </trkpt>
      <trkpt lat="-21.22565" lon="55.65224">
        <ele>2353</ele>
        <time>2013-01-20T07:49:45Z</time>
      </trkpt>
      <trkpt lat="-21.22559" lon="55.65234">
        <ele>2353</ele>
        <time>2013-01-20T07:49:55Z</time>
      </trkpt>
      <trkpt lat="-21.22556" lon="55.65243">
        <ele>2355</ele>
        <time>2013-01-20T07:50:05Z</time>
      </trkpt>
      <trkpt lat="-21.22551" lon="55.6525">
        <ele>2357</ele>
        <time>2013-01-20T07:50:15Z</time>
      </trkpt>
      <trkpt lat="-21.22544" lon="55.65259">
        <ele>2359</ele>
        <time>2013-01-20T07:50:25Z</time>
      </trkpt>
      <trkpt lat="-21.22541" lon="55.6527">
        <ele>2359</ele>
        <time>2013-01-20T07:50:35Z</time>
      </trkpt>
      <trkpt lat="-21.22536" lon="55.65281">
        <ele>2361</ele>
        <time>2013-01-20T07:50:45Z</time>
      </trkpt>
      <trkpt lat="-21.22527" lon="55.65291">
        <ele>2359</ele>
        <time>2013-01-20T07:50:55Z</time>
      </trkpt>
      <trkpt lat="-21.22517" lon="55.653">
        <ele>2359</ele>
        <time>2013-01-20T07:51:05Z</time>
      </trkpt>
      <trkpt lat="-21.22504" lon="55.65303">
        <ele>2360</ele>
        <time>2013-01-20T07:51:15Z</time>
      </trkpt>
      <trkpt lat="-21.22494" lon="55.65306">
        <ele>2358</ele>
        <time>2013-01-20T07:51:25Z</time>
      </trkpt>
      <trkpt lat="-21.22481" lon="55.65312">
        <ele>2357</ele>
        <time>2013-01-20T07:51:35Z</time>
      </trkpt>
      <trkpt lat="-21.22469" lon="55.65318">
        <ele>2357</ele>
        <time>2013-01-20T07:51:45Z</time>
      </trkpt>
      <trkpt lat="-21.22458" lon="55.6532">
        <ele>2357</ele>
        <time>2013-01-20T07:51:55Z</time>
      </trkpt>
      <trkpt lat="-21.22446" lon="55.65322">
        <ele>2359</ele>
        <time>2013-01-20T07:52:05Z</time>
      </trkpt>
      <trkpt lat="-21.22434" lon="55.65328">
        <ele>2360</ele>
        <time>2013-01-20T07:52:15Z</time>
      </trkpt>
      <trkpt lat="-21.22423" lon="55.65335">
        <ele>2362</ele>
        <time>2013-01-20T07:52:25Z</time>
      </trkpt>
      <trkpt lat="-21.22413" lon="55.65343">
        <ele>2362</ele>
        <time>2013-01-20T07:52:35Z</time>
      </trkpt>
      <trkpt lat="-21.22403" lon="55.65352">
        <ele>2363</ele>
        <time>2013-01-20T07:52:45Z</time>
      </trkpt>
      <trkpt lat="-21.2239" lon="55.65356">
        <ele>2363</ele>
        <time>2013-01-20T07:52:55Z</time>
      </trkpt>
      <trkpt lat="-21.22382" lon="55.65362">
        <ele>2366</ele>
        <time>2013-01-20T07:53:05Z</time>
      </trkpt>
      <trkpt lat="-21.22372" lon="55.65365">
        <ele>2367</ele>
        <time>2013-01-20T07:53:15Z</time>
      </trkpt>
      <trkpt lat="-21.22362" lon="55.65371">
        <ele>2368</ele>
        <time>2013-01-20T07:53:25Z</time>
      </trkpt>
      <trkpt lat="-21.22351" lon="55.65375">
        <ele>2369</ele>
        <time>2013-01-20T07:53:35Z</time>
      </trkpt>
      <trkpt lat="-21.22337" lon="55.65376">
        <ele>2369</ele>
        <time>2013-01-20T07:53:46Z</time>
      </trkpt>
      <trkpt lat="-21.22324" lon="55.65379">
        <ele>2371</ele>
        <time>2013-01-20T07:53:56Z</time>
      </trkpt>
      <trkpt lat="-21.22312" lon="55.65381">
        <ele>2371</ele>
        <time>2013-01-20T07:54:06Z</time>
      </trkpt>
      <trkpt lat="-21.22299" lon="55.65383">
        <ele>2373</ele>
        <time>2013-01-20T07:54:16Z</time>
      </trkpt>
      <trkpt lat="-21.22288" lon="55.65382">
        <ele>2374</ele>
        <time>2013-01-20T07:54:26Z</time>
      </trkpt>
      <trkpt lat="-21.22277" lon="55.65382">
        <ele>2375</ele>
        <time>2013-01-20T07:54:36Z</time>
      </trkpt>
      <trkpt lat="-21.22264" lon="55.65385">
        <ele>2376</ele>
        <time>2013-01-20T07:54:46Z</time>
      </trkpt>
      <trkpt lat="-21.22255" lon="55.6539">
        <ele>2378</ele>
        <time>2013-01-20T07:54:56Z</time>
      </trkpt>
      <trkpt lat="-21.22242" lon="55.65393">
        <ele>2379</ele>
        <time>2013-01-20T07:55:06Z</time>
      </trkpt>
      <trkpt lat="-21.22227" lon="55.65392">
        <ele>2380</ele>
        <time>2013-01-20T07:55:16Z</time>
      </trkpt>
      <trkpt lat="-21.22217" lon="55.654">
        <ele>2381</ele>
        <time>2013-01-20T07:55:26Z</time>
      </trkpt>
      <trkpt lat="-21.22205" lon="55.65408">
        <ele>2380</ele>
        <time>2013-01-20T07:55:36Z</time>
      </trkpt>
      <trkpt lat="-21.22192" lon="55.65408">
        <ele>2382</ele>
        <time>2013-01-20T07:55:46Z</time>
      </trkpt>
      <trkpt lat="-21.22179" lon="55.65408">
        <ele>2381</ele>
        <time>2013-01-20T07:55:56Z</time>
      </trkpt>
      <trkpt lat="-21.22165" lon="55.65409">
        <ele>2382</ele>
        <time>2013-01-20T07:56:06Z</time>
      </trkpt>
      <trkpt lat="-21.22157" lon="55.65418">
        <ele>2383</ele>
        <time>2013-01-20T07:56:16Z</time>
      </trkpt>
      <trkpt lat="-21.22149" lon="55.65419">
        <ele>2386</ele>
        <time>2013-01-20T07:56:27Z</time>
      </trkpt>
      <trkpt lat="-21.22143" lon="55.65425">
        <ele>2387</ele>
        <time>2013-01-20T07:56:37Z</time>
      </trkpt>
      <trkpt lat="-21.22132" lon="55.65426">
        <ele>2388</ele>
        <time>2013-01-20T07:56:47Z</time>
      </trkpt>
      <trkpt lat="-21.22119" lon="55.65424">
        <ele>2390</ele>
        <time>2013-01-20T07:56:57Z</time>
      </trkpt>
      <trkpt lat="-21.2211" lon="55.6543">
        <ele>2390</ele>
        <time>2013-01-20T07:57:07Z</time>
      </trkpt>
      <trkpt lat="-21.22104" lon="55.65439">
        <ele>2391</ele>
        <time>2013-01-20T07:57:17Z</time>
      </trkpt>
      <trkpt lat="-21.22101" lon="55.65442">
        <ele>2391</ele>
        <time>2013-01-20T07:57:27Z</time>
      </trkpt>
      <trkpt lat="-21.22091" lon="55.65441">
        <ele>2391</ele>
        <time>2013-01-20T07:57:37Z</time>
      </trkpt>
      <trkpt lat="-21.22079" lon="55.65442">
        <ele>2391</ele>
        <time>2013-01-20T07:57:47Z</time>
      </trkpt>
      <trkpt lat="-21.22067" lon="55.65441">
        <ele>2392</ele>
        <time>2013-01-20T07:57:57Z</time>
      </trkpt>
      <trkpt lat="-21.22055" lon="55.65444">
        <ele>2395</ele>
        <time>2013-01-20T07:58:07Z</time>
      </trkpt>
      <trkpt lat="-21.22044" lon="55.65447">
        <ele>2396</ele>
        <time>2013-01-20T07:58:17Z</time>
      </trkpt>
      <trkpt lat="-21.22032" lon="55.65454">
        <ele>2396</ele>
        <time>2013-01-20T07:58:27Z</time>
      </trkpt>
      <trkpt lat="-21.22019" lon="55.65456">
        <ele>2396</ele>
        <time>2013-01-20T07:58:37Z</time>
      </trkpt>
      <trkpt lat="-21.22006" lon="55.6545">
        <ele>2394</ele>
        <time>2013-01-20T07:58:47Z</time>
      </trkpt>
      <trkpt lat="-21.22003" lon="55.65441">
        <ele>2391</ele>
        <time>2013-01-20T07:58:57Z</time>
      </trkpt>
      <trkpt lat="-21.21992" lon="55.65432">
        <ele>2391</ele>
        <time>2013-01-20T07:59:07Z</time>
      </trkpt>
      <trkpt lat="-21.21979" lon="55.65426">
        <ele>2390</ele>
        <time>2013-01-20T07:59:18Z</time>
      </trkpt>
      <trkpt lat="-21.21968" lon="55.6542">
        <ele>2389</ele>
        <time>2013-01-20T07:59:28Z</time>
      </trkpt>
      <trkpt lat="-21.21954" lon="55.65417">
        <ele>2388</ele>
        <time>2013-01-20T07:59:38Z</time>
      </trkpt>
      <trkpt lat="-21.21942" lon="55.65411">
        <ele>2387</ele>
        <time>2013-01-20T07:59:48Z</time>
      </trkpt>
      <trkpt lat="-21.21928" lon="55.65405">
        <ele>2386</ele>
        <time>2013-01-20T07:59:58Z</time>
      </trkpt>
      <trkpt lat="-21.21914" lon="55.65408">
        <ele>2386</ele>
        <time>2013-01-20T08:00:08Z</time>
      </trkpt>
      <trkpt lat="-21.219" lon="55.6541">
        <ele>2386</ele>
        <time>2013-01-20T08:00:18Z</time>
      </trkpt>
      <trkpt lat="-21.21886" lon="55.65413">
        <ele>2386</ele>
        <time>2013-01-20T08:00:28Z</time>
      </trkpt>
      <trkpt lat="-21.21873" lon="55.65412">
        <ele>2385</ele>
        <time>2013-01-20T08:00:38Z</time>
      </trkpt>
      <trkpt lat="-21.21862" lon="55.65414">
        <ele>2380</ele>
        <time>2013-01-20T08:00:48Z</time>
      </trkpt>
      <trkpt lat="-21.21848" lon="55.65421">
        <ele>2380</ele>
        <time>2013-01-20T08:00:58Z</time>
      </trkpt>
      <trkpt lat="-21.21835" lon="55.65428">
        <ele>2380</ele>
        <time>2013-01-20T08:01:08Z</time>
      </trkpt>
      <trkpt lat="-21.21821" lon="55.65434">
        <ele>2379</ele>
        <time>2013-01-20T08:01:18Z</time>
      </trkpt>
      <trkpt lat="-21.21809" lon="55.65442">
        <ele>2378</ele>
        <time>2013-01-20T08:01:28Z</time>
      </trkpt>
      <trkpt lat="-21.21795" lon="55.6545">
        <ele>2378</ele>
        <time>2013-01-20T08:01:38Z</time>
      </trkpt>
      <trkpt lat="-21.21781" lon="55.65456">
        <ele>2379</ele>
        <time>2013-01-20T08:01:48Z</time>
      </trkpt>
      <trkpt lat="-21.21769" lon="55.65461">
        <ele>2379</ele>
        <time>2013-01-20T08:01:59Z</time>
      </trkpt>
      <trkpt lat="-21.21758" lon="55.65467">
        <ele>2379</ele>
        <time>2013-01-20T08:02:09Z</time>
      </trkpt>
      <trkpt lat="-21.21749" lon="55.65464">
        <ele>2381</ele>
        <time>2013-01-20T08:02:19Z</time>
      </trkpt>
      <trkpt lat="-21.21737" lon="55.65466">
        <ele>2383</ele>
        <time>2013-01-20T08:02:29Z</time>
      </trkpt>
      <trkpt lat="-21.21726" lon="55.65474">
        <ele>2383</ele>
        <time>2013-01-20T08:02:39Z</time>
      </trkpt>
      <trkpt lat="-21.21716" lon="55.6548">
        <ele>2383</ele>
        <time>2013-01-20T08:02:49Z</time>
      </trkpt>
      <trkpt lat="-21.21702" lon="55.65483">
        <ele>2381</ele>
        <time>2013-01-20T08:02:59Z</time>
      </trkpt>
      <trkpt lat="-21.21688" lon="55.65483">
        <ele>2380</ele>
        <time>2013-01-20T08:03:09Z</time>
      </trkpt>
      <trkpt lat="-21.21672" lon="55.65485">
        <ele>2380</ele>
        <time>2013-01-20T08:03:19Z</time>
      </trkpt>
      <trkpt lat="-21.21657" lon="55.65487">
        <ele>2381</ele>
        <time>2013-01-20T08:03:29Z</time>
      </trkpt>
      <trkpt lat="-21.21641" lon="55.65479">
        <ele>2380</ele>
        <time>2013-01-20T08:03:39Z</time>
      </trkpt>
      <trkpt lat="-21.2163" lon="55.65475">
        <ele>2380</ele>
        <time>2013-01-20T08:03:49Z</time>
      </trkpt>
      <trkpt lat="-21.21625" lon="55.65465">
        <ele>2380</ele>
        <time>2013-01-20T08:03:59Z</time>
      </trkpt>
      <trkpt lat="-21.21617" lon="55.65471">
        <ele>2381</ele>
        <time>2013-01-20T08:04:09Z</time>
      </trkpt>
      <trkpt lat="-21.21605" lon="55.65471">
        <ele>2378</ele>
        <time>2013-01-20T08:04:20Z</time>
      </trkpt>
      <trkpt lat="-21.21593" lon="55.65471">
        <ele>2380</ele>
        <time>2013-01-20T08:04:30Z</time>
      </trkpt>
      <trkpt lat="-21.21581" lon="55.65469">
        <ele>2381</ele>
        <time>2013-01-20T08:04:40Z</time>
      </trkpt>
      <trkpt lat="-21.21568" lon="55.65467">
        <ele>2382</ele>
        <time>2013-01-20T08:04:50Z</time>
      </trkpt>
      <trkpt lat="-21.21557" lon="55.65469">
        <ele>2382</ele>
        <time>2013-01-20T08:05:00Z</time>
      </trkpt>
      <trkpt lat="-21.21545" lon="55.65471">
        <ele>2383</ele>
        <time>2013-01-20T08:05:10Z</time>
      </trkpt>
      <trkpt lat="-21.21532" lon="55.65464">
        <ele>2383</ele>
        <time>2013-01-20T08:05:20Z</time>
      </trkpt>
      <trkpt lat="-21.21518" lon="55.65464">
        <ele>2383</ele>
        <time>2013-01-20T08:05:30Z</time>
      </trkpt>
      <trkpt lat="-21.21503" lon="55.65463">
        <ele>2383</ele>
        <time>2013-01-20T08:05:40Z</time>
      </trkpt>
      <trkpt lat="-21.21493" lon="55.65461">
        <ele>2385</ele>
        <time>2013-01-20T08:05:50Z</time>
      </trkpt>
      <trkpt lat="-21.21483" lon="55.6546">
        <ele>2386</ele>
        <time>2013-01-20T08:06:00Z</time>
      </trkpt>
      <trkpt lat="-21.21472" lon="55.65457">
        <ele>2388</ele>
        <time>2013-01-20T08:06:10Z</time>
      </trkpt>
      <trkpt lat="-21.21463" lon="55.65457">
        <ele>2390</ele>
        <time>2013-01-20T08:06:21Z</time>
      </trkpt>
      <trkpt lat="-21.21458" lon="55.65461">
        <ele>2391</ele>
        <time>2013-01-20T08:06:31Z</time>
      </trkpt>
      <trkpt lat="-21.21448" lon="55.65463">
        <ele>2393</ele>
        <time>2013-01-20T08:06:41Z</time>
      </trkpt>
      <trkpt lat="-21.21436" lon="55.65461">
        <ele>2393</ele>
        <time>2013-01-20T08:06:51Z</time>
      </trkpt>
      <trkpt lat="-21.21425" lon="55.65458">
        <ele>2395</ele>
        <time>2013-01-20T08:07:01Z</time>
      </trkpt>
      <trkpt lat="-21.21417" lon="55.65455">
        <ele>2395</ele>
        <time>2013-01-20T08:07:11Z</time>
      </trkpt>
      <trkpt lat="-21.21411" lon="55.6545">
        <ele>2396</ele>
        <time>2013-01-20T08:07:21Z</time>
      </trkpt>
      <trkpt lat="-21.21405" lon="55.65441">
        <ele>2397</ele>
        <time>2013-01-20T08:07:31Z</time>
      </trkpt>
      <trkpt lat="-21.21401" lon="55.65432">
        <ele>2398</ele>
        <time>2013-01-20T08:07:41Z</time>
      </trkpt>
      <trkpt lat="-21.21393" lon="55.65419">
        <ele>2398</ele>
        <time>2013-01-20T08:07:51Z</time>
      </trkpt>
      <trkpt lat="-21.21384" lon="55.65409">
        <ele>2399</ele>
        <time>2013-01-20T08:08:01Z</time>
      </trkpt>
      <trkpt lat="-21.2137" lon="55.65408">
        <ele>2399</ele>
        <time>2013-01-20T08:08:11Z</time>
      </trkpt>
      <trkpt lat="-21.21357" lon="55.65406">
        <ele>2400</ele>
        <time>2013-01-20T08:08:21Z</time>
      </trkpt>
      <trkpt lat="-21.21343" lon="55.65401">
        <ele>2400</ele>
        <time>2013-01-20T08:08:31Z</time>
      </trkpt>
      <trkpt lat="-21.21329" lon="55.65399">
        <ele>2400</ele>
        <time>2013-01-20T08:08:41Z</time>
      </trkpt>
      <trkpt lat="-21.21315" lon="55.65394">
        <ele>2399</ele>
        <time>2013-01-20T08:08:51Z</time>
      </trkpt>
      <trkpt lat="-21.21302" lon="55.65392">
        <ele>2397</ele>
        <time>2013-01-20T08:09:02Z</time>
      </trkpt>
      <trkpt lat="-21.21285" lon="55.65393">
        <ele>2396</ele>
        <time>2013-01-20T08:09:12Z</time>
      </trkpt>
      <trkpt lat="-21.21268" lon="55.65395">
        <ele>2393</ele>
        <time>2013-01-20T08:09:22Z</time>
      </trkpt>
      <trkpt lat="-21.2125" lon="55.65395">
        <ele>2390</ele>
        <time>2013-01-20T08:09:32Z</time>
      </trkpt>
      <trkpt lat="-21.21232" lon="55.65396">
        <ele>2388</ele>
        <time>2013-01-20T08:09:42Z</time>
      </trkpt>
      <trkpt lat="-21.21214" lon="55.65402">
        <ele>2385</ele>
        <time>2013-01-20T08:09:52Z</time>
      </trkpt>
      <trkpt lat="-21.21201" lon="55.65412">
        <ele>2384</ele>
        <time>2013-01-20T08:10:02Z</time>
      </trkpt>
      <trkpt lat="-21.21187" lon="55.65421">
        <ele>2382</ele>
        <time>2013-01-20T08:10:12Z</time>
      </trkpt>
      <trkpt lat="-21.21173" lon="55.65425">
        <ele>2379</ele>
        <time>2013-01-20T08:10:22Z</time>
      </trkpt>
      <trkpt lat="-21.21164" lon="55.65414">
        <ele>2377</ele>
        <time>2013-01-20T08:10:32Z</time>
      </trkpt>
      <trkpt lat="-21.21151" lon="55.65418">
        <ele>2374</ele>
        <time>2013-01-20T08:10:42Z</time>
      </trkpt>
      <trkpt lat="-21.21139" lon="55.65423">
        <ele>2372</ele>
        <time>2013-01-20T08:10:52Z</time>
      </trkpt>
      <trkpt lat="-21.21126" lon="55.6543">
        <ele>2370</ele>
        <time>2013-01-20T08:11:02Z</time>
      </trkpt>
      <trkpt lat="-21.21108" lon="55.65435">
        <ele>2370</ele>
        <time>2013-01-20T08:11:12Z</time>
      </trkpt>
      <trkpt lat="-21.21093" lon="55.65445">
        <ele>2371</ele>
        <time>2013-01-20T08:11:22Z</time>
      </trkpt>
      <trkpt lat="-21.21077" lon="55.65444">
        <ele>2369</ele>
        <time>2013-01-20T08:11:32Z</time>
      </trkpt>
      <trkpt lat="-21.21067" lon="55.65433">
        <ele>2368</ele>
        <time>2013-01-20T08:11:42Z</time>
      </trkpt>
      <trkpt lat="-21.21058" lon="55.65427">
        <ele>2363</ele>
        <time>2013-01-20T08:11:53Z</time>
      </trkpt>
      <trkpt lat="-21.21051" lon="55.6542">
        <ele>2362</ele>
        <time>2013-01-20T08:12:03Z</time>
      </trkpt>
      <trkpt lat="-21.21044" lon="55.65409">
        <ele>2359</ele>
        <time>2013-01-20T08:12:13Z</time>
      </trkpt>
      <trkpt lat="-21.2103" lon="55.654">
        <ele>2358</ele>
        <time>2013-01-20T08:12:23Z</time>
      </trkpt>
      <trkpt lat="-21.21018" lon="55.65391">
        <ele>2356</ele>
        <time>2013-01-20T08:12:33Z</time>
      </trkpt>
      <trkpt lat="-21.21004" lon="55.65391">
        <ele>2354</ele>
        <time>2013-01-20T08:12:43Z</time>
      </trkpt>
      <trkpt lat="-21.20991" lon="55.65395">
        <ele>2350</ele>
        <time>2013-01-20T08:12:53Z</time>
      </trkpt>
      <trkpt lat="-21.20982" lon="55.65384">
        <ele>2346</ele>
        <time>2013-01-20T08:13:03Z</time>
      </trkpt>
      <trkpt lat="-21.20979" lon="55.65372">
        <ele>2344</ele>
        <time>2013-01-20T08:13:13Z</time>
      </trkpt>
      <trkpt lat="-21.2097" lon="55.65363">
        <ele>2342</ele>
        <time>2013-01-20T08:13:23Z</time>
      </trkpt>
      <trkpt lat="-21.20954" lon="55.65353">
        <ele>2340</ele>
        <time>2013-01-20T08:13:33Z</time>
      </trkpt>
      <trkpt lat="-21.20936" lon="55.65345">
        <ele>2339</ele>
        <time>2013-01-20T08:13:43Z</time>
      </trkpt>
      <trkpt lat="-21.20924" lon="55.65338">
        <ele>2337</ele>
        <time>2013-01-20T08:13:53Z</time>
      </trkpt>
      <trkpt lat="-21.2091" lon="55.65332">
        <ele>2336</ele>
        <time>2013-01-20T08:14:03Z</time>
      </trkpt>
      <trkpt lat="-21.20894" lon="55.65326">
        <ele>2334</ele>
        <time>2013-01-20T08:14:14Z</time>
      </trkpt>
      <trkpt lat="-21.20878" lon="55.65323">
        <ele>2333</ele>
        <time>2013-01-20T08:14:24Z</time>
      </trkpt>
      <trkpt lat="-21.2086" lon="55.65321">
        <ele>2331</ele>
        <time>2013-01-20T08:14:34Z</time>
      </trkpt>
      <trkpt lat="-21.20841" lon="55.65317">
        <ele>2331</ele>
        <time>2013-01-20T08:14:44Z</time>
      </trkpt>
      <trkpt lat="-21.20826" lon="55.65311">
        <ele>2331</ele>
        <time>2013-01-20T08:14:54Z</time>
      </trkpt>
      <trkpt lat="-21.2081" lon="55.65306">
        <ele>2329</ele>
        <time>2013-01-20T08:15:04Z</time>
      </trkpt>
      <trkpt lat="-21.20797" lon="55.65302">
        <ele>2326</ele>
        <time>2013-01-20T08:15:14Z</time>
      </trkpt>
      <trkpt lat="-21.20781" lon="55.65298">
        <ele>2325</ele>
        <time>2013-01-20T08:15:24Z</time>
      </trkpt>
      <trkpt lat="-21.20764" lon="55.65293">
        <ele>2324</ele>
        <time>2013-01-20T08:15:34Z</time>
      </trkpt>
      <trkpt lat="-21.20748" lon="55.65285">
        <ele>2323</ele>
        <time>2013-01-20T08:15:44Z</time>
      </trkpt>
      <trkpt lat="-21.20733" lon="55.6528">
        <ele>2322</ele>
        <time>2013-01-20T08:15:54Z</time>
      </trkpt>
      <trkpt lat="-21.20717" lon="55.65274">
        <ele>2321</ele>
        <time>2013-01-20T08:16:04Z</time>
      </trkpt>
      <trkpt lat="-21.20701" lon="55.65269">
        <ele>2320</ele>
        <time>2013-01-20T08:16:14Z</time>
      </trkpt>
      <trkpt lat="-21.20687" lon="55.65265">
        <ele>2319</ele>
        <time>2013-01-20T08:16:24Z</time>
      </trkpt>
      <trkpt lat="-21.20673" lon="55.6526">
        <ele>2318</ele>
        <time>2013-01-20T08:16:34Z</time>
      </trkpt>
      <trkpt lat="-21.20659" lon="55.65255">
        <ele>2317</ele>
        <time>2013-01-20T08:16:45Z</time>
      </trkpt>
      <trkpt lat="-21.20644" lon="55.6525">
        <ele>2317</ele>
        <time>2013-01-20T08:16:55Z</time>
      </trkpt>
      <trkpt lat="-21.20629" lon="55.65245">
        <ele>2316</ele>
        <time>2013-01-20T08:17:05Z</time>
      </trkpt>
      <trkpt lat="-21.20616" lon="55.65241">
        <ele>2315</ele>
        <time>2013-01-20T08:17:15Z</time>
      </trkpt>
      <trkpt lat="-21.20603" lon="55.65237">
        <ele>2315</ele>
        <time>2013-01-20T08:17:25Z</time>
      </trkpt>
      <trkpt lat="-21.20589" lon="55.6523">
        <ele>2315</ele>
        <time>2013-01-20T08:17:35Z</time>
      </trkpt>
      <trkpt lat="-21.20575" lon="55.65227">
        <ele>2315</ele>
        <time>2013-01-20T08:17:45Z</time>
      </trkpt>
      <trkpt lat="-21.20561" lon="55.65226">
        <ele>2315</ele>
        <time>2013-01-20T08:17:55Z</time>
      </trkpt>
      <trkpt lat="-21.20554" lon="55.65216">
        <ele>2315</ele>
        <time>2013-01-20T08:18:05Z</time>
      </trkpt>
      <trkpt lat="-21.20541" lon="55.65212">
        <ele>2315</ele>
        <time>2013-01-20T08:18:15Z</time>
      </trkpt>
      <trkpt lat="-21.20527" lon="55.65207">
        <ele>2314</ele>
        <time>2013-01-20T08:18:25Z</time>
      </trkpt>
      <trkpt lat="-21.20515" lon="55.65203">
        <ele>2314</ele>
        <time>2013-01-20T08:18:35Z</time>
      </trkpt>
      <trkpt lat="-21.20503" lon="55.65199">
        <ele>2312</ele>
        <time>2013-01-20T08:18:45Z</time>
      </trkpt>
      <trkpt lat="-21.2049" lon="55.65198">
        <ele>2312</ele>
        <time>2013-01-20T08:18:55Z</time>
      </trkpt>
      <trkpt lat="-21.20476" lon="55.65194">
        <ele>2311</ele>
        <time>2013-01-20T08:19:06Z</time>
      </trkpt>
      <trkpt lat="-21.20462" lon="55.65186">
        <ele>2311</ele>
        <time>2013-01-20T08:19:16Z</time>
      </trkpt>
      <trkpt lat="-21.20446" lon="55.65179">
        <ele>2311</ele>
        <time>2013-01-20T08:19:26Z</time>
      </trkpt>
      <trkpt lat="-21.2043" lon="55.6517">
        <ele>2311</ele>
        <time>2013-01-20T08:19:36Z</time>
      </trkpt>
      <trkpt lat="-21.20418" lon="55.65162">
        <ele>2311</ele>
        <time>2013-01-20T08:19:46Z</time>
      </trkpt>
      <trkpt lat="-21.20406" lon="55.65153">
        <ele>2311</ele>
        <time>2013-01-20T08:19:56Z</time>
      </trkpt>
      <trkpt lat="-21.20396" lon="55.65139">
        <ele>2310</ele>
        <time>2013-01-20T08:20:06Z</time>
      </trkpt>
      <trkpt lat="-21.20382" lon="55.65128">
        <ele>2309</ele>
        <time>2013-01-20T08:20:16Z</time>
      </trkpt>
      <trkpt lat="-21.20367" lon="55.6512">
        <ele>2308</ele>
        <time>2013-01-20T08:20:26Z</time>
      </trkpt>
      <trkpt lat="-21.20352" lon="55.65112">
        <ele>2307</ele>
        <time>2013-01-20T08:20:36Z</time>
      </trkpt>
      <trkpt lat="-21.20337" lon="55.65105">
        <ele>2307</ele>
        <time>2013-01-20T08:20:46Z</time>
      </trkpt>
      <trkpt lat="-21.20321" lon="55.65097">
        <ele>2307</ele>
        <time>2013-01-20T08:20:56Z</time>
      </trkpt>
      <trkpt lat="-21.20309" lon="55.65086">
        <ele>2306</ele>
        <time>2013-01-20T08:21:06Z</time>
      </trkpt>
      <trkpt lat="-21.203" lon="55.65074">
        <ele>2305</ele>
        <time>2013-01-20T08:21:16Z</time>
      </trkpt>
      <trkpt lat="-21.20287" lon="55.65075">
        <ele>2303</ele>
        <time>2013-01-20T08:21:26Z</time>
      </trkpt>
      <trkpt lat="-21.20275" lon="55.65075">
        <ele>2303</ele>
        <time>2013-01-20T08:21:36Z</time>
      </trkpt>
      <trkpt lat="-21.20264" lon="55.65072">
        <ele>2302</ele>
        <time>2013-01-20T08:21:46Z</time>
      </trkpt>
      <trkpt lat="-21.20255" lon="55.65064">
        <ele>2303</ele>
        <time>2013-01-20T08:21:56Z</time>
      </trkpt>
      <trkpt lat="-21.20249" lon="55.65055">
        <ele>2304</ele>
        <time>2013-01-20T08:22:06Z</time>
      </trkpt>
      <trkpt lat="-21.20241" lon="55.65046">
        <ele>2305</ele>
        <time>2013-01-20T08:22:16Z</time>
      </trkpt>
      <trkpt lat="-21.20233" lon="55.65035">
        <ele>2305</ele>
        <time>2013-01-20T08:22:26Z</time>
      </trkpt>
      <trkpt lat="-21.20227" lon="55.65026">
        <ele>2304</ele>
        <time>2013-01-20T08:22:37Z</time>
      </trkpt>
      <trkpt lat="-21.20221" lon="55.65014">
        <ele>2303</ele>
        <time>2013-01-20T08:22:47Z</time>
      </trkpt>
      <trkpt lat="-21.20215" lon="55.64999">
        <ele>2302</ele>
        <time>2013-01-20T08:22:57Z</time>
      </trkpt>
      <trkpt lat="-21.2021" lon="55.64982">
        <ele>2300</ele>
        <time>2013-01-20T08:23:07Z</time>
      </trkpt>
      <trkpt lat="-21.20205" lon="55.64965">
        <ele>2298</ele>
        <time>2013-01-20T08:23:17Z</time>
      </trkpt>
      <trkpt lat="-21.202" lon="55.64949">
        <ele>2296</ele>
        <time>2013-01-20T08:23:27Z</time>
      </trkpt>
      <trkpt lat="-21.20193" lon="55.64932">
        <ele>2294</ele>
        <time>2013-01-20T08:23:37Z</time>
      </trkpt>
      <trkpt lat="-21.20185" lon="55.64918">
        <ele>2293</ele>
        <time>2013-01-20T08:23:47Z</time>
      </trkpt>
      <trkpt lat="-21.20175" lon="55.64905">
        <ele>2292</ele>
        <time>2013-01-20T08:23:57Z</time>
      </trkpt>
      <trkpt lat="-21.20166" lon="55.64891">
        <ele>2292</ele>
        <time>2013-01-20T08:24:07Z</time>
      </trkpt>
      <trkpt lat="-21.20157" lon="55.64878">
        <ele>2294</ele>
        <time>2013-01-20T08:24:17Z</time>
      </trkpt>
      <trkpt lat="-21.20147" lon="55.64867">
        <ele>2296</ele>
        <time>2013-01-20T08:24:28Z</time>
      </trkpt>
      <trkpt lat="-21.20138" lon="55.64853">
        <ele>2295</ele>
        <time>2013-01-20T08:24:38Z</time>
      </trkpt>
      <trkpt lat="-21.20131" lon="55.64839">
        <ele>2295</ele>
        <time>2013-01-20T08:24:48Z</time>
      </trkpt>
      <trkpt lat="-21.20124" lon="55.64826">
        <ele>2293</ele>
        <time>2013-01-20T08:24:58Z</time>
      </trkpt>
      <trkpt lat="-21.20118" lon="55.64817">
        <ele>2290</ele>
        <time>2013-01-20T08:25:08Z</time>
      </trkpt>
      <trkpt lat="-21.20118" lon="55.64806">
        <ele>2287</ele>
        <time>2013-01-20T08:25:18Z</time>
      </trkpt>
      <trkpt lat="-21.20115" lon="55.64796">
        <ele>2284</ele>
        <time>2013-01-20T08:25:28Z</time>
      </trkpt>
      <trkpt lat="-21.201" lon="55.64793">
        <ele>2282</ele>
        <time>2013-01-20T08:25:38Z</time>
      </trkpt>
      <trkpt lat="-21.2009" lon="55.64789">
        <ele>2278</ele>
        <time>2013-01-20T08:25:48Z</time>
      </trkpt>
      <trkpt lat="-21.20075" lon="55.64786">
        <ele>2276</ele>
        <time>2013-01-20T08:25:58Z</time>
      </trkpt>
      <trkpt lat="-21.20058" lon="55.64782">
        <ele>2274</ele>
        <time>2013-01-20T08:26:08Z</time>
      </trkpt>
      <trkpt lat="-21.20045" lon="55.64774">
        <ele>2271</ele>
        <time>2013-01-20T08:26:18Z</time>
      </trkpt>
      <trkpt lat="-21.20031" lon="55.64769">
        <ele>2270</ele>
        <time>2013-01-20T08:26:28Z</time>
      </trkpt>
      <trkpt lat="-21.20015" lon="55.64766">
        <ele>2269</ele>
        <time>2013-01-20T08:26:38Z</time>
      </trkpt>
      <trkpt lat="-21.20001" lon="55.6476">
        <ele>2267</ele>
        <time>2013-01-20T08:26:48Z</time>
      </trkpt>
      <trkpt lat="-21.19988" lon="55.64756">
        <ele>2267</ele>
        <time>2013-01-20T08:26:59Z</time>
      </trkpt>
      <trkpt lat="-21.19979" lon="55.64748">
        <ele>2265</ele>
        <time>2013-01-20T08:27:09Z</time>
      </trkpt>
      <trkpt lat="-21.19969" lon="55.6474">
        <ele>2263</ele>
        <time>2013-01-20T08:27:19Z</time>
      </trkpt>
      <trkpt lat="-21.19959" lon="55.64731">
        <ele>2261</ele>
        <time>2013-01-20T08:27:29Z</time>
      </trkpt>
      <trkpt lat="-21.19947" lon="55.64723">
        <ele>2260</ele>
        <time>2013-01-20T08:27:39Z</time>
      </trkpt>
      <trkpt lat="-21.19943" lon="55.64714">
        <ele>2257</ele>
        <time>2013-01-20T08:27:49Z</time>
      </trkpt>
      <trkpt lat="-21.19938" lon="55.64703">
        <ele>2256</ele>
        <time>2013-01-20T08:27:59Z</time>
      </trkpt>
      <trkpt lat="-21.19934" lon="55.64691">
        <ele>2254</ele>
        <time>2013-01-20T08:28:09Z</time>
      </trkpt>
      <trkpt lat="-21.19926" lon="55.64677">
        <ele>2252</ele>
        <time>2013-01-20T08:28:19Z</time>
      </trkpt>
      <trkpt lat="-21.1992" lon="55.64657">
        <ele>2250</ele>
        <time>2013-01-20T08:28:29Z</time>
      </trkpt>
      <trkpt lat="-21.19909" lon="55.6464">
        <ele>2248</ele>
        <time>2013-01-20T08:28:39Z</time>
      </trkpt>
      <trkpt lat="-21.1989" lon="55.64634">
        <ele>2246</ele>
        <time>2013-01-20T08:28:49Z</time>
      </trkpt>
      <trkpt lat="-21.19868" lon="55.6462">
        <ele>2242</ele>
        <time>2013-01-20T08:29:00Z</time>
      </trkpt>
      <trkpt lat="-21.19847" lon="55.64617">
        <ele>2242</ele>
        <time>2013-01-20T08:29:10Z</time>
      </trkpt>
      <trkpt lat="-21.19826" lon="55.64612">
        <ele>2241</ele>
        <time>2013-01-20T08:29:20Z</time>
      </trkpt>
      <trkpt lat="-21.1981" lon="55.646">
        <ele>2239</ele>
        <time>2013-01-20T08:29:30Z</time>
      </trkpt>
      <trkpt lat="-21.19791" lon="55.64589">
        <ele>2236</ele>
        <time>2013-01-20T08:29:40Z</time>
      </trkpt>
      <trkpt lat="-21.19778" lon="55.6458">
        <ele>2237</ele>
        <time>2013-01-20T08:29:50Z</time>
      </trkpt>
      <trkpt lat="-21.19763" lon="55.64571">
        <ele>2236</ele>
        <time>2013-01-20T08:30:00Z</time>
      </trkpt>
      <trkpt lat="-21.19748" lon="55.64561">
        <ele>2236</ele>
        <time>2013-01-20T08:30:10Z</time>
      </trkpt>
      <trkpt lat="-21.19739" lon="55.64555">
        <ele>2237</ele>
        <time>2013-01-20T08:30:20Z</time>
      </trkpt>
      <trkpt lat="-21.19729" lon="55.6455">
        <ele>2240</ele>
        <time>2013-01-20T08:30:30Z</time>
      </trkpt>
      <trkpt lat="-21.19725" lon="55.64539">
        <ele>2242</ele>
        <time>2013-01-20T08:30:40Z</time>
      </trkpt>
      <trkpt lat="-21.19716" lon="55.64529">
        <ele>2243</ele>
        <time>2013-01-20T08:30:51Z</time>
      </trkpt>
      <trkpt lat="-21.19703" lon="55.64525">
        <ele>2243</ele>
        <time>2013-01-20T08:31:01Z</time>
      </trkpt>
      <trkpt lat="-21.19691" lon="55.64517">
        <ele>2242</ele>
        <time>2013-01-20T08:31:11Z</time>
      </trkpt>
      <trkpt lat="-21.19678" lon="55.6451">
        <ele>2239</ele>
        <time>2013-01-20T08:31:21Z</time>
      </trkpt>
      <trkpt lat="-21.19665" lon="55.64504">
        <ele>2236</ele>
        <time>2013-01-20T08:31:31Z</time>
      </trkpt>
      <trkpt lat="-21.19647" lon="55.64495">
        <ele>2232</ele>
        <time>2013-01-20T08:31:41Z</time>
      </trkpt>
      <trkpt lat="-21.19633" lon="55.64486">
        <ele>2230</ele>
        <time>2013-01-20T08:31:51Z</time>
      </trkpt>
      <trkpt lat="-21.19619" lon="55.64473">
        <ele>2226</ele>
        <time>2013-01-20T08:32:01Z</time>
      </trkpt>
      <trkpt lat="-21.19607" lon="55.64463">
        <ele>2224</ele>
        <time>2013-01-20T08:32:11Z</time>
      </trkpt>
      <trkpt lat="-21.19598" lon="55.64454">
        <ele>2222</ele>
        <time>2013-01-20T08:32:21Z</time>
      </trkpt>
      <trkpt lat="-21.19588" lon="55.64448">
        <ele>2217</ele>
        <time>2013-01-20T08:32:31Z</time>
      </trkpt>
      <trkpt lat="-21.19575" lon="55.6445">
        <ele>2215</ele>
        <time>2013-01-20T08:32:42Z</time>
      </trkpt>
      <trkpt lat="-21.19563" lon="55.64439">
        <ele>2211</ele>
        <time>2013-01-20T08:32:52Z</time>
      </trkpt>
      <trkpt lat="-21.19549" lon="55.6443">
        <ele>2206</ele>
        <time>2013-01-20T08:33:02Z</time>
      </trkpt>
      <trkpt lat="-21.19539" lon="55.64415">
        <ele>2202</ele>
        <time>2013-01-20T08:33:12Z</time>
      </trkpt>
      <trkpt lat="-21.1953" lon="55.64408">
        <ele>2199</ele>
        <time>2013-01-20T08:33:22Z</time>
      </trkpt>
      <trkpt lat="-21.19518" lon="55.64405">
        <ele>2195</ele>
        <time>2013-01-20T08:33:32Z</time>
      </trkpt>
      <trkpt lat="-21.19517" lon="55.64391">
        <ele>2192</ele>
        <time>2013-01-20T08:33:42Z</time>
      </trkpt>
      <trkpt lat="-21.19524" lon="55.64379">
        <ele>2189</ele>
        <time>2013-01-20T08:33:52Z</time>
      </trkpt>
      <trkpt lat="-21.19529" lon="55.64369">
        <ele>2186</ele>
        <time>2013-01-20T08:34:02Z</time>
      </trkpt>
      <trkpt lat="-21.19521" lon="55.64356">
        <ele>2185</ele>
        <time>2013-01-20T08:34:12Z</time>
      </trkpt>
      <trkpt lat="-21.19514" lon="55.64344">
        <ele>2183</ele>
        <time>2013-01-20T08:34:22Z</time>
      </trkpt>
      <trkpt lat="-21.19509" lon="55.6433">
        <ele>2181</ele>
        <time>2013-01-20T08:34:32Z</time>
      </trkpt>
      <trkpt lat="-21.195" lon="55.64318">
        <ele>2177</ele>
        <time>2013-01-20T08:34:43Z</time>
      </trkpt>
      <trkpt lat="-21.19486" lon="55.64312">
        <ele>2176</ele>
        <time>2013-01-20T08:34:53Z</time>
      </trkpt>
      <trkpt lat="-21.19472" lon="55.64303">
        <ele>2173</ele>
        <time>2013-01-20T08:35:03Z</time>
      </trkpt>
      <trkpt lat="-21.19469" lon="55.64291">
        <ele>2172</ele>
        <time>2013-01-20T08:35:13Z</time>
      </trkpt>
      <trkpt lat="-21.19463" lon="55.64278">
        <ele>2168</ele>
        <time>2013-01-20T08:35:23Z</time>
      </trkpt>
      <trkpt lat="-21.19453" lon="55.64267">
        <ele>2165</ele>
        <time>2013-01-20T08:35:33Z</time>
      </trkpt>
      <trkpt lat="-21.19443" lon="55.64258">
        <ele>2163</ele>
        <time>2013-01-20T08:35:43Z</time>
      </trkpt>
      <trkpt lat="-21.1943" lon="55.64248">
        <ele>2161</ele>
        <time>2013-01-20T08:35:53Z</time>
      </trkpt>
      <trkpt lat="-21.19429" lon="55.64233">
        <ele>2160</ele>
        <time>2013-01-20T08:36:03Z</time>
      </trkpt>
      <trkpt lat="-21.19432" lon="55.64217">
        <ele>2157</ele>
        <time>2013-01-20T08:36:13Z</time>
      </trkpt>
      <trkpt lat="-21.19426" lon="55.64204">
        <ele>2155</ele>
        <time>2013-01-20T08:36:23Z</time>
      </trkpt>
      <trkpt lat="-21.19427" lon="55.64185">
        <ele>2153</ele>
        <time>2013-01-20T08:36:33Z</time>
      </trkpt>
      <trkpt lat="-21.19427" lon="55.64168">
        <ele>2151</ele>
        <time>2013-01-20T08:36:43Z</time>
      </trkpt>
      <trkpt lat="-21.19418" lon="55.64154">
        <ele>2149</ele>
        <time>2013-01-20T08:36:53Z</time>
      </trkpt>
      <trkpt lat="-21.19404" lon="55.64143">
        <ele>2148</ele>
        <time>2013-01-20T08:37:03Z</time>
      </trkpt>
      <trkpt lat="-21.19401" lon="55.64128">
        <ele>2147</ele>
        <time>2013-01-20T08:37:14Z</time>
      </trkpt>
      <trkpt lat="-21.19394" lon="55.64111">
        <ele>2146</ele>
        <time>2013-01-20T08:37:24Z</time>
      </trkpt>
      <trkpt lat="-21.19387" lon="55.64095">
        <ele>2144</ele>
        <time>2013-01-20T08:37:34Z</time>
      </trkpt>
      <trkpt lat="-21.19372" lon="55.6409">
        <ele>2143</ele>
        <time>2013-01-20T08:37:44Z</time>
      </trkpt>
      <trkpt lat="-21.19363" lon="55.64082">
        <ele>2141</ele>
        <time>2013-01-20T08:37:54Z</time>
      </trkpt>
      <trkpt lat="-21.19352" lon="55.64072">
        <ele>2139</ele>
        <time>2013-01-20T08:38:04Z</time>
      </trkpt>
      <trkpt lat="-21.1934" lon="55.64061">
        <ele>2138</ele>
        <time>2013-01-20T08:38:14Z</time>
      </trkpt>
      <trkpt lat="-21.19328" lon="55.6405">
        <ele>2135</ele>
        <time>2013-01-20T08:38:24Z</time>
      </trkpt>
      <trkpt lat="-21.19318" lon="55.64035">
        <ele>2134</ele>
        <time>2013-01-20T08:38:34Z</time>
      </trkpt>
      <trkpt lat="-21.19312" lon="55.64023">
        <ele>2133</ele>
        <time>2013-01-20T08:38:45Z</time>
      </trkpt>
      <trkpt lat="-21.19311" lon="55.64008">
        <ele>2131</ele>
        <time>2013-01-20T08:38:55Z</time>
      </trkpt>
      <trkpt lat="-21.19308" lon="55.63992">
        <ele>2128</ele>
        <time>2013-01-20T08:39:05Z</time>
      </trkpt>
      <trkpt lat="-21.19305" lon="55.63978">
        <ele>2126</ele>
        <time>2013-01-20T08:39:15Z</time>
      </trkpt>
      <trkpt lat="-21.193" lon="55.63963">
        <ele>2124</ele>
        <time>2013-01-20T08:39:25Z</time>
      </trkpt>
      <trkpt lat="-21.19295" lon="55.63951">
        <ele>2121</ele>
        <time>2013-01-20T08:39:35Z</time>
      </trkpt>
      <trkpt lat="-21.19289" lon="55.63936">
        <ele>2119</ele>
        <time>2013-01-20T08:39:45Z</time>
      </trkpt>
      <trkpt lat="-21.19281" lon="55.63922">
        <ele>2118</ele>
        <time>2013-01-20T08:39:55Z</time>
      </trkpt>
      <trkpt lat="-21.19276" lon="55.63907">
        <ele>2117</ele>
        <time>2013-01-20T08:40:05Z</time>
      </trkpt>
      <trkpt lat="-21.19274" lon="55.63892">
        <ele>2115</ele>
        <time>2013-01-20T08:40:15Z</time>
      </trkpt>
      <trkpt lat="-21.1927" lon="55.63879">
        <ele>2113</ele>
        <time>2013-01-20T08:40:25Z</time>
      </trkpt>
      <trkpt lat="-21.19264" lon="55.63864">
        <ele>2113</ele>
        <time>2013-01-20T08:40:35Z</time>
      </trkpt>
      <trkpt lat="-21.19259" lon="55.63852">
        <ele>2114</ele>
        <time>2013-01-20T08:40:45Z</time>
      </trkpt>
      <trkpt lat="-21.19253" lon="55.6384">
        <ele>2113</ele>
        <time>2013-01-20T08:40:55Z</time>
      </trkpt>
      <trkpt lat="-21.19242" lon="55.63832">
        <ele>2112</ele>
        <time>2013-01-20T08:41:05Z</time>
      </trkpt>
      <trkpt lat="-21.1923" lon="55.63826">
        <ele>2111</ele>
        <time>2013-01-20T08:41:15Z</time>
      </trkpt>
      <trkpt lat="-21.19215" lon="55.63818">
        <ele>2110</ele>
        <time>2013-01-20T08:41:25Z</time>
      </trkpt>
      <trkpt lat="-21.19201" lon="55.63806">
        <ele>2109</ele>
        <time>2013-01-20T08:41:35Z</time>
      </trkpt>
      <trkpt lat="-21.19189" lon="55.63795">
        <ele>2109</ele>
        <time>2013-01-20T08:41:46Z</time>
      </trkpt>
      <trkpt lat="-21.1918" lon="55.63783">
        <ele>2108</ele>
        <time>2013-01-20T08:41:56Z</time>
      </trkpt>
      <trkpt lat="-21.19172" lon="55.63768">
        <ele>2108</ele>
        <time>2013-01-20T08:42:06Z</time>
      </trkpt>
      <trkpt lat="-21.19166" lon="55.63753">
        <ele>2108</ele>
        <time>2013-01-20T08:42:16Z</time>
      </trkpt>
      <trkpt lat="-21.19162" lon="55.63737">
        <ele>2109</ele>
        <time>2013-01-20T08:42:26Z</time>
      </trkpt>
      <trkpt lat="-21.1916" lon="55.63719">
        <ele>2109</ele>
        <time>2013-01-20T08:42:36Z</time>
      </trkpt>
      <trkpt lat="-21.19156" lon="55.63702">
        <ele>2109</ele>
        <time>2013-01-20T08:42:46Z</time>
      </trkpt>
      <trkpt lat="-21.19155" lon="55.6369">
        <ele>2110</ele>
        <time>2013-01-20T08:42:56Z</time>
      </trkpt>
      <trkpt lat="-21.19153" lon="55.6368">
        <ele>2111</ele>
        <time>2013-01-20T08:43:06Z</time>
      </trkpt>
      <trkpt lat="-21.19151" lon="55.63671">
        <ele>2115</ele>
        <time>2013-01-20T08:43:16Z</time>
      </trkpt>
      <trkpt lat="-21.19152" lon="55.63661">
        <ele>2116</ele>
        <time>2013-01-20T08:43:26Z</time>
      </trkpt>
      <trkpt lat="-21.19153" lon="55.63652">
        <ele>2118</ele>
        <time>2013-01-20T08:43:36Z</time>
      </trkpt>
      <trkpt lat="-21.19154" lon="55.6364">
        <ele>2118</ele>
        <time>2013-01-20T08:43:46Z</time>
      </trkpt>
      <trkpt lat="-21.19149" lon="55.63629">
        <ele>2119</ele>
        <time>2013-01-20T08:43:56Z</time>
      </trkpt>
      <trkpt lat="-21.19144" lon="55.63617">
        <ele>2119</ele>
        <time>2013-01-20T08:44:06Z</time>
      </trkpt>
      <trkpt lat="-21.1914" lon="55.63605">
        <ele>2120</ele>
        <time>2013-01-20T08:44:16Z</time>
      </trkpt>
      <trkpt lat="-21.19135" lon="55.63595">
        <ele>2121</ele>
        <time>2013-01-20T08:44:26Z</time>
      </trkpt>
      <trkpt lat="-21.1913" lon="55.63586">
        <ele>2124</ele>
        <time>2013-01-20T08:44:36Z</time>
      </trkpt>
      <trkpt lat="-21.19124" lon="55.63576">
        <ele>2125</ele>
        <time>2013-01-20T08:44:46Z</time>
      </trkpt>
      <trkpt lat="-21.19118" lon="55.63563">
        <ele>2125</ele>
        <time>2013-01-20T08:44:56Z</time>
      </trkpt>
      <trkpt lat="-21.19114" lon="55.63554">
        <ele>2126</ele>
        <time>2013-01-20T08:45:06Z</time>
      </trkpt>
      <trkpt lat="-21.19108" lon="55.63546">
        <ele>2127</ele>
        <time>2013-01-20T08:45:17Z</time>
      </trkpt>
      <trkpt lat="-21.19107" lon="55.63546">
        <ele>2127</ele>
        <time>2013-01-20T08:45:27Z</time>
      </trkpt>
      <trkpt lat="-21.19107" lon="55.63546">
        <ele>2127</ele>
        <time>2013-01-20T08:45:37Z</time>
      </trkpt>
      <trkpt lat="-21.19107" lon="55.63546">
        <ele>2127</ele>
        <time>2013-01-20T08:45:47Z</time>
      </trkpt>
      <trkpt lat="-21.19107" lon="55.63546">
        <ele>2127</ele>
        <time>2013-01-20T08:45:57Z</time>
      </trkpt>
      <trkpt lat="-21.19107" lon="55.63546">
        <ele>2128</ele>
        <time>2013-01-20T08:46:07Z</time>
      </trkpt>
      <trkpt lat="-21.19107" lon="55.63547">
        <ele>2128</ele>
        <time>2013-01-20T08:46:17Z</time>
      </trkpt>
      <trkpt lat="-21.19106" lon="55.63547">
        <ele>2128</ele>
        <time>2013-01-20T08:46:27Z</time>
      </trkpt>
      <trkpt lat="-21.19106" lon="55.63547">
        <ele>2128</ele>
        <time>2013-01-20T08:46:37Z</time>
      </trkpt>
      <trkpt lat="-21.19106" lon="55.63548">
        <ele>2128</ele>
        <time>2013-01-20T08:46:47Z</time>
      </trkpt>
      <trkpt lat="-21.19106" lon="55.63547">
        <ele>2127</ele>
        <time>2013-01-20T08:46:57Z</time>
      </trkpt>
      <trkpt lat="-21.19106" lon="55.63548">
        <ele>2127</ele>
        <time>2013-01-20T08:47:07Z</time>
      </trkpt>
      <trkpt lat="-21.19106" lon="55.63549">
        <ele>2127</ele>
        <time>2013-01-20T08:47:17Z</time>
      </trkpt>
      <trkpt lat="-21.19105" lon="55.63549">
        <ele>2127</ele>
        <time>2013-01-20T08:47:27Z</time>
      </trkpt>
      <trkpt lat="-21.19104" lon="55.63548">
        <ele>2127</ele>
        <time>2013-01-20T08:47:37Z</time>
      </trkpt>
      <trkpt lat="-21.19104" lon="55.63548">
        <ele>2127</ele>
        <time>2013-01-20T08:47:47Z</time>
      </trkpt>
      <trkpt lat="-21.19106" lon="55.63546">
        <ele>2127</ele>
        <time>2013-01-20T08:47:58Z</time>
      </trkpt>
      <trkpt lat="-21.19106" lon="55.63544">
        <ele>2128</ele>
        <time>2013-01-20T08:48:08Z</time>
      </trkpt>
      <trkpt lat="-21.19106" lon="55.63544">
        <ele>2127</ele>
        <time>2013-01-20T08:48:18Z</time>
      </trkpt>
      <trkpt lat="-21.19109" lon="55.63543">
        <ele>2128</ele>
        <time>2013-01-20T08:48:28Z</time>
      </trkpt>
      <trkpt lat="-21.19108" lon="55.63545">
        <ele>2127</ele>
        <time>2013-01-20T08:48:38Z</time>
      </trkpt>
      <trkpt lat="-21.19106" lon="55.63546">
        <ele>2128</ele>
        <time>2013-01-20T08:48:48Z</time>
      </trkpt>
      <trkpt lat="-21.19106" lon="55.63544">
        <ele>2127</ele>
        <time>2013-01-20T08:48:58Z</time>
      </trkpt>
      <trkpt lat="-21.19104" lon="55.63533">
        <ele>2128</ele>
        <time>2013-01-20T08:49:08Z</time>
      </trkpt>
      <trkpt lat="-21.19103" lon="55.63522">
        <ele>2129</ele>
        <time>2013-01-20T08:49:18Z</time>
      </trkpt>
      <trkpt lat="-21.19103" lon="55.63515">
        <ele>2128</ele>
        <time>2013-01-20T08:49:28Z</time>
      </trkpt>
      <trkpt lat="-21.19102" lon="55.63505">
        <ele>2127</ele>
        <time>2013-01-20T08:49:38Z</time>
      </trkpt>
      <trkpt lat="-21.19104" lon="55.63491">
        <ele>2125</ele>
        <time>2013-01-20T08:49:48Z</time>
      </trkpt>
      <trkpt lat="-21.19107" lon="55.63479">
        <ele>2125</ele>
        <time>2013-01-20T08:49:58Z</time>
      </trkpt>
      <trkpt lat="-21.19106" lon="55.63464">
        <ele>2123</ele>
        <time>2013-01-20T08:50:08Z</time>
      </trkpt>
      <trkpt lat="-21.19101" lon="55.63449">
        <ele>2123</ele>
        <time>2013-01-20T08:50:18Z</time>
      </trkpt>
      <trkpt lat="-21.19098" lon="55.63434">
        <ele>2123</ele>
        <time>2013-01-20T08:50:28Z</time>
      </trkpt>
      <trkpt lat="-21.19098" lon="55.6342">
        <ele>2122</ele>
        <time>2013-01-20T08:50:38Z</time>
      </trkpt>
      <trkpt lat="-21.19097" lon="55.63403">
        <ele>2120</ele>
        <time>2013-01-20T08:50:49Z</time>
      </trkpt>
      <trkpt lat="-21.1909" lon="55.63392">
        <ele>2119</ele>
        <time>2013-01-20T08:50:59Z</time>
      </trkpt>
      <trkpt lat="-21.19098" lon="55.63383">
        <ele>2117</ele>
        <time>2013-01-20T08:51:09Z</time>
      </trkpt>
      <trkpt lat="-21.19107" lon="55.6338">
        <ele>2115</ele>
        <time>2013-01-20T08:51:19Z</time>
      </trkpt>
      <trkpt lat="-21.19111" lon="55.63374">
        <ele>2113</ele>
        <time>2013-01-20T08:51:29Z</time>
      </trkpt>
      <trkpt lat="-21.19111" lon="55.63362">
        <ele>2111</ele>
        <time>2013-01-20T08:51:39Z</time>
      </trkpt>
      <trkpt lat="-21.19118" lon="55.6335">
        <ele>2110</ele>
        <time>2013-01-20T08:51:49Z</time>
      </trkpt>
      <trkpt lat="-21.19125" lon="55.63342">
        <ele>2108</ele>
        <time>2013-01-20T08:51:59Z</time>
      </trkpt>
      <trkpt lat="-21.19132" lon="55.63331">
        <ele>2107</ele>
        <time>2013-01-20T08:52:09Z</time>
      </trkpt>
      <trkpt lat="-21.19142" lon="55.63319">
        <ele>2106</ele>
        <time>2013-01-20T08:52:19Z</time>
      </trkpt>
      <trkpt lat="-21.19149" lon="55.6331">
        <ele>2105</ele>
        <time>2013-01-20T08:52:29Z</time>
      </trkpt>
      <trkpt lat="-21.19152" lon="55.63304">
        <ele>2105</ele>
        <time>2013-01-20T08:52:39Z</time>
      </trkpt>
      <trkpt lat="-21.19156" lon="55.63292">
        <ele>2104</ele>
        <time>2013-01-20T08:52:49Z</time>
      </trkpt>
      <trkpt lat="-21.19163" lon="55.63282">
        <ele>2102</ele>
        <time>2013-01-20T08:52:59Z</time>
      </trkpt>
      <trkpt lat="-21.19168" lon="55.63272">
        <ele>2101</ele>
        <time>2013-01-20T08:53:09Z</time>
      </trkpt>
      <trkpt lat="-21.19174" lon="55.6326">
        <ele>2099</ele>
        <time>2013-01-20T08:53:19Z</time>
      </trkpt>
      <trkpt lat="-21.19176" lon="55.63246">
        <ele>2098</ele>
        <time>2013-01-20T08:53:30Z</time>
      </trkpt>
      <trkpt lat="-21.1918" lon="55.63234">
        <ele>2096</ele>
        <time>2013-01-20T08:53:40Z</time>
      </trkpt>
      <trkpt lat="-21.1918" lon="55.63226">
        <ele>2096</ele>
        <time>2013-01-20T08:53:50Z</time>
      </trkpt>
      <trkpt lat="-21.19184" lon="55.63219">
        <ele>2095</ele>
        <time>2013-01-20T08:54:00Z</time>
      </trkpt>
      <trkpt lat="-21.19187" lon="55.63212">
        <ele>2093</ele>
        <time>2013-01-20T08:54:10Z</time>
      </trkpt>
      <trkpt lat="-21.19191" lon="55.63206">
        <ele>2092</ele>
        <time>2013-01-20T08:54:20Z</time>
      </trkpt>
      <trkpt lat="-21.19193" lon="55.63197">
        <ele>2090</ele>
        <time>2013-01-20T08:54:30Z</time>
      </trkpt>
      <trkpt lat="-21.19201" lon="55.63195">
        <ele>2089</ele>
        <time>2013-01-20T08:54:40Z</time>
      </trkpt>
      <trkpt lat="-21.19212" lon="55.6319">
        <ele>2088</ele>
        <time>2013-01-20T08:54:50Z</time>
      </trkpt>
      <trkpt lat="-21.19225" lon="55.63188">
        <ele>2086</ele>
        <time>2013-01-20T08:55:00Z</time>
      </trkpt>
      <trkpt lat="-21.19234" lon="55.63193">
        <ele>2085</ele>
        <time>2013-01-20T08:55:10Z</time>
      </trkpt>
      <trkpt lat="-21.19244" lon="55.63194">
        <ele>2082</ele>
        <time>2013-01-20T08:55:20Z</time>
      </trkpt>
      <trkpt lat="-21.19256" lon="55.63192">
        <ele>2082</ele>
        <time>2013-01-20T08:55:31Z</time>
      </trkpt>
      <trkpt lat="-21.19268" lon="55.63191">
        <ele>2080</ele>
        <time>2013-01-20T08:55:41Z</time>
      </trkpt>
      <trkpt lat="-21.19283" lon="55.63188">
        <ele>2079</ele>
        <time>2013-01-20T08:55:51Z</time>
      </trkpt>
      <trkpt lat="-21.19299" lon="55.63192">
        <ele>2078</ele>
        <time>2013-01-20T08:56:01Z</time>
      </trkpt>
      <trkpt lat="-21.1931" lon="55.63202">
        <ele>2076</ele>
        <time>2013-01-20T08:56:11Z</time>
      </trkpt>
      <trkpt lat="-21.19318" lon="55.63205">
        <ele>2076</ele>
        <time>2013-01-20T08:56:21Z</time>
      </trkpt>
      <trkpt lat="-21.19328" lon="55.63208">
        <ele>2075</ele>
        <time>2013-01-20T08:56:31Z</time>
      </trkpt>
      <trkpt lat="-21.19339" lon="55.63206">
        <ele>2073</ele>
        <time>2013-01-20T08:56:41Z</time>
      </trkpt>
      <trkpt lat="-21.19353" lon="55.63209">
        <ele>2071</ele>
        <time>2013-01-20T08:56:51Z</time>
      </trkpt>
      <trkpt lat="-21.19367" lon="55.632">
        <ele>2069</ele>
        <time>2013-01-20T08:57:01Z</time>
      </trkpt>
      <trkpt lat="-21.19382" lon="55.63199">
        <ele>2068</ele>
        <time>2013-01-20T08:57:11Z</time>
      </trkpt>
      <trkpt lat="-21.19391" lon="55.63211">
        <ele>2068</ele>
        <time>2013-01-20T08:57:21Z</time>
      </trkpt>
      <trkpt lat="-21.19398" lon="55.63224">
        <ele>2068</ele>
        <time>2013-01-20T08:57:31Z</time>
      </trkpt>
      <trkpt lat="-21.19399" lon="55.63239">
        <ele>2068</ele>
        <time>2013-01-20T08:57:41Z</time>
      </trkpt>
      <trkpt lat="-21.19407" lon="55.63253">
        <ele>2068</ele>
        <time>2013-01-20T08:57:51Z</time>
      </trkpt>
      <trkpt lat="-21.19418" lon="55.6326">
        <ele>2069</ele>
        <time>2013-01-20T08:58:01Z</time>
      </trkpt>
      <trkpt lat="-21.19426" lon="55.63268">
        <ele>2070</ele>
        <time>2013-01-20T08:58:11Z</time>
      </trkpt>
      <trkpt lat="-21.19437" lon="55.63275">
        <ele>2071</ele>
        <time>2013-01-20T08:58:21Z</time>
      </trkpt>
      <trkpt lat="-21.19443" lon="55.63285">
        <ele>2071</ele>
        <time>2013-01-20T08:58:31Z</time>
      </trkpt>
      <trkpt lat="-21.19451" lon="55.63296">
        <ele>2071</ele>
        <time>2013-01-20T08:58:41Z</time>
      </trkpt>
      <trkpt lat="-21.19453" lon="55.63309">
        <ele>2072</ele>
        <time>2013-01-20T08:58:51Z</time>
      </trkpt>
      <trkpt lat="-21.19463" lon="55.63317">
        <ele>2072</ele>
        <time>2013-01-20T08:59:01Z</time>
      </trkpt>
      <trkpt lat="-21.19477" lon="55.63314">
        <ele>2074</ele>
        <time>2013-01-20T08:59:11Z</time>
      </trkpt>
      <trkpt lat="-21.19486" lon="55.63308">
        <ele>2075</ele>
        <time>2013-01-20T08:59:22Z</time>
      </trkpt>
      <trkpt lat="-21.19498" lon="55.63311">
        <ele>2077</ele>
        <time>2013-01-20T08:59:32Z</time>
      </trkpt>
      <trkpt lat="-21.1951" lon="55.63307">
        <ele>2077</ele>
        <time>2013-01-20T08:59:42Z</time>
      </trkpt>
      <trkpt lat="-21.19523" lon="55.63301">
        <ele>2077</ele>
        <time>2013-01-20T08:59:52Z</time>
      </trkpt>
      <trkpt lat="-21.19536" lon="55.63293">
        <ele>2075</ele>
        <time>2013-01-20T09:00:02Z</time>
      </trkpt>
      <trkpt lat="-21.19545" lon="55.63281">
        <ele>2074</ele>
        <time>2013-01-20T09:00:12Z</time>
      </trkpt>
      <trkpt lat="-21.19544" lon="55.63268">
        <ele>2073</ele>
        <time>2013-01-20T09:00:22Z</time>
      </trkpt>
      <trkpt lat="-21.19547" lon="55.63254">
        <ele>2072</ele>
        <time>2013-01-20T09:00:32Z</time>
      </trkpt>
      <trkpt lat="-21.19549" lon="55.63239">
        <ele>2071</ele>
        <time>2013-01-20T09:00:42Z</time>
      </trkpt>
      <trkpt lat="-21.19558" lon="55.63226">
        <ele>2070</ele>
        <time>2013-01-20T09:00:52Z</time>
      </trkpt>
      <trkpt lat="-21.1955" lon="55.63215">
        <ele>2070</ele>
        <time>2013-01-20T09:01:02Z</time>
      </trkpt>
      <trkpt lat="-21.19548" lon="55.63201">
        <ele>2068</ele>
        <time>2013-01-20T09:01:13Z</time>
      </trkpt>
      <trkpt lat="-21.19558" lon="55.6319">
        <ele>2068</ele>
        <time>2013-01-20T09:01:23Z</time>
      </trkpt>
      <trkpt lat="-21.19574" lon="55.63189">
        <ele>2066</ele>
        <time>2013-01-20T09:01:33Z</time>
      </trkpt>
      <trkpt lat="-21.19588" lon="55.63193">
        <ele>2066</ele>
        <time>2013-01-20T09:01:43Z</time>
      </trkpt>
      <trkpt lat="-21.19602" lon="55.63199">
        <ele>2066</ele>
        <time>2013-01-20T09:01:53Z</time>
      </trkpt>
      <trkpt lat="-21.19608" lon="55.63188">
        <ele>2065</ele>
        <time>2013-01-20T09:02:03Z</time>
      </trkpt>
      <trkpt lat="-21.19613" lon="55.63171">
        <ele>2064</ele>
        <time>2013-01-20T09:02:13Z</time>
      </trkpt>
      <trkpt lat="-21.19619" lon="55.63154">
        <ele>2063</ele>
        <time>2013-01-20T09:02:23Z</time>
      </trkpt>
      <trkpt lat="-21.19621" lon="55.63136">
        <ele>2062</ele>
        <time>2013-01-20T09:02:33Z</time>
      </trkpt>
      <trkpt lat="-21.19628" lon="55.6312">
        <ele>2062</ele>
        <time>2013-01-20T09:02:43Z</time>
      </trkpt>
      <trkpt lat="-21.19636" lon="55.63103">
        <ele>2061</ele>
        <time>2013-01-20T09:02:53Z</time>
      </trkpt>
      <trkpt lat="-21.19651" lon="55.63097">
        <ele>2060</ele>
        <time>2013-01-20T09:03:03Z</time>
      </trkpt>
      <trkpt lat="-21.19659" lon="55.63083">
        <ele>2059</ele>
        <time>2013-01-20T09:03:13Z</time>
      </trkpt>
      <trkpt lat="-21.19662" lon="55.63067">
        <ele>2058</ele>
        <time>2013-01-20T09:03:23Z</time>
      </trkpt>
      <trkpt lat="-21.19667" lon="55.63052">
        <ele>2057</ele>
        <time>2013-01-20T09:03:34Z</time>
      </trkpt>
      <trkpt lat="-21.19679" lon="55.63041">
        <ele>2056</ele>
        <time>2013-01-20T09:03:44Z</time>
      </trkpt>
      <trkpt lat="-21.1969" lon="55.63034">
        <ele>2056</ele>
        <time>2013-01-20T09:03:54Z</time>
      </trkpt>
      <trkpt lat="-21.19702" lon="55.63026">
        <ele>2058</ele>
        <time>2013-01-20T09:04:04Z</time>
      </trkpt>
      <trkpt lat="-21.19715" lon="55.63016">
        <ele>2058</ele>
        <time>2013-01-20T09:04:14Z</time>
      </trkpt>
      <trkpt lat="-21.19728" lon="55.63013">
        <ele>2057</ele>
        <time>2013-01-20T09:04:24Z</time>
      </trkpt>
      <trkpt lat="-21.19733" lon="55.62997">
        <ele>2057</ele>
        <time>2013-01-20T09:04:34Z</time>
      </trkpt>
      <trkpt lat="-21.19745" lon="55.62984">
        <ele>2056</ele>
        <time>2013-01-20T09:04:44Z</time>
      </trkpt>
      <trkpt lat="-21.19758" lon="55.62971">
        <ele>2055</ele>
        <time>2013-01-20T09:04:54Z</time>
      </trkpt>
      <trkpt lat="-21.1977" lon="55.62959">
        <ele>2054</ele>
        <time>2013-01-20T09:05:04Z</time>
      </trkpt>
      <trkpt lat="-21.1978" lon="55.62946">
        <ele>2054</ele>
        <time>2013-01-20T09:05:14Z</time>
      </trkpt>
      <trkpt lat="-21.19793" lon="55.62934">
        <ele>2054</ele>
        <time>2013-01-20T09:05:24Z</time>
      </trkpt>
      <trkpt lat="-21.19806" lon="55.62925">
        <ele>2054</ele>
        <time>2013-01-20T09:05:34Z</time>
      </trkpt>
      <trkpt lat="-21.19808" lon="55.6291">
        <ele>2052</ele>
        <time>2013-01-20T09:05:44Z</time>
      </trkpt>
      <trkpt lat="-21.19819" lon="55.62896">
        <ele>2051</ele>
        <time>2013-01-20T09:05:54Z</time>
      </trkpt>
      <trkpt lat="-21.19829" lon="55.62882">
        <ele>2050</ele>
        <time>2013-01-20T09:06:05Z</time>
      </trkpt>
      <trkpt lat="-21.19838" lon="55.62868">
        <ele>2050</ele>
        <time>2013-01-20T09:06:15Z</time>
      </trkpt>
      <trkpt lat="-21.1985" lon="55.62856">
        <ele>2049</ele>
        <time>2013-01-20T09:06:25Z</time>
      </trkpt>
      <trkpt lat="-21.19865" lon="55.62849">
        <ele>2048</ele>
        <time>2013-01-20T09:06:35Z</time>
      </trkpt>
      <trkpt lat="-21.19878" lon="55.6284">
        <ele>2048</ele>
        <time>2013-01-20T09:06:45Z</time>
      </trkpt>
      <trkpt lat="-21.19884" lon="55.62823">
        <ele>2048</ele>
        <time>2013-01-20T09:06:55Z</time>
      </trkpt>
      <trkpt lat="-21.19897" lon="55.62814">
        <ele>2047</ele>
        <time>2013-01-20T09:07:05Z</time>
      </trkpt>
      <trkpt lat="-21.19917" lon="55.62814">
        <ele>2046</ele>
        <time>2013-01-20T09:07:15Z</time>
      </trkpt>
      <trkpt lat="-21.19932" lon="55.62804">
        <ele>2045</ele>
        <time>2013-01-20T09:07:25Z</time>
      </trkpt>
      <trkpt lat="-21.19948" lon="55.62798">
        <ele>2045</ele>
        <time>2013-01-20T09:07:35Z</time>
      </trkpt>
      <trkpt lat="-21.19964" lon="55.62797">
        <ele>2043</ele>
        <time>2013-01-20T09:07:45Z</time>
      </trkpt>
      <trkpt lat="-21.19978" lon="55.62791">
        <ele>2043</ele>
        <time>2013-01-20T09:07:55Z</time>
      </trkpt>
      <trkpt lat="-21.19991" lon="55.62785">
        <ele>2042</ele>
        <time>2013-01-20T09:08:05Z</time>
      </trkpt>
      <trkpt lat="-21.20001" lon="55.62774">
        <ele>2041</ele>
        <time>2013-01-20T09:08:15Z</time>
      </trkpt>
      <trkpt lat="-21.2001" lon="55.62762">
        <ele>2040</ele>
        <time>2013-01-20T09:08:25Z</time>
      </trkpt>
      <trkpt lat="-21.20023" lon="55.62754">
        <ele>2040</ele>
        <time>2013-01-20T09:08:35Z</time>
      </trkpt>
      <trkpt lat="-21.20038" lon="55.62753">
        <ele>2040</ele>
        <time>2013-01-20T09:08:45Z</time>
      </trkpt>
      <trkpt lat="-21.20053" lon="55.6275">
        <ele>2040</ele>
        <time>2013-01-20T09:08:55Z</time>
      </trkpt>
      <trkpt lat="-21.20068" lon="55.62749">
        <ele>2037</ele>
        <time>2013-01-20T09:09:05Z</time>
      </trkpt>
      <trkpt lat="-21.2008" lon="55.62737">
        <ele>2037</ele>
        <time>2013-01-20T09:09:15Z</time>
      </trkpt>
      <trkpt lat="-21.20086" lon="55.62722">
        <ele>2036</ele>
        <time>2013-01-20T09:09:26Z</time>
      </trkpt>
      <trkpt lat="-21.20087" lon="55.62704">
        <ele>2035</ele>
        <time>2013-01-20T09:09:36Z</time>
      </trkpt>
      <trkpt lat="-21.20087" lon="55.62687">
        <ele>2036</ele>
        <time>2013-01-20T09:09:46Z</time>
      </trkpt>
      <trkpt lat="-21.20089" lon="55.6267">
        <ele>2035</ele>
        <time>2013-01-20T09:09:56Z</time>
      </trkpt>
      <trkpt lat="-21.20094" lon="55.62654">
        <ele>2035</ele>
        <time>2013-01-20T09:10:06Z</time>
      </trkpt>
      <trkpt lat="-21.20101" lon="55.62637">
        <ele>2033</ele>
        <time>2013-01-20T09:10:16Z</time>
      </trkpt>
      <trkpt lat="-21.20111" lon="55.62627">
        <ele>2032</ele>
        <time>2013-01-20T09:10:26Z</time>
      </trkpt>
      <trkpt lat="-21.2012" lon="55.62616">
        <ele>2032</ele>
        <time>2013-01-20T09:10:36Z</time>
      </trkpt>
      <trkpt lat="-21.20127" lon="55.62604">
        <ele>2033</ele>
        <time>2013-01-20T09:10:46Z</time>
      </trkpt>
      <trkpt lat="-21.20134" lon="55.62592">
        <ele>2032</ele>
        <time>2013-01-20T09:10:56Z</time>
      </trkpt>
      <trkpt lat="-21.20147" lon="55.62581">
        <ele>2031</ele>
        <time>2013-01-20T09:11:06Z</time>
      </trkpt>
      <trkpt lat="-21.20156" lon="55.62567">
        <ele>2031</ele>
        <time>2013-01-20T09:11:16Z</time>
      </trkpt>
      <trkpt lat="-21.20168" lon="55.62553">
        <ele>2029</ele>
        <time>2013-01-20T09:11:26Z</time>
      </trkpt>
      <trkpt lat="-21.20183" lon="55.62542">
        <ele>2027</ele>
        <time>2013-01-20T09:11:36Z</time>
      </trkpt>
      <trkpt lat="-21.20197" lon="55.62532">
        <ele>2027</ele>
        <time>2013-01-20T09:11:46Z</time>
      </trkpt>
      <trkpt lat="-21.20207" lon="55.62519">
        <ele>2027</ele>
        <time>2013-01-20T09:11:56Z</time>
      </trkpt>
      <trkpt lat="-21.20214" lon="55.62504">
        <ele>2027</ele>
        <time>2013-01-20T09:12:06Z</time>
      </trkpt>
      <trkpt lat="-21.20222" lon="55.6249">
        <ele>2027</ele>
        <time>2013-01-20T09:12:17Z</time>
      </trkpt>
      <trkpt lat="-21.2023" lon="55.62476">
        <ele>2027</ele>
        <time>2013-01-20T09:12:27Z</time>
      </trkpt>
      <trkpt lat="-21.20238" lon="55.62461">
        <ele>2028</ele>
        <time>2013-01-20T09:12:37Z</time>
      </trkpt>
      <trkpt lat="-21.20248" lon="55.62447">
        <ele>2027</ele>
        <time>2013-01-20T09:12:47Z</time>
      </trkpt>
      <trkpt lat="-21.20261" lon="55.62436">
        <ele>2028</ele>
        <time>2013-01-20T09:12:57Z</time>
      </trkpt>
      <trkpt lat="-21.20273" lon="55.62424">
        <ele>2028</ele>
        <time>2013-01-20T09:13:07Z</time>
      </trkpt>
      <trkpt lat="-21.20284" lon="55.62411">
        <ele>2027</ele>
        <time>2013-01-20T09:13:17Z</time>
      </trkpt>
      <trkpt lat="-21.20296" lon="55.62398">
        <ele>2026</ele>
        <time>2013-01-20T09:13:27Z</time>
      </trkpt>
      <trkpt lat="-21.20307" lon="55.62385">
        <ele>2027</ele>
        <time>2013-01-20T09:13:37Z</time>
      </trkpt>
      <trkpt lat="-21.20317" lon="55.62373">
        <ele>2026</ele>
        <time>2013-01-20T09:13:47Z</time>
      </trkpt>
      <trkpt lat="-21.20328" lon="55.62361">
        <ele>2026</ele>
        <time>2013-01-20T09:13:57Z</time>
      </trkpt>
      <trkpt lat="-21.20341" lon="55.6235">
        <ele>2026</ele>
        <time>2013-01-20T09:14:07Z</time>
      </trkpt>
      <trkpt lat="-21.20351" lon="55.62339">
        <ele>2027</ele>
        <time>2013-01-20T09:14:17Z</time>
      </trkpt>
      <trkpt lat="-21.20362" lon="55.62328">
        <ele>2026</ele>
        <time>2013-01-20T09:14:27Z</time>
      </trkpt>
      <trkpt lat="-21.20376" lon="55.62318">
        <ele>2026</ele>
        <time>2013-01-20T09:14:37Z</time>
      </trkpt>
      <trkpt lat="-21.20387" lon="55.62308">
        <ele>2025</ele>
        <time>2013-01-20T09:14:47Z</time>
      </trkpt>
      <trkpt lat="-21.20399" lon="55.62298">
        <ele>2025</ele>
        <time>2013-01-20T09:14:57Z</time>
      </trkpt>
      <trkpt lat="-21.20412" lon="55.62288">
        <ele>2025</ele>
        <time>2013-01-20T09:15:07Z</time>
      </trkpt>
      <trkpt lat="-21.20428" lon="55.62281">
        <ele>2025</ele>
        <time>2013-01-20T09:15:17Z</time>
      </trkpt>
      <trkpt lat="-21.20442" lon="55.62275">
        <ele>2025</ele>
        <time>2013-01-20T09:15:28Z</time>
      </trkpt>
      <trkpt lat="-21.20456" lon="55.62267">
        <ele>2024</ele>
        <time>2013-01-20T09:15:38Z</time>
      </trkpt>
      <trkpt lat="-21.20471" lon="55.62255">
        <ele>2021</ele>
        <time>2013-01-20T09:15:48Z</time>
      </trkpt>
      <trkpt lat="-21.20481" lon="55.62243">
        <ele>2020</ele>
        <time>2013-01-20T09:15:58Z</time>
      </trkpt>
      <trkpt lat="-21.20492" lon="55.62232">
        <ele>2020</ele>
        <time>2013-01-20T09:16:08Z</time>
      </trkpt>
      <trkpt lat="-21.20496" lon="55.62217">
        <ele>2019</ele>
        <time>2013-01-20T09:16:18Z</time>
      </trkpt>
      <trkpt lat="-21.20503" lon="55.62203">
        <ele>2017</ele>
        <time>2013-01-20T09:16:28Z</time>
      </trkpt>
      <trkpt lat="-21.205" lon="55.62188">
        <ele>2016</ele>
        <time>2013-01-20T09:16:38Z</time>
      </trkpt>
      <trkpt lat="-21.20488" lon="55.62175">
        <ele>2016</ele>
        <time>2013-01-20T09:16:48Z</time>
      </trkpt>
      <trkpt lat="-21.20476" lon="55.62158">
        <ele>2014</ele>
        <time>2013-01-20T09:16:58Z</time>
      </trkpt>
      <trkpt lat="-21.20467" lon="55.62144">
        <ele>2014</ele>
        <time>2013-01-20T09:17:08Z</time>
      </trkpt>
      <trkpt lat="-21.20458" lon="55.62129">
        <ele>2013</ele>
        <time>2013-01-20T09:17:18Z</time>
      </trkpt>
      <trkpt lat="-21.2045" lon="55.62116">
        <ele>2013</ele>
        <time>2013-01-20T09:17:28Z</time>
      </trkpt>
      <trkpt lat="-21.20441" lon="55.62106">
        <ele>2014</ele>
        <time>2013-01-20T09:17:38Z</time>
      </trkpt>
      <trkpt lat="-21.20434" lon="55.62098">
        <ele>2016</ele>
        <time>2013-01-20T09:17:48Z</time>
      </trkpt>
      <trkpt lat="-21.20431" lon="55.62088">
        <ele>2018</ele>
        <time>2013-01-20T09:17:58Z</time>
      </trkpt>
      <trkpt lat="-21.20425" lon="55.62081">
        <ele>2021</ele>
        <time>2013-01-20T09:18:08Z</time>
      </trkpt>
      <trkpt lat="-21.2042" lon="55.62072">
        <ele>2022</ele>
        <time>2013-01-20T09:18:18Z</time>
      </trkpt>
      <trkpt lat="-21.2041" lon="55.62065">
        <ele>2023</ele>
        <time>2013-01-20T09:18:28Z</time>
      </trkpt>
      <trkpt lat="-21.20399" lon="55.62059">
        <ele>2024</ele>
        <time>2013-01-20T09:18:38Z</time>
      </trkpt>
      <trkpt lat="-21.20391" lon="55.62051">
        <ele>2025</ele>
        <time>2013-01-20T09:18:48Z</time>
      </trkpt>
      <trkpt lat="-21.20382" lon="55.62041">
        <ele>2025</ele>
        <time>2013-01-20T09:18:58Z</time>
      </trkpt>
      <trkpt lat="-21.2037" lon="55.62035">
        <ele>2026</ele>
        <time>2013-01-20T09:19:08Z</time>
      </trkpt>
      <trkpt lat="-21.20363" lon="55.6203">
        <ele>2028</ele>
        <time>2013-01-20T09:19:18Z</time>
      </trkpt>
      <trkpt lat="-21.20353" lon="55.62029">
        <ele>2030</ele>
        <time>2013-01-20T09:19:28Z</time>
      </trkpt>
      <trkpt lat="-21.20341" lon="55.62029">
        <ele>2031</ele>
        <time>2013-01-20T09:19:38Z</time>
      </trkpt>
      <trkpt lat="-21.20329" lon="55.62024">
        <ele>2034</ele>
        <time>2013-01-20T09:19:49Z</time>
      </trkpt>
      <trkpt lat="-21.20324" lon="55.62018">
        <ele>2036</ele>
        <time>2013-01-20T09:19:59Z</time>
      </trkpt>
      <trkpt lat="-21.20321" lon="55.62012">
        <ele>2039</ele>
        <time>2013-01-20T09:20:09Z</time>
      </trkpt>
      <trkpt lat="-21.2032" lon="55.61999">
        <ele>2039</ele>
        <time>2013-01-20T09:20:19Z</time>
      </trkpt>
      <trkpt lat="-21.20318" lon="55.61989">
        <ele>2039</ele>
        <time>2013-01-20T09:20:29Z</time>
      </trkpt>
      <trkpt lat="-21.2032" lon="55.61975">
        <ele>2038</ele>
        <time>2013-01-20T09:20:39Z</time>
      </trkpt>
      <trkpt lat="-21.20317" lon="55.61958">
        <ele>2035</ele>
        <time>2013-01-20T09:20:49Z</time>
      </trkpt>
      <trkpt lat="-21.20313" lon="55.6194">
        <ele>2034</ele>
        <time>2013-01-20T09:20:59Z</time>
      </trkpt>
      <trkpt lat="-21.20304" lon="55.61933">
        <ele>2031</ele>
        <time>2013-01-20T09:21:09Z</time>
      </trkpt>
      <trkpt lat="-21.20296" lon="55.61925">
        <ele>2028</ele>
        <time>2013-01-20T09:21:19Z</time>
      </trkpt>
      <trkpt lat="-21.20283" lon="55.61924">
        <ele>2026</ele>
        <time>2013-01-20T09:21:29Z</time>
      </trkpt>
      <trkpt lat="-21.20267" lon="55.61927">
        <ele>2025</ele>
        <time>2013-01-20T09:21:39Z</time>
      </trkpt>
      <trkpt lat="-21.20251" lon="55.61932">
        <ele>2024</ele>
        <time>2013-01-20T09:21:49Z</time>
      </trkpt>
      <trkpt lat="-21.20244" lon="55.6192">
        <ele>2022</ele>
        <time>2013-01-20T09:21:59Z</time>
      </trkpt>
      <trkpt lat="-21.20234" lon="55.61907">
        <ele>2019</ele>
        <time>2013-01-20T09:22:09Z</time>
      </trkpt>
      <trkpt lat="-21.20221" lon="55.61897">
        <ele>2017</ele>
        <time>2013-01-20T09:22:19Z</time>
      </trkpt>
      <trkpt lat="-21.20208" lon="55.61888">
        <ele>2013</ele>
        <time>2013-01-20T09:22:29Z</time>
      </trkpt>
      <trkpt lat="-21.20195" lon="55.61877">
        <ele>2009</ele>
        <time>2013-01-20T09:22:39Z</time>
      </trkpt>
      <trkpt lat="-21.20181" lon="55.61866">
        <ele>2005</ele>
        <time>2013-01-20T09:22:49Z</time>
      </trkpt>
      <trkpt lat="-21.20167" lon="55.61855">
        <ele>2002</ele>
        <time>2013-01-20T09:22:59Z</time>
      </trkpt>
      <trkpt lat="-21.20152" lon="55.61843">
        <ele>1999</ele>
        <time>2013-01-20T09:23:09Z</time>
      </trkpt>
      <trkpt lat="-21.20138" lon="55.61833">
        <ele>1995</ele>
        <time>2013-01-20T09:23:19Z</time>
      </trkpt>
      <trkpt lat="-21.20144" lon="55.61823">
        <ele>1991</ele>
        <time>2013-01-20T09:23:29Z</time>
      </trkpt>
      <trkpt lat="-21.20153" lon="55.61813">
        <ele>1990</ele>
        <time>2013-01-20T09:23:40Z</time>
      </trkpt>
      <trkpt lat="-21.20164" lon="55.61801">
        <ele>1991</ele>
        <time>2013-01-20T09:23:50Z</time>
      </trkpt>
      <trkpt lat="-21.20168" lon="55.61788">
        <ele>1990</ele>
        <time>2013-01-20T09:24:00Z</time>
      </trkpt>
      <trkpt lat="-21.20165" lon="55.61772">
        <ele>1991</ele>
        <time>2013-01-20T09:24:10Z</time>
      </trkpt>
      <trkpt lat="-21.20165" lon="55.61752">
        <ele>1987</ele>
        <time>2013-01-20T09:24:20Z</time>
      </trkpt>
      <trkpt lat="-21.20159" lon="55.61736">
        <ele>1985</ele>
        <time>2013-01-20T09:24:30Z</time>
      </trkpt>
      <trkpt lat="-21.20166" lon="55.61723">
        <ele>1981</ele>
        <time>2013-01-20T09:24:40Z</time>
      </trkpt>
      <trkpt lat="-21.20164" lon="55.61708">
        <ele>1982</ele>
        <time>2013-01-20T09:24:50Z</time>
      </trkpt>
      <trkpt lat="-21.20159" lon="55.61695">
        <ele>1984</ele>
        <time>2013-01-20T09:25:00Z</time>
      </trkpt>
      <trkpt lat="-21.2016" lon="55.6168">
        <ele>1984</ele>
        <time>2013-01-20T09:25:10Z</time>
      </trkpt>
      <trkpt lat="-21.20172" lon="55.61673">
        <ele>1985</ele>
        <time>2013-01-20T09:25:20Z</time>
      </trkpt>
      <trkpt lat="-21.20185" lon="55.61671">
        <ele>1987</ele>
        <time>2013-01-20T09:25:30Z</time>
      </trkpt>
      <trkpt lat="-21.20197" lon="55.61668">
        <ele>1988</ele>
        <time>2013-01-20T09:25:40Z</time>
      </trkpt>
      <trkpt lat="-21.20207" lon="55.61661">
        <ele>1989</ele>
        <time>2013-01-20T09:25:50Z</time>
      </trkpt>
      <trkpt lat="-21.20213" lon="55.6166">
        <ele>1991</ele>
        <time>2013-01-20T09:26:00Z</time>
      </trkpt>
      <trkpt lat="-21.20215" lon="55.61668">
        <ele>1994</ele>
        <time>2013-01-20T09:26:10Z</time>
      </trkpt>
      <trkpt lat="-21.20217" lon="55.61676">
        <ele>1995</ele>
        <time>2013-01-20T09:26:20Z</time>
      </trkpt>
      <trkpt lat="-21.2022" lon="55.61681">
        <ele>1999</ele>
        <time>2013-01-20T09:26:31Z</time>
      </trkpt>
      <trkpt lat="-21.20227" lon="55.61675">
        <ele>2000</ele>
        <time>2013-01-20T09:26:41Z</time>
      </trkpt>
      <trkpt lat="-21.2023" lon="55.61663">
        <ele>2001</ele>
        <time>2013-01-20T09:26:51Z</time>
      </trkpt>
      <trkpt lat="-21.20233" lon="55.61649">
        <ele>2001</ele>
        <time>2013-01-20T09:27:01Z</time>
      </trkpt>
      <trkpt lat="-21.20239" lon="55.61639">
        <ele>2003</ele>
        <time>2013-01-20T09:27:11Z</time>
      </trkpt>
      <trkpt lat="-21.20254" lon="55.61639">
        <ele>2003</ele>
        <time>2013-01-20T09:27:21Z</time>
      </trkpt>
      <trkpt lat="-21.20265" lon="55.61641">
        <ele>2002</ele>
        <time>2013-01-20T09:27:31Z</time>
      </trkpt>
      <trkpt lat="-21.2028" lon="55.6163">
        <ele>1999</ele>
        <time>2013-01-20T09:27:41Z</time>
      </trkpt>
      <trkpt lat="-21.20299" lon="55.61621">
        <ele>1997</ele>
        <time>2013-01-20T09:27:51Z</time>
      </trkpt>
      <trkpt lat="-21.20314" lon="55.61611">
        <ele>1997</ele>
        <time>2013-01-20T09:28:01Z</time>
      </trkpt>
      <trkpt lat="-21.20325" lon="55.61597">
        <ele>1995</ele>
        <time>2013-01-20T09:28:11Z</time>
      </trkpt>
      <trkpt lat="-21.20336" lon="55.61582">
        <ele>1994</ele>
        <time>2013-01-20T09:28:21Z</time>
      </trkpt>
      <trkpt lat="-21.20348" lon="55.61576">
        <ele>1993</ele>
        <time>2013-01-20T09:28:31Z</time>
      </trkpt>
      <trkpt lat="-21.20346" lon="55.61563">
        <ele>1991</ele>
        <time>2013-01-20T09:28:41Z</time>
      </trkpt>
      <trkpt lat="-21.20356" lon="55.61551">
        <ele>1987</ele>
        <time>2013-01-20T09:28:51Z</time>
      </trkpt>
      <trkpt lat="-21.20369" lon="55.6155">
        <ele>1984</ele>
        <time>2013-01-20T09:29:01Z</time>
      </trkpt>
      <trkpt lat="-21.20377" lon="55.61543">
        <ele>1986</ele>
        <time>2013-01-20T09:29:11Z</time>
      </trkpt>
      <trkpt lat="-21.20384" lon="55.61529">
        <ele>1987</ele>
        <time>2013-01-20T09:29:21Z</time>
      </trkpt>
      <trkpt lat="-21.20393" lon="55.61517">
        <ele>1985</ele>
        <time>2013-01-20T09:29:32Z</time>
      </trkpt>
      <trkpt lat="-21.20402" lon="55.61507">
        <ele>1982</ele>
        <time>2013-01-20T09:29:42Z</time>
      </trkpt>
      <trkpt lat="-21.20409" lon="55.61494">
        <ele>1979</ele>
        <time>2013-01-20T09:29:52Z</time>
      </trkpt>
      <trkpt lat="-21.20413" lon="55.61478">
        <ele>1975</ele>
        <time>2013-01-20T09:30:02Z</time>
      </trkpt>
      <trkpt lat="-21.2042" lon="55.61462">
        <ele>1973</ele>
        <time>2013-01-20T09:30:12Z</time>
      </trkpt>
      <trkpt lat="-21.20432" lon="55.61451">
        <ele>1971</ele>
        <time>2013-01-20T09:30:22Z</time>
      </trkpt>
      <trkpt lat="-21.20444" lon="55.61445">
        <ele>1968</ele>
        <time>2013-01-20T09:30:32Z</time>
      </trkpt>
      <trkpt lat="-21.20445" lon="55.61428">
        <ele>1968</ele>
        <time>2013-01-20T09:30:42Z</time>
      </trkpt>
      <trkpt lat="-21.20461" lon="55.61414">
        <ele>1965</ele>
        <time>2013-01-20T09:30:52Z</time>
      </trkpt>
      <trkpt lat="-21.20478" lon="55.61402">
        <ele>1964</ele>
        <time>2013-01-20T09:31:02Z</time>
      </trkpt>
      <trkpt lat="-21.2049" lon="55.61386">
        <ele>1962</ele>
        <time>2013-01-20T09:31:12Z</time>
      </trkpt>
      <trkpt lat="-21.205" lon="55.61367">
        <ele>1958</ele>
        <time>2013-01-20T09:31:22Z</time>
      </trkpt>
      <trkpt lat="-21.20501" lon="55.6135">
        <ele>1956</ele>
        <time>2013-01-20T09:31:32Z</time>
      </trkpt>
      <trkpt lat="-21.20503" lon="55.6133">
        <ele>1952</ele>
        <time>2013-01-20T09:31:42Z</time>
      </trkpt>
      <trkpt lat="-21.20491" lon="55.6132">
        <ele>1948</ele>
        <time>2013-01-20T09:31:52Z</time>
      </trkpt>
      <trkpt lat="-21.20486" lon="55.61305">
        <ele>1944</ele>
        <time>2013-01-20T09:32:03Z</time>
      </trkpt>
      <trkpt lat="-21.20475" lon="55.61286">
        <ele>1941</ele>
        <time>2013-01-20T09:32:13Z</time>
      </trkpt>
      <trkpt lat="-21.20473" lon="55.61284">
        <ele>1941</ele>
        <time>2013-01-20T09:32:23Z</time>
      </trkpt>
      <trkpt lat="-21.20472" lon="55.61285">
        <ele>1941</ele>
        <time>2013-01-20T09:32:33Z</time>
      </trkpt>
      <trkpt lat="-21.20472" lon="55.61286">
        <ele>1942</ele>
        <time>2013-01-20T09:32:43Z</time>
      </trkpt>
      <trkpt lat="-21.2047" lon="55.61287">
        <ele>1942</ele>
        <time>2013-01-20T09:32:53Z</time>
      </trkpt>
      <trkpt lat="-21.2047" lon="55.61287">
        <ele>1941</ele>
        <time>2013-01-20T09:33:03Z</time>
      </trkpt>
      <trkpt lat="-21.20469" lon="55.61288">
        <ele>1941</ele>
        <time>2013-01-20T09:33:13Z</time>
      </trkpt>
      <trkpt lat="-21.2047" lon="55.61287">
        <ele>1941</ele>
        <time>2013-01-20T09:33:23Z</time>
      </trkpt>
      <trkpt lat="-21.20469" lon="55.61287">
        <ele>1942</ele>
        <time>2013-01-20T09:33:33Z</time>
      </trkpt>
      <trkpt lat="-21.20463" lon="55.61277">
        <ele>1941</ele>
        <time>2013-01-20T09:33:44Z</time>
      </trkpt>
      <trkpt lat="-21.20449" lon="55.61259">
        <ele>1940</ele>
        <time>2013-01-20T09:33:54Z</time>
      </trkpt>
      <trkpt lat="-21.20437" lon="55.61241">
        <ele>1939</ele>
        <time>2013-01-20T09:34:04Z</time>
      </trkpt>
      <trkpt lat="-21.20428" lon="55.61222">
        <ele>1938</ele>
        <time>2013-01-20T09:34:14Z</time>
      </trkpt>
      <trkpt lat="-21.2042" lon="55.61204">
        <ele>1936</ele>
        <time>2013-01-20T09:34:24Z</time>
      </trkpt>
      <trkpt lat="-21.20413" lon="55.61185">
        <ele>1935</ele>
        <time>2013-01-20T09:34:34Z</time>
      </trkpt>
      <trkpt lat="-21.20399" lon="55.61171">
        <ele>1934</ele>
        <time>2013-01-20T09:34:44Z</time>
      </trkpt>
      <trkpt lat="-21.20386" lon="55.6116">
        <ele>1932</ele>
        <time>2013-01-20T09:34:54Z</time>
      </trkpt>
      <trkpt lat="-21.20372" lon="55.61147">
        <ele>1931</ele>
        <time>2013-01-20T09:35:04Z</time>
      </trkpt>
      <trkpt lat="-21.20358" lon="55.61137">
        <ele>1930</ele>
        <time>2013-01-20T09:35:14Z</time>
      </trkpt>
      <trkpt lat="-21.20347" lon="55.61121">
        <ele>1929</ele>
        <time>2013-01-20T09:35:24Z</time>
      </trkpt>
      <trkpt lat="-21.20337" lon="55.61106">
        <ele>1925</ele>
        <time>2013-01-20T09:35:34Z</time>
      </trkpt>
      <trkpt lat="-21.20321" lon="55.61104">
        <ele>1923</ele>
        <time>2013-01-20T09:35:44Z</time>
      </trkpt>
      <trkpt lat="-21.20307" lon="55.61117">
        <ele>1920</ele>
        <time>2013-01-20T09:35:54Z</time>
      </trkpt>
      <trkpt lat="-21.20292" lon="55.61129">
        <ele>1919</ele>
        <time>2013-01-20T09:36:04Z</time>
      </trkpt>
      <trkpt lat="-21.20284" lon="55.61143">
        <ele>1917</ele>
        <time>2013-01-20T09:36:14Z</time>
      </trkpt>
      <trkpt lat="-21.20291" lon="55.6116">
        <ele>1915</ele>
        <time>2013-01-20T09:36:24Z</time>
      </trkpt>
      <trkpt lat="-21.20295" lon="55.61177">
        <ele>1910</ele>
        <time>2013-01-20T09:36:34Z</time>
      </trkpt>
      <trkpt lat="-21.20292" lon="55.61191">
        <ele>1907</ele>
        <time>2013-01-20T09:36:44Z</time>
      </trkpt>
      <trkpt lat="-21.2028" lon="55.61193">
        <ele>1904</ele>
        <time>2013-01-20T09:36:54Z</time>
      </trkpt>
      <trkpt lat="-21.20267" lon="55.61185">
        <ele>1902</ele>
        <time>2013-01-20T09:37:05Z</time>
      </trkpt>
      <trkpt lat="-21.20254" lon="55.61175">
        <ele>1899</ele>
        <time>2013-01-20T09:37:15Z</time>
      </trkpt>
      <trkpt lat="-21.20242" lon="55.61169">
        <ele>1896</ele>
        <time>2013-01-20T09:37:25Z</time>
      </trkpt>
      <trkpt lat="-21.2023" lon="55.61161">
        <ele>1891</ele>
        <time>2013-01-20T09:37:35Z</time>
      </trkpt>
      <trkpt lat="-21.20214" lon="55.61165">
        <ele>1886</ele>
        <time>2013-01-20T09:37:45Z</time>
      </trkpt>
      <trkpt lat="-21.20202" lon="55.61164">
        <ele>1883</ele>
        <time>2013-01-20T09:37:55Z</time>
      </trkpt>
      <trkpt lat="-21.2019" lon="55.61154">
        <ele>1879</ele>
        <time>2013-01-20T09:38:05Z</time>
      </trkpt>
      <trkpt lat="-21.20175" lon="55.61144">
        <ele>1877</ele>
        <time>2013-01-20T09:38:15Z</time>
      </trkpt>
      <trkpt lat="-21.2016" lon="55.61139">
        <ele>1876</ele>
        <time>2013-01-20T09:38:25Z</time>
      </trkpt>
      <trkpt lat="-21.20149" lon="55.61123">
        <ele>1874</ele>
        <time>2013-01-20T09:38:35Z</time>
      </trkpt>
      <trkpt lat="-21.20139" lon="55.61105">
        <ele>1872</ele>
        <time>2013-01-20T09:38:45Z</time>
      </trkpt>
      <trkpt lat="-21.20124" lon="55.6109">
        <ele>1870</ele>
        <time>2013-01-20T09:38:55Z</time>
      </trkpt>
      <trkpt lat="-21.20109" lon="55.61075">
        <ele>1870</ele>
        <time>2013-01-20T09:39:05Z</time>
      </trkpt>
      <trkpt lat="-21.20096" lon="55.6106">
        <ele>1869</ele>
        <time>2013-01-20T09:39:15Z</time>
      </trkpt>
      <trkpt lat="-21.20083" lon="55.61045">
        <ele>1866</ele>
        <time>2013-01-20T09:39:25Z</time>
      </trkpt>
      <trkpt lat="-21.20074" lon="55.61032">
        <ele>1864</ele>
        <time>2013-01-20T09:39:35Z</time>
      </trkpt>
      <trkpt lat="-21.20063" lon="55.61021">
        <ele>1862</ele>
        <time>2013-01-20T09:39:45Z</time>
      </trkpt>
      <trkpt lat="-21.20058" lon="55.61002">
        <ele>1861</ele>
        <time>2013-01-20T09:39:55Z</time>
      </trkpt>
      <trkpt lat="-21.20054" lon="55.60985">
        <ele>1860</ele>
        <time>2013-01-20T09:40:05Z</time>
      </trkpt>
      <trkpt lat="-21.20051" lon="55.60965">
        <ele>1858</ele>
        <time>2013-01-20T09:40:15Z</time>
      </trkpt>
      <trkpt lat="-21.20044" lon="55.60953">
        <ele>1858</ele>
        <time>2013-01-20T09:40:25Z</time>
      </trkpt>
      <trkpt lat="-21.20038" lon="55.60939">
        <ele>1857</ele>
        <time>2013-01-20T09:40:35Z</time>
      </trkpt>
      <trkpt lat="-21.20037" lon="55.60924">
        <ele>1854</ele>
        <time>2013-01-20T09:40:45Z</time>
      </trkpt>
      <trkpt lat="-21.20027" lon="55.6091">
        <ele>1853</ele>
        <time>2013-01-20T09:40:55Z</time>
      </trkpt>
      <trkpt lat="-21.20017" lon="55.60895">
        <ele>1851</ele>
        <time>2013-01-20T09:41:05Z</time>
      </trkpt>
      <trkpt lat="-21.20018" lon="55.60876">
        <ele>1850</ele>
        <time>2013-01-20T09:41:16Z</time>
      </trkpt>
      <trkpt lat="-21.20023" lon="55.60858">
        <ele>1850</ele>
        <time>2013-01-20T09:41:26Z</time>
      </trkpt>
      <trkpt lat="-21.20026" lon="55.60841">
        <ele>1848</ele>
        <time>2013-01-20T09:41:36Z</time>
      </trkpt>
      <trkpt lat="-21.20033" lon="55.60821">
        <ele>1846</ele>
        <time>2013-01-20T09:41:46Z</time>
      </trkpt>
      <trkpt lat="-21.20041" lon="55.60806">
        <ele>1844</ele>
        <time>2013-01-20T09:41:56Z</time>
      </trkpt>
      <trkpt lat="-21.20051" lon="55.6079">
        <ele>1843</ele>
        <time>2013-01-20T09:42:06Z</time>
      </trkpt>
      <trkpt lat="-21.2006" lon="55.60775">
        <ele>1842</ele>
        <time>2013-01-20T09:42:16Z</time>
      </trkpt>
      <trkpt lat="-21.20062" lon="55.60759">
        <ele>1841</ele>
        <time>2013-01-20T09:42:26Z</time>
      </trkpt>
      <trkpt lat="-21.2006" lon="55.60742">
        <ele>1840</ele>
        <time>2013-01-20T09:42:36Z</time>
      </trkpt>
      <trkpt lat="-21.20053" lon="55.60718">
        <ele>1839</ele>
        <time>2013-01-20T09:42:46Z</time>
      </trkpt>
      <trkpt lat="-21.20044" lon="55.60698">
        <ele>1838</ele>
        <time>2013-01-20T09:42:56Z</time>
      </trkpt>
      <trkpt lat="-21.20026" lon="55.60692">
        <ele>1838</ele>
        <time>2013-01-20T09:43:06Z</time>
      </trkpt>
      <trkpt lat="-21.20006" lon="55.60697">
        <ele>1838</ele>
        <time>2013-01-20T09:43:16Z</time>
      </trkpt>
      <trkpt lat="-21.19987" lon="55.60699">
        <ele>1838</ele>
        <time>2013-01-20T09:43:26Z</time>
      </trkpt>
      <trkpt lat="-21.19971" lon="55.60694">
        <ele>1836</ele>
        <time>2013-01-20T09:43:36Z</time>
      </trkpt>
      <trkpt lat="-21.19953" lon="55.60691">
        <ele>1835</ele>
        <time>2013-01-20T09:43:46Z</time>
      </trkpt>
      <trkpt lat="-21.19938" lon="55.60689">
        <ele>1834</ele>
        <time>2013-01-20T09:43:56Z</time>
      </trkpt>
      <trkpt lat="-21.19923" lon="55.6068">
        <ele>1833</ele>
        <time>2013-01-20T09:44:06Z</time>
      </trkpt>
      <trkpt lat="-21.19909" lon="55.60667">
        <ele>1832</ele>
        <time>2013-01-20T09:44:16Z</time>
      </trkpt>
      <trkpt lat="-21.19897" lon="55.60654">
        <ele>1830</ele>
        <time>2013-01-20T09:44:26Z</time>
      </trkpt>
      <trkpt lat="-21.19884" lon="55.60648">
        <ele>1828</ele>
        <time>2013-01-20T09:44:36Z</time>
      </trkpt>
      <trkpt lat="-21.19866" lon="55.60645">
        <ele>1826</ele>
        <time>2013-01-20T09:44:46Z</time>
      </trkpt>
      <trkpt lat="-21.19844" lon="55.60645">
        <ele>1825</ele>
        <time>2013-01-20T09:44:57Z</time>
      </trkpt>
      <trkpt lat="-21.19827" lon="55.60645">
        <ele>1824</ele>
        <time>2013-01-20T09:45:07Z</time>
      </trkpt>
      <trkpt lat="-21.19811" lon="55.60644">
        <ele>1823</ele>
        <time>2013-01-20T09:45:17Z</time>
      </trkpt>
      <trkpt lat="-21.19794" lon="55.60643">
        <ele>1823</ele>
        <time>2013-01-20T09:45:27Z</time>
      </trkpt>
      <trkpt lat="-21.19778" lon="55.60643">
        <ele>1822</ele>
        <time>2013-01-20T09:45:37Z</time>
      </trkpt>
      <trkpt lat="-21.19764" lon="55.60642">
        <ele>1822</ele>
        <time>2013-01-20T09:45:47Z</time>
      </trkpt>
      <trkpt lat="-21.1975" lon="55.60638">
        <ele>1821</ele>
        <time>2013-01-20T09:45:57Z</time>
      </trkpt>
      <trkpt lat="-21.19742" lon="55.60636">
        <ele>1821</ele>
        <time>2013-01-20T09:46:07Z</time>
      </trkpt>
      <trkpt lat="-21.19739" lon="55.60635">
        <ele>1821</ele>
        <time>2013-01-20T09:46:17Z</time>
      </trkpt>
      <trkpt lat="-21.19737" lon="55.60634">
        <ele>1821</ele>
        <time>2013-01-20T09:46:27Z</time>
      </trkpt>
      <trkpt lat="-21.19737" lon="55.60633">
        <ele>1821</ele>
        <time>2013-01-20T09:46:37Z</time>
      </trkpt>
      <trkpt lat="-21.19736" lon="55.60632">
        <ele>1820</ele>
        <time>2013-01-20T09:46:47Z</time>
      </trkpt>
      <trkpt lat="-21.19728" lon="55.60626">
        <ele>1820</ele>
        <time>2013-01-20T09:46:57Z</time>
      </trkpt>
      <trkpt lat="-21.19716" lon="55.60617">
        <ele>1819</ele>
        <time>2013-01-20T09:47:07Z</time>
      </trkpt>
      <trkpt lat="-21.19707" lon="55.60608">
        <ele>1818</ele>
        <time>2013-01-20T09:47:17Z</time>
      </trkpt>
      <trkpt lat="-21.19695" lon="55.60601">
        <ele>1815</ele>
        <time>2013-01-20T09:47:28Z</time>
      </trkpt>
      <trkpt lat="-21.19689" lon="55.60598">
        <ele>1815</ele>
        <time>2013-01-20T09:47:38Z</time>
      </trkpt>
      <trkpt lat="-21.19678" lon="55.60586">
        <ele>1814</ele>
        <time>2013-01-20T09:47:48Z</time>
      </trkpt>
      <trkpt lat="-21.19662" lon="55.60575">
        <ele>1812</ele>
        <time>2013-01-20T09:47:58Z</time>
      </trkpt>
      <trkpt lat="-21.19646" lon="55.60568">
        <ele>1809</ele>
        <time>2013-01-20T09:48:08Z</time>
      </trkpt>
      <trkpt lat="-21.19633" lon="55.60558">
        <ele>1808</ele>
        <time>2013-01-20T09:48:18Z</time>
      </trkpt>
      <trkpt lat="-21.1962" lon="55.6055">
        <ele>1806</ele>
        <time>2013-01-20T09:48:28Z</time>
      </trkpt>
      <trkpt lat="-21.19604" lon="55.60539">
        <ele>1804</ele>
        <time>2013-01-20T09:48:38Z</time>
      </trkpt>
      <trkpt lat="-21.19591" lon="55.60524">
        <ele>1803</ele>
        <time>2013-01-20T09:48:48Z</time>
      </trkpt>
      <trkpt lat="-21.19578" lon="55.60507">
        <ele>1803</ele>
        <time>2013-01-20T09:48:58Z</time>
      </trkpt>
      <trkpt lat="-21.19568" lon="55.60491">
        <ele>1801</ele>
        <time>2013-01-20T09:49:08Z</time>
      </trkpt>
      <trkpt lat="-21.19558" lon="55.60476">
        <ele>1799</ele>
        <time>2013-01-20T09:49:18Z</time>
      </trkpt>
      <trkpt lat="-21.1955" lon="55.60458">
        <ele>1797</ele>
        <time>2013-01-20T09:49:28Z</time>
      </trkpt>
      <trkpt lat="-21.19542" lon="55.60437">
        <ele>1797</ele>
        <time>2013-01-20T09:49:38Z</time>
      </trkpt>
      <trkpt lat="-21.19532" lon="55.60423">
        <ele>1795</ele>
        <time>2013-01-20T09:49:48Z</time>
      </trkpt>
      <trkpt lat="-21.19523" lon="55.60412">
        <ele>1793</ele>
        <time>2013-01-20T09:49:58Z</time>
      </trkpt>
      <trkpt lat="-21.19512" lon="55.60399">
        <ele>1792</ele>
        <time>2013-01-20T09:50:08Z</time>
      </trkpt>
      <trkpt lat="-21.19507" lon="55.60387">
        <ele>1788</ele>
        <time>2013-01-20T09:50:18Z</time>
      </trkpt>
      <trkpt lat="-21.19511" lon="55.60369">
        <ele>1787</ele>
        <time>2013-01-20T09:50:28Z</time>
      </trkpt>
      <trkpt lat="-21.19517" lon="55.60359">
        <ele>1786</ele>
        <time>2013-01-20T09:50:38Z</time>
      </trkpt>
      <trkpt lat="-21.19517" lon="55.6035">
        <ele>1784</ele>
        <time>2013-01-20T09:50:49Z</time>
      </trkpt>
      <trkpt lat="-21.19511" lon="55.60344">
        <ele>1781</ele>
        <time>2013-01-20T09:50:59Z</time>
      </trkpt>
      <trkpt lat="-21.19502" lon="55.6034">
        <ele>1779</ele>
        <time>2013-01-20T09:51:09Z</time>
      </trkpt>
      <trkpt lat="-21.19491" lon="55.60336">
        <ele>1777</ele>
        <time>2013-01-20T09:51:19Z</time>
      </trkpt>
      <trkpt lat="-21.19482" lon="55.60323">
        <ele>1776</ele>
        <time>2013-01-20T09:51:29Z</time>
      </trkpt>
      <trkpt lat="-21.19485" lon="55.60318">
        <ele>1773</ele>
        <time>2013-01-20T09:51:39Z</time>
      </trkpt>
      <trkpt lat="-21.1949" lon="55.6031">
        <ele>1772</ele>
        <time>2013-01-20T09:51:49Z</time>
      </trkpt>
      <trkpt lat="-21.19496" lon="55.60302">
        <ele>1770</ele>
        <time>2013-01-20T09:51:59Z</time>
      </trkpt>
      <trkpt lat="-21.195" lon="55.60294">
        <ele>1767</ele>
        <time>2013-01-20T09:52:09Z</time>
      </trkpt>
      <trkpt lat="-21.19499" lon="55.60284">
        <ele>1765</ele>
        <time>2013-01-20T09:52:19Z</time>
      </trkpt>
      <trkpt lat="-21.19498" lon="55.6027">
        <ele>1764</ele>
        <time>2013-01-20T09:52:29Z</time>
      </trkpt>
      <trkpt lat="-21.195" lon="55.60258">
        <ele>1761</ele>
        <time>2013-01-20T09:52:39Z</time>
      </trkpt>
      <trkpt lat="-21.19503" lon="55.6025">
        <ele>1759</ele>
        <time>2013-01-20T09:52:49Z</time>
      </trkpt>
      <trkpt lat="-21.19506" lon="55.60239">
        <ele>1758</ele>
        <time>2013-01-20T09:52:59Z</time>
      </trkpt>
      <trkpt lat="-21.19511" lon="55.60229">
        <ele>1756</ele>
        <time>2013-01-20T09:53:09Z</time>
      </trkpt>
      <trkpt lat="-21.19519" lon="55.60218">
        <ele>1755</ele>
        <time>2013-01-20T09:53:19Z</time>
      </trkpt>
      <trkpt lat="-21.19525" lon="55.60205">
        <ele>1754</ele>
        <time>2013-01-20T09:53:29Z</time>
      </trkpt>
      <trkpt lat="-21.1953" lon="55.60186">
        <ele>1753</ele>
        <time>2013-01-20T09:53:39Z</time>
      </trkpt>
      <trkpt lat="-21.19539" lon="55.60164">
        <ele>1753</ele>
        <time>2013-01-20T09:53:49Z</time>
      </trkpt>
      <trkpt lat="-21.19545" lon="55.60148">
        <ele>1751</ele>
        <time>2013-01-20T09:53:59Z</time>
      </trkpt>
      <trkpt lat="-21.19561" lon="55.60141">
        <ele>1750</ele>
        <time>2013-01-20T09:54:10Z</time>
      </trkpt>
      <trkpt lat="-21.19577" lon="55.6014">
        <ele>1749</ele>
        <time>2013-01-20T09:54:20Z</time>
      </trkpt>
      <trkpt lat="-21.19594" lon="55.6014">
        <ele>1748</ele>
        <time>2013-01-20T09:54:30Z</time>
      </trkpt>
      <trkpt lat="-21.19609" lon="55.60141">
        <ele>1748</ele>
        <time>2013-01-20T09:54:40Z</time>
      </trkpt>
      <trkpt lat="-21.19621" lon="55.60145">
        <ele>1749</ele>
        <time>2013-01-20T09:54:50Z</time>
      </trkpt>
      <trkpt lat="-21.19632" lon="55.60145">
        <ele>1750</ele>
        <time>2013-01-20T09:55:00Z</time>
      </trkpt>
      <trkpt lat="-21.1964" lon="55.60146">
        <ele>1753</ele>
        <time>2013-01-20T09:55:10Z</time>
      </trkpt>
      <trkpt lat="-21.19648" lon="55.60147">
        <ele>1755</ele>
        <time>2013-01-20T09:55:20Z</time>
      </trkpt>
      <trkpt lat="-21.19655" lon="55.6015">
        <ele>1757</ele>
        <time>2013-01-20T09:55:30Z</time>
      </trkpt>
      <trkpt lat="-21.19668" lon="55.60151">
        <ele>1758</ele>
        <time>2013-01-20T09:55:40Z</time>
      </trkpt>
      <trkpt lat="-21.1968" lon="55.60153">
        <ele>1760</ele>
        <time>2013-01-20T09:55:50Z</time>
      </trkpt>
      <trkpt lat="-21.1969" lon="55.60157">
        <ele>1759</ele>
        <time>2013-01-20T09:56:00Z</time>
      </trkpt>
      <trkpt lat="-21.19698" lon="55.60158">
        <ele>1760</ele>
        <time>2013-01-20T09:56:10Z</time>
      </trkpt>
      <trkpt lat="-21.1971" lon="55.60162">
        <ele>1762</ele>
        <time>2013-01-20T09:56:20Z</time>
      </trkpt>
      <trkpt lat="-21.19722" lon="55.60164">
        <ele>1762</ele>
        <time>2013-01-20T09:56:30Z</time>
      </trkpt>
      <trkpt lat="-21.19733" lon="55.60166">
        <ele>1765</ele>
        <time>2013-01-20T09:56:40Z</time>
      </trkpt>
      <trkpt lat="-21.19747" lon="55.60169">
        <ele>1766</ele>
        <time>2013-01-20T09:56:50Z</time>
      </trkpt>
      <trkpt lat="-21.1976" lon="55.60173">
        <ele>1766</ele>
        <time>2013-01-20T09:57:01Z</time>
      </trkpt>
      <trkpt lat="-21.1977" lon="55.60177">
        <ele>1767</ele>
        <time>2013-01-20T09:57:11Z</time>
      </trkpt>
      <trkpt lat="-21.19783" lon="55.60183">
        <ele>1767</ele>
        <time>2013-01-20T09:57:21Z</time>
      </trkpt>
      <trkpt lat="-21.19795" lon="55.60186">
        <ele>1769</ele>
        <time>2013-01-20T09:57:31Z</time>
      </trkpt>
      <trkpt lat="-21.19809" lon="55.60189">
        <ele>1769</ele>
        <time>2013-01-20T09:57:41Z</time>
      </trkpt>
      <trkpt lat="-21.19819" lon="55.60194">
        <ele>1768</ele>
        <time>2013-01-20T09:57:51Z</time>
      </trkpt>
      <trkpt lat="-21.19832" lon="55.60192">
        <ele>1765</ele>
        <time>2013-01-20T09:58:01Z</time>
      </trkpt>
      <trkpt lat="-21.19846" lon="55.60192">
        <ele>1767</ele>
        <time>2013-01-20T09:58:11Z</time>
      </trkpt>
      <trkpt lat="-21.19858" lon="55.60192">
        <ele>1766</ele>
        <time>2013-01-20T09:58:21Z</time>
      </trkpt>
      <trkpt lat="-21.19874" lon="55.60198">
        <ele>1764</ele>
        <time>2013-01-20T09:58:31Z</time>
      </trkpt>
      <trkpt lat="-21.19886" lon="55.60202">
        <ele>1763</ele>
        <time>2013-01-20T09:58:41Z</time>
      </trkpt>
      <trkpt lat="-21.19897" lon="55.6019">
        <ele>1764</ele>
        <time>2013-01-20T09:58:51Z</time>
      </trkpt>
      <trkpt lat="-21.199" lon="55.60171">
        <ele>1762</ele>
        <time>2013-01-20T09:59:01Z</time>
      </trkpt>
      <trkpt lat="-21.19909" lon="55.60157">
        <ele>1761</ele>
        <time>2013-01-20T09:59:11Z</time>
      </trkpt>
      <trkpt lat="-21.19917" lon="55.60138">
        <ele>1759</ele>
        <time>2013-01-20T09:59:21Z</time>
      </trkpt>
      <trkpt lat="-21.19924" lon="55.60116">
        <ele>1756</ele>
        <time>2013-01-20T09:59:31Z</time>
      </trkpt>
      <trkpt lat="-21.19929" lon="55.60095">
        <ele>1754</ele>
        <time>2013-01-20T09:59:41Z</time>
      </trkpt>
      <trkpt lat="-21.19934" lon="55.60078">
        <ele>1751</ele>
        <time>2013-01-20T09:59:51Z</time>
      </trkpt>
      <trkpt lat="-21.19938" lon="55.60053">
        <ele>1750</ele>
        <time>2013-01-20T10:00:01Z</time>
      </trkpt>
      <trkpt lat="-21.19943" lon="55.60028">
        <ele>1749</ele>
        <time>2013-01-20T10:00:11Z</time>
      </trkpt>
      <trkpt lat="-21.19947" lon="55.60006">
        <ele>1748</ele>
        <time>2013-01-20T10:00:21Z</time>
      </trkpt>
      <trkpt lat="-21.1995" lon="55.59988">
        <ele>1749</ele>
        <time>2013-01-20T10:00:31Z</time>
      </trkpt>
      <trkpt lat="-21.19954" lon="55.59967">
        <ele>1747</ele>
        <time>2013-01-20T10:00:41Z</time>
      </trkpt>
      <trkpt lat="-21.19957" lon="55.59949">
        <ele>1746</ele>
        <time>2013-01-20T10:00:51Z</time>
      </trkpt>
      <trkpt lat="-21.1996" lon="55.59935">
        <ele>1747</ele>
        <time>2013-01-20T10:01:02Z</time>
      </trkpt>
      <trkpt lat="-21.19961" lon="55.59921">
        <ele>1747</ele>
        <time>2013-01-20T10:01:12Z</time>
      </trkpt>
      <trkpt lat="-21.19962" lon="55.59909">
        <ele>1748</ele>
        <time>2013-01-20T10:01:22Z</time>
      </trkpt>
      <trkpt lat="-21.19963" lon="55.59895">
        <ele>1749</ele>
        <time>2013-01-20T10:01:32Z</time>
      </trkpt>
      <trkpt lat="-21.19965" lon="55.59885">
        <ele>1751</ele>
        <time>2013-01-20T10:01:42Z</time>
      </trkpt>
      <trkpt lat="-21.19967" lon="55.59873">
        <ele>1751</ele>
        <time>2013-01-20T10:01:52Z</time>
      </trkpt>
      <trkpt lat="-21.19971" lon="55.59855">
        <ele>1748</ele>
        <time>2013-01-20T10:02:02Z</time>
      </trkpt>
      <trkpt lat="-21.19973" lon="55.59836">
        <ele>1746</ele>
        <time>2013-01-20T10:02:12Z</time>
      </trkpt>
      <trkpt lat="-21.19975" lon="55.5982">
        <ele>1744</ele>
        <time>2013-01-20T10:02:22Z</time>
      </trkpt>
      <trkpt lat="-21.19977" lon="55.59805">
        <ele>1741</ele>
        <time>2013-01-20T10:02:32Z</time>
      </trkpt>
      <trkpt lat="-21.19979" lon="55.59793">
        <ele>1737</ele>
        <time>2013-01-20T10:02:42Z</time>
      </trkpt>
      <trkpt lat="-21.19982" lon="55.59781">
        <ele>1733</ele>
        <time>2013-01-20T10:02:52Z</time>
      </trkpt>
      <trkpt lat="-21.19983" lon="55.59769">
        <ele>1728</ele>
        <time>2013-01-20T10:03:02Z</time>
      </trkpt>
      <trkpt lat="-21.19986" lon="55.5976">
        <ele>1725</ele>
        <time>2013-01-20T10:03:12Z</time>
      </trkpt>
      <trkpt lat="-21.1999" lon="55.5974">
        <ele>1720</ele>
        <time>2013-01-20T10:03:22Z</time>
      </trkpt>
      <trkpt lat="-21.19993" lon="55.59719">
        <ele>1717</ele>
        <time>2013-01-20T10:03:33Z</time>
      </trkpt>
      <trkpt lat="-21.19996" lon="55.59709">
        <ele>1716</ele>
        <time>2013-01-20T10:03:43Z</time>
      </trkpt>
      <trkpt lat="-21.2" lon="55.59693">
        <ele>1713</ele>
        <time>2013-01-20T10:03:53Z</time>
      </trkpt>
      <trkpt lat="-21.20003" lon="55.59678">
        <ele>1710</ele>
        <time>2013-01-20T10:04:03Z</time>
      </trkpt>
      <trkpt lat="-21.20006" lon="55.59658">
        <ele>1706</ele>
        <time>2013-01-20T10:04:13Z</time>
      </trkpt>
      <trkpt lat="-21.20008" lon="55.59641">
        <ele>1703</ele>
        <time>2013-01-20T10:04:23Z</time>
      </trkpt>
      <trkpt lat="-21.20012" lon="55.59615">
        <ele>1700</ele>
        <time>2013-01-20T10:04:33Z</time>
      </trkpt>
      <trkpt lat="-21.20016" lon="55.59593">
        <ele>1696</ele>
        <time>2013-01-20T10:04:43Z</time>
      </trkpt>
      <trkpt lat="-21.20018" lon="55.59577">
        <ele>1694</ele>
        <time>2013-01-20T10:04:53Z</time>
      </trkpt>
      <trkpt lat="-21.2002" lon="55.59558">
        <ele>1692</ele>
        <time>2013-01-20T10:05:03Z</time>
      </trkpt>
      <trkpt lat="-21.20023" lon="55.59542">
        <ele>1690</ele>
        <time>2013-01-20T10:05:13Z</time>
      </trkpt>
      <trkpt lat="-21.20011" lon="55.59536">
        <ele>1691</ele>
        <time>2013-01-20T10:05:23Z</time>
      </trkpt>
      <trkpt lat="-21.19996" lon="55.59534">
        <ele>1692</ele>
        <time>2013-01-20T10:05:33Z</time>
      </trkpt>
      <trkpt lat="-21.19983" lon="55.59533">
        <ele>1693</ele>
        <time>2013-01-20T10:05:44Z</time>
      </trkpt>
      <trkpt lat="-21.19972" lon="55.5953">
        <ele>1694</ele>
        <time>2013-01-20T10:05:54Z</time>
      </trkpt>
      <trkpt lat="-21.1997" lon="55.59514">
        <ele>1695</ele>
        <time>2013-01-20T10:06:04Z</time>
      </trkpt>
      <trkpt lat="-21.19971" lon="55.59499">
        <ele>1696</ele>
        <time>2013-01-20T10:06:14Z</time>
      </trkpt>
      <trkpt lat="-21.19971" lon="55.59483">
        <ele>1696</ele>
        <time>2013-01-20T10:06:24Z</time>
      </trkpt>
      <trkpt lat="-21.19971" lon="55.59467">
        <ele>1695</ele>
        <time>2013-01-20T10:06:34Z</time>
      </trkpt>
      <trkpt lat="-21.19971" lon="55.59449">
        <ele>1694</ele>
        <time>2013-01-20T10:06:44Z</time>
      </trkpt>
      <trkpt lat="-21.19974" lon="55.59426">
        <ele>1692</ele>
        <time>2013-01-20T10:06:54Z</time>
      </trkpt>
      <trkpt lat="-21.19975" lon="55.59404">
        <ele>1691</ele>
        <time>2013-01-20T10:07:04Z</time>
      </trkpt>
      <trkpt lat="-21.19975" lon="55.59383">
        <ele>1689</ele>
        <time>2013-01-20T10:07:14Z</time>
      </trkpt>
      <trkpt lat="-21.19978" lon="55.59361">
        <ele>1686</ele>
        <time>2013-01-20T10:07:24Z</time>
      </trkpt>
      <trkpt lat="-21.19979" lon="55.59336">
        <ele>1683</ele>
        <time>2013-01-20T10:07:34Z</time>
      </trkpt>
      <trkpt lat="-21.19982" lon="55.59309">
        <ele>1680</ele>
        <time>2013-01-20T10:07:44Z</time>
      </trkpt>
      <trkpt lat="-21.19983" lon="55.59287">
        <ele>1677</ele>
        <time>2013-01-20T10:07:54Z</time>
      </trkpt>
      <trkpt lat="-21.19985" lon="55.59265">
        <ele>1675</ele>
        <time>2013-01-20T10:08:04Z</time>
      </trkpt>
      <trkpt lat="-21.19987" lon="55.59242">
        <ele>1672</ele>
        <time>2013-01-20T10:08:14Z</time>
      </trkpt>
      <trkpt lat="-21.19989" lon="55.59216">
        <ele>1670</ele>
        <time>2013-01-20T10:08:24Z</time>
      </trkpt>
      <trkpt lat="-21.19991" lon="55.59189">
        <ele>1668</ele>
        <time>2013-01-20T10:08:35Z</time>
      </trkpt>
      <trkpt lat="-21.19993" lon="55.59167">
        <ele>1666</ele>
        <time>2013-01-20T10:08:45Z</time>
      </trkpt>
      <trkpt lat="-21.1999" lon="55.5915">
        <ele>1667</ele>
        <time>2013-01-20T10:08:55Z</time>
      </trkpt>
      <trkpt lat="-21.19989" lon="55.59133">
        <ele>1668</ele>
        <time>2013-01-20T10:09:05Z</time>
      </trkpt>
      <trkpt lat="-21.1999" lon="55.59116">
        <ele>1667</ele>
        <time>2013-01-20T10:09:15Z</time>
      </trkpt>
      <trkpt lat="-21.19992" lon="55.59099">
        <ele>1667</ele>
        <time>2013-01-20T10:09:25Z</time>
      </trkpt>
      <trkpt lat="-21.19993" lon="55.59083">
        <ele>1667</ele>
        <time>2013-01-20T10:09:35Z</time>
      </trkpt>
      <trkpt lat="-21.19993" lon="55.59066">
        <ele>1667</ele>
        <time>2013-01-20T10:09:45Z</time>
      </trkpt>
      <trkpt lat="-21.19986" lon="55.59052">
        <ele>1666</ele>
        <time>2013-01-20T10:09:55Z</time>
      </trkpt>
      <trkpt lat="-21.19974" lon="55.5904">
        <ele>1666</ele>
        <time>2013-01-20T10:10:05Z</time>
      </trkpt>
      <trkpt lat="-21.19959" lon="55.59031">
        <ele>1665</ele>
        <time>2013-01-20T10:10:15Z</time>
      </trkpt>
      <trkpt lat="-21.19945" lon="55.59024">
        <ele>1665</ele>
        <time>2013-01-20T10:10:25Z</time>
      </trkpt>
      <trkpt lat="-21.1993" lon="55.59013">
        <ele>1664</ele>
        <time>2013-01-20T10:10:35Z</time>
      </trkpt>
      <trkpt lat="-21.19921" lon="55.58999">
        <ele>1664</ele>
        <time>2013-01-20T10:10:45Z</time>
      </trkpt>
      <trkpt lat="-21.19917" lon="55.58982">
        <ele>1663</ele>
        <time>2013-01-20T10:10:56Z</time>
      </trkpt>
      <trkpt lat="-21.19908" lon="55.58968">
        <ele>1662</ele>
        <time>2013-01-20T10:11:06Z</time>
      </trkpt>
      <trkpt lat="-21.19906" lon="55.58951">
        <ele>1663</ele>
        <time>2013-01-20T10:11:16Z</time>
      </trkpt>
      <trkpt lat="-21.19908" lon="55.58934">
        <ele>1664</ele>
        <time>2013-01-20T10:11:26Z</time>
      </trkpt>
      <trkpt lat="-21.19908" lon="55.58917">
        <ele>1665</ele>
        <time>2013-01-20T10:11:36Z</time>
      </trkpt>
      <trkpt lat="-21.19905" lon="55.58902">
        <ele>1667</ele>
        <time>2013-01-20T10:11:46Z</time>
      </trkpt>
      <trkpt lat="-21.19903" lon="55.58884">
        <ele>1667</ele>
        <time>2013-01-20T10:11:56Z</time>
      </trkpt>
      <trkpt lat="-21.1989" lon="55.58878">
        <ele>1665</ele>
        <time>2013-01-20T10:12:06Z</time>
      </trkpt>
      <trkpt lat="-21.19873" lon="55.58877">
        <ele>1661</ele>
        <time>2013-01-20T10:12:16Z</time>
      </trkpt>
      <trkpt lat="-21.19866" lon="55.58863">
        <ele>1659</ele>
        <time>2013-01-20T10:12:26Z</time>
      </trkpt>
      <trkpt lat="-21.1987" lon="55.58845">
        <ele>1658</ele>
        <time>2013-01-20T10:12:36Z</time>
      </trkpt>
      <trkpt lat="-21.19863" lon="55.58834">
        <ele>1655</ele>
        <time>2013-01-20T10:12:46Z</time>
      </trkpt>
      <trkpt lat="-21.19855" lon="55.58823">
        <ele>1653</ele>
        <time>2013-01-20T10:12:56Z</time>
      </trkpt>
      <trkpt lat="-21.19853" lon="55.58809">
        <ele>1653</ele>
        <time>2013-01-20T10:13:06Z</time>
      </trkpt>
      <trkpt lat="-21.19845" lon="55.58795">
        <ele>1652</ele>
        <time>2013-01-20T10:13:16Z</time>
      </trkpt>
      <trkpt lat="-21.1983" lon="55.58786">
        <ele>1652</ele>
        <time>2013-01-20T10:13:26Z</time>
      </trkpt>
      <trkpt lat="-21.19821" lon="55.58764">
        <ele>1652</ele>
        <time>2013-01-20T10:13:37Z</time>
      </trkpt>
      <trkpt lat="-21.19815" lon="55.58747">
        <ele>1652</ele>
        <time>2013-01-20T10:13:47Z</time>
      </trkpt>
      <trkpt lat="-21.19816" lon="55.58728">
        <ele>1650</ele>
        <time>2013-01-20T10:13:57Z</time>
      </trkpt>
      <trkpt lat="-21.1982" lon="55.58711">
        <ele>1650</ele>
        <time>2013-01-20T10:14:07Z</time>
      </trkpt>
      <trkpt lat="-21.1982" lon="55.58695">
        <ele>1650</ele>
        <time>2013-01-20T10:14:17Z</time>
      </trkpt>
      <trkpt lat="-21.19817" lon="55.58675">
        <ele>1650</ele>
        <time>2013-01-20T10:14:27Z</time>
      </trkpt>
      <trkpt lat="-21.19812" lon="55.58663">
        <ele>1646</ele>
        <time>2013-01-20T10:14:37Z</time>
      </trkpt>
      <trkpt lat="-21.19807" lon="55.58652">
        <ele>1642</ele>
        <time>2013-01-20T10:14:47Z</time>
      </trkpt>
      <trkpt lat="-21.19796" lon="55.58631">
        <ele>1639</ele>
        <time>2013-01-20T10:14:57Z</time>
      </trkpt>
      <trkpt lat="-21.19784" lon="55.58621">
        <ele>1640</ele>
        <time>2013-01-20T10:15:07Z</time>
      </trkpt>
      <trkpt lat="-21.19771" lon="55.58612">
        <ele>1639</ele>
        <time>2013-01-20T10:15:17Z</time>
      </trkpt>
      <trkpt lat="-21.19755" lon="55.58601">
        <ele>1636</ele>
        <time>2013-01-20T10:15:28Z</time>
      </trkpt>
      <trkpt lat="-21.19739" lon="55.58588">
        <ele>1635</ele>
        <time>2013-01-20T10:15:38Z</time>
      </trkpt>
      <trkpt lat="-21.19725" lon="55.58569">
        <ele>1635</ele>
        <time>2013-01-20T10:15:48Z</time>
      </trkpt>
      <trkpt lat="-21.19724" lon="55.58553">
        <ele>1636</ele>
        <time>2013-01-20T10:15:58Z</time>
      </trkpt>
      <trkpt lat="-21.19724" lon="55.58538">
        <ele>1637</ele>
        <time>2013-01-20T10:16:08Z</time>
      </trkpt>
      <trkpt lat="-21.19728" lon="55.58525">
        <ele>1638</ele>
        <time>2013-01-20T10:16:18Z</time>
      </trkpt>
      <trkpt lat="-21.19719" lon="55.58513">
        <ele>1638</ele>
        <time>2013-01-20T10:16:28Z</time>
      </trkpt>
      <trkpt lat="-21.19713" lon="55.58496">
        <ele>1637</ele>
        <time>2013-01-20T10:16:38Z</time>
      </trkpt>
      <trkpt lat="-21.19706" lon="55.58484">
        <ele>1636</ele>
        <time>2013-01-20T10:16:48Z</time>
      </trkpt>
      <trkpt lat="-21.19693" lon="55.58479">
        <ele>1637</ele>
        <time>2013-01-20T10:16:58Z</time>
      </trkpt>
      <trkpt lat="-21.1968" lon="55.58469">
        <ele>1637</ele>
        <time>2013-01-20T10:17:08Z</time>
      </trkpt>
      <trkpt lat="-21.19681" lon="55.58455">
        <ele>1636</ele>
        <time>2013-01-20T10:17:18Z</time>
      </trkpt>
      <trkpt lat="-21.19682" lon="55.5844">
        <ele>1637</ele>
        <time>2013-01-20T10:17:29Z</time>
      </trkpt>
      <trkpt lat="-21.19677" lon="55.58432">
        <ele>1635</ele>
        <time>2013-01-20T10:17:39Z</time>
      </trkpt>
      <trkpt lat="-21.19663" lon="55.58426">
        <ele>1634</ele>
        <time>2013-01-20T10:17:49Z</time>
      </trkpt>
      <trkpt lat="-21.19645" lon="55.5843">
        <ele>1631</ele>
        <time>2013-01-20T10:17:59Z</time>
      </trkpt>
      <trkpt lat="-21.19629" lon="55.58423">
        <ele>1628</ele>
        <time>2013-01-20T10:18:09Z</time>
      </trkpt>
      <trkpt lat="-21.19614" lon="55.58412">
        <ele>1628</ele>
        <time>2013-01-20T10:18:19Z</time>
      </trkpt>
      <trkpt lat="-21.19596" lon="55.58403">
        <ele>1629</ele>
        <time>2013-01-20T10:18:29Z</time>
      </trkpt>
      <trkpt lat="-21.19581" lon="55.58399">
        <ele>1630</ele>
        <time>2013-01-20T10:18:39Z</time>
      </trkpt>
      <trkpt lat="-21.19569" lon="55.58395">
        <ele>1629</ele>
        <time>2013-01-20T10:18:49Z</time>
      </trkpt>
      <trkpt lat="-21.1956" lon="55.58378">
        <ele>1626</ele>
        <time>2013-01-20T10:18:59Z</time>
      </trkpt>
      <trkpt lat="-21.19555" lon="55.58364">
        <ele>1625</ele>
        <time>2013-01-20T10:19:09Z</time>
      </trkpt>
      <trkpt lat="-21.19546" lon="55.5835">
        <ele>1624</ele>
        <time>2013-01-20T10:19:19Z</time>
      </trkpt>
      <trkpt lat="-21.19534" lon="55.58341">
        <ele>1623</ele>
        <time>2013-01-20T10:19:29Z</time>
      </trkpt>
      <trkpt lat="-21.19525" lon="55.58332">
        <ele>1623</ele>
        <time>2013-01-20T10:19:39Z</time>
      </trkpt>
      <trkpt lat="-21.1951" lon="55.58324">
        <ele>1623</ele>
        <time>2013-01-20T10:19:49Z</time>
      </trkpt>
      <trkpt lat="-21.19496" lon="55.58313">
        <ele>1623</ele>
        <time>2013-01-20T10:19:59Z</time>
      </trkpt>
      <trkpt lat="-21.1948" lon="55.58306">
        <ele>1622</ele>
        <time>2013-01-20T10:20:09Z</time>
      </trkpt>
      <trkpt lat="-21.19464" lon="55.583">
        <ele>1622</ele>
        <time>2013-01-20T10:20:19Z</time>
      </trkpt>
      <trkpt lat="-21.1945" lon="55.58293">
        <ele>1622</ele>
        <time>2013-01-20T10:20:30Z</time>
      </trkpt>
      <trkpt lat="-21.19432" lon="55.58289">
        <ele>1622</ele>
        <time>2013-01-20T10:20:40Z</time>
      </trkpt>
      <trkpt lat="-21.19411" lon="55.58281">
        <ele>1621</ele>
        <time>2013-01-20T10:20:50Z</time>
      </trkpt>
      <trkpt lat="-21.19399" lon="55.58265">
        <ele>1620</ele>
        <time>2013-01-20T10:21:00Z</time>
      </trkpt>
      <trkpt lat="-21.19393" lon="55.58244">
        <ele>1620</ele>
        <time>2013-01-20T10:21:10Z</time>
      </trkpt>
      <trkpt lat="-21.19385" lon="55.5822">
        <ele>1619</ele>
        <time>2013-01-20T10:21:20Z</time>
      </trkpt>
      <trkpt lat="-21.19391" lon="55.58194">
        <ele>1619</ele>
        <time>2013-01-20T10:21:30Z</time>
      </trkpt>
      <trkpt lat="-21.19403" lon="55.58172">
        <ele>1619</ele>
        <time>2013-01-20T10:21:40Z</time>
      </trkpt>
      <trkpt lat="-21.19416" lon="55.58156">
        <ele>1619</ele>
        <time>2013-01-20T10:21:50Z</time>
      </trkpt>
      <trkpt lat="-21.1943" lon="55.58143">
        <ele>1618</ele>
        <time>2013-01-20T10:22:00Z</time>
      </trkpt>
      <trkpt lat="-21.19445" lon="55.58133">
        <ele>1618</ele>
        <time>2013-01-20T10:22:10Z</time>
      </trkpt>
      <trkpt lat="-21.19463" lon="55.58125">
        <ele>1617</ele>
        <time>2013-01-20T10:22:20Z</time>
      </trkpt>
      <trkpt lat="-21.19479" lon="55.58116">
        <ele>1617</ele>
        <time>2013-01-20T10:22:31Z</time>
      </trkpt>
      <trkpt lat="-21.19486" lon="55.58098">
        <ele>1617</ele>
        <time>2013-01-20T10:22:41Z</time>
      </trkpt>
      <trkpt lat="-21.19494" lon="55.58078">
        <ele>1616</ele>
        <time>2013-01-20T10:22:51Z</time>
      </trkpt>
      <trkpt lat="-21.19508" lon="55.58059">
        <ele>1613</ele>
        <time>2013-01-20T10:23:01Z</time>
      </trkpt>
      <trkpt lat="-21.19527" lon="55.58045">
        <ele>1611</ele>
        <time>2013-01-20T10:23:11Z</time>
      </trkpt>
      <trkpt lat="-21.19547" lon="55.5803">
        <ele>1611</ele>
        <time>2013-01-20T10:23:21Z</time>
      </trkpt>
      <trkpt lat="-21.19566" lon="55.58014">
        <ele>1611</ele>
        <time>2013-01-20T10:23:31Z</time>
      </trkpt>
      <trkpt lat="-21.19584" lon="55.57997">
        <ele>1611</ele>
        <time>2013-01-20T10:23:41Z</time>
      </trkpt>
      <trkpt lat="-21.19601" lon="55.57979">
        <ele>1610</ele>
        <time>2013-01-20T10:23:51Z</time>
      </trkpt>
      <trkpt lat="-21.19616" lon="55.57962">
        <ele>1611</ele>
        <time>2013-01-20T10:24:01Z</time>
      </trkpt>
      <trkpt lat="-21.19627" lon="55.5795">
        <ele>1610</ele>
        <time>2013-01-20T10:24:11Z</time>
      </trkpt>
      <trkpt lat="-21.19639" lon="55.57938">
        <ele>1610</ele>
        <time>2013-01-20T10:24:21Z</time>
      </trkpt>
      <trkpt lat="-21.19651" lon="55.57926">
        <ele>1610</ele>
        <time>2013-01-20T10:24:31Z</time>
      </trkpt>
      <trkpt lat="-21.19645" lon="55.57914">
        <ele>1608</ele>
        <time>2013-01-20T10:24:42Z</time>
      </trkpt>
      <trkpt lat="-21.19651" lon="55.579">
        <ele>1605</ele>
        <time>2013-01-20T10:24:52Z</time>
      </trkpt>
      <trkpt lat="-21.19646" lon="55.57898">
        <ele>1605</ele>
        <time>2013-01-20T10:25:02Z</time>
      </trkpt>
      <trkpt lat="-21.19637" lon="55.5789">
        <ele>1607</ele>
        <time>2013-01-20T10:25:12Z</time>
      </trkpt>
      <trkpt lat="-21.1964" lon="55.57874">
        <ele>1607</ele>
        <time>2013-01-20T10:25:22Z</time>
      </trkpt>
      <trkpt lat="-21.19646" lon="55.57858">
        <ele>1607</ele>
        <time>2013-01-20T10:25:32Z</time>
      </trkpt>
      <trkpt lat="-21.19651" lon="55.57842">
        <ele>1607</ele>
        <time>2013-01-20T10:25:42Z</time>
      </trkpt>
      <trkpt lat="-21.1966" lon="55.57825">
        <ele>1608</ele>
        <time>2013-01-20T10:25:52Z</time>
      </trkpt>
      <trkpt lat="-21.19671" lon="55.57807">
        <ele>1607</ele>
        <time>2013-01-20T10:26:02Z</time>
      </trkpt>
      <trkpt lat="-21.19684" lon="55.57789">
        <ele>1606</ele>
        <time>2013-01-20T10:26:12Z</time>
      </trkpt>
      <trkpt lat="-21.19693" lon="55.57773">
        <ele>1604</ele>
        <time>2013-01-20T10:26:22Z</time>
      </trkpt>
      <trkpt lat="-21.19703" lon="55.57754">
        <ele>1603</ele>
        <time>2013-01-20T10:26:32Z</time>
      </trkpt>
      <trkpt lat="-21.19712" lon="55.57735">
        <ele>1602</ele>
        <time>2013-01-20T10:26:43Z</time>
      </trkpt>
      <trkpt lat="-21.1972" lon="55.5771">
        <ele>1601</ele>
        <time>2013-01-20T10:26:53Z</time>
      </trkpt>
      <trkpt lat="-21.19726" lon="55.57686">
        <ele>1599</ele>
        <time>2013-01-20T10:27:03Z</time>
      </trkpt>
      <trkpt lat="-21.19732" lon="55.57661">
        <ele>1598</ele>
        <time>2013-01-20T10:27:13Z</time>
      </trkpt>
      <trkpt lat="-21.19736" lon="55.57643">
        <ele>1597</ele>
        <time>2013-01-20T10:27:23Z</time>
      </trkpt>
      <trkpt lat="-21.19744" lon="55.57629">
        <ele>1598</ele>
        <time>2013-01-20T10:27:33Z</time>
      </trkpt>
      <trkpt lat="-21.19754" lon="55.57613">
        <ele>1596</ele>
        <time>2013-01-20T10:27:43Z</time>
      </trkpt>
      <trkpt lat="-21.19764" lon="55.57595">
        <ele>1594</ele>
        <time>2013-01-20T10:27:53Z</time>
      </trkpt>
      <trkpt lat="-21.19773" lon="55.57574">
        <ele>1593</ele>
        <time>2013-01-20T10:28:03Z</time>
      </trkpt>
      <trkpt lat="-21.19781" lon="55.57553">
        <ele>1591</ele>
        <time>2013-01-20T10:28:13Z</time>
      </trkpt>
      <trkpt lat="-21.1979" lon="55.57534">
        <ele>1591</ele>
        <time>2013-01-20T10:28:23Z</time>
      </trkpt>
      <trkpt lat="-21.19798" lon="55.57513">
        <ele>1588</ele>
        <time>2013-01-20T10:28:33Z</time>
      </trkpt>
      <trkpt lat="-21.19796" lon="55.57493">
        <ele>1585</ele>
        <time>2013-01-20T10:28:43Z</time>
      </trkpt>
      <trkpt lat="-21.1979" lon="55.57471">
        <ele>1584</ele>
        <time>2013-01-20T10:28:53Z</time>
      </trkpt>
      <trkpt lat="-21.19782" lon="55.57453">
        <ele>1583</ele>
        <time>2013-01-20T10:29:03Z</time>
      </trkpt>
      <trkpt lat="-21.19774" lon="55.57436">
        <ele>1581</ele>
        <time>2013-01-20T10:29:13Z</time>
      </trkpt>
      <trkpt lat="-21.19769" lon="55.57419">
        <ele>1581</ele>
        <time>2013-01-20T10:29:24Z</time>
      </trkpt>
      <trkpt lat="-21.19766" lon="55.57399">
        <ele>1581</ele>
        <time>2013-01-20T10:29:34Z</time>
      </trkpt>
      <trkpt lat="-21.19764" lon="55.57383">
        <ele>1581</ele>
        <time>2013-01-20T10:29:44Z</time>
      </trkpt>
      <trkpt lat="-21.19769" lon="55.57366">
        <ele>1580</ele>
        <time>2013-01-20T10:29:54Z</time>
      </trkpt>
      <trkpt lat="-21.1977" lon="55.57349">
        <ele>1580</ele>
        <time>2013-01-20T10:30:04Z</time>
      </trkpt>
      <trkpt lat="-21.19777" lon="55.57334">
        <ele>1581</ele>
        <time>2013-01-20T10:30:14Z</time>
      </trkpt>
      <trkpt lat="-21.19785" lon="55.5732">
        <ele>1580</ele>
        <time>2013-01-20T10:30:24Z</time>
      </trkpt>
      <trkpt lat="-21.19793" lon="55.57304">
        <ele>1580</ele>
        <time>2013-01-20T10:30:34Z</time>
      </trkpt>
      <trkpt lat="-21.19802" lon="55.57289">
        <ele>1580</ele>
        <time>2013-01-20T10:30:44Z</time>
      </trkpt>
      <trkpt lat="-21.19814" lon="55.57277">
        <ele>1580</ele>
        <time>2013-01-20T10:30:54Z</time>
      </trkpt>
      <trkpt lat="-21.19827" lon="55.57265">
        <ele>1580</ele>
        <time>2013-01-20T10:31:04Z</time>
      </trkpt>
      <trkpt lat="-21.1984" lon="55.57254">
        <ele>1578</ele>
        <time>2013-01-20T10:31:14Z</time>
      </trkpt>
      <trkpt lat="-21.19852" lon="55.57245">
        <ele>1578</ele>
        <time>2013-01-20T10:31:24Z</time>
      </trkpt>
      <trkpt lat="-21.19865" lon="55.57238">
        <ele>1577</ele>
        <time>2013-01-20T10:31:34Z</time>
      </trkpt>
      <trkpt lat="-21.19877" lon="55.57228">
        <ele>1577</ele>
        <time>2013-01-20T10:31:44Z</time>
      </trkpt>
      <trkpt lat="-21.19888" lon="55.57215">
        <ele>1576</ele>
        <time>2013-01-20T10:31:54Z</time>
      </trkpt>
      <trkpt lat="-21.19896" lon="55.57202">
        <ele>1576</ele>
        <time>2013-01-20T10:32:04Z</time>
      </trkpt>
      <trkpt lat="-21.19897" lon="55.57185">
        <ele>1576</ele>
        <time>2013-01-20T10:32:15Z</time>
      </trkpt>
      <trkpt lat="-21.1989" lon="55.57169">
        <ele>1577</ele>
        <time>2013-01-20T10:32:25Z</time>
      </trkpt>
      <trkpt lat="-21.19888" lon="55.57153">
        <ele>1576</ele>
        <time>2013-01-20T10:32:35Z</time>
      </trkpt>
      <trkpt lat="-21.19904" lon="55.5715">
        <ele>1575</ele>
        <time>2013-01-20T10:32:45Z</time>
      </trkpt>
      <trkpt lat="-21.19922" lon="55.57154">
        <ele>1574</ele>
        <time>2013-01-20T10:32:55Z</time>
      </trkpt>
      <trkpt lat="-21.19937" lon="55.57158">
        <ele>1576</ele>
        <time>2013-01-20T10:33:05Z</time>
      </trkpt>
      <trkpt lat="-21.19953" lon="55.57161">
        <ele>1576</ele>
        <time>2013-01-20T10:33:15Z</time>
      </trkpt>
      <trkpt lat="-21.19968" lon="55.57165">
        <ele>1577</ele>
        <time>2013-01-20T10:33:25Z</time>
      </trkpt>
      <trkpt lat="-21.19985" lon="55.57169">
        <ele>1577</ele>
        <time>2013-01-20T10:33:35Z</time>
      </trkpt>
      <trkpt lat="-21.20001" lon="55.57172">
        <ele>1577</ele>
        <time>2013-01-20T10:33:45Z</time>
      </trkpt>
      <trkpt lat="-21.20019" lon="55.57177">
        <ele>1576</ele>
        <time>2013-01-20T10:33:55Z</time>
      </trkpt>
      <trkpt lat="-21.20039" lon="55.57182">
        <ele>1575</ele>
        <time>2013-01-20T10:34:05Z</time>
      </trkpt>
      <trkpt lat="-21.20059" lon="55.57187">
        <ele>1575</ele>
        <time>2013-01-20T10:34:15Z</time>
      </trkpt>
      <trkpt lat="-21.20078" lon="55.57193">
        <ele>1574</ele>
        <time>2013-01-20T10:34:26Z</time>
      </trkpt>
      <trkpt lat="-21.20104" lon="55.57198">
        <ele>1573</ele>
        <time>2013-01-20T10:34:36Z</time>
      </trkpt>
      <trkpt lat="-21.20128" lon="55.57201">
        <ele>1573</ele>
        <time>2013-01-20T10:34:46Z</time>
      </trkpt>
      <trkpt lat="-21.2015" lon="55.57206">
        <ele>1573</ele>
        <time>2013-01-20T10:34:56Z</time>
      </trkpt>
      <trkpt lat="-21.20168" lon="55.57213">
        <ele>1574</ele>
        <time>2013-01-20T10:35:06Z</time>
      </trkpt>
      <trkpt lat="-21.20185" lon="55.57205">
        <ele>1574</ele>
        <time>2013-01-20T10:35:16Z</time>
      </trkpt>
      <trkpt lat="-21.20202" lon="55.5719">
        <ele>1573</ele>
        <time>2013-01-20T10:35:26Z</time>
      </trkpt>
      <trkpt lat="-21.2022" lon="55.57173">
        <ele>1570</ele>
        <time>2013-01-20T10:35:36Z</time>
      </trkpt>
      <trkpt lat="-21.20234" lon="55.57155">
        <ele>1568</ele>
        <time>2013-01-20T10:35:46Z</time>
      </trkpt>
      <trkpt lat="-21.20249" lon="55.57137">
        <ele>1567</ele>
        <time>2013-01-20T10:35:56Z</time>
      </trkpt>
      <trkpt lat="-21.20267" lon="55.57122">
        <ele>1566</ele>
        <time>2013-01-20T10:36:06Z</time>
      </trkpt>
      <trkpt lat="-21.2029" lon="55.57124">
        <ele>1565</ele>
        <time>2013-01-20T10:36:16Z</time>
      </trkpt>
      <trkpt lat="-21.20309" lon="55.57138">
        <ele>1565</ele>
        <time>2013-01-20T10:36:26Z</time>
      </trkpt>
      <trkpt lat="-21.20319" lon="55.5716">
        <ele>1564</ele>
        <time>2013-01-20T10:36:36Z</time>
      </trkpt>
      <trkpt lat="-21.20322" lon="55.57181">
        <ele>1565</ele>
        <time>2013-01-20T10:36:46Z</time>
      </trkpt>
      <trkpt lat="-21.20333" lon="55.57197">
        <ele>1566</ele>
        <time>2013-01-20T10:36:56Z</time>
      </trkpt>
      <trkpt lat="-21.20351" lon="55.57206">
        <ele>1567</ele>
        <time>2013-01-20T10:37:06Z</time>
      </trkpt>
      <trkpt lat="-21.20372" lon="55.57215">
        <ele>1567</ele>
        <time>2013-01-20T10:37:16Z</time>
      </trkpt>
      <trkpt lat="-21.2039" lon="55.57226">
        <ele>1567</ele>
        <time>2013-01-20T10:37:27Z</time>
      </trkpt>
      <trkpt lat="-21.2041" lon="55.5723">
        <ele>1566</ele>
        <time>2013-01-20T10:37:37Z</time>
      </trkpt>
      <trkpt lat="-21.20423" lon="55.57209">
        <ele>1565</ele>
        <time>2013-01-20T10:37:47Z</time>
      </trkpt>
      <trkpt lat="-21.20435" lon="55.57188">
        <ele>1565</ele>
        <time>2013-01-20T10:37:57Z</time>
      </trkpt>
      <trkpt lat="-21.2045" lon="55.57166">
        <ele>1563</ele>
        <time>2013-01-20T10:38:07Z</time>
      </trkpt>
      <trkpt lat="-21.20465" lon="55.57146">
        <ele>1561</ele>
        <time>2013-01-20T10:38:17Z</time>
      </trkpt>
      <trkpt lat="-21.20478" lon="55.57123">
        <ele>1560</ele>
        <time>2013-01-20T10:38:27Z</time>
      </trkpt>
      <trkpt lat="-21.20466" lon="55.57099">
        <ele>1558</ele>
        <time>2013-01-20T10:38:37Z</time>
      </trkpt>
      <trkpt lat="-21.20452" lon="55.57074">
        <ele>1558</ele>
        <time>2013-01-20T10:38:47Z</time>
      </trkpt>
      <trkpt lat="-21.20433" lon="55.57052">
        <ele>1556</ele>
        <time>2013-01-20T10:38:57Z</time>
      </trkpt>
      <trkpt lat="-21.20419" lon="55.57027">
        <ele>1554</ele>
        <time>2013-01-20T10:39:07Z</time>
      </trkpt>
      <trkpt lat="-21.2043" lon="55.57002">
        <ele>1553</ele>
        <time>2013-01-20T10:39:17Z</time>
      </trkpt>
      <trkpt lat="-21.2045" lon="55.56978">
        <ele>1551</ele>
        <time>2013-01-20T10:39:28Z</time>
      </trkpt>
      <trkpt lat="-21.20473" lon="55.56961">
        <ele>1549</ele>
        <time>2013-01-20T10:39:38Z</time>
      </trkpt>
      <trkpt lat="-21.20499" lon="55.56951">
        <ele>1547</ele>
        <time>2013-01-20T10:39:48Z</time>
      </trkpt>
      <trkpt lat="-21.20526" lon="55.56943">
        <ele>1545</ele>
        <time>2013-01-20T10:39:58Z</time>
      </trkpt>
      <trkpt lat="-21.20538" lon="55.56923">
        <ele>1543</ele>
        <time>2013-01-20T10:40:08Z</time>
      </trkpt>
      <trkpt lat="-21.20521" lon="55.56904">
        <ele>1540</ele>
        <time>2013-01-20T10:40:18Z</time>
      </trkpt>
      <trkpt lat="-21.20505" lon="55.56885">
        <ele>1541</ele>
        <time>2013-01-20T10:40:28Z</time>
      </trkpt>
      <trkpt lat="-21.2051" lon="55.56872">
        <ele>1539</ele>
        <time>2013-01-20T10:40:38Z</time>
      </trkpt>
      <trkpt lat="-21.20532" lon="55.5686">
        <ele>1538</ele>
        <time>2013-01-20T10:40:48Z</time>
      </trkpt>
      <trkpt lat="-21.20547" lon="55.56855">
        <ele>1536</ele>
        <time>2013-01-20T10:40:58Z</time>
      </trkpt>
      <trkpt lat="-21.20533" lon="55.56834">
        <ele>1536</ele>
        <time>2013-01-20T10:41:08Z</time>
      </trkpt>
      <trkpt lat="-21.20519" lon="55.56813">
        <ele>1535</ele>
        <time>2013-01-20T10:41:18Z</time>
      </trkpt>
      <trkpt lat="-21.20509" lon="55.56792">
        <ele>1535</ele>
        <time>2013-01-20T10:41:29Z</time>
      </trkpt>
      <trkpt lat="-21.20515" lon="55.5677">
        <ele>1535</ele>
        <time>2013-01-20T10:41:39Z</time>
      </trkpt>
      <trkpt lat="-21.20534" lon="55.56752">
        <ele>1535</ele>
        <time>2013-01-20T10:41:49Z</time>
      </trkpt>
      <trkpt lat="-21.20557" lon="55.5675">
        <ele>1535</ele>
        <time>2013-01-20T10:41:59Z</time>
      </trkpt>
      <trkpt lat="-21.20575" lon="55.56765">
        <ele>1535</ele>
        <time>2013-01-20T10:42:09Z</time>
      </trkpt>
      <trkpt lat="-21.20591" lon="55.56782">
        <ele>1535</ele>
        <time>2013-01-20T10:42:19Z</time>
      </trkpt>
      <trkpt lat="-21.20606" lon="55.56799">
        <ele>1535</ele>
        <time>2013-01-20T10:42:29Z</time>
      </trkpt>
      <trkpt lat="-21.2062" lon="55.56817">
        <ele>1535</ele>
        <time>2013-01-20T10:42:39Z</time>
      </trkpt>
      <trkpt lat="-21.20633" lon="55.56835">
        <ele>1535</ele>
        <time>2013-01-20T10:42:49Z</time>
      </trkpt>
      <trkpt lat="-21.20631" lon="55.56855">
        <ele>1536</ele>
        <time>2013-01-20T10:42:59Z</time>
      </trkpt>
      <trkpt lat="-21.20616" lon="55.56873">
        <ele>1535</ele>
        <time>2013-01-20T10:43:09Z</time>
      </trkpt>
      <trkpt lat="-21.20594" lon="55.56883">
        <ele>1536</ele>
        <time>2013-01-20T10:43:19Z</time>
      </trkpt>
      <trkpt lat="-21.20572" lon="55.56873">
        <ele>1535</ele>
        <time>2013-01-20T10:43:30Z</time>
      </trkpt>
      <trkpt lat="-21.20566" lon="55.5687">
        <ele>1535</ele>
        <time>2013-01-20T10:43:40Z</time>
      </trkpt>
      <trkpt lat="-21.20561" lon="55.56865">
        <ele>1535</ele>
        <time>2013-01-20T10:43:41Z</time>
      </trkpt>
    </trkseg>
  </trk>
</gpx>